<?xml version="1.0" encoding="UTF-8" standalone="no" ?>
<gpx xmlns="http://www.topografix.com/GPX/1/1" xmlns:xsi="http://www.w3.org/2001/XMLSchema-instance" xsi:schemaLocation="http://www.topografix.com/GPX/1/1 http://www.topografix.com/GPX/1/1/gpx.xsd" version="1.1" creator="VisuGPX - https://www.visugpx.com">
  <metadata>
    <name>Table d'orientation de Chassignot</name>
    <desc><![CDATA[Trace AlpineQuest 23/09/2022 09:01:43]]></desc>
  </metadata>
  <trk>
    <name><![CDATA[Table d'orientation de Chassignot_1]]></name>
    <trkseg>
      <trkpt lat="46.53774" lon="4.53327">
        <ele>240.5</ele>
        <time>2022-09-23T07:01:43Z</time>
      </trkpt>
      <trkpt lat="46.53781" lon="4.5333">
        <ele>245.6</ele>
        <time>2022-09-23T07:07:11Z</time>
      </trkpt>
      <trkpt lat="46.53787" lon="4.53335">
        <ele>246.9</ele>
        <time>2022-09-23T07:07:17Z</time>
      </trkpt>
      <trkpt lat="46.53794" lon="4.5334">
        <ele>246.5</ele>
        <time>2022-09-23T07:07:24Z</time>
      </trkpt>
      <trkpt lat="46.538" lon="4.53344">
        <ele>246.2</ele>
        <time>2022-09-23T07:07:29Z</time>
      </trkpt>
      <trkpt lat="46.53807" lon="4.53348">
        <ele>246</ele>
        <time>2022-09-23T07:07:35Z</time>
      </trkpt>
      <trkpt lat="46.53813" lon="4.53354">
        <ele>246.1</ele>
        <time>2022-09-23T07:07:41Z</time>
      </trkpt>
      <trkpt lat="46.53819" lon="4.53359">
        <ele>246.6</ele>
        <time>2022-09-23T07:07:46Z</time>
      </trkpt>
      <trkpt lat="46.53825" lon="4.53364">
        <ele>247.4</ele>
        <time>2022-09-23T07:07:52Z</time>
      </trkpt>
      <trkpt lat="46.53832" lon="4.53367">
        <ele>245.8</ele>
        <time>2022-09-23T07:07:58Z</time>
      </trkpt>
      <trkpt lat="46.53839" lon="4.53369">
        <ele>245.401</ele>
        <time>2022-09-23T07:08:03Z</time>
      </trkpt>
      <trkpt lat="46.53845" lon="4.53371">
        <ele>243.301</ele>
        <time>2022-09-23T07:08:09Z</time>
      </trkpt>
      <trkpt lat="46.53851" lon="4.53376">
        <ele>246.001</ele>
        <time>2022-09-23T07:08:14Z</time>
      </trkpt>
      <trkpt lat="46.53858" lon="4.53381">
        <ele>246.401</ele>
        <time>2022-09-23T07:08:20Z</time>
      </trkpt>
      <trkpt lat="46.53865" lon="4.53385">
        <ele>245.901</ele>
        <time>2022-09-23T07:08:25Z</time>
      </trkpt>
      <trkpt lat="46.53872" lon="4.53388">
        <ele>244.401</ele>
        <time>2022-09-23T07:08:32Z</time>
      </trkpt>
      <trkpt lat="46.53878" lon="4.53391">
        <ele>244.001</ele>
        <time>2022-09-23T07:08:37Z</time>
      </trkpt>
      <trkpt lat="46.53885" lon="4.53395">
        <ele>244.401</ele>
        <time>2022-09-23T07:08:43Z</time>
      </trkpt>
      <trkpt lat="46.53892" lon="4.53397">
        <ele>243.601</ele>
        <time>2022-09-23T07:08:49Z</time>
      </trkpt>
      <trkpt lat="46.53899" lon="4.534">
        <ele>243.601</ele>
        <time>2022-09-23T07:08:54Z</time>
      </trkpt>
      <trkpt lat="46.53907" lon="4.53403">
        <ele>243.701</ele>
        <time>2022-09-23T07:09:01Z</time>
      </trkpt>
      <trkpt lat="46.53915" lon="4.53407">
        <ele>245.401</ele>
        <time>2022-09-23T07:09:06Z</time>
      </trkpt>
      <trkpt lat="46.53922" lon="4.5341">
        <ele>245.101</ele>
        <time>2022-09-23T07:09:12Z</time>
      </trkpt>
      <trkpt lat="46.53929" lon="4.53415">
        <ele>245.901</ele>
        <time>2022-09-23T07:09:17Z</time>
      </trkpt>
      <trkpt lat="46.53935" lon="4.53418">
        <ele>246.901</ele>
        <time>2022-09-23T07:09:22Z</time>
      </trkpt>
      <trkpt lat="46.53942" lon="4.53423">
        <ele>247.701</ele>
        <time>2022-09-23T07:09:28Z</time>
      </trkpt>
      <trkpt lat="46.53949" lon="4.53428">
        <ele>247.101</ele>
        <time>2022-09-23T07:09:33Z</time>
      </trkpt>
      <trkpt lat="46.53955" lon="4.53431">
        <ele>246.601</ele>
        <time>2022-09-23T07:09:39Z</time>
      </trkpt>
      <trkpt lat="46.53963" lon="4.53434">
        <ele>245.501</ele>
        <time>2022-09-23T07:09:45Z</time>
      </trkpt>
      <trkpt lat="46.5397" lon="4.53438">
        <ele>247.801</ele>
        <time>2022-09-23T07:09:52Z</time>
      </trkpt>
      <trkpt lat="46.53978" lon="4.53441">
        <ele>249.101</ele>
        <time>2022-09-23T07:09:57Z</time>
      </trkpt>
      <trkpt lat="46.53986" lon="4.53443">
        <ele>248.801</ele>
        <time>2022-09-23T07:10:02Z</time>
      </trkpt>
      <trkpt lat="46.53992" lon="4.53443">
        <ele>247.101</ele>
        <time>2022-09-23T07:10:07Z</time>
      </trkpt>
      <trkpt lat="46.54001" lon="4.53442">
        <ele>245.601</ele>
        <time>2022-09-23T07:10:13Z</time>
      </trkpt>
      <trkpt lat="46.54009" lon="4.53442">
        <ele>242.301</ele>
        <time>2022-09-23T07:10:20Z</time>
      </trkpt>
      <trkpt lat="46.54017" lon="4.53442">
        <ele>242.501</ele>
        <time>2022-09-23T07:10:25Z</time>
      </trkpt>
      <trkpt lat="46.54023" lon="4.53441">
        <ele>244.101</ele>
        <time>2022-09-23T07:10:31Z</time>
      </trkpt>
      <trkpt lat="46.54031" lon="4.53441">
        <ele>243.901</ele>
        <time>2022-09-23T07:10:37Z</time>
      </trkpt>
      <trkpt lat="46.54038" lon="4.53443">
        <ele>243.501</ele>
        <time>2022-09-23T07:10:42Z</time>
      </trkpt>
      <trkpt lat="46.54044" lon="4.53446">
        <ele>244.401</ele>
        <time>2022-09-23T07:10:48Z</time>
      </trkpt>
      <trkpt lat="46.54052" lon="4.53447">
        <ele>244.801</ele>
        <time>2022-09-23T07:10:53Z</time>
      </trkpt>
      <trkpt lat="46.5406" lon="4.5345">
        <ele>243.401</ele>
        <time>2022-09-23T07:10:58Z</time>
      </trkpt>
      <trkpt lat="46.54066" lon="4.53452">
        <ele>241.201</ele>
        <time>2022-09-23T07:11:03Z</time>
      </trkpt>
      <trkpt lat="46.54075" lon="4.53456">
        <ele>240.301</ele>
        <time>2022-09-23T07:11:09Z</time>
      </trkpt>
      <trkpt lat="46.54081" lon="4.53462">
        <ele>239.901</ele>
        <time>2022-09-23T07:11:15Z</time>
      </trkpt>
      <trkpt lat="46.54087" lon="4.53469">
        <ele>238.501</ele>
        <time>2022-09-23T07:11:21Z</time>
      </trkpt>
      <trkpt lat="46.54091" lon="4.53477">
        <ele>236.601</ele>
        <time>2022-09-23T07:11:28Z</time>
      </trkpt>
      <trkpt lat="46.54095" lon="4.53486">
        <ele>236.501</ele>
        <time>2022-09-23T07:11:34Z</time>
      </trkpt>
      <trkpt lat="46.54098" lon="4.53496">
        <ele>235.801</ele>
        <time>2022-09-23T07:11:41Z</time>
      </trkpt>
      <trkpt lat="46.54101" lon="4.53506">
        <ele>235.601</ele>
        <time>2022-09-23T07:11:46Z</time>
      </trkpt>
      <trkpt lat="46.54103" lon="4.53515">
        <ele>236.301</ele>
        <time>2022-09-23T07:11:51Z</time>
      </trkpt>
      <trkpt lat="46.54107" lon="4.53524">
        <ele>236.701</ele>
        <time>2022-09-23T07:11:57Z</time>
      </trkpt>
      <trkpt lat="46.54108" lon="4.53534">
        <ele>236.301</ele>
        <time>2022-09-23T07:12:03Z</time>
      </trkpt>
      <trkpt lat="46.54107" lon="4.53545">
        <ele>234.801</ele>
        <time>2022-09-23T07:12:09Z</time>
      </trkpt>
      <trkpt lat="46.54106" lon="4.53556">
        <ele>233.901</ele>
        <time>2022-09-23T07:12:14Z</time>
      </trkpt>
      <trkpt lat="46.54104" lon="4.53565">
        <ele>233.201</ele>
        <time>2022-09-23T07:12:19Z</time>
      </trkpt>
      <trkpt lat="46.54101" lon="4.53574">
        <ele>231.101</ele>
        <time>2022-09-23T07:12:25Z</time>
      </trkpt>
      <trkpt lat="46.54099" lon="4.53584">
        <ele>230.201</ele>
        <time>2022-09-23T07:12:30Z</time>
      </trkpt>
      <trkpt lat="46.54098" lon="4.53595">
        <ele>229.401</ele>
        <time>2022-09-23T07:12:36Z</time>
      </trkpt>
      <trkpt lat="46.54096" lon="4.53605">
        <ele>228.901</ele>
        <time>2022-09-23T07:12:41Z</time>
      </trkpt>
      <trkpt lat="46.54093" lon="4.53615">
        <ele>229.801</ele>
        <time>2022-09-23T07:12:46Z</time>
      </trkpt>
      <trkpt lat="46.5409" lon="4.53625">
        <ele>229.901</ele>
        <time>2022-09-23T07:12:54Z</time>
      </trkpt>
      <trkpt lat="46.54087" lon="4.53634">
        <ele>230.401</ele>
        <time>2022-09-23T07:13:00Z</time>
      </trkpt>
      <trkpt lat="46.54084" lon="4.53644">
        <ele>230.701</ele>
        <time>2022-09-23T07:13:05Z</time>
      </trkpt>
      <trkpt lat="46.54083" lon="4.53653">
        <ele>230.401</ele>
        <time>2022-09-23T07:13:10Z</time>
      </trkpt>
      <trkpt lat="46.54082" lon="4.53665">
        <ele>231.701</ele>
        <time>2022-09-23T07:13:15Z</time>
      </trkpt>
      <trkpt lat="46.5408" lon="4.53676">
        <ele>231.601</ele>
        <time>2022-09-23T07:13:21Z</time>
      </trkpt>
      <trkpt lat="46.54079" lon="4.53687">
        <ele>229.301</ele>
        <time>2022-09-23T07:13:27Z</time>
      </trkpt>
      <trkpt lat="46.54079" lon="4.53697">
        <ele>230.201</ele>
        <time>2022-09-23T07:13:33Z</time>
      </trkpt>
      <trkpt lat="46.54081" lon="4.53708">
        <ele>232.501</ele>
        <time>2022-09-23T07:13:41Z</time>
      </trkpt>
      <trkpt lat="46.54084" lon="4.53716">
        <ele>233.301</ele>
        <time>2022-09-23T07:13:46Z</time>
      </trkpt>
      <trkpt lat="46.54087" lon="4.53726">
        <ele>233.901</ele>
        <time>2022-09-23T07:13:51Z</time>
      </trkpt>
      <trkpt lat="46.54092" lon="4.53736">
        <ele>233.801</ele>
        <time>2022-09-23T07:13:57Z</time>
      </trkpt>
      <trkpt lat="46.54099" lon="4.53743">
        <ele>234.601</ele>
        <time>2022-09-23T07:14:03Z</time>
      </trkpt>
      <trkpt lat="46.54105" lon="4.53748">
        <ele>234.902</ele>
        <time>2022-09-23T07:14:09Z</time>
      </trkpt>
      <trkpt lat="46.54112" lon="4.53753">
        <ele>234.802</ele>
        <time>2022-09-23T07:14:14Z</time>
      </trkpt>
      <trkpt lat="46.54118" lon="4.53758">
        <ele>234.702</ele>
        <time>2022-09-23T07:14:19Z</time>
      </trkpt>
      <trkpt lat="46.54126" lon="4.5376">
        <ele>234.702</ele>
        <time>2022-09-23T07:14:25Z</time>
      </trkpt>
      <trkpt lat="46.54133" lon="4.53763">
        <ele>234.602</ele>
        <time>2022-09-23T07:14:31Z</time>
      </trkpt>
      <trkpt lat="46.5414" lon="4.53765">
        <ele>234.202</ele>
        <time>2022-09-23T07:14:37Z</time>
      </trkpt>
      <trkpt lat="46.54148" lon="4.53767">
        <ele>234.302</ele>
        <time>2022-09-23T07:14:42Z</time>
      </trkpt>
      <trkpt lat="46.54155" lon="4.53768">
        <ele>234.602</ele>
        <time>2022-09-23T07:14:47Z</time>
      </trkpt>
      <trkpt lat="46.54161" lon="4.53775">
        <ele>235.502</ele>
        <time>2022-09-23T07:14:53Z</time>
      </trkpt>
      <trkpt lat="46.54168" lon="4.53782">
        <ele>235.802</ele>
        <time>2022-09-23T07:15:00Z</time>
      </trkpt>
      <trkpt lat="46.54171" lon="4.53791">
        <ele>235.702</ele>
        <time>2022-09-23T07:15:06Z</time>
      </trkpt>
      <trkpt lat="46.54174" lon="4.53801">
        <ele>236.402</ele>
        <time>2022-09-23T07:15:11Z</time>
      </trkpt>
      <trkpt lat="46.54178" lon="4.5381">
        <ele>237.202</ele>
        <time>2022-09-23T07:15:17Z</time>
      </trkpt>
      <trkpt lat="46.54182" lon="4.5382">
        <ele>235.302</ele>
        <time>2022-09-23T07:15:24Z</time>
      </trkpt>
      <trkpt lat="46.54186" lon="4.53829">
        <ele>233.602</ele>
        <time>2022-09-23T07:15:30Z</time>
      </trkpt>
      <trkpt lat="46.54192" lon="4.53836">
        <ele>232.602</ele>
        <time>2022-09-23T07:15:36Z</time>
      </trkpt>
      <trkpt lat="46.54198" lon="4.5384">
        <ele>229.902</ele>
        <time>2022-09-23T07:15:43Z</time>
      </trkpt>
      <trkpt lat="46.54205" lon="4.53842">
        <ele>230.402</ele>
        <time>2022-09-23T07:15:49Z</time>
      </trkpt>
      <trkpt lat="46.54211" lon="4.53846">
        <ele>233.002</ele>
        <time>2022-09-23T07:15:56Z</time>
      </trkpt>
      <trkpt lat="46.54218" lon="4.53846">
        <ele>232.802</ele>
        <time>2022-09-23T07:16:01Z</time>
      </trkpt>
      <trkpt lat="46.54225" lon="4.53846">
        <ele>233.702</ele>
        <time>2022-09-23T07:16:07Z</time>
      </trkpt>
      <trkpt lat="46.54232" lon="4.53848">
        <ele>235.502</ele>
        <time>2022-09-23T07:16:14Z</time>
      </trkpt>
      <trkpt lat="46.54239" lon="4.53849">
        <ele>233.602</ele>
        <time>2022-09-23T07:16:20Z</time>
      </trkpt>
      <trkpt lat="46.54246" lon="4.5385">
        <ele>232.802</ele>
        <time>2022-09-23T07:16:25Z</time>
      </trkpt>
      <trkpt lat="46.54253" lon="4.53848">
        <ele>232.502</ele>
        <time>2022-09-23T07:16:31Z</time>
      </trkpt>
      <trkpt lat="46.54259" lon="4.5385">
        <ele>234.002</ele>
        <time>2022-09-23T07:16:38Z</time>
      </trkpt>
      <trkpt lat="46.54267" lon="4.5385">
        <ele>234.602</ele>
        <time>2022-09-23T07:16:44Z</time>
      </trkpt>
      <trkpt lat="46.54274" lon="4.53849">
        <ele>235.302</ele>
        <time>2022-09-23T07:16:49Z</time>
      </trkpt>
      <trkpt lat="46.54281" lon="4.53847">
        <ele>237.602</ele>
        <time>2022-09-23T07:16:55Z</time>
      </trkpt>
      <trkpt lat="46.54287" lon="4.53849">
        <ele>239.602</ele>
        <time>2022-09-23T07:17:02Z</time>
      </trkpt>
      <trkpt lat="46.54294" lon="4.53849">
        <ele>240.302</ele>
        <time>2022-09-23T07:17:08Z</time>
      </trkpt>
      <trkpt lat="46.54301" lon="4.5385">
        <ele>241.602</ele>
        <time>2022-09-23T07:17:13Z</time>
      </trkpt>
      <trkpt lat="46.54307" lon="4.53853">
        <ele>242.402</ele>
        <time>2022-09-23T07:17:18Z</time>
      </trkpt>
      <trkpt lat="46.54315" lon="4.53855">
        <ele>242.302</ele>
        <time>2022-09-23T07:17:23Z</time>
      </trkpt>
      <trkpt lat="46.54322" lon="4.53858">
        <ele>242.102</ele>
        <time>2022-09-23T07:17:28Z</time>
      </trkpt>
      <trkpt lat="46.54329" lon="4.53862">
        <ele>242.802</ele>
        <time>2022-09-23T07:17:33Z</time>
      </trkpt>
      <trkpt lat="46.54335" lon="4.53865">
        <ele>242.202</ele>
        <time>2022-09-23T07:17:39Z</time>
      </trkpt>
      <trkpt lat="46.54342" lon="4.53868">
        <ele>243.302</ele>
        <time>2022-09-23T07:17:45Z</time>
      </trkpt>
      <trkpt lat="46.5435" lon="4.53873">
        <ele>244.002</ele>
        <time>2022-09-23T07:17:50Z</time>
      </trkpt>
      <trkpt lat="46.54357" lon="4.53875">
        <ele>243.202</ele>
        <time>2022-09-23T07:17:56Z</time>
      </trkpt>
      <trkpt lat="46.54364" lon="4.53878">
        <ele>243.902</ele>
        <time>2022-09-23T07:18:01Z</time>
      </trkpt>
      <trkpt lat="46.5437" lon="4.53883">
        <ele>242.902</ele>
        <time>2022-09-23T07:18:08Z</time>
      </trkpt>
      <trkpt lat="46.54377" lon="4.53888">
        <ele>242.502</ele>
        <time>2022-09-23T07:18:15Z</time>
      </trkpt>
      <trkpt lat="46.54385" lon="4.53894">
        <ele>243.202</ele>
        <time>2022-09-23T07:18:21Z</time>
      </trkpt>
      <trkpt lat="46.54391" lon="4.53901">
        <ele>243.902</ele>
        <time>2022-09-23T07:18:28Z</time>
      </trkpt>
      <trkpt lat="46.54396" lon="4.53908">
        <ele>245.602</ele>
        <time>2022-09-23T07:18:34Z</time>
      </trkpt>
      <trkpt lat="46.54402" lon="4.53916">
        <ele>245.502</ele>
        <time>2022-09-23T07:18:40Z</time>
      </trkpt>
      <trkpt lat="46.54406" lon="4.53923">
        <ele>245.002</ele>
        <time>2022-09-23T07:18:45Z</time>
      </trkpt>
      <trkpt lat="46.54412" lon="4.53929">
        <ele>246.002</ele>
        <time>2022-09-23T07:18:50Z</time>
      </trkpt>
      <trkpt lat="46.54418" lon="4.53936">
        <ele>245.903</ele>
        <time>2022-09-23T07:18:57Z</time>
      </trkpt>
      <trkpt lat="46.54423" lon="4.53944">
        <ele>245.403</ele>
        <time>2022-09-23T07:19:03Z</time>
      </trkpt>
      <trkpt lat="46.54427" lon="4.53951">
        <ele>242.403</ele>
        <time>2022-09-23T07:19:12Z</time>
      </trkpt>
      <trkpt lat="46.54432" lon="4.5396">
        <ele>244.403</ele>
        <time>2022-09-23T07:19:19Z</time>
      </trkpt>
      <trkpt lat="46.54436" lon="4.53968">
        <ele>246.803</ele>
        <time>2022-09-23T07:19:25Z</time>
      </trkpt>
      <trkpt lat="46.54441" lon="4.53976">
        <ele>248.703</ele>
        <time>2022-09-23T07:19:30Z</time>
      </trkpt>
      <trkpt lat="46.54445" lon="4.53983">
        <ele>249.303</ele>
        <time>2022-09-23T07:19:36Z</time>
      </trkpt>
      <trkpt lat="46.5445" lon="4.53992">
        <ele>250.103</ele>
        <time>2022-09-23T07:19:44Z</time>
      </trkpt>
      <trkpt lat="46.54454" lon="4.53999">
        <ele>251.103</ele>
        <time>2022-09-23T07:19:50Z</time>
      </trkpt>
      <trkpt lat="46.54459" lon="4.54008">
        <ele>251.503</ele>
        <time>2022-09-23T07:19:56Z</time>
      </trkpt>
      <trkpt lat="46.54463" lon="4.54017">
        <ele>250.603</ele>
        <time>2022-09-23T07:20:04Z</time>
      </trkpt>
      <trkpt lat="46.54467" lon="4.54026">
        <ele>251.103</ele>
        <time>2022-09-23T07:20:11Z</time>
      </trkpt>
      <trkpt lat="46.54472" lon="4.54034">
        <ele>252.803</ele>
        <time>2022-09-23T07:20:18Z</time>
      </trkpt>
      <trkpt lat="46.54476" lon="4.54042">
        <ele>253.303</ele>
        <time>2022-09-23T07:20:24Z</time>
      </trkpt>
      <trkpt lat="46.54482" lon="4.54048">
        <ele>254.603</ele>
        <time>2022-09-23T07:20:30Z</time>
      </trkpt>
      <trkpt lat="46.54486" lon="4.54055">
        <ele>255.803</ele>
        <time>2022-09-23T07:20:36Z</time>
      </trkpt>
      <trkpt lat="46.54491" lon="4.54063">
        <ele>254.603</ele>
        <time>2022-09-23T07:20:43Z</time>
      </trkpt>
      <trkpt lat="46.54496" lon="4.54071">
        <ele>255.703</ele>
        <time>2022-09-23T07:20:50Z</time>
      </trkpt>
      <trkpt lat="46.54502" lon="4.54078">
        <ele>256.303</ele>
        <time>2022-09-23T07:20:58Z</time>
      </trkpt>
      <trkpt lat="46.54507" lon="4.54085">
        <ele>257.103</ele>
        <time>2022-09-23T07:21:04Z</time>
      </trkpt>
      <trkpt lat="46.54513" lon="4.54091">
        <ele>258.203</ele>
        <time>2022-09-23T07:21:11Z</time>
      </trkpt>
      <trkpt lat="46.54517" lon="4.54098">
        <ele>259.003</ele>
        <time>2022-09-23T07:21:18Z</time>
      </trkpt>
      <trkpt lat="46.54521" lon="4.54106">
        <ele>260.703</ele>
        <time>2022-09-23T07:21:26Z</time>
      </trkpt>
      <trkpt lat="46.54527" lon="4.54112">
        <ele>261.803</ele>
        <time>2022-09-23T07:21:34Z</time>
      </trkpt>
      <trkpt lat="46.54533" lon="4.54118">
        <ele>261.803</ele>
        <time>2022-09-23T07:21:40Z</time>
      </trkpt>
      <trkpt lat="46.54537" lon="4.54126">
        <ele>262.803</ele>
        <time>2022-09-23T07:21:47Z</time>
      </trkpt>
      <trkpt lat="46.54543" lon="4.54131">
        <ele>264.803</ele>
        <time>2022-09-23T07:21:56Z</time>
      </trkpt>
      <trkpt lat="46.54549" lon="4.54137">
        <ele>264.303</ele>
        <time>2022-09-23T07:22:02Z</time>
      </trkpt>
      <trkpt lat="46.54555" lon="4.54143">
        <ele>264.703</ele>
        <time>2022-09-23T07:22:11Z</time>
      </trkpt>
      <trkpt lat="46.5456" lon="4.54149">
        <ele>265.503</ele>
        <time>2022-09-23T07:22:18Z</time>
      </trkpt>
      <trkpt lat="46.54566" lon="4.54154">
        <ele>267.103</ele>
        <time>2022-09-23T07:22:25Z</time>
      </trkpt>
      <trkpt lat="46.54571" lon="4.54161">
        <ele>268.503</ele>
        <time>2022-09-23T07:22:33Z</time>
      </trkpt>
      <trkpt lat="46.54576" lon="4.54167">
        <ele>268.203</ele>
        <time>2022-09-23T07:22:42Z</time>
      </trkpt>
      <trkpt lat="46.54582" lon="4.54174">
        <ele>269.503</ele>
        <time>2022-09-23T07:22:51Z</time>
      </trkpt>
      <trkpt lat="46.54588" lon="4.54179">
        <ele>270.903</ele>
        <time>2022-09-23T07:22:59Z</time>
      </trkpt>
      <trkpt lat="46.54594" lon="4.54184">
        <ele>272.703</ele>
        <time>2022-09-23T07:23:08Z</time>
      </trkpt>
      <trkpt lat="46.54598" lon="4.54191">
        <ele>275.003</ele>
        <time>2022-09-23T07:23:18Z</time>
      </trkpt>
      <trkpt lat="46.54604" lon="4.54198">
        <ele>277.303</ele>
        <time>2022-09-23T07:23:25Z</time>
      </trkpt>
      <trkpt lat="46.54609" lon="4.54203">
        <ele>279.503</ele>
        <time>2022-09-23T07:23:33Z</time>
      </trkpt>
      <trkpt lat="46.54614" lon="4.5421">
        <ele>279.903</ele>
        <time>2022-09-23T07:23:40Z</time>
      </trkpt>
      <trkpt lat="46.5462" lon="4.54217">
        <ele>281.603</ele>
        <time>2022-09-23T07:23:47Z</time>
      </trkpt>
      <trkpt lat="46.54624" lon="4.54226">
        <ele>282.803</ele>
        <time>2022-09-23T07:23:53Z</time>
      </trkpt>
      <trkpt lat="46.54628" lon="4.54234">
        <ele>283.703</ele>
        <time>2022-09-23T07:24:01Z</time>
      </trkpt>
      <trkpt lat="46.54633" lon="4.54242">
        <ele>282.603</ele>
        <time>2022-09-23T07:24:07Z</time>
      </trkpt>
      <trkpt lat="46.54639" lon="4.54248">
        <ele>283.103</ele>
        <time>2022-09-23T07:24:15Z</time>
      </trkpt>
      <trkpt lat="46.54644" lon="4.54254">
        <ele>284.503</ele>
        <time>2022-09-23T07:24:24Z</time>
      </trkpt>
      <trkpt lat="46.54652" lon="4.54257">
        <ele>286.703</ele>
        <time>2022-09-23T07:24:30Z</time>
      </trkpt>
      <trkpt lat="46.5466" lon="4.5426">
        <ele>288.103</ele>
        <time>2022-09-23T07:24:35Z</time>
      </trkpt>
      <trkpt lat="46.54667" lon="4.54261">
        <ele>287.703</ele>
        <time>2022-09-23T07:24:43Z</time>
      </trkpt>
      <trkpt lat="46.54674" lon="4.54263">
        <ele>288.103</ele>
        <time>2022-09-23T07:24:52Z</time>
      </trkpt>
      <trkpt lat="46.54681" lon="4.54266">
        <ele>287.103</ele>
        <time>2022-09-23T07:24:59Z</time>
      </trkpt>
      <trkpt lat="46.54689" lon="4.5427">
        <ele>287.303</ele>
        <time>2022-09-23T07:25:05Z</time>
      </trkpt>
      <trkpt lat="46.54697" lon="4.54274">
        <ele>288.304</ele>
        <time>2022-09-23T07:25:10Z</time>
      </trkpt>
      <trkpt lat="46.54704" lon="4.54279">
        <ele>288.704</ele>
        <time>2022-09-23T07:25:16Z</time>
      </trkpt>
      <trkpt lat="46.5471" lon="4.54285">
        <ele>287.404</ele>
        <time>2022-09-23T07:25:23Z</time>
      </trkpt>
      <trkpt lat="46.54717" lon="4.54289">
        <ele>287.904</ele>
        <time>2022-09-23T07:25:30Z</time>
      </trkpt>
      <trkpt lat="46.54722" lon="4.54297">
        <ele>290.404</ele>
        <time>2022-09-23T07:25:37Z</time>
      </trkpt>
      <trkpt lat="46.54727" lon="4.54305">
        <ele>292.304</ele>
        <time>2022-09-23T07:27:33Z</time>
      </trkpt>
      <trkpt lat="46.54727" lon="4.54315">
        <ele>292.704</ele>
        <time>2022-09-23T07:27:39Z</time>
      </trkpt>
      <trkpt lat="46.54725" lon="4.54326">
        <ele>293.004</ele>
        <time>2022-09-23T07:27:45Z</time>
      </trkpt>
      <trkpt lat="46.54723" lon="4.54336">
        <ele>293.804</ele>
        <time>2022-09-23T07:27:53Z</time>
      </trkpt>
      <trkpt lat="46.54719" lon="4.54345">
        <ele>294.704</ele>
        <time>2022-09-23T07:28:01Z</time>
      </trkpt>
      <trkpt lat="46.54715" lon="4.54356">
        <ele>295.104</ele>
        <time>2022-09-23T07:28:09Z</time>
      </trkpt>
      <trkpt lat="46.54712" lon="4.54364">
        <ele>296.004</ele>
        <time>2022-09-23T07:28:15Z</time>
      </trkpt>
      <trkpt lat="46.54708" lon="4.54372">
        <ele>296.504</ele>
        <time>2022-09-23T07:28:22Z</time>
      </trkpt>
      <trkpt lat="46.54703" lon="4.54377">
        <ele>296.604</ele>
        <time>2022-09-23T07:28:31Z</time>
      </trkpt>
      <trkpt lat="46.54696" lon="4.54382">
        <ele>297.604</ele>
        <time>2022-09-23T07:28:37Z</time>
      </trkpt>
      <trkpt lat="46.54691" lon="4.54389">
        <ele>299.104</ele>
        <time>2022-09-23T07:28:43Z</time>
      </trkpt>
      <trkpt lat="46.54686" lon="4.54397">
        <ele>302.404</ele>
        <time>2022-09-23T07:28:49Z</time>
      </trkpt>
      <trkpt lat="46.54682" lon="4.54404">
        <ele>302.904</ele>
        <time>2022-09-23T07:28:58Z</time>
      </trkpt>
      <trkpt lat="46.54676" lon="4.54413">
        <ele>302.404</ele>
        <time>2022-09-23T07:29:03Z</time>
      </trkpt>
      <trkpt lat="46.54672" lon="4.5442">
        <ele>302.604</ele>
        <time>2022-09-23T07:29:10Z</time>
      </trkpt>
      <trkpt lat="46.54668" lon="4.54429">
        <ele>305.004</ele>
        <time>2022-09-23T07:29:17Z</time>
      </trkpt>
      <trkpt lat="46.54662" lon="4.54436">
        <ele>305.904</ele>
        <time>2022-09-23T07:29:23Z</time>
      </trkpt>
      <trkpt lat="46.54656" lon="4.54443">
        <ele>305.804</ele>
        <time>2022-09-23T07:29:29Z</time>
      </trkpt>
      <trkpt lat="46.54652" lon="4.54453">
        <ele>304.604</ele>
        <time>2022-09-23T07:29:35Z</time>
      </trkpt>
      <trkpt lat="46.54648" lon="4.5446">
        <ele>304.404</ele>
        <time>2022-09-23T07:29:41Z</time>
      </trkpt>
      <trkpt lat="46.54643" lon="4.54467">
        <ele>305.004</ele>
        <time>2022-09-23T07:29:47Z</time>
      </trkpt>
      <trkpt lat="46.54638" lon="4.54474">
        <ele>305.304</ele>
        <time>2022-09-23T07:29:54Z</time>
      </trkpt>
      <trkpt lat="46.54631" lon="4.5448">
        <ele>305.703</ele>
        <time>2022-09-23T07:29:59Z</time>
      </trkpt>
      <trkpt lat="46.54628" lon="4.54488">
        <ele>307.203</ele>
        <time>2022-09-23T07:30:06Z</time>
      </trkpt>
      <trkpt lat="46.54623" lon="4.54496">
        <ele>309.303</ele>
        <time>2022-09-23T07:30:13Z</time>
      </trkpt>
      <trkpt lat="46.54618" lon="4.54504">
        <ele>309.703</ele>
        <time>2022-09-23T07:30:19Z</time>
      </trkpt>
      <trkpt lat="46.54613" lon="4.54515">
        <ele>309.703</ele>
        <time>2022-09-23T07:30:25Z</time>
      </trkpt>
      <trkpt lat="46.5461" lon="4.54524">
        <ele>309.703</ele>
        <time>2022-09-23T07:30:30Z</time>
      </trkpt>
      <trkpt lat="46.54606" lon="4.54532">
        <ele>308.803</ele>
        <time>2022-09-23T07:30:37Z</time>
      </trkpt>
      <trkpt lat="46.54604" lon="4.54543">
        <ele>309.603</ele>
        <time>2022-09-23T07:30:44Z</time>
      </trkpt>
      <trkpt lat="46.54601" lon="4.54551">
        <ele>311.503</ele>
        <time>2022-09-23T07:30:49Z</time>
      </trkpt>
      <trkpt lat="46.54599" lon="4.54562">
        <ele>313.203</ele>
        <time>2022-09-23T07:30:56Z</time>
      </trkpt>
      <trkpt lat="46.54596" lon="4.54572">
        <ele>313.903</ele>
        <time>2022-09-23T07:31:03Z</time>
      </trkpt>
      <trkpt lat="46.54592" lon="4.54579">
        <ele>313.303</ele>
        <time>2022-09-23T07:31:10Z</time>
      </trkpt>
      <trkpt lat="46.54588" lon="4.54587">
        <ele>313.403</ele>
        <time>2022-09-23T07:31:16Z</time>
      </trkpt>
      <trkpt lat="46.54584" lon="4.54596">
        <ele>313.803</ele>
        <time>2022-09-23T07:31:21Z</time>
      </trkpt>
      <trkpt lat="46.54583" lon="4.54605">
        <ele>313.403</ele>
        <time>2022-09-23T07:31:29Z</time>
      </trkpt>
      <trkpt lat="46.54579" lon="4.54614">
        <ele>315.303</ele>
        <time>2022-09-23T07:31:36Z</time>
      </trkpt>
      <trkpt lat="46.54576" lon="4.54623">
        <ele>314.303</ele>
        <time>2022-09-23T07:31:46Z</time>
      </trkpt>
      <trkpt lat="46.54577" lon="4.54633">
        <ele>315.403</ele>
        <time>2022-09-23T07:32:33Z</time>
      </trkpt>
      <trkpt lat="46.54572" lon="4.54642">
        <ele>318.803</ele>
        <time>2022-09-23T07:32:41Z</time>
      </trkpt>
      <trkpt lat="46.54571" lon="4.54652">
        <ele>320.503</ele>
        <time>2022-09-23T07:32:50Z</time>
      </trkpt>
      <trkpt lat="46.5457" lon="4.54662">
        <ele>320.203</ele>
        <time>2022-09-23T07:32:57Z</time>
      </trkpt>
      <trkpt lat="46.54569" lon="4.54672">
        <ele>320.103</ele>
        <time>2022-09-23T07:33:04Z</time>
      </trkpt>
      <trkpt lat="46.5457" lon="4.54681">
        <ele>321.803</ele>
        <time>2022-09-23T07:33:11Z</time>
      </trkpt>
      <trkpt lat="46.54569" lon="4.54691">
        <ele>322.503</ele>
        <time>2022-09-23T07:33:18Z</time>
      </trkpt>
      <trkpt lat="46.54572" lon="4.54701">
        <ele>322.603</ele>
        <time>2022-09-23T07:33:26Z</time>
      </trkpt>
      <trkpt lat="46.54573" lon="4.54712">
        <ele>323.003</ele>
        <time>2022-09-23T07:33:35Z</time>
      </trkpt>
      <trkpt lat="46.54574" lon="4.54724">
        <ele>323.504</ele>
        <time>2022-09-23T07:33:41Z</time>
      </trkpt>
      <trkpt lat="46.54575" lon="4.54733">
        <ele>324.604</ele>
        <time>2022-09-23T07:33:48Z</time>
      </trkpt>
      <trkpt lat="46.54581" lon="4.54739">
        <ele>325.204</ele>
        <time>2022-09-23T07:34:01Z</time>
      </trkpt>
      <trkpt lat="46.54585" lon="4.54746">
        <ele>324.104</ele>
        <time>2022-09-23T07:34:08Z</time>
      </trkpt>
      <trkpt lat="46.54587" lon="4.54756">
        <ele>322.904</ele>
        <time>2022-09-23T07:34:15Z</time>
      </trkpt>
      <trkpt lat="46.54591" lon="4.54764">
        <ele>323.404</ele>
        <time>2022-09-23T07:34:22Z</time>
      </trkpt>
      <trkpt lat="46.54595" lon="4.54771">
        <ele>324.104</ele>
        <time>2022-09-23T07:34:29Z</time>
      </trkpt>
      <trkpt lat="46.546" lon="4.5478">
        <ele>323.304</ele>
        <time>2022-09-23T07:34:36Z</time>
      </trkpt>
      <trkpt lat="46.54602" lon="4.54789">
        <ele>324.004</ele>
        <time>2022-09-23T07:34:41Z</time>
      </trkpt>
      <trkpt lat="46.54606" lon="4.54797">
        <ele>325.604</ele>
        <time>2022-09-23T07:34:46Z</time>
      </trkpt>
      <trkpt lat="46.54611" lon="4.54805">
        <ele>328.704</ele>
        <time>2022-09-23T07:34:51Z</time>
      </trkpt>
      <trkpt lat="46.54617" lon="4.54813">
        <ele>329.204</ele>
        <time>2022-09-23T07:34:57Z</time>
      </trkpt>
      <trkpt lat="46.54622" lon="4.54818">
        <ele>328.504</ele>
        <time>2022-09-23T07:35:02Z</time>
      </trkpt>
      <trkpt lat="46.54628" lon="4.54824">
        <ele>328.004</ele>
        <time>2022-09-23T07:35:07Z</time>
      </trkpt>
      <trkpt lat="46.54635" lon="4.54827">
        <ele>327.704</ele>
        <time>2022-09-23T07:35:13Z</time>
      </trkpt>
      <trkpt lat="46.54641" lon="4.54832">
        <ele>327.904</ele>
        <time>2022-09-23T07:35:19Z</time>
      </trkpt>
      <trkpt lat="46.54647" lon="4.54837">
        <ele>327.804</ele>
        <time>2022-09-23T07:35:25Z</time>
      </trkpt>
      <trkpt lat="46.54653" lon="4.54843">
        <ele>328.004</ele>
        <time>2022-09-23T07:35:30Z</time>
      </trkpt>
      <trkpt lat="46.5466" lon="4.54847">
        <ele>327.604</ele>
        <time>2022-09-23T07:35:35Z</time>
      </trkpt>
      <trkpt lat="46.54667" lon="4.54853">
        <ele>327.504</ele>
        <time>2022-09-23T07:35:41Z</time>
      </trkpt>
      <trkpt lat="46.54674" lon="4.54857">
        <ele>327.204</ele>
        <time>2022-09-23T07:35:48Z</time>
      </trkpt>
      <trkpt lat="46.54679" lon="4.54863">
        <ele>325.304</ele>
        <time>2022-09-23T07:35:56Z</time>
      </trkpt>
      <trkpt lat="46.54686" lon="4.54868">
        <ele>324.204</ele>
        <time>2022-09-23T07:36:03Z</time>
      </trkpt>
      <trkpt lat="46.54693" lon="4.54871">
        <ele>322.904</ele>
        <time>2022-09-23T07:36:11Z</time>
      </trkpt>
      <trkpt lat="46.54703" lon="4.54875">
        <ele>323.804</ele>
        <time>2022-09-23T07:36:17Z</time>
      </trkpt>
      <trkpt lat="46.54712" lon="4.54879">
        <ele>324.704</ele>
        <time>2022-09-23T07:36:22Z</time>
      </trkpt>
      <trkpt lat="46.5472" lon="4.5488">
        <ele>325.404</ele>
        <time>2022-09-23T07:36:27Z</time>
      </trkpt>
      <trkpt lat="46.54726" lon="4.54884">
        <ele>325.104</ele>
        <time>2022-09-23T07:36:34Z</time>
      </trkpt>
      <trkpt lat="46.54732" lon="4.54889">
        <ele>322.404</ele>
        <time>2022-09-23T07:36:39Z</time>
      </trkpt>
      <trkpt lat="46.54739" lon="4.54891">
        <ele>320.004</ele>
        <time>2022-09-23T07:36:45Z</time>
      </trkpt>
      <trkpt lat="46.54746" lon="4.54888">
        <ele>318.904</ele>
        <time>2022-09-23T07:36:53Z</time>
      </trkpt>
      <trkpt lat="46.54752" lon="4.54884">
        <ele>318.804</ele>
        <time>2022-09-23T07:36:59Z</time>
      </trkpt>
      <trkpt lat="46.54762" lon="4.54881">
        <ele>320.804</ele>
        <time>2022-09-23T07:37:05Z</time>
      </trkpt>
      <trkpt lat="46.5477" lon="4.5488">
        <ele>323.204</ele>
        <time>2022-09-23T07:37:10Z</time>
      </trkpt>
      <trkpt lat="46.54777" lon="4.54877">
        <ele>324.004</ele>
        <time>2022-09-23T07:37:16Z</time>
      </trkpt>
      <trkpt lat="46.54783" lon="4.54874">
        <ele>323.304</ele>
        <time>2022-09-23T07:37:21Z</time>
      </trkpt>
      <trkpt lat="46.54791" lon="4.5487">
        <ele>323.504</ele>
        <time>2022-09-23T07:37:27Z</time>
      </trkpt>
      <trkpt lat="46.54798" lon="4.54866">
        <ele>323.904</ele>
        <time>2022-09-23T07:37:33Z</time>
      </trkpt>
      <trkpt lat="46.54805" lon="4.54862">
        <ele>323.704</ele>
        <time>2022-09-23T07:37:40Z</time>
      </trkpt>
      <trkpt lat="46.54812" lon="4.54859">
        <ele>322.604</ele>
        <time>2022-09-23T07:37:45Z</time>
      </trkpt>
      <trkpt lat="46.54818" lon="4.54855">
        <ele>323.004</ele>
        <time>2022-09-23T07:37:52Z</time>
      </trkpt>
      <trkpt lat="46.54827" lon="4.54854">
        <ele>322.504</ele>
        <time>2022-09-23T07:37:57Z</time>
      </trkpt>
      <trkpt lat="46.54835" lon="4.54855">
        <ele>322.104</ele>
        <time>2022-09-23T07:38:02Z</time>
      </trkpt>
      <trkpt lat="46.54842" lon="4.54856">
        <ele>321.704</ele>
        <time>2022-09-23T07:38:07Z</time>
      </trkpt>
      <trkpt lat="46.54849" lon="4.54859">
        <ele>320.204</ele>
        <time>2022-09-23T07:38:14Z</time>
      </trkpt>
      <trkpt lat="46.54856" lon="4.5486">
        <ele>320.004</ele>
        <time>2022-09-23T07:38:19Z</time>
      </trkpt>
      <trkpt lat="46.54862" lon="4.54865">
        <ele>320.204</ele>
        <time>2022-09-23T07:38:26Z</time>
      </trkpt>
      <trkpt lat="46.54869" lon="4.54868">
        <ele>320.504</ele>
        <time>2022-09-23T07:38:31Z</time>
      </trkpt>
      <trkpt lat="46.54876" lon="4.54869">
        <ele>320.604</ele>
        <time>2022-09-23T07:38:37Z</time>
      </trkpt>
      <trkpt lat="46.54883" lon="4.5487">
        <ele>322.204</ele>
        <time>2022-09-23T07:38:44Z</time>
      </trkpt>
      <trkpt lat="46.5489" lon="4.54872">
        <ele>321.104</ele>
        <time>2022-09-23T07:38:50Z</time>
      </trkpt>
      <trkpt lat="46.54897" lon="4.54874">
        <ele>322.204</ele>
        <time>2022-09-23T07:38:57Z</time>
      </trkpt>
      <trkpt lat="46.54904" lon="4.54873">
        <ele>324.605</ele>
        <time>2022-09-23T07:39:03Z</time>
      </trkpt>
      <trkpt lat="46.54914" lon="4.54876">
        <ele>324.205</ele>
        <time>2022-09-23T07:39:09Z</time>
      </trkpt>
      <trkpt lat="46.54921" lon="4.54879">
        <ele>324.105</ele>
        <time>2022-09-23T07:39:15Z</time>
      </trkpt>
      <trkpt lat="46.54929" lon="4.5488">
        <ele>325.505</ele>
        <time>2022-09-23T07:39:21Z</time>
      </trkpt>
      <trkpt lat="46.54936" lon="4.54883">
        <ele>326.505</ele>
        <time>2022-09-23T07:39:26Z</time>
      </trkpt>
      <trkpt lat="46.54942" lon="4.54889">
        <ele>326.005</ele>
        <time>2022-09-23T07:39:34Z</time>
      </trkpt>
      <trkpt lat="46.54949" lon="4.5489">
        <ele>325.105</ele>
        <time>2022-09-23T07:39:40Z</time>
      </trkpt>
      <trkpt lat="46.54956" lon="4.5489">
        <ele>323.905</ele>
        <time>2022-09-23T07:39:46Z</time>
      </trkpt>
      <trkpt lat="46.54963" lon="4.54888">
        <ele>323.205</ele>
        <time>2022-09-23T07:39:55Z</time>
      </trkpt>
      <trkpt lat="46.5497" lon="4.54887">
        <ele>321.905</ele>
        <time>2022-09-23T07:40:04Z</time>
      </trkpt>
      <trkpt lat="46.54974" lon="4.54895">
        <ele>321.705</ele>
        <time>2022-09-23T07:40:15Z</time>
      </trkpt>
      <trkpt lat="46.54981" lon="4.54897">
        <ele>319.805</ele>
        <time>2022-09-23T07:40:38Z</time>
      </trkpt>
      <trkpt lat="46.54988" lon="4.54899">
        <ele>318.605</ele>
        <time>2022-09-23T07:40:50Z</time>
      </trkpt>
      <trkpt lat="46.54994" lon="4.54902">
        <ele>317.905</ele>
        <time>2022-09-23T07:41:00Z</time>
      </trkpt>
      <trkpt lat="46.55" lon="4.54907">
        <ele>317.305</ele>
        <time>2022-09-23T07:41:08Z</time>
      </trkpt>
      <trkpt lat="46.55006" lon="4.54912">
        <ele>317.005</ele>
        <time>2022-09-23T07:41:14Z</time>
      </trkpt>
      <trkpt lat="46.55012" lon="4.54918">
        <ele>318.105</ele>
        <time>2022-09-23T07:41:20Z</time>
      </trkpt>
      <trkpt lat="46.55019" lon="4.54922">
        <ele>317.905</ele>
        <time>2022-09-23T07:41:26Z</time>
      </trkpt>
      <trkpt lat="46.55024" lon="4.54928">
        <ele>318.905</ele>
        <time>2022-09-23T07:41:31Z</time>
      </trkpt>
      <trkpt lat="46.5503" lon="4.54936">
        <ele>320.605</ele>
        <time>2022-09-23T07:41:37Z</time>
      </trkpt>
      <trkpt lat="46.55036" lon="4.54941">
        <ele>321.105</ele>
        <time>2022-09-23T07:41:43Z</time>
      </trkpt>
      <trkpt lat="46.55042" lon="4.54949">
        <ele>322.205</ele>
        <time>2022-09-23T07:41:49Z</time>
      </trkpt>
      <trkpt lat="46.55048" lon="4.54953">
        <ele>321.005</ele>
        <time>2022-09-23T07:41:56Z</time>
      </trkpt>
      <trkpt lat="46.55053" lon="4.54959">
        <ele>321.405</ele>
        <time>2022-09-23T07:42:03Z</time>
      </trkpt>
      <trkpt lat="46.55059" lon="4.54966">
        <ele>321.605</ele>
        <time>2022-09-23T07:42:10Z</time>
      </trkpt>
      <trkpt lat="46.55064" lon="4.54973">
        <ele>321.305</ele>
        <time>2022-09-23T07:42:16Z</time>
      </trkpt>
      <trkpt lat="46.5507" lon="4.54978">
        <ele>320.105</ele>
        <time>2022-09-23T07:42:25Z</time>
      </trkpt>
      <trkpt lat="46.55077" lon="4.54984">
        <ele>321.105</ele>
        <time>2022-09-23T07:42:30Z</time>
      </trkpt>
      <trkpt lat="46.55082" lon="4.54992">
        <ele>321.405</ele>
        <time>2022-09-23T07:42:35Z</time>
      </trkpt>
      <trkpt lat="46.55085" lon="4.55001">
        <ele>321.705</ele>
        <time>2022-09-23T07:42:42Z</time>
      </trkpt>
      <trkpt lat="46.55091" lon="4.55007">
        <ele>323.405</ele>
        <time>2022-09-23T07:42:47Z</time>
      </trkpt>
      <trkpt lat="46.55097" lon="4.55015">
        <ele>325.605</ele>
        <time>2022-09-23T07:42:53Z</time>
      </trkpt>
      <trkpt lat="46.551" lon="4.55024">
        <ele>327.105</ele>
        <time>2022-09-23T07:42:59Z</time>
      </trkpt>
      <trkpt lat="46.55103" lon="4.55033">
        <ele>328.305</ele>
        <time>2022-09-23T07:43:05Z</time>
      </trkpt>
      <trkpt lat="46.55105" lon="4.55043">
        <ele>329.005</ele>
        <time>2022-09-23T07:43:11Z</time>
      </trkpt>
      <trkpt lat="46.55107" lon="4.55052">
        <ele>330.705</ele>
        <time>2022-09-23T07:43:17Z</time>
      </trkpt>
      <trkpt lat="46.55113" lon="4.55059">
        <ele>331.305</ele>
        <time>2022-09-23T07:43:23Z</time>
      </trkpt>
      <trkpt lat="46.55119" lon="4.55067">
        <ele>329.605</ele>
        <time>2022-09-23T07:43:29Z</time>
      </trkpt>
      <trkpt lat="46.55124" lon="4.55076">
        <ele>327.205</ele>
        <time>2022-09-23T07:43:37Z</time>
      </trkpt>
      <trkpt lat="46.55127" lon="4.55085">
        <ele>329.205</ele>
        <time>2022-09-23T07:43:43Z</time>
      </trkpt>
      <trkpt lat="46.5513" lon="4.55093">
        <ele>329.005</ele>
        <time>2022-09-23T07:43:49Z</time>
      </trkpt>
      <trkpt lat="46.55133" lon="4.55104">
        <ele>330.605</ele>
        <time>2022-09-23T07:43:54Z</time>
      </trkpt>
      <trkpt lat="46.55137" lon="4.55112">
        <ele>332.205</ele>
        <time>2022-09-23T07:44:00Z</time>
      </trkpt>
      <trkpt lat="46.55141" lon="4.55121">
        <ele>332.005</ele>
        <time>2022-09-23T07:44:06Z</time>
      </trkpt>
      <trkpt lat="46.55146" lon="4.55128">
        <ele>333.005</ele>
        <time>2022-09-23T07:44:13Z</time>
      </trkpt>
      <trkpt lat="46.55151" lon="4.55134">
        <ele>335.405</ele>
        <time>2022-09-23T07:44:21Z</time>
      </trkpt>
      <trkpt lat="46.55156" lon="4.55142">
        <ele>336.105</ele>
        <time>2022-09-23T07:44:27Z</time>
      </trkpt>
      <trkpt lat="46.55162" lon="4.55149">
        <ele>335.405</ele>
        <time>2022-09-23T07:44:33Z</time>
      </trkpt>
      <trkpt lat="46.55169" lon="4.55156">
        <ele>334.605</ele>
        <time>2022-09-23T07:44:39Z</time>
      </trkpt>
      <trkpt lat="46.55175" lon="4.55163">
        <ele>335.405</ele>
        <time>2022-09-23T07:44:45Z</time>
      </trkpt>
      <trkpt lat="46.5518" lon="4.5517">
        <ele>336.805</ele>
        <time>2022-09-23T07:44:51Z</time>
      </trkpt>
      <trkpt lat="46.55186" lon="4.55175">
        <ele>338.206</ele>
        <time>2022-09-23T07:44:57Z</time>
      </trkpt>
      <trkpt lat="46.55189" lon="4.55183">
        <ele>338.906</ele>
        <time>2022-09-23T07:45:04Z</time>
      </trkpt>
      <trkpt lat="46.55193" lon="4.55191">
        <ele>336.706</ele>
        <time>2022-09-23T07:45:10Z</time>
      </trkpt>
      <trkpt lat="46.552" lon="4.55197">
        <ele>335.506</ele>
        <time>2022-09-23T07:45:15Z</time>
      </trkpt>
      <trkpt lat="46.55208" lon="4.55204">
        <ele>332.106</ele>
        <time>2022-09-23T07:45:21Z</time>
      </trkpt>
      <trkpt lat="46.55215" lon="4.55207">
        <ele>329.406</ele>
        <time>2022-09-23T07:45:26Z</time>
      </trkpt>
      <trkpt lat="46.5522" lon="4.55213">
        <ele>325.906</ele>
        <time>2022-09-23T07:45:34Z</time>
      </trkpt>
      <trkpt lat="46.55226" lon="4.55218">
        <ele>326.906</ele>
        <time>2022-09-23T07:45:41Z</time>
      </trkpt>
      <trkpt lat="46.55233" lon="4.55224">
        <ele>326.406</ele>
        <time>2022-09-23T07:45:48Z</time>
      </trkpt>
      <trkpt lat="46.55238" lon="4.55231">
        <ele>326.306</ele>
        <time>2022-09-23T07:45:54Z</time>
      </trkpt>
      <trkpt lat="46.55244" lon="4.55237">
        <ele>326.806</ele>
        <time>2022-09-23T07:46:00Z</time>
      </trkpt>
      <trkpt lat="46.55246" lon="4.55246">
        <ele>326.006</ele>
        <time>2022-09-23T07:46:12Z</time>
      </trkpt>
      <trkpt lat="46.5524" lon="4.55247">
        <ele>324.806</ele>
        <time>2022-09-23T07:46:34Z</time>
      </trkpt>
      <trkpt lat="46.55243" lon="4.55256">
        <ele>321.406</ele>
        <time>2022-09-23T07:46:59Z</time>
      </trkpt>
      <trkpt lat="46.5524" lon="4.55264">
        <ele>320.206</ele>
        <time>2022-09-23T07:47:07Z</time>
      </trkpt>
      <trkpt lat="46.55238" lon="4.55274">
        <ele>320.106</ele>
        <time>2022-09-23T07:47:14Z</time>
      </trkpt>
      <trkpt lat="46.55235" lon="4.55283">
        <ele>322.206</ele>
        <time>2022-09-23T07:47:22Z</time>
      </trkpt>
      <trkpt lat="46.55232" lon="4.55291">
        <ele>323.306</ele>
        <time>2022-09-23T07:47:28Z</time>
      </trkpt>
      <trkpt lat="46.55228" lon="4.553">
        <ele>325.306</ele>
        <time>2022-09-23T07:47:35Z</time>
      </trkpt>
      <trkpt lat="46.55224" lon="4.55308">
        <ele>327.706</ele>
        <time>2022-09-23T07:47:42Z</time>
      </trkpt>
      <trkpt lat="46.55222" lon="4.55318">
        <ele>329.206</ele>
        <time>2022-09-23T07:47:50Z</time>
      </trkpt>
      <trkpt lat="46.55219" lon="4.55327">
        <ele>329.906</ele>
        <time>2022-09-23T07:47:57Z</time>
      </trkpt>
      <trkpt lat="46.55216" lon="4.55337">
        <ele>330.506</ele>
        <time>2022-09-23T07:48:03Z</time>
      </trkpt>
      <trkpt lat="46.55217" lon="4.55346">
        <ele>331.306</ele>
        <time>2022-09-23T07:48:12Z</time>
      </trkpt>
      <trkpt lat="46.55223" lon="4.55349">
        <ele>331.206</ele>
        <time>2022-09-23T07:48:23Z</time>
      </trkpt>
      <trkpt lat="46.5523" lon="4.55352">
        <ele>330.806</ele>
        <time>2022-09-23T07:48:30Z</time>
      </trkpt>
      <trkpt lat="46.55237" lon="4.55356">
        <ele>330.406</ele>
        <time>2022-09-23T07:48:36Z</time>
      </trkpt>
      <trkpt lat="46.55243" lon="4.55361">
        <ele>331.406</ele>
        <time>2022-09-23T07:48:43Z</time>
      </trkpt>
      <trkpt lat="46.55249" lon="4.55368">
        <ele>331.306</ele>
        <time>2022-09-23T07:48:50Z</time>
      </trkpt>
      <trkpt lat="46.55255" lon="4.55374">
        <ele>331.706</ele>
        <time>2022-09-23T07:48:57Z</time>
      </trkpt>
      <trkpt lat="46.55261" lon="4.55377">
        <ele>330.406</ele>
        <time>2022-09-23T07:49:04Z</time>
      </trkpt>
      <trkpt lat="46.55267" lon="4.55382">
        <ele>329.506</ele>
        <time>2022-09-23T07:49:10Z</time>
      </trkpt>
      <trkpt lat="46.55273" lon="4.55388">
        <ele>328.806</ele>
        <time>2022-09-23T07:49:17Z</time>
      </trkpt>
      <trkpt lat="46.55278" lon="4.55395">
        <ele>328.506</ele>
        <time>2022-09-23T07:49:23Z</time>
      </trkpt>
      <trkpt lat="46.55283" lon="4.55402">
        <ele>326.906</ele>
        <time>2022-09-23T07:49:29Z</time>
      </trkpt>
      <trkpt lat="46.55288" lon="4.55409">
        <ele>326.106</ele>
        <time>2022-09-23T07:49:34Z</time>
      </trkpt>
      <trkpt lat="46.55293" lon="4.55416">
        <ele>324.406</ele>
        <time>2022-09-23T07:49:40Z</time>
      </trkpt>
      <trkpt lat="46.55298" lon="4.55423">
        <ele>322.306</ele>
        <time>2022-09-23T07:49:46Z</time>
      </trkpt>
      <trkpt lat="46.55303" lon="4.5543">
        <ele>321.406</ele>
        <time>2022-09-23T07:49:51Z</time>
      </trkpt>
      <trkpt lat="46.55309" lon="4.55437">
        <ele>321.306</ele>
        <time>2022-09-23T07:49:57Z</time>
      </trkpt>
      <trkpt lat="46.55312" lon="4.55446">
        <ele>319.206</ele>
        <time>2022-09-23T07:50:03Z</time>
      </trkpt>
      <trkpt lat="46.55317" lon="4.55453">
        <ele>317.206</ele>
        <time>2022-09-23T07:50:10Z</time>
      </trkpt>
      <trkpt lat="46.55321" lon="4.55461">
        <ele>316.306</ele>
        <time>2022-09-23T07:50:17Z</time>
      </trkpt>
      <trkpt lat="46.55325" lon="4.55469">
        <ele>316.606</ele>
        <time>2022-09-23T07:50:22Z</time>
      </trkpt>
      <trkpt lat="46.5533" lon="4.55476">
        <ele>317.006</ele>
        <time>2022-09-23T07:50:28Z</time>
      </trkpt>
      <trkpt lat="46.55335" lon="4.55484">
        <ele>316.206</ele>
        <time>2022-09-23T07:50:34Z</time>
      </trkpt>
      <trkpt lat="46.5534" lon="4.55492">
        <ele>316.806</ele>
        <time>2022-09-23T07:50:39Z</time>
      </trkpt>
      <trkpt lat="46.55343" lon="4.55502">
        <ele>317.406</ele>
        <time>2022-09-23T07:50:45Z</time>
      </trkpt>
      <trkpt lat="46.55347" lon="4.5551">
        <ele>316.306</ele>
        <time>2022-09-23T07:50:50Z</time>
      </trkpt>
      <trkpt lat="46.55352" lon="4.55519">
        <ele>314.706</ele>
        <time>2022-09-23T07:50:56Z</time>
      </trkpt>
      <trkpt lat="46.55357" lon="4.55527">
        <ele>313.306</ele>
        <time>2022-09-23T07:51:01Z</time>
      </trkpt>
      <trkpt lat="46.55362" lon="4.55534">
        <ele>312.706</ele>
        <time>2022-09-23T07:51:07Z</time>
      </trkpt>
      <trkpt lat="46.55368" lon="4.55541">
        <ele>310.306</ele>
        <time>2022-09-23T07:51:14Z</time>
      </trkpt>
      <trkpt lat="46.55373" lon="4.55548">
        <ele>308.806</ele>
        <time>2022-09-23T07:51:20Z</time>
      </trkpt>
      <trkpt lat="46.55377" lon="4.55557">
        <ele>307.906</ele>
        <time>2022-09-23T07:51:27Z</time>
      </trkpt>
      <trkpt lat="46.55383" lon="4.55565">
        <ele>308.006</ele>
        <time>2022-09-23T07:51:33Z</time>
      </trkpt>
      <trkpt lat="46.55389" lon="4.55572">
        <ele>307.006</ele>
        <time>2022-09-23T07:51:39Z</time>
      </trkpt>
      <trkpt lat="46.55396" lon="4.55577">
        <ele>307.106</ele>
        <time>2022-09-23T07:51:44Z</time>
      </trkpt>
      <trkpt lat="46.55402" lon="4.55582">
        <ele>306.906</ele>
        <time>2022-09-23T07:51:49Z</time>
      </trkpt>
      <trkpt lat="46.55407" lon="4.55588">
        <ele>306.306</ele>
        <time>2022-09-23T07:51:55Z</time>
      </trkpt>
      <trkpt lat="46.55413" lon="4.55593">
        <ele>305.406</ele>
        <time>2022-09-23T07:52:01Z</time>
      </trkpt>
      <trkpt lat="46.5542" lon="4.55595">
        <ele>303.706</ele>
        <time>2022-09-23T07:52:07Z</time>
      </trkpt>
      <trkpt lat="46.55426" lon="4.556">
        <ele>301.506</ele>
        <time>2022-09-23T07:52:13Z</time>
      </trkpt>
      <trkpt lat="46.55432" lon="4.55604">
        <ele>302.106</ele>
        <time>2022-09-23T07:52:19Z</time>
      </trkpt>
      <trkpt lat="46.55439" lon="4.55611">
        <ele>302.607</ele>
        <time>2022-09-23T07:52:25Z</time>
      </trkpt>
      <trkpt lat="46.55445" lon="4.55614">
        <ele>301.607</ele>
        <time>2022-09-23T07:52:30Z</time>
      </trkpt>
      <trkpt lat="46.5545" lon="4.5562">
        <ele>301.907</ele>
        <time>2022-09-23T07:52:35Z</time>
      </trkpt>
      <trkpt lat="46.55457" lon="4.55622">
        <ele>300.607</ele>
        <time>2022-09-23T07:52:41Z</time>
      </trkpt>
      <trkpt lat="46.55464" lon="4.55628">
        <ele>297.207</ele>
        <time>2022-09-23T07:52:48Z</time>
      </trkpt>
      <trkpt lat="46.55469" lon="4.55635">
        <ele>295.207</ele>
        <time>2022-09-23T07:52:53Z</time>
      </trkpt>
      <trkpt lat="46.55473" lon="4.55643">
        <ele>292.807</ele>
        <time>2022-09-23T07:52:59Z</time>
      </trkpt>
      <trkpt lat="46.55479" lon="4.55649">
        <ele>294.607</ele>
        <time>2022-09-23T07:53:03Z</time>
      </trkpt>
      <trkpt lat="46.55484" lon="4.55656">
        <ele>294.107</ele>
        <time>2022-09-23T07:53:09Z</time>
      </trkpt>
      <trkpt lat="46.55489" lon="4.55665">
        <ele>295.007</ele>
        <time>2022-09-23T07:53:15Z</time>
      </trkpt>
      <trkpt lat="46.55496" lon="4.55673">
        <ele>295.407</ele>
        <time>2022-09-23T07:53:21Z</time>
      </trkpt>
      <trkpt lat="46.555" lon="4.55682">
        <ele>296.307</ele>
        <time>2022-09-23T07:53:27Z</time>
      </trkpt>
      <trkpt lat="46.55504" lon="4.55692">
        <ele>294.907</ele>
        <time>2022-09-23T07:53:33Z</time>
      </trkpt>
      <trkpt lat="46.55509" lon="4.55698">
        <ele>292.607</ele>
        <time>2022-09-23T07:53:39Z</time>
      </trkpt>
      <trkpt lat="46.55514" lon="4.55707">
        <ele>289.307</ele>
        <time>2022-09-23T07:53:45Z</time>
      </trkpt>
      <trkpt lat="46.55517" lon="4.55716">
        <ele>288.307</ele>
        <time>2022-09-23T07:53:51Z</time>
      </trkpt>
      <trkpt lat="46.55523" lon="4.55722">
        <ele>288.607</ele>
        <time>2022-09-23T07:53:57Z</time>
      </trkpt>
      <trkpt lat="46.55529" lon="4.55729">
        <ele>287.307</ele>
        <time>2022-09-23T07:54:02Z</time>
      </trkpt>
      <trkpt lat="46.55534" lon="4.55736">
        <ele>285.807</ele>
        <time>2022-09-23T07:54:08Z</time>
      </trkpt>
      <trkpt lat="46.5554" lon="4.55742">
        <ele>286.007</ele>
        <time>2022-09-23T07:54:14Z</time>
      </trkpt>
      <trkpt lat="46.55546" lon="4.5575">
        <ele>286.807</ele>
        <time>2022-09-23T07:54:20Z</time>
      </trkpt>
      <trkpt lat="46.55549" lon="4.55757">
        <ele>286.707</ele>
        <time>2022-09-23T07:54:25Z</time>
      </trkpt>
      <trkpt lat="46.55557" lon="4.55763">
        <ele>288.507</ele>
        <time>2022-09-23T07:54:30Z</time>
      </trkpt>
      <trkpt lat="46.55561" lon="4.5577">
        <ele>291.407</ele>
        <time>2022-09-23T07:54:35Z</time>
      </trkpt>
      <trkpt lat="46.55566" lon="4.55777">
        <ele>291.107</ele>
        <time>2022-09-23T07:54:41Z</time>
      </trkpt>
      <trkpt lat="46.5557" lon="4.55785">
        <ele>290.807</ele>
        <time>2022-09-23T07:54:46Z</time>
      </trkpt>
      <trkpt lat="46.55573" lon="4.55794">
        <ele>287.107</ele>
        <time>2022-09-23T07:54:55Z</time>
      </trkpt>
      <trkpt lat="46.55579" lon="4.55803">
        <ele>283.307</ele>
        <time>2022-09-23T07:55:02Z</time>
      </trkpt>
      <trkpt lat="46.55582" lon="4.55812">
        <ele>282.507</ele>
        <time>2022-09-23T07:55:07Z</time>
      </trkpt>
      <trkpt lat="46.55587" lon="4.55821">
        <ele>281.607</ele>
        <time>2022-09-23T07:55:13Z</time>
      </trkpt>
      <trkpt lat="46.55592" lon="4.55829">
        <ele>280.707</ele>
        <time>2022-09-23T07:55:18Z</time>
      </trkpt>
      <trkpt lat="46.55598" lon="4.55836">
        <ele>281.307</ele>
        <time>2022-09-23T07:55:24Z</time>
      </trkpt>
      <trkpt lat="46.55603" lon="4.55845">
        <ele>280.507</ele>
        <time>2022-09-23T07:55:30Z</time>
      </trkpt>
      <trkpt lat="46.55608" lon="4.55853">
        <ele>280.707</ele>
        <time>2022-09-23T07:55:36Z</time>
      </trkpt>
      <trkpt lat="46.55613" lon="4.55859">
        <ele>280.207</ele>
        <time>2022-09-23T07:55:42Z</time>
      </trkpt>
      <trkpt lat="46.55618" lon="4.55867">
        <ele>276.707</ele>
        <time>2022-09-23T07:55:48Z</time>
      </trkpt>
      <trkpt lat="46.55623" lon="4.55874">
        <ele>276.007</ele>
        <time>2022-09-23T07:55:54Z</time>
      </trkpt>
      <trkpt lat="46.55629" lon="4.55877">
        <ele>274.907</ele>
        <time>2022-09-23T07:56:00Z</time>
      </trkpt>
      <trkpt lat="46.55636" lon="4.55879">
        <ele>273.307</ele>
        <time>2022-09-23T07:56:06Z</time>
      </trkpt>
      <trkpt lat="46.55642" lon="4.55881">
        <ele>272.007</ele>
        <time>2022-09-23T07:56:12Z</time>
      </trkpt>
      <trkpt lat="46.55649" lon="4.55883">
        <ele>271.307</ele>
        <time>2022-09-23T07:56:18Z</time>
      </trkpt>
      <trkpt lat="46.55656" lon="4.55884">
        <ele>269.607</ele>
        <time>2022-09-23T07:56:25Z</time>
      </trkpt>
      <trkpt lat="46.55663" lon="4.55887">
        <ele>268.707</ele>
        <time>2022-09-23T07:56:31Z</time>
      </trkpt>
      <trkpt lat="46.5567" lon="4.55889">
        <ele>265.007</ele>
        <time>2022-09-23T07:56:37Z</time>
      </trkpt>
      <trkpt lat="46.55677" lon="4.55892">
        <ele>261.007</ele>
        <time>2022-09-23T07:56:43Z</time>
      </trkpt>
      <trkpt lat="46.55685" lon="4.55895">
        <ele>260.307</ele>
        <time>2022-09-23T07:56:49Z</time>
      </trkpt>
      <trkpt lat="46.55692" lon="4.55896">
        <ele>260.407</ele>
        <time>2022-09-23T07:56:55Z</time>
      </trkpt>
      <trkpt lat="46.55699" lon="4.55896">
        <ele>259.007</ele>
        <time>2022-09-23T07:57:02Z</time>
      </trkpt>
      <trkpt lat="46.55707" lon="4.55893">
        <ele>259.007</ele>
        <time>2022-09-23T07:57:09Z</time>
      </trkpt>
      <trkpt lat="46.55713" lon="4.55889">
        <ele>257.607</ele>
        <time>2022-09-23T07:57:15Z</time>
      </trkpt>
      <trkpt lat="46.55722" lon="4.55885">
        <ele>257.007</ele>
        <time>2022-09-23T07:57:21Z</time>
      </trkpt>
      <trkpt lat="46.55729" lon="4.55883">
        <ele>255.607</ele>
        <time>2022-09-23T07:57:28Z</time>
      </trkpt>
      <trkpt lat="46.55735" lon="4.5588">
        <ele>255.008</ele>
        <time>2022-09-23T07:57:33Z</time>
      </trkpt>
      <trkpt lat="46.55739" lon="4.55871">
        <ele>257.108</ele>
        <time>2022-09-23T07:57:46Z</time>
      </trkpt>
      <trkpt lat="46.55743" lon="4.55863">
        <ele>259.808</ele>
        <time>2022-09-23T07:57:58Z</time>
      </trkpt>
      <trkpt lat="46.55742" lon="4.55874">
        <ele>263.608</ele>
        <time>2022-09-23T07:58:20Z</time>
      </trkpt>
      <trkpt lat="46.55745" lon="4.55882">
        <ele>259.208</ele>
        <time>2022-09-23T07:58:29Z</time>
      </trkpt>
      <trkpt lat="46.55752" lon="4.55881">
        <ele>257.908</ele>
        <time>2022-09-23T07:58:54Z</time>
      </trkpt>
      <trkpt lat="46.55759" lon="4.55877">
        <ele>255.508</ele>
        <time>2022-09-23T07:59:06Z</time>
      </trkpt>
      <trkpt lat="46.55766" lon="4.55877">
        <ele>253.808</ele>
        <time>2022-09-23T07:59:13Z</time>
      </trkpt>
      <trkpt lat="46.55774" lon="4.55877">
        <ele>251.108</ele>
        <time>2022-09-23T07:59:20Z</time>
      </trkpt>
      <trkpt lat="46.55781" lon="4.55876">
        <ele>250.508</ele>
        <time>2022-09-23T07:59:26Z</time>
      </trkpt>
      <trkpt lat="46.55789" lon="4.55876">
        <ele>252.008</ele>
        <time>2022-09-23T07:59:31Z</time>
      </trkpt>
      <trkpt lat="46.55797" lon="4.55874">
        <ele>253.908</ele>
        <time>2022-09-23T07:59:37Z</time>
      </trkpt>
      <trkpt lat="46.55804" lon="4.55873">
        <ele>253.608</ele>
        <time>2022-09-23T07:59:43Z</time>
      </trkpt>
      <trkpt lat="46.55811" lon="4.55872">
        <ele>252.108</ele>
        <time>2022-09-23T07:59:50Z</time>
      </trkpt>
      <trkpt lat="46.55819" lon="4.55874">
        <ele>251.808</ele>
        <time>2022-09-23T07:59:56Z</time>
      </trkpt>
      <trkpt lat="46.55826" lon="4.55877">
        <ele>252.408</ele>
        <time>2022-09-23T08:00:02Z</time>
      </trkpt>
      <trkpt lat="46.55833" lon="4.55881">
        <ele>254.308</ele>
        <time>2022-09-23T08:00:09Z</time>
      </trkpt>
      <trkpt lat="46.55839" lon="4.55884">
        <ele>253.708</ele>
        <time>2022-09-23T08:00:14Z</time>
      </trkpt>
      <trkpt lat="46.55846" lon="4.55886">
        <ele>254.208</ele>
        <time>2022-09-23T08:00:22Z</time>
      </trkpt>
      <trkpt lat="46.55854" lon="4.55886">
        <ele>252.308</ele>
        <time>2022-09-23T08:00:28Z</time>
      </trkpt>
      <trkpt lat="46.55861" lon="4.55883">
        <ele>248.708</ele>
        <time>2022-09-23T08:00:36Z</time>
      </trkpt>
      <trkpt lat="46.55867" lon="4.55881">
        <ele>247.608</ele>
        <time>2022-09-23T08:00:41Z</time>
      </trkpt>
      <trkpt lat="46.55875" lon="4.5588">
        <ele>247.508</ele>
        <time>2022-09-23T08:00:46Z</time>
      </trkpt>
      <trkpt lat="46.55883" lon="4.55876">
        <ele>248.208</ele>
        <time>2022-09-23T08:00:54Z</time>
      </trkpt>
      <trkpt lat="46.55889" lon="4.55872">
        <ele>245.208</ele>
        <time>2022-09-23T08:00:59Z</time>
      </trkpt>
      <trkpt lat="46.55895" lon="4.55867">
        <ele>242.308</ele>
        <time>2022-09-23T08:01:07Z</time>
      </trkpt>
      <trkpt lat="46.55902" lon="4.55866">
        <ele>239.708</ele>
        <time>2022-09-23T08:01:14Z</time>
      </trkpt>
      <trkpt lat="46.55909" lon="4.55861">
        <ele>236.908</ele>
        <time>2022-09-23T08:01:25Z</time>
      </trkpt>
      <trkpt lat="46.55916" lon="4.55859">
        <ele>238.108</ele>
        <time>2022-09-23T08:01:32Z</time>
      </trkpt>
      <trkpt lat="46.55924" lon="4.55857">
        <ele>239.008</ele>
        <time>2022-09-23T08:01:37Z</time>
      </trkpt>
      <trkpt lat="46.55931" lon="4.55854">
        <ele>239.108</ele>
        <time>2022-09-23T08:01:43Z</time>
      </trkpt>
      <trkpt lat="46.5594" lon="4.5585">
        <ele>238.308</ele>
        <time>2022-09-23T08:01:49Z</time>
      </trkpt>
      <trkpt lat="46.55947" lon="4.5585">
        <ele>237.808</ele>
        <time>2022-09-23T08:01:55Z</time>
      </trkpt>
      <trkpt lat="46.55953" lon="4.55849">
        <ele>236.308</ele>
        <time>2022-09-23T08:02:02Z</time>
      </trkpt>
      <trkpt lat="46.55958" lon="4.55841">
        <ele>234.308</ele>
        <time>2022-09-23T08:02:14Z</time>
      </trkpt>
      <trkpt lat="46.55962" lon="4.55849">
        <ele>237.208</ele>
        <time>2022-09-23T08:02:40Z</time>
      </trkpt>
      <trkpt lat="46.55968" lon="4.55846">
        <ele>236.308</ele>
        <time>2022-09-23T08:03:19Z</time>
      </trkpt>
      <trkpt lat="46.55976" lon="4.55848">
        <ele>234.808</ele>
        <time>2022-09-23T08:03:28Z</time>
      </trkpt>
      <trkpt lat="46.55982" lon="4.55848">
        <ele>232.908</ele>
        <time>2022-09-23T08:03:34Z</time>
      </trkpt>
      <trkpt lat="46.5599" lon="4.55849">
        <ele>230.308</ele>
        <time>2022-09-23T08:03:40Z</time>
      </trkpt>
      <trkpt lat="46.55997" lon="4.5585">
        <ele>229.708</ele>
        <time>2022-09-23T08:03:45Z</time>
      </trkpt>
      <trkpt lat="46.56003" lon="4.55852">
        <ele>229.308</ele>
        <time>2022-09-23T08:03:51Z</time>
      </trkpt>
      <trkpt lat="46.56011" lon="4.55854">
        <ele>228.708</ele>
        <time>2022-09-23T08:03:57Z</time>
      </trkpt>
      <trkpt lat="46.56018" lon="4.55855">
        <ele>229.208</ele>
        <time>2022-09-23T08:04:03Z</time>
      </trkpt>
      <trkpt lat="46.56026" lon="4.55858">
        <ele>228.908</ele>
        <time>2022-09-23T08:04:09Z</time>
      </trkpt>
      <trkpt lat="46.56032" lon="4.5586">
        <ele>228.808</ele>
        <time>2022-09-23T08:04:14Z</time>
      </trkpt>
      <trkpt lat="46.56039" lon="4.55862">
        <ele>226.008</ele>
        <time>2022-09-23T08:04:20Z</time>
      </trkpt>
      <trkpt lat="46.56046" lon="4.55864">
        <ele>224.508</ele>
        <time>2022-09-23T08:04:27Z</time>
      </trkpt>
      <trkpt lat="46.56055" lon="4.55865">
        <ele>222.908</ele>
        <time>2022-09-23T08:04:33Z</time>
      </trkpt>
      <trkpt lat="46.56061" lon="4.55868">
        <ele>222.008</ele>
        <time>2022-09-23T08:04:39Z</time>
      </trkpt>
      <trkpt lat="46.56069" lon="4.55869">
        <ele>219.108</ele>
        <time>2022-09-23T08:04:45Z</time>
      </trkpt>
      <trkpt lat="46.56076" lon="4.55872">
        <ele>219.308</ele>
        <time>2022-09-23T08:04:51Z</time>
      </trkpt>
      <trkpt lat="46.56083" lon="4.55876">
        <ele>219.808</ele>
        <time>2022-09-23T08:04:57Z</time>
      </trkpt>
      <trkpt lat="46.56091" lon="4.55878">
        <ele>218.708</ele>
        <time>2022-09-23T08:05:04Z</time>
      </trkpt>
      <trkpt lat="46.561" lon="4.5588">
        <ele>217.609</ele>
        <time>2022-09-23T08:05:09Z</time>
      </trkpt>
      <trkpt lat="46.56106" lon="4.55882">
        <ele>215.109</ele>
        <time>2022-09-23T08:05:15Z</time>
      </trkpt>
      <trkpt lat="46.56114" lon="4.55884">
        <ele>214.509</ele>
        <time>2022-09-23T08:05:21Z</time>
      </trkpt>
      <trkpt lat="46.5612" lon="4.55887">
        <ele>214.609</ele>
        <time>2022-09-23T08:05:27Z</time>
      </trkpt>
      <trkpt lat="46.56127" lon="4.55889">
        <ele>216.909</ele>
        <time>2022-09-23T08:05:33Z</time>
      </trkpt>
      <trkpt lat="46.56134" lon="4.55887">
        <ele>219.309</ele>
        <time>2022-09-23T08:07:14Z</time>
      </trkpt>
      <trkpt lat="46.56141" lon="4.55884">
        <ele>218.609</ele>
        <time>2022-09-23T08:07:23Z</time>
      </trkpt>
      <trkpt lat="46.56146" lon="4.55879">
        <ele>216.409</ele>
        <time>2022-09-23T08:07:29Z</time>
      </trkpt>
      <trkpt lat="46.56154" lon="4.55874">
        <ele>217.209</ele>
        <time>2022-09-23T08:07:35Z</time>
      </trkpt>
      <trkpt lat="46.5616" lon="4.55872">
        <ele>216.809</ele>
        <time>2022-09-23T08:07:41Z</time>
      </trkpt>
      <trkpt lat="46.56167" lon="4.5587">
        <ele>216.209</ele>
        <time>2022-09-23T08:07:48Z</time>
      </trkpt>
      <trkpt lat="46.56174" lon="4.55868">
        <ele>217.409</ele>
        <time>2022-09-23T08:08:09Z</time>
      </trkpt>
      <trkpt lat="46.56181" lon="4.55867">
        <ele>217.509</ele>
        <time>2022-09-23T08:08:33Z</time>
      </trkpt>
      <trkpt lat="46.56187" lon="4.55865">
        <ele>218.409</ele>
        <time>2022-09-23T08:08:40Z</time>
      </trkpt>
      <trkpt lat="46.56194" lon="4.5586">
        <ele>217.809</ele>
        <time>2022-09-23T08:08:47Z</time>
      </trkpt>
      <trkpt lat="46.562" lon="4.55857">
        <ele>216.709</ele>
        <time>2022-09-23T08:08:55Z</time>
      </trkpt>
      <trkpt lat="46.56207" lon="4.55857">
        <ele>217.709</ele>
        <time>2022-09-23T08:09:03Z</time>
      </trkpt>
      <trkpt lat="46.56213" lon="4.55853">
        <ele>217.709</ele>
        <time>2022-09-23T08:09:11Z</time>
      </trkpt>
      <trkpt lat="46.5622" lon="4.55851">
        <ele>218.509</ele>
        <time>2022-09-23T08:09:20Z</time>
      </trkpt>
      <trkpt lat="46.56227" lon="4.55849">
        <ele>219.509</ele>
        <time>2022-09-23T08:09:29Z</time>
      </trkpt>
      <trkpt lat="46.56233" lon="4.55855">
        <ele>220.709</ele>
        <time>2022-09-23T08:09:36Z</time>
      </trkpt>
      <trkpt lat="46.5624" lon="4.55852">
        <ele>221.809</ele>
        <time>2022-09-23T08:09:44Z</time>
      </trkpt>
      <trkpt lat="46.56246" lon="4.55849">
        <ele>220.009</ele>
        <time>2022-09-23T08:09:50Z</time>
      </trkpt>
      <trkpt lat="46.56253" lon="4.55847">
        <ele>217.309</ele>
        <time>2022-09-23T08:09:56Z</time>
      </trkpt>
      <trkpt lat="46.56261" lon="4.55847">
        <ele>216.709</ele>
        <time>2022-09-23T08:10:04Z</time>
      </trkpt>
      <trkpt lat="46.56267" lon="4.55847">
        <ele>217.709</ele>
        <time>2022-09-23T08:10:10Z</time>
      </trkpt>
      <trkpt lat="46.56274" lon="4.55848">
        <ele>218.309</ele>
        <time>2022-09-23T08:10:16Z</time>
      </trkpt>
      <trkpt lat="46.56282" lon="4.55849">
        <ele>219.309</ele>
        <time>2022-09-23T08:10:21Z</time>
      </trkpt>
      <trkpt lat="46.56288" lon="4.55851">
        <ele>218.509</ele>
        <time>2022-09-23T08:10:29Z</time>
      </trkpt>
      <trkpt lat="46.56294" lon="4.55855">
        <ele>218.809</ele>
        <time>2022-09-23T08:10:38Z</time>
      </trkpt>
      <trkpt lat="46.56302" lon="4.55858">
        <ele>218.309</ele>
        <time>2022-09-23T08:10:44Z</time>
      </trkpt>
      <trkpt lat="46.56309" lon="4.55861">
        <ele>218.309</ele>
        <time>2022-09-23T08:10:50Z</time>
      </trkpt>
      <trkpt lat="46.56316" lon="4.55862">
        <ele>217.309</ele>
        <time>2022-09-23T08:10:56Z</time>
      </trkpt>
      <trkpt lat="46.56323" lon="4.55865">
        <ele>216.909</ele>
        <time>2022-09-23T08:11:02Z</time>
      </trkpt>
      <trkpt lat="46.56329" lon="4.55871">
        <ele>218.109</ele>
        <time>2022-09-23T08:11:08Z</time>
      </trkpt>
      <trkpt lat="46.56335" lon="4.55877">
        <ele>218.409</ele>
        <time>2022-09-23T08:11:13Z</time>
      </trkpt>
      <trkpt lat="46.56342" lon="4.55883">
        <ele>217.909</ele>
        <time>2022-09-23T08:11:19Z</time>
      </trkpt>
      <trkpt lat="46.56348" lon="4.5589">
        <ele>218.209</ele>
        <time>2022-09-23T08:11:25Z</time>
      </trkpt>
      <trkpt lat="46.56354" lon="4.55893">
        <ele>217.009</ele>
        <time>2022-09-23T08:11:31Z</time>
      </trkpt>
      <trkpt lat="46.56361" lon="4.55895">
        <ele>217.209</ele>
        <time>2022-09-23T08:11:37Z</time>
      </trkpt>
      <trkpt lat="46.56367" lon="4.55898">
        <ele>216.409</ele>
        <time>2022-09-23T08:11:44Z</time>
      </trkpt>
      <trkpt lat="46.56374" lon="4.55902">
        <ele>215.009</ele>
        <time>2022-09-23T08:11:50Z</time>
      </trkpt>
      <trkpt lat="46.56381" lon="4.55901">
        <ele>213.809</ele>
        <time>2022-09-23T08:11:56Z</time>
      </trkpt>
      <trkpt lat="46.56388" lon="4.55903">
        <ele>213.109</ele>
        <time>2022-09-23T08:12:03Z</time>
      </trkpt>
      <trkpt lat="46.56395" lon="4.55908">
        <ele>214.409</ele>
        <time>2022-09-23T08:12:09Z</time>
      </trkpt>
      <trkpt lat="46.56402" lon="4.5591">
        <ele>216.009</ele>
        <time>2022-09-23T08:12:16Z</time>
      </trkpt>
      <trkpt lat="46.56408" lon="4.55914">
        <ele>216.609</ele>
        <time>2022-09-23T08:12:21Z</time>
      </trkpt>
      <trkpt lat="46.56414" lon="4.55915">
        <ele>217.409</ele>
        <time>2022-09-23T08:12:27Z</time>
      </trkpt>
      <trkpt lat="46.56421" lon="4.55917">
        <ele>217.509</ele>
        <time>2022-09-23T08:12:34Z</time>
      </trkpt>
      <trkpt lat="46.56428" lon="4.5592">
        <ele>218.309</ele>
        <time>2022-09-23T08:12:40Z</time>
      </trkpt>
      <trkpt lat="46.56435" lon="4.55923">
        <ele>220.409</ele>
        <time>2022-09-23T08:12:45Z</time>
      </trkpt>
      <trkpt lat="46.56441" lon="4.55924">
        <ele>220.309</ele>
        <time>2022-09-23T08:12:51Z</time>
      </trkpt>
      <trkpt lat="46.56449" lon="4.55924">
        <ele>218.509</ele>
        <time>2022-09-23T08:12:57Z</time>
      </trkpt>
      <trkpt lat="46.56456" lon="4.55929">
        <ele>217.01</ele>
        <time>2022-09-23T08:13:03Z</time>
      </trkpt>
      <trkpt lat="46.56463" lon="4.55933">
        <ele>217.31</ele>
        <time>2022-09-23T08:13:10Z</time>
      </trkpt>
      <trkpt lat="46.5647" lon="4.55935">
        <ele>218.51</ele>
        <time>2022-09-23T08:13:17Z</time>
      </trkpt>
      <trkpt lat="46.56477" lon="4.55938">
        <ele>218.01</ele>
        <time>2022-09-23T08:13:23Z</time>
      </trkpt>
      <trkpt lat="46.56484" lon="4.55942">
        <ele>218.11</ele>
        <time>2022-09-23T08:13:29Z</time>
      </trkpt>
      <trkpt lat="46.56491" lon="4.55943">
        <ele>216.61</ele>
        <time>2022-09-23T08:13:34Z</time>
      </trkpt>
      <trkpt lat="46.56498" lon="4.55945">
        <ele>220.31</ele>
        <time>2022-09-23T08:13:41Z</time>
      </trkpt>
      <trkpt lat="46.56505" lon="4.55948">
        <ele>219.91</ele>
        <time>2022-09-23T08:13:47Z</time>
      </trkpt>
      <trkpt lat="46.56511" lon="4.55952">
        <ele>219.41</ele>
        <time>2022-09-23T08:13:53Z</time>
      </trkpt>
      <trkpt lat="46.56519" lon="4.55955">
        <ele>220.61</ele>
        <time>2022-09-23T08:14:01Z</time>
      </trkpt>
      <trkpt lat="46.56525" lon="4.55957">
        <ele>220.51</ele>
        <time>2022-09-23T08:14:06Z</time>
      </trkpt>
      <trkpt lat="46.56531" lon="4.55962">
        <ele>219.41</ele>
        <time>2022-09-23T08:14:11Z</time>
      </trkpt>
      <trkpt lat="46.56538" lon="4.55964">
        <ele>219.11</ele>
        <time>2022-09-23T08:14:18Z</time>
      </trkpt>
      <trkpt lat="46.56545" lon="4.55966">
        <ele>218.31</ele>
        <time>2022-09-23T08:14:23Z</time>
      </trkpt>
      <trkpt lat="46.56552" lon="4.55969">
        <ele>217.11</ele>
        <time>2022-09-23T08:14:29Z</time>
      </trkpt>
      <trkpt lat="46.56558" lon="4.55971">
        <ele>216.01</ele>
        <time>2022-09-23T08:14:34Z</time>
      </trkpt>
      <trkpt lat="46.56565" lon="4.55972">
        <ele>213.71</ele>
        <time>2022-09-23T08:14:40Z</time>
      </trkpt>
      <trkpt lat="46.56571" lon="4.55973">
        <ele>212.91</ele>
        <time>2022-09-23T08:14:46Z</time>
      </trkpt>
      <trkpt lat="46.56579" lon="4.55975">
        <ele>214.11</ele>
        <time>2022-09-23T08:14:53Z</time>
      </trkpt>
      <trkpt lat="46.56585" lon="4.55972">
        <ele>213.71</ele>
        <time>2022-09-23T08:14:58Z</time>
      </trkpt>
      <trkpt lat="46.56593" lon="4.55973">
        <ele>214.91</ele>
        <time>2022-09-23T08:15:04Z</time>
      </trkpt>
      <trkpt lat="46.566" lon="4.55972">
        <ele>214.31</ele>
        <time>2022-09-23T08:15:10Z</time>
      </trkpt>
      <trkpt lat="46.56606" lon="4.5597">
        <ele>212.81</ele>
        <time>2022-09-23T08:15:16Z</time>
      </trkpt>
      <trkpt lat="46.56613" lon="4.55968">
        <ele>211.91</ele>
        <time>2022-09-23T08:15:23Z</time>
      </trkpt>
      <trkpt lat="46.56621" lon="4.55966">
        <ele>211.91</ele>
        <time>2022-09-23T08:15:29Z</time>
      </trkpt>
      <trkpt lat="46.56628" lon="4.55965">
        <ele>213.11</ele>
        <time>2022-09-23T08:15:35Z</time>
      </trkpt>
      <trkpt lat="46.56635" lon="4.55963">
        <ele>215.01</ele>
        <time>2022-09-23T08:15:41Z</time>
      </trkpt>
      <trkpt lat="46.56642" lon="4.55961">
        <ele>216.21</ele>
        <time>2022-09-23T08:15:48Z</time>
      </trkpt>
      <trkpt lat="46.5665" lon="4.5596">
        <ele>215.61</ele>
        <time>2022-09-23T08:15:53Z</time>
      </trkpt>
      <trkpt lat="46.56657" lon="4.5596">
        <ele>216.81</ele>
        <time>2022-09-23T08:15:58Z</time>
      </trkpt>
      <trkpt lat="46.56664" lon="4.55961">
        <ele>217.81</ele>
        <time>2022-09-23T08:16:04Z</time>
      </trkpt>
      <trkpt lat="46.56671" lon="4.55963">
        <ele>216.51</ele>
        <time>2022-09-23T08:16:11Z</time>
      </trkpt>
      <trkpt lat="46.56679" lon="4.55964">
        <ele>215.91</ele>
        <time>2022-09-23T08:16:17Z</time>
      </trkpt>
      <trkpt lat="46.56685" lon="4.55967">
        <ele>217.01</ele>
        <time>2022-09-23T08:16:23Z</time>
      </trkpt>
      <trkpt lat="46.56691" lon="4.55971">
        <ele>217.81</ele>
        <time>2022-09-23T08:16:29Z</time>
      </trkpt>
      <trkpt lat="46.56689" lon="4.5598">
        <ele>218.31</ele>
        <time>2022-09-23T08:17:06Z</time>
      </trkpt>
      <trkpt lat="46.5669" lon="4.5599">
        <ele>215.21</ele>
        <time>2022-09-23T08:17:15Z</time>
      </trkpt>
      <trkpt lat="46.56688" lon="4.55999">
        <ele>216.01</ele>
        <time>2022-09-23T08:17:24Z</time>
      </trkpt>
      <trkpt lat="46.56686" lon="4.56009">
        <ele>214.11</ele>
        <time>2022-09-23T08:17:33Z</time>
      </trkpt>
      <trkpt lat="46.56687" lon="4.56018">
        <ele>215.31</ele>
        <time>2022-09-23T08:17:44Z</time>
      </trkpt>
      <trkpt lat="46.56686" lon="4.56029">
        <ele>216.81</ele>
        <time>2022-09-23T08:17:53Z</time>
      </trkpt>
      <trkpt lat="46.56685" lon="4.56039">
        <ele>216.21</ele>
        <time>2022-09-23T08:18:10Z</time>
      </trkpt>
      <trkpt lat="46.56685" lon="4.56049">
        <ele>214.61</ele>
        <time>2022-09-23T08:18:25Z</time>
      </trkpt>
      <trkpt lat="46.56684" lon="4.56059">
        <ele>215.91</ele>
        <time>2022-09-23T08:18:36Z</time>
      </trkpt>
      <trkpt lat="46.56682" lon="4.5607">
        <ele>216.31</ele>
        <time>2022-09-23T08:18:45Z</time>
      </trkpt>
      <trkpt lat="46.56681" lon="4.56079">
        <ele>218.11</ele>
        <time>2022-09-23T08:18:54Z</time>
      </trkpt>
      <trkpt lat="46.56679" lon="4.56088">
        <ele>216.81</ele>
        <time>2022-09-23T08:19:02Z</time>
      </trkpt>
      <trkpt lat="46.56675" lon="4.56095">
        <ele>215.91</ele>
        <time>2022-09-23T08:19:11Z</time>
      </trkpt>
      <trkpt lat="46.5667" lon="4.56103">
        <ele>216.01</ele>
        <time>2022-09-23T08:19:24Z</time>
      </trkpt>
      <trkpt lat="46.56671" lon="4.56112">
        <ele>217.71</ele>
        <time>2022-09-23T08:19:39Z</time>
      </trkpt>
      <trkpt lat="46.56667" lon="4.5612">
        <ele>218.11</ele>
        <time>2022-09-23T08:22:14Z</time>
      </trkpt>
      <trkpt lat="46.56664" lon="4.56131">
        <ele>217.91</ele>
        <time>2022-09-23T08:22:26Z</time>
      </trkpt>
      <trkpt lat="46.56661" lon="4.5614">
        <ele>218.01</ele>
        <time>2022-09-23T08:22:31Z</time>
      </trkpt>
      <trkpt lat="46.56657" lon="4.56147">
        <ele>218.81</ele>
        <time>2022-09-23T08:22:37Z</time>
      </trkpt>
      <trkpt lat="46.56652" lon="4.56155">
        <ele>217.81</ele>
        <time>2022-09-23T08:23:19Z</time>
      </trkpt>
      <trkpt lat="46.56648" lon="4.56161">
        <ele>217.41</ele>
        <time>2022-09-23T08:23:26Z</time>
      </trkpt>
      <trkpt lat="46.56644" lon="4.56169">
        <ele>216.11</ele>
        <time>2022-09-23T08:23:41Z</time>
      </trkpt>
      <trkpt lat="46.56638" lon="4.56174">
        <ele>212.91</ele>
        <time>2022-09-23T08:24:13Z</time>
      </trkpt>
      <trkpt lat="46.56632" lon="4.56181">
        <ele>214.81</ele>
        <time>2022-09-23T08:24:31Z</time>
      </trkpt>
      <trkpt lat="46.56627" lon="4.56185">
        <ele>214.01</ele>
        <time>2022-09-23T08:24:40Z</time>
      </trkpt>
      <trkpt lat="46.5662" lon="4.56188">
        <ele>214.51</ele>
        <time>2022-09-23T08:24:48Z</time>
      </trkpt>
      <trkpt lat="46.56614" lon="4.56192">
        <ele>215.51</ele>
        <time>2022-09-23T08:25:03Z</time>
      </trkpt>
      <trkpt lat="46.56609" lon="4.56198">
        <ele>214.31</ele>
        <time>2022-09-23T08:25:17Z</time>
      </trkpt>
      <trkpt lat="46.56603" lon="4.56204">
        <ele>213.31</ele>
        <time>2022-09-23T08:25:28Z</time>
      </trkpt>
      <trkpt lat="46.56597" lon="4.56207">
        <ele>213.71</ele>
        <time>2022-09-23T08:25:35Z</time>
      </trkpt>
      <trkpt lat="46.56591" lon="4.56212">
        <ele>213.71</ele>
        <time>2022-09-23T08:25:44Z</time>
      </trkpt>
      <trkpt lat="46.56585" lon="4.56218">
        <ele>214.71</ele>
        <time>2022-09-23T08:25:53Z</time>
      </trkpt>
      <trkpt lat="46.5658" lon="4.56223">
        <ele>215.51</ele>
        <time>2022-09-23T08:26:00Z</time>
      </trkpt>
      <trkpt lat="46.56575" lon="4.5623">
        <ele>214.21</ele>
        <time>2022-09-23T08:26:08Z</time>
      </trkpt>
      <trkpt lat="46.5657" lon="4.56237">
        <ele>214.01</ele>
        <time>2022-09-23T08:26:16Z</time>
      </trkpt>
      <trkpt lat="46.56564" lon="4.56243">
        <ele>212.51</ele>
        <time>2022-09-23T08:26:24Z</time>
      </trkpt>
      <trkpt lat="46.56559" lon="4.56249">
        <ele>211.71</ele>
        <time>2022-09-23T08:26:33Z</time>
      </trkpt>
      <trkpt lat="46.56554" lon="4.56256">
        <ele>212.81</ele>
        <time>2022-09-23T08:26:41Z</time>
      </trkpt>
      <trkpt lat="46.5655" lon="4.56264">
        <ele>213.31</ele>
        <time>2022-09-23T08:26:47Z</time>
      </trkpt>
      <trkpt lat="46.56545" lon="4.56271">
        <ele>212.71</ele>
        <time>2022-09-23T08:26:54Z</time>
      </trkpt>
      <trkpt lat="46.5654" lon="4.56278">
        <ele>212.01</ele>
        <time>2022-09-23T08:27:01Z</time>
      </trkpt>
      <trkpt lat="46.56535" lon="4.56286">
        <ele>211.81</ele>
        <time>2022-09-23T08:27:07Z</time>
      </trkpt>
      <trkpt lat="46.5653" lon="4.56292">
        <ele>213.21</ele>
        <time>2022-09-23T08:27:14Z</time>
      </trkpt>
      <trkpt lat="46.56525" lon="4.56299">
        <ele>215.01</ele>
        <time>2022-09-23T08:27:20Z</time>
      </trkpt>
      <trkpt lat="46.5652" lon="4.56307">
        <ele>214.91</ele>
        <time>2022-09-23T08:27:28Z</time>
      </trkpt>
      <trkpt lat="46.56515" lon="4.56314">
        <ele>214.21</ele>
        <time>2022-09-23T08:27:37Z</time>
      </trkpt>
      <trkpt lat="46.56512" lon="4.56324">
        <ele>215.01</ele>
        <time>2022-09-23T08:27:49Z</time>
      </trkpt>
      <trkpt lat="46.56509" lon="4.56333">
        <ele>215.21</ele>
        <time>2022-09-23T08:27:55Z</time>
      </trkpt>
      <trkpt lat="46.56504" lon="4.5634">
        <ele>215.31</ele>
        <time>2022-09-23T08:28:02Z</time>
      </trkpt>
      <trkpt lat="46.56502" lon="4.56349">
        <ele>216.11</ele>
        <time>2022-09-23T08:28:09Z</time>
      </trkpt>
      <trkpt lat="46.56498" lon="4.56359">
        <ele>215.41</ele>
        <time>2022-09-23T08:28:19Z</time>
      </trkpt>
      <trkpt lat="46.56494" lon="4.56369">
        <ele>215.21</ele>
        <time>2022-09-23T08:28:25Z</time>
      </trkpt>
      <trkpt lat="46.5649" lon="4.56377">
        <ele>215.41</ele>
        <time>2022-09-23T08:28:30Z</time>
      </trkpt>
      <trkpt lat="46.56486" lon="4.56385">
        <ele>214.31</ele>
        <time>2022-09-23T08:28:36Z</time>
      </trkpt>
      <trkpt lat="46.56483" lon="4.56393">
        <ele>213.21</ele>
        <time>2022-09-23T08:28:43Z</time>
      </trkpt>
      <trkpt lat="46.56479" lon="4.56401">
        <ele>213.71</ele>
        <time>2022-09-23T08:28:49Z</time>
      </trkpt>
      <trkpt lat="46.56473" lon="4.5641">
        <ele>214.41</ele>
        <time>2022-09-23T08:28:54Z</time>
      </trkpt>
      <trkpt lat="46.56469" lon="4.56418">
        <ele>215.01</ele>
        <time>2022-09-23T08:29:00Z</time>
      </trkpt>
      <trkpt lat="46.56464" lon="4.56426">
        <ele>215.71</ele>
        <time>2022-09-23T08:29:06Z</time>
      </trkpt>
      <trkpt lat="46.56461" lon="4.56435">
        <ele>216.21</ele>
        <time>2022-09-23T08:29:12Z</time>
      </trkpt>
      <trkpt lat="46.56457" lon="4.56445">
        <ele>217.01</ele>
        <time>2022-09-23T08:29:17Z</time>
      </trkpt>
      <trkpt lat="46.56453" lon="4.56454">
        <ele>216.91</ele>
        <time>2022-09-23T08:29:23Z</time>
      </trkpt>
      <trkpt lat="46.56449" lon="4.56462">
        <ele>216.81</ele>
        <time>2022-09-23T08:29:29Z</time>
      </trkpt>
      <trkpt lat="46.56446" lon="4.56471">
        <ele>217.91</ele>
        <time>2022-09-23T08:29:35Z</time>
      </trkpt>
      <trkpt lat="46.56443" lon="4.5648">
        <ele>218.51</ele>
        <time>2022-09-23T08:29:41Z</time>
      </trkpt>
      <trkpt lat="46.56439" lon="4.56488">
        <ele>217.61</ele>
        <time>2022-09-23T08:29:47Z</time>
      </trkpt>
      <trkpt lat="46.56435" lon="4.56496">
        <ele>217.31</ele>
        <time>2022-09-23T08:29:53Z</time>
      </trkpt>
      <trkpt lat="46.56431" lon="4.56505">
        <ele>217.11</ele>
        <time>2022-09-23T08:29:59Z</time>
      </trkpt>
      <trkpt lat="46.56428" lon="4.56516">
        <ele>217.81</ele>
        <time>2022-09-23T08:30:05Z</time>
      </trkpt>
      <trkpt lat="46.56423" lon="4.56524">
        <ele>219.81</ele>
        <time>2022-09-23T08:30:10Z</time>
      </trkpt>
      <trkpt lat="46.56419" lon="4.56534">
        <ele>221.11</ele>
        <time>2022-09-23T08:30:16Z</time>
      </trkpt>
      <trkpt lat="46.56415" lon="4.56543">
        <ele>221.11</ele>
        <time>2022-09-23T08:30:22Z</time>
      </trkpt>
      <trkpt lat="46.56411" lon="4.56551">
        <ele>219.31</ele>
        <time>2022-09-23T08:30:28Z</time>
      </trkpt>
      <trkpt lat="46.56407" lon="4.5656">
        <ele>218.51</ele>
        <time>2022-09-23T08:30:34Z</time>
      </trkpt>
      <trkpt lat="46.56403" lon="4.5657">
        <ele>217.21</ele>
        <time>2022-09-23T08:30:41Z</time>
      </trkpt>
      <trkpt lat="46.564" lon="4.56578">
        <ele>215.81</ele>
        <time>2022-09-23T08:30:47Z</time>
      </trkpt>
      <trkpt lat="46.56396" lon="4.56589">
        <ele>216.11</ele>
        <time>2022-09-23T08:30:53Z</time>
      </trkpt>
      <trkpt lat="46.56393" lon="4.56599">
        <ele>216.61</ele>
        <time>2022-09-23T08:30:59Z</time>
      </trkpt>
      <trkpt lat="46.56389" lon="4.56608">
        <ele>218.11</ele>
        <time>2022-09-23T08:31:05Z</time>
      </trkpt>
      <trkpt lat="46.56384" lon="4.56616">
        <ele>219.21</ele>
        <time>2022-09-23T08:31:12Z</time>
      </trkpt>
      <trkpt lat="46.5638" lon="4.56623">
        <ele>219.61</ele>
        <time>2022-09-23T08:31:17Z</time>
      </trkpt>
      <trkpt lat="46.56375" lon="4.56632">
        <ele>219.51</ele>
        <time>2022-09-23T08:31:22Z</time>
      </trkpt>
      <trkpt lat="46.56371" lon="4.56641">
        <ele>218.01</ele>
        <time>2022-09-23T08:31:29Z</time>
      </trkpt>
      <trkpt lat="46.56366" lon="4.56649">
        <ele>218.31</ele>
        <time>2022-09-23T08:31:35Z</time>
      </trkpt>
      <trkpt lat="46.56361" lon="4.56657">
        <ele>218.31</ele>
        <time>2022-09-23T08:31:41Z</time>
      </trkpt>
      <trkpt lat="46.56357" lon="4.56665">
        <ele>218.81</ele>
        <time>2022-09-23T08:31:47Z</time>
      </trkpt>
      <trkpt lat="46.56353" lon="4.56673">
        <ele>221.31</ele>
        <time>2022-09-23T08:31:53Z</time>
      </trkpt>
      <trkpt lat="46.56349" lon="4.56681">
        <ele>220.91</ele>
        <time>2022-09-23T08:31:59Z</time>
      </trkpt>
      <trkpt lat="46.56345" lon="4.5669">
        <ele>219.11</ele>
        <time>2022-09-23T08:32:05Z</time>
      </trkpt>
      <trkpt lat="46.56341" lon="4.56698">
        <ele>220.31</ele>
        <time>2022-09-23T08:32:10Z</time>
      </trkpt>
      <trkpt lat="46.56337" lon="4.56706">
        <ele>220.21</ele>
        <time>2022-09-23T08:32:16Z</time>
      </trkpt>
      <trkpt lat="46.56333" lon="4.56715">
        <ele>219.91</ele>
        <time>2022-09-23T08:32:21Z</time>
      </trkpt>
      <trkpt lat="46.56329" lon="4.56724">
        <ele>219.41</ele>
        <time>2022-09-23T08:32:27Z</time>
      </trkpt>
      <trkpt lat="46.56325" lon="4.56733">
        <ele>219.21</ele>
        <time>2022-09-23T08:32:34Z</time>
      </trkpt>
      <trkpt lat="46.56321" lon="4.56741">
        <ele>219.61</ele>
        <time>2022-09-23T08:32:39Z</time>
      </trkpt>
      <trkpt lat="46.56317" lon="4.56751">
        <ele>221.21</ele>
        <time>2022-09-23T08:32:45Z</time>
      </trkpt>
      <trkpt lat="46.56314" lon="4.56761">
        <ele>222.61</ele>
        <time>2022-09-23T08:32:52Z</time>
      </trkpt>
      <trkpt lat="46.5631" lon="4.56769">
        <ele>222.31</ele>
        <time>2022-09-23T08:32:59Z</time>
      </trkpt>
      <trkpt lat="46.56304" lon="4.56778">
        <ele>222.71</ele>
        <time>2022-09-23T08:33:05Z</time>
      </trkpt>
      <trkpt lat="46.563" lon="4.56786">
        <ele>222.41</ele>
        <time>2022-09-23T08:33:11Z</time>
      </trkpt>
      <trkpt lat="46.56297" lon="4.56796">
        <ele>222.81</ele>
        <time>2022-09-23T08:33:17Z</time>
      </trkpt>
      <trkpt lat="46.56292" lon="4.56804">
        <ele>222.71</ele>
        <time>2022-09-23T08:33:22Z</time>
      </trkpt>
      <trkpt lat="46.56289" lon="4.56813">
        <ele>222.41</ele>
        <time>2022-09-23T08:33:28Z</time>
      </trkpt>
      <trkpt lat="46.56285" lon="4.56822">
        <ele>222.41</ele>
        <time>2022-09-23T08:33:33Z</time>
      </trkpt>
      <trkpt lat="46.56282" lon="4.5683">
        <ele>222.71</ele>
        <time>2022-09-23T08:33:39Z</time>
      </trkpt>
      <trkpt lat="46.56279" lon="4.56838">
        <ele>221.71</ele>
        <time>2022-09-23T08:33:45Z</time>
      </trkpt>
      <trkpt lat="46.56276" lon="4.56847">
        <ele>221.41</ele>
        <time>2022-09-23T08:33:53Z</time>
      </trkpt>
      <trkpt lat="46.56272" lon="4.56855">
        <ele>223.51</ele>
        <time>2022-09-23T08:33:59Z</time>
      </trkpt>
      <trkpt lat="46.56268" lon="4.56866">
        <ele>227.21</ele>
        <time>2022-09-23T08:34:05Z</time>
      </trkpt>
      <trkpt lat="46.56265" lon="4.56877">
        <ele>229.21</ele>
        <time>2022-09-23T08:34:10Z</time>
      </trkpt>
      <trkpt lat="46.56265" lon="4.56888">
        <ele>228.51</ele>
        <time>2022-09-23T08:34:18Z</time>
      </trkpt>
      <trkpt lat="46.56263" lon="4.56899">
        <ele>226.11</ele>
        <time>2022-09-23T08:34:25Z</time>
      </trkpt>
      <trkpt lat="46.5626" lon="4.56909">
        <ele>224.61</ele>
        <time>2022-09-23T08:34:32Z</time>
      </trkpt>
      <trkpt lat="46.56257" lon="4.56918">
        <ele>223.91</ele>
        <time>2022-09-23T08:34:37Z</time>
      </trkpt>
      <trkpt lat="46.56256" lon="4.56929">
        <ele>224.71</ele>
        <time>2022-09-23T08:34:43Z</time>
      </trkpt>
      <trkpt lat="46.56254" lon="4.5694">
        <ele>225.31</ele>
        <time>2022-09-23T08:34:49Z</time>
      </trkpt>
      <trkpt lat="46.56251" lon="4.5695">
        <ele>226.01</ele>
        <time>2022-09-23T08:34:54Z</time>
      </trkpt>
      <trkpt lat="46.56249" lon="4.5696">
        <ele>226.11</ele>
        <time>2022-09-23T08:35:00Z</time>
      </trkpt>
      <trkpt lat="46.56245" lon="4.5697">
        <ele>225.41</ele>
        <time>2022-09-23T08:35:06Z</time>
      </trkpt>
      <trkpt lat="46.5624" lon="4.56977">
        <ele>225.91</ele>
        <time>2022-09-23T08:35:11Z</time>
      </trkpt>
      <trkpt lat="46.56236" lon="4.56984">
        <ele>225.91</ele>
        <time>2022-09-23T08:35:17Z</time>
      </trkpt>
      <trkpt lat="46.56231" lon="4.5699">
        <ele>225.21</ele>
        <time>2022-09-23T08:35:22Z</time>
      </trkpt>
      <trkpt lat="46.56224" lon="4.56997">
        <ele>226.01</ele>
        <time>2022-09-23T08:35:29Z</time>
      </trkpt>
      <trkpt lat="46.5622" lon="4.57004">
        <ele>226.11</ele>
        <time>2022-09-23T08:35:35Z</time>
      </trkpt>
      <trkpt lat="46.56214" lon="4.57009">
        <ele>227.71</ele>
        <time>2022-09-23T08:35:41Z</time>
      </trkpt>
      <trkpt lat="46.56209" lon="4.57016">
        <ele>228.41</ele>
        <time>2022-09-23T08:35:46Z</time>
      </trkpt>
      <trkpt lat="46.56203" lon="4.57021">
        <ele>227.71</ele>
        <time>2022-09-23T08:35:52Z</time>
      </trkpt>
      <trkpt lat="46.56196" lon="4.57023">
        <ele>228.71</ele>
        <time>2022-09-23T08:35:58Z</time>
      </trkpt>
      <trkpt lat="46.56189" lon="4.57028">
        <ele>227.31</ele>
        <time>2022-09-23T08:36:04Z</time>
      </trkpt>
      <trkpt lat="46.56182" lon="4.57031">
        <ele>229.61</ele>
        <time>2022-09-23T08:38:28Z</time>
      </trkpt>
      <trkpt lat="46.56177" lon="4.57037">
        <ele>229.51</ele>
        <time>2022-09-23T08:38:35Z</time>
      </trkpt>
      <trkpt lat="46.56171" lon="4.57044">
        <ele>227.71</ele>
        <time>2022-09-23T08:38:41Z</time>
      </trkpt>
      <trkpt lat="46.56165" lon="4.57049">
        <ele>227.91</ele>
        <time>2022-09-23T08:38:49Z</time>
      </trkpt>
      <trkpt lat="46.5616" lon="4.57057">
        <ele>228.01</ele>
        <time>2022-09-23T08:38:55Z</time>
      </trkpt>
      <trkpt lat="46.56154" lon="4.57064">
        <ele>229.11</ele>
        <time>2022-09-23T08:39:02Z</time>
      </trkpt>
      <trkpt lat="46.56149" lon="4.5707">
        <ele>230.509</ele>
        <time>2022-09-23T08:39:09Z</time>
      </trkpt>
      <trkpt lat="46.56144" lon="4.57077">
        <ele>230.709</ele>
        <time>2022-09-23T08:39:15Z</time>
      </trkpt>
      <trkpt lat="46.5614" lon="4.57085">
        <ele>231.609</ele>
        <time>2022-09-23T08:39:23Z</time>
      </trkpt>
      <trkpt lat="46.56134" lon="4.57092">
        <ele>230.909</ele>
        <time>2022-09-23T08:39:30Z</time>
      </trkpt>
      <trkpt lat="46.56129" lon="4.57097">
        <ele>229.909</ele>
        <time>2022-09-23T08:39:42Z</time>
      </trkpt>
      <trkpt lat="46.56123" lon="4.57103">
        <ele>231.809</ele>
        <time>2022-09-23T08:39:57Z</time>
      </trkpt>
      <trkpt lat="46.56119" lon="4.5711">
        <ele>235.309</ele>
        <time>2022-09-23T08:40:10Z</time>
      </trkpt>
      <trkpt lat="46.56113" lon="4.57116">
        <ele>237.009</ele>
        <time>2022-09-23T08:40:17Z</time>
      </trkpt>
      <trkpt lat="46.56106" lon="4.57118">
        <ele>235.209</ele>
        <time>2022-09-23T08:40:29Z</time>
      </trkpt>
      <trkpt lat="46.561" lon="4.57121">
        <ele>233.609</ele>
        <time>2022-09-23T08:40:36Z</time>
      </trkpt>
      <trkpt lat="46.56094" lon="4.57126">
        <ele>231.709</ele>
        <time>2022-09-23T08:40:43Z</time>
      </trkpt>
      <trkpt lat="46.56087" lon="4.57129">
        <ele>231.009</ele>
        <time>2022-09-23T08:40:52Z</time>
      </trkpt>
      <trkpt lat="46.5608" lon="4.57131">
        <ele>232.409</ele>
        <time>2022-09-23T08:40:59Z</time>
      </trkpt>
      <trkpt lat="46.56073" lon="4.57133">
        <ele>233.009</ele>
        <time>2022-09-23T08:41:06Z</time>
      </trkpt>
      <trkpt lat="46.56066" lon="4.57133">
        <ele>233.309</ele>
        <time>2022-09-23T08:41:13Z</time>
      </trkpt>
      <trkpt lat="46.5606" lon="4.57137">
        <ele>235.409</ele>
        <time>2022-09-23T08:41:22Z</time>
      </trkpt>
      <trkpt lat="46.56053" lon="4.57141">
        <ele>237.609</ele>
        <time>2022-09-23T08:41:44Z</time>
      </trkpt>
      <trkpt lat="46.56047" lon="4.57146">
        <ele>236.709</ele>
        <time>2022-09-23T08:41:52Z</time>
      </trkpt>
      <trkpt lat="46.5604" lon="4.57151">
        <ele>237.509</ele>
        <time>2022-09-23T08:42:00Z</time>
      </trkpt>
      <trkpt lat="46.56034" lon="4.57157">
        <ele>237.409</ele>
        <time>2022-09-23T08:42:07Z</time>
      </trkpt>
      <trkpt lat="46.56028" lon="4.57164">
        <ele>237.909</ele>
        <time>2022-09-23T08:42:13Z</time>
      </trkpt>
      <trkpt lat="46.56023" lon="4.57172">
        <ele>238.609</ele>
        <time>2022-09-23T08:42:20Z</time>
      </trkpt>
      <trkpt lat="46.56018" lon="4.57179">
        <ele>238.209</ele>
        <time>2022-09-23T08:42:26Z</time>
      </trkpt>
      <trkpt lat="46.56012" lon="4.57187">
        <ele>239.709</ele>
        <time>2022-09-23T08:42:31Z</time>
      </trkpt>
      <trkpt lat="46.56007" lon="4.57195">
        <ele>240.409</ele>
        <time>2022-09-23T08:42:37Z</time>
      </trkpt>
      <trkpt lat="46.56001" lon="4.57203">
        <ele>241.909</ele>
        <time>2022-09-23T08:42:44Z</time>
      </trkpt>
      <trkpt lat="46.55996" lon="4.5721">
        <ele>243.309</ele>
        <time>2022-09-23T08:42:50Z</time>
      </trkpt>
      <trkpt lat="46.55992" lon="4.57218">
        <ele>244.309</ele>
        <time>2022-09-23T08:42:57Z</time>
      </trkpt>
      <trkpt lat="46.55987" lon="4.57225">
        <ele>245.309</ele>
        <time>2022-09-23T08:43:05Z</time>
      </trkpt>
      <trkpt lat="46.5598" lon="4.57229">
        <ele>246.409</ele>
        <time>2022-09-23T08:43:11Z</time>
      </trkpt>
      <trkpt lat="46.55976" lon="4.57236">
        <ele>245.609</ele>
        <time>2022-09-23T08:43:18Z</time>
      </trkpt>
      <trkpt lat="46.55969" lon="4.57242">
        <ele>246.409</ele>
        <time>2022-09-23T08:43:25Z</time>
      </trkpt>
      <trkpt lat="46.55963" lon="4.57247">
        <ele>246.909</ele>
        <time>2022-09-23T08:43:32Z</time>
      </trkpt>
      <trkpt lat="46.55957" lon="4.57251">
        <ele>247.609</ele>
        <time>2022-09-23T08:43:38Z</time>
      </trkpt>
      <trkpt lat="46.5595" lon="4.57253">
        <ele>247.609</ele>
        <time>2022-09-23T08:43:44Z</time>
      </trkpt>
      <trkpt lat="46.55943" lon="4.57256">
        <ele>247.709</ele>
        <time>2022-09-23T08:43:50Z</time>
      </trkpt>
      <trkpt lat="46.55937" lon="4.5726">
        <ele>248.909</ele>
        <time>2022-09-23T08:43:57Z</time>
      </trkpt>
      <trkpt lat="46.55931" lon="4.57263">
        <ele>249.009</ele>
        <time>2022-09-23T08:44:04Z</time>
      </trkpt>
      <trkpt lat="46.55924" lon="4.57265">
        <ele>248.309</ele>
        <time>2022-09-23T08:44:10Z</time>
      </trkpt>
      <trkpt lat="46.55917" lon="4.5727">
        <ele>248.709</ele>
        <time>2022-09-23T08:44:16Z</time>
      </trkpt>
      <trkpt lat="46.5591" lon="4.57273">
        <ele>249.409</ele>
        <time>2022-09-23T08:44:22Z</time>
      </trkpt>
      <trkpt lat="46.55903" lon="4.57277">
        <ele>250.409</ele>
        <time>2022-09-23T08:44:29Z</time>
      </trkpt>
      <trkpt lat="46.55897" lon="4.57281">
        <ele>251.009</ele>
        <time>2022-09-23T08:44:36Z</time>
      </trkpt>
      <trkpt lat="46.5589" lon="4.57284">
        <ele>252.809</ele>
        <time>2022-09-23T08:44:43Z</time>
      </trkpt>
      <trkpt lat="46.55884" lon="4.57288">
        <ele>252.409</ele>
        <time>2022-09-23T08:44:49Z</time>
      </trkpt>
      <trkpt lat="46.55877" lon="4.57291">
        <ele>252.109</ele>
        <time>2022-09-23T08:44:56Z</time>
      </trkpt>
      <trkpt lat="46.55871" lon="4.57295">
        <ele>252.409</ele>
        <time>2022-09-23T08:45:03Z</time>
      </trkpt>
      <trkpt lat="46.55865" lon="4.573">
        <ele>253.809</ele>
        <time>2022-09-23T08:45:10Z</time>
      </trkpt>
      <trkpt lat="46.55858" lon="4.57304">
        <ele>255.709</ele>
        <time>2022-09-23T08:45:17Z</time>
      </trkpt>
      <trkpt lat="46.55851" lon="4.57306">
        <ele>256.009</ele>
        <time>2022-09-23T08:45:23Z</time>
      </trkpt>
      <trkpt lat="46.55845" lon="4.5731">
        <ele>256.309</ele>
        <time>2022-09-23T08:45:29Z</time>
      </trkpt>
      <trkpt lat="46.55837" lon="4.57313">
        <ele>255.609</ele>
        <time>2022-09-23T08:45:37Z</time>
      </trkpt>
      <trkpt lat="46.55831" lon="4.57317">
        <ele>256.409</ele>
        <time>2022-09-23T08:45:43Z</time>
      </trkpt>
      <trkpt lat="46.55826" lon="4.57322">
        <ele>256.209</ele>
        <time>2022-09-23T08:45:49Z</time>
      </trkpt>
      <trkpt lat="46.55818" lon="4.57324">
        <ele>256.709</ele>
        <time>2022-09-23T08:45:56Z</time>
      </trkpt>
      <trkpt lat="46.55811" lon="4.57327">
        <ele>258.309</ele>
        <time>2022-09-23T08:46:02Z</time>
      </trkpt>
      <trkpt lat="46.55804" lon="4.57328">
        <ele>260.809</ele>
        <time>2022-09-23T08:46:08Z</time>
      </trkpt>
      <trkpt lat="46.55797" lon="4.57326">
        <ele>259.409</ele>
        <time>2022-09-23T08:46:17Z</time>
      </trkpt>
      <trkpt lat="46.55791" lon="4.57323">
        <ele>259.409</ele>
        <time>2022-09-23T08:46:23Z</time>
      </trkpt>
      <trkpt lat="46.55783" lon="4.57322">
        <ele>259.009</ele>
        <time>2022-09-23T08:46:29Z</time>
      </trkpt>
      <trkpt lat="46.55776" lon="4.57322">
        <ele>258.409</ele>
        <time>2022-09-23T08:46:35Z</time>
      </trkpt>
      <trkpt lat="46.55769" lon="4.5732">
        <ele>257.709</ele>
        <time>2022-09-23T08:46:41Z</time>
      </trkpt>
      <trkpt lat="46.55762" lon="4.57321">
        <ele>258.609</ele>
        <time>2022-09-23T08:46:47Z</time>
      </trkpt>
      <trkpt lat="46.55755" lon="4.57319">
        <ele>259.009</ele>
        <time>2022-09-23T08:46:53Z</time>
      </trkpt>
      <trkpt lat="46.55748" lon="4.57319">
        <ele>259.209</ele>
        <time>2022-09-23T08:46:59Z</time>
      </trkpt>
      <trkpt lat="46.55741" lon="4.57317">
        <ele>259.709</ele>
        <time>2022-09-23T08:47:06Z</time>
      </trkpt>
      <trkpt lat="46.55734" lon="4.57318">
        <ele>260.009</ele>
        <time>2022-09-23T08:47:12Z</time>
      </trkpt>
      <trkpt lat="46.55727" lon="4.57316">
        <ele>259.209</ele>
        <time>2022-09-23T08:47:17Z</time>
      </trkpt>
      <trkpt lat="46.5572" lon="4.57313">
        <ele>259.009</ele>
        <time>2022-09-23T08:47:23Z</time>
      </trkpt>
      <trkpt lat="46.55713" lon="4.5731">
        <ele>259.208</ele>
        <time>2022-09-23T08:47:29Z</time>
      </trkpt>
      <trkpt lat="46.55705" lon="4.57308">
        <ele>259.908</ele>
        <time>2022-09-23T08:47:35Z</time>
      </trkpt>
      <trkpt lat="46.55698" lon="4.57306">
        <ele>260.408</ele>
        <time>2022-09-23T08:47:41Z</time>
      </trkpt>
      <trkpt lat="46.55692" lon="4.57304">
        <ele>259.708</ele>
        <time>2022-09-23T08:47:50Z</time>
      </trkpt>
      <trkpt lat="46.55685" lon="4.57302">
        <ele>260.708</ele>
        <time>2022-09-23T08:48:01Z</time>
      </trkpt>
      <trkpt lat="46.55679" lon="4.57299">
        <ele>262.508</ele>
        <time>2022-09-23T08:48:30Z</time>
      </trkpt>
      <trkpt lat="46.55672" lon="4.57296">
        <ele>260.008</ele>
        <time>2022-09-23T08:49:00Z</time>
      </trkpt>
      <trkpt lat="46.55665" lon="4.57295">
        <ele>260.008</ele>
        <time>2022-09-23T08:49:13Z</time>
      </trkpt>
      <trkpt lat="46.55659" lon="4.57291">
        <ele>257.008</ele>
        <time>2022-09-23T08:49:27Z</time>
      </trkpt>
      <trkpt lat="46.55652" lon="4.57287">
        <ele>255.908</ele>
        <time>2022-09-23T08:49:40Z</time>
      </trkpt>
      <trkpt lat="46.55646" lon="4.57284">
        <ele>255.008</ele>
        <time>2022-09-23T08:49:47Z</time>
      </trkpt>
      <trkpt lat="46.5564" lon="4.57279">
        <ele>254.408</ele>
        <time>2022-09-23T08:49:55Z</time>
      </trkpt>
      <trkpt lat="46.55633" lon="4.57275">
        <ele>252.908</ele>
        <time>2022-09-23T08:50:03Z</time>
      </trkpt>
      <trkpt lat="46.55626" lon="4.57271">
        <ele>251.808</ele>
        <time>2022-09-23T08:50:13Z</time>
      </trkpt>
      <trkpt lat="46.5562" lon="4.57269">
        <ele>249.108</ele>
        <time>2022-09-23T08:50:23Z</time>
      </trkpt>
      <trkpt lat="46.55613" lon="4.57269">
        <ele>246.308</ele>
        <time>2022-09-23T08:50:30Z</time>
      </trkpt>
      <trkpt lat="46.55606" lon="4.5727">
        <ele>244.708</ele>
        <time>2022-09-23T08:50:37Z</time>
      </trkpt>
      <trkpt lat="46.55599" lon="4.57272">
        <ele>243.208</ele>
        <time>2022-09-23T08:50:45Z</time>
      </trkpt>
      <trkpt lat="46.55592" lon="4.57273">
        <ele>242.508</ele>
        <time>2022-09-23T08:50:52Z</time>
      </trkpt>
      <trkpt lat="46.55585" lon="4.57275">
        <ele>243.008</ele>
        <time>2022-09-23T08:50:59Z</time>
      </trkpt>
      <trkpt lat="46.55578" lon="4.57279">
        <ele>241.708</ele>
        <time>2022-09-23T08:51:06Z</time>
      </trkpt>
      <trkpt lat="46.55571" lon="4.5728">
        <ele>241.708</ele>
        <time>2022-09-23T08:51:12Z</time>
      </trkpt>
      <trkpt lat="46.55565" lon="4.57282">
        <ele>244.208</ele>
        <time>2022-09-23T08:51:23Z</time>
      </trkpt>
      <trkpt lat="46.55558" lon="4.57285">
        <ele>244.908</ele>
        <time>2022-09-23T08:51:40Z</time>
      </trkpt>
      <trkpt lat="46.55552" lon="4.57289">
        <ele>246.008</ele>
        <time>2022-09-23T08:55:10Z</time>
      </trkpt>
      <trkpt lat="46.55546" lon="4.57293">
        <ele>245.408</ele>
        <time>2022-09-23T08:55:53Z</time>
      </trkpt>
      <trkpt lat="46.55539" lon="4.57296">
        <ele>243.608</ele>
        <time>2022-09-23T08:56:03Z</time>
      </trkpt>
      <trkpt lat="46.55532" lon="4.57299">
        <ele>242.708</ele>
        <time>2022-09-23T08:56:12Z</time>
      </trkpt>
      <trkpt lat="46.55526" lon="4.57304">
        <ele>243.408</ele>
        <time>2022-09-23T08:56:20Z</time>
      </trkpt>
      <trkpt lat="46.55519" lon="4.57306">
        <ele>243.508</ele>
        <time>2022-09-23T08:56:30Z</time>
      </trkpt>
      <trkpt lat="46.55513" lon="4.57309">
        <ele>238.908</ele>
        <time>2022-09-23T08:56:48Z</time>
      </trkpt>
      <trkpt lat="46.55509" lon="4.57321">
        <ele>236.408</ele>
        <time>2022-09-23T08:57:16Z</time>
      </trkpt>
      <trkpt lat="46.55503" lon="4.57328">
        <ele>237.308</ele>
        <time>2022-09-23T08:57:28Z</time>
      </trkpt>
      <trkpt lat="46.555" lon="4.57337">
        <ele>236.908</ele>
        <time>2022-09-23T08:57:36Z</time>
      </trkpt>
      <trkpt lat="46.55501" lon="4.57346">
        <ele>236.508</ele>
        <time>2022-09-23T08:58:01Z</time>
      </trkpt>
      <trkpt lat="46.55498" lon="4.57357">
        <ele>237.108</ele>
        <time>2022-09-23T08:58:07Z</time>
      </trkpt>
      <trkpt lat="46.55496" lon="4.57366">
        <ele>235.308</ele>
        <time>2022-09-23T08:58:16Z</time>
      </trkpt>
      <trkpt lat="46.55494" lon="4.57375">
        <ele>231.908</ele>
        <time>2022-09-23T08:58:24Z</time>
      </trkpt>
      <trkpt lat="46.55492" lon="4.57386">
        <ele>230.208</ele>
        <time>2022-09-23T08:58:32Z</time>
      </trkpt>
      <trkpt lat="46.55493" lon="4.57395">
        <ele>226.708</ele>
        <time>2022-09-23T08:58:41Z</time>
      </trkpt>
      <trkpt lat="46.55491" lon="4.57404">
        <ele>226.608</ele>
        <time>2022-09-23T08:58:46Z</time>
      </trkpt>
      <trkpt lat="46.5549" lon="4.57414">
        <ele>226.208</ele>
        <time>2022-09-23T08:58:53Z</time>
      </trkpt>
      <trkpt lat="46.55491" lon="4.57424">
        <ele>224.908</ele>
        <time>2022-09-23T08:59:01Z</time>
      </trkpt>
      <trkpt lat="46.55488" lon="4.57434">
        <ele>224.508</ele>
        <time>2022-09-23T08:59:09Z</time>
      </trkpt>
      <trkpt lat="46.55485" lon="4.57443">
        <ele>223.308</ele>
        <time>2022-09-23T08:59:14Z</time>
      </trkpt>
      <trkpt lat="46.55485" lon="4.57454">
        <ele>224.208</ele>
        <time>2022-09-23T08:59:21Z</time>
      </trkpt>
      <trkpt lat="46.55481" lon="4.57462">
        <ele>226.108</ele>
        <time>2022-09-23T08:59:31Z</time>
      </trkpt>
      <trkpt lat="46.5548" lon="4.57472">
        <ele>223.808</ele>
        <time>2022-09-23T08:59:41Z</time>
      </trkpt>
      <trkpt lat="46.5548" lon="4.57482">
        <ele>222.708</ele>
        <time>2022-09-23T08:59:49Z</time>
      </trkpt>
      <trkpt lat="46.5548" lon="4.57492">
        <ele>223.208</ele>
        <time>2022-09-23T08:59:56Z</time>
      </trkpt>
      <trkpt lat="46.55479" lon="4.57503">
        <ele>224.108</ele>
        <time>2022-09-23T09:00:03Z</time>
      </trkpt>
      <trkpt lat="46.55479" lon="4.57515">
        <ele>224.308</ele>
        <time>2022-09-23T09:00:09Z</time>
      </trkpt>
      <trkpt lat="46.55478" lon="4.57525">
        <ele>225.208</ele>
        <time>2022-09-23T09:00:15Z</time>
      </trkpt>
      <trkpt lat="46.55479" lon="4.57535">
        <ele>227.708</ele>
        <time>2022-09-23T09:00:22Z</time>
      </trkpt>
      <trkpt lat="46.55479" lon="4.57545">
        <ele>229.208</ele>
        <time>2022-09-23T09:00:28Z</time>
      </trkpt>
      <trkpt lat="46.55478" lon="4.57555">
        <ele>228.608</ele>
        <time>2022-09-23T09:00:34Z</time>
      </trkpt>
      <trkpt lat="46.55478" lon="4.57565">
        <ele>228.608</ele>
        <time>2022-09-23T09:00:41Z</time>
      </trkpt>
      <trkpt lat="46.55476" lon="4.57575">
        <ele>228.508</ele>
        <time>2022-09-23T09:00:46Z</time>
      </trkpt>
      <trkpt lat="46.55474" lon="4.57585">
        <ele>228.008</ele>
        <time>2022-09-23T09:00:52Z</time>
      </trkpt>
      <trkpt lat="46.55472" lon="4.57595">
        <ele>228.708</ele>
        <time>2022-09-23T09:00:57Z</time>
      </trkpt>
      <trkpt lat="46.55471" lon="4.57604">
        <ele>226.908</ele>
        <time>2022-09-23T09:01:03Z</time>
      </trkpt>
      <trkpt lat="46.5547" lon="4.57615">
        <ele>226.008</ele>
        <time>2022-09-23T09:01:10Z</time>
      </trkpt>
      <trkpt lat="46.55469" lon="4.57625">
        <ele>227.408</ele>
        <time>2022-09-23T09:01:17Z</time>
      </trkpt>
      <trkpt lat="46.55471" lon="4.57636">
        <ele>230.508</ele>
        <time>2022-09-23T09:01:24Z</time>
      </trkpt>
      <trkpt lat="46.55477" lon="4.57641">
        <ele>229.108</ele>
        <time>2022-09-23T09:01:36Z</time>
      </trkpt>
      <trkpt lat="46.55484" lon="4.57643">
        <ele>226.908</ele>
        <time>2022-09-23T09:01:54Z</time>
      </trkpt>
      <trkpt lat="46.55491" lon="4.57644">
        <ele>224.008</ele>
        <time>2022-09-23T09:02:02Z</time>
      </trkpt>
      <trkpt lat="46.55498" lon="4.57648">
        <ele>225.608</ele>
        <time>2022-09-23T09:02:11Z</time>
      </trkpt>
      <trkpt lat="46.55505" lon="4.57648">
        <ele>225.208</ele>
        <time>2022-09-23T09:02:17Z</time>
      </trkpt>
      <trkpt lat="46.55511" lon="4.57652">
        <ele>224.608</ele>
        <time>2022-09-23T09:02:25Z</time>
      </trkpt>
      <trkpt lat="46.55519" lon="4.57654">
        <ele>226.008</ele>
        <time>2022-09-23T09:02:33Z</time>
      </trkpt>
      <trkpt lat="46.55525" lon="4.57659">
        <ele>226.608</ele>
        <time>2022-09-23T09:02:41Z</time>
      </trkpt>
      <trkpt lat="46.5553" lon="4.57665">
        <ele>229.708</ele>
        <time>2022-09-23T09:02:50Z</time>
      </trkpt>
      <trkpt lat="46.55535" lon="4.57671">
        <ele>232.508</ele>
        <time>2022-09-23T09:03:05Z</time>
      </trkpt>
      <trkpt lat="46.55536" lon="4.57681">
        <ele>233.608</ele>
        <time>2022-09-23T09:03:12Z</time>
      </trkpt>
      <trkpt lat="46.55537" lon="4.5769">
        <ele>233.808</ele>
        <time>2022-09-23T09:03:20Z</time>
      </trkpt>
      <trkpt lat="46.55539" lon="4.577">
        <ele>234.108</ele>
        <time>2022-09-23T09:03:29Z</time>
      </trkpt>
      <trkpt lat="46.55542" lon="4.57709">
        <ele>236.008</ele>
        <time>2022-09-23T09:03:37Z</time>
      </trkpt>
      <trkpt lat="46.55539" lon="4.57719">
        <ele>235.408</ele>
        <time>2022-09-23T09:03:46Z</time>
      </trkpt>
      <trkpt lat="46.55541" lon="4.57728">
        <ele>234.408</ele>
        <time>2022-09-23T09:03:55Z</time>
      </trkpt>
      <trkpt lat="46.55541" lon="4.57738">
        <ele>234.008</ele>
        <time>2022-09-23T09:04:03Z</time>
      </trkpt>
      <trkpt lat="46.55542" lon="4.57748">
        <ele>233.308</ele>
        <time>2022-09-23T09:04:13Z</time>
      </trkpt>
      <trkpt lat="46.55547" lon="4.57755">
        <ele>232.208</ele>
        <time>2022-09-23T09:04:20Z</time>
      </trkpt>
      <trkpt lat="46.55551" lon="4.57764">
        <ele>234.408</ele>
        <time>2022-09-23T09:04:26Z</time>
      </trkpt>
      <trkpt lat="46.55555" lon="4.57772">
        <ele>237.408</ele>
        <time>2022-09-23T09:04:33Z</time>
      </trkpt>
      <trkpt lat="46.55557" lon="4.57782">
        <ele>239.608</ele>
        <time>2022-09-23T09:04:41Z</time>
      </trkpt>
      <trkpt lat="46.55559" lon="4.57792">
        <ele>239.808</ele>
        <time>2022-09-23T09:04:47Z</time>
      </trkpt>
      <trkpt lat="46.55563" lon="4.57801">
        <ele>241.708</ele>
        <time>2022-09-23T09:04:53Z</time>
      </trkpt>
      <trkpt lat="46.55567" lon="4.5781">
        <ele>242.608</ele>
        <time>2022-09-23T09:05:00Z</time>
      </trkpt>
      <trkpt lat="46.55571" lon="4.57817">
        <ele>243.008</ele>
        <time>2022-09-23T09:05:06Z</time>
      </trkpt>
      <trkpt lat="46.55576" lon="4.57825">
        <ele>242.108</ele>
        <time>2022-09-23T09:05:14Z</time>
      </trkpt>
      <trkpt lat="46.5558" lon="4.57833">
        <ele>241.508</ele>
        <time>2022-09-23T09:05:21Z</time>
      </trkpt>
      <trkpt lat="46.55585" lon="4.57841">
        <ele>242.209</ele>
        <time>2022-09-23T09:05:27Z</time>
      </trkpt>
      <trkpt lat="46.55589" lon="4.5785">
        <ele>243.709</ele>
        <time>2022-09-23T09:05:33Z</time>
      </trkpt>
      <trkpt lat="46.55593" lon="4.57858">
        <ele>243.809</ele>
        <time>2022-09-23T09:05:40Z</time>
      </trkpt>
      <trkpt lat="46.55595" lon="4.57867">
        <ele>245.509</ele>
        <time>2022-09-23T09:05:46Z</time>
      </trkpt>
      <trkpt lat="46.55598" lon="4.57876">
        <ele>244.809</ele>
        <time>2022-09-23T09:05:52Z</time>
      </trkpt>
      <trkpt lat="46.55602" lon="4.57884">
        <ele>246.409</ele>
        <time>2022-09-23T09:05:58Z</time>
      </trkpt>
      <trkpt lat="46.55606" lon="4.57893">
        <ele>246.809</ele>
        <time>2022-09-23T09:06:05Z</time>
      </trkpt>
      <trkpt lat="46.5561" lon="4.57902">
        <ele>247.109</ele>
        <time>2022-09-23T09:06:11Z</time>
      </trkpt>
      <trkpt lat="46.55613" lon="4.57911">
        <ele>248.509</ele>
        <time>2022-09-23T09:06:17Z</time>
      </trkpt>
      <trkpt lat="46.55617" lon="4.57921">
        <ele>249.809</ele>
        <time>2022-09-23T09:06:24Z</time>
      </trkpt>
      <trkpt lat="46.55622" lon="4.57928">
        <ele>249.509</ele>
        <time>2022-09-23T09:06:30Z</time>
      </trkpt>
      <trkpt lat="46.55625" lon="4.57938">
        <ele>249.309</ele>
        <time>2022-09-23T09:06:37Z</time>
      </trkpt>
      <trkpt lat="46.55628" lon="4.57948">
        <ele>251.209</ele>
        <time>2022-09-23T09:06:43Z</time>
      </trkpt>
      <trkpt lat="46.55632" lon="4.57955">
        <ele>251.609</ele>
        <time>2022-09-23T09:06:50Z</time>
      </trkpt>
      <trkpt lat="46.55637" lon="4.57964">
        <ele>251.709</ele>
        <time>2022-09-23T09:06:57Z</time>
      </trkpt>
      <trkpt lat="46.5564" lon="4.57974">
        <ele>252.609</ele>
        <time>2022-09-23T09:07:03Z</time>
      </trkpt>
      <trkpt lat="46.55644" lon="4.57982">
        <ele>252.909</ele>
        <time>2022-09-23T09:07:09Z</time>
      </trkpt>
      <trkpt lat="46.5565" lon="4.57989">
        <ele>252.509</ele>
        <time>2022-09-23T09:07:15Z</time>
      </trkpt>
      <trkpt lat="46.55654" lon="4.57998">
        <ele>253.609</ele>
        <time>2022-09-23T09:07:22Z</time>
      </trkpt>
      <trkpt lat="46.55657" lon="4.58008">
        <ele>255.809</ele>
        <time>2022-09-23T09:07:28Z</time>
      </trkpt>
      <trkpt lat="46.55661" lon="4.58015">
        <ele>257.309</ele>
        <time>2022-09-23T09:07:34Z</time>
      </trkpt>
      <trkpt lat="46.55664" lon="4.58024">
        <ele>259.309</ele>
        <time>2022-09-23T09:07:40Z</time>
      </trkpt>
      <trkpt lat="46.55667" lon="4.58032">
        <ele>258.609</ele>
        <time>2022-09-23T09:07:47Z</time>
      </trkpt>
      <trkpt lat="46.55669" lon="4.58041">
        <ele>258.209</ele>
        <time>2022-09-23T09:07:53Z</time>
      </trkpt>
      <trkpt lat="46.55672" lon="4.5805">
        <ele>259.009</ele>
        <time>2022-09-23T09:08:00Z</time>
      </trkpt>
      <trkpt lat="46.55676" lon="4.58059">
        <ele>258.409</ele>
        <time>2022-09-23T09:08:07Z</time>
      </trkpt>
      <trkpt lat="46.55678" lon="4.58069">
        <ele>258.109</ele>
        <time>2022-09-23T09:08:13Z</time>
      </trkpt>
      <trkpt lat="46.55681" lon="4.58078">
        <ele>258.909</ele>
        <time>2022-09-23T09:08:19Z</time>
      </trkpt>
      <trkpt lat="46.55683" lon="4.58087">
        <ele>260.309</ele>
        <time>2022-09-23T09:08:27Z</time>
      </trkpt>
      <trkpt lat="46.55687" lon="4.58097">
        <ele>261.409</ele>
        <time>2022-09-23T09:08:34Z</time>
      </trkpt>
      <trkpt lat="46.55693" lon="4.58104">
        <ele>262.409</ele>
        <time>2022-09-23T09:08:41Z</time>
      </trkpt>
      <trkpt lat="46.55697" lon="4.58112">
        <ele>263.409</ele>
        <time>2022-09-23T09:08:47Z</time>
      </trkpt>
      <trkpt lat="46.55701" lon="4.5812">
        <ele>262.109</ele>
        <time>2022-09-23T09:08:53Z</time>
      </trkpt>
      <trkpt lat="46.55705" lon="4.58128">
        <ele>263.609</ele>
        <time>2022-09-23T09:09:00Z</time>
      </trkpt>
      <trkpt lat="46.5571" lon="4.58136">
        <ele>263.509</ele>
        <time>2022-09-23T09:09:07Z</time>
      </trkpt>
      <trkpt lat="46.55716" lon="4.58142">
        <ele>264.209</ele>
        <time>2022-09-23T09:09:13Z</time>
      </trkpt>
      <trkpt lat="46.55722" lon="4.58147">
        <ele>263.909</ele>
        <time>2022-09-23T09:09:19Z</time>
      </trkpt>
      <trkpt lat="46.55728" lon="4.58153">
        <ele>264.509</ele>
        <time>2022-09-23T09:09:25Z</time>
      </trkpt>
      <trkpt lat="46.55734" lon="4.58159">
        <ele>266.609</ele>
        <time>2022-09-23T09:09:32Z</time>
      </trkpt>
      <trkpt lat="46.5574" lon="4.58166">
        <ele>268.009</ele>
        <time>2022-09-23T09:09:38Z</time>
      </trkpt>
      <trkpt lat="46.55746" lon="4.58173">
        <ele>267.809</ele>
        <time>2022-09-23T09:09:44Z</time>
      </trkpt>
      <trkpt lat="46.55752" lon="4.58179">
        <ele>269.009</ele>
        <time>2022-09-23T09:09:52Z</time>
      </trkpt>
      <trkpt lat="46.55755" lon="4.58187">
        <ele>269.409</ele>
        <time>2022-09-23T09:10:00Z</time>
      </trkpt>
      <trkpt lat="46.5576" lon="4.58194">
        <ele>269.509</ele>
        <time>2022-09-23T09:10:07Z</time>
      </trkpt>
      <trkpt lat="46.55766" lon="4.582">
        <ele>268.309</ele>
        <time>2022-09-23T09:10:14Z</time>
      </trkpt>
      <trkpt lat="46.55772" lon="4.58203">
        <ele>266.109</ele>
        <time>2022-09-23T09:10:21Z</time>
      </trkpt>
      <trkpt lat="46.55778" lon="4.58207">
        <ele>267.009</ele>
        <time>2022-09-23T09:10:30Z</time>
      </trkpt>
      <trkpt lat="46.55785" lon="4.58213">
        <ele>267.209</ele>
        <time>2022-09-23T09:10:47Z</time>
      </trkpt>
      <trkpt lat="46.55789" lon="4.58221">
        <ele>268.709</ele>
        <time>2022-09-23T09:10:53Z</time>
      </trkpt>
      <trkpt lat="46.55795" lon="4.58228">
        <ele>269.109</ele>
        <time>2022-09-23T09:10:59Z</time>
      </trkpt>
      <trkpt lat="46.558" lon="4.58233">
        <ele>271.409</ele>
        <time>2022-09-23T09:11:05Z</time>
      </trkpt>
      <trkpt lat="46.55806" lon="4.58238">
        <ele>271.909</ele>
        <time>2022-09-23T09:11:11Z</time>
      </trkpt>
      <trkpt lat="46.55812" lon="4.58243">
        <ele>271.809</ele>
        <time>2022-09-23T09:11:17Z</time>
      </trkpt>
      <trkpt lat="46.55818" lon="4.58247">
        <ele>272.309</ele>
        <time>2022-09-23T09:11:24Z</time>
      </trkpt>
      <trkpt lat="46.55825" lon="4.58249">
        <ele>272.809</ele>
        <time>2022-09-23T09:11:30Z</time>
      </trkpt>
      <trkpt lat="46.55832" lon="4.58251">
        <ele>272.609</ele>
        <time>2022-09-23T09:11:36Z</time>
      </trkpt>
      <trkpt lat="46.55839" lon="4.58256">
        <ele>272.01</ele>
        <time>2022-09-23T09:11:42Z</time>
      </trkpt>
      <trkpt lat="46.55846" lon="4.58257">
        <ele>271.81</ele>
        <time>2022-09-23T09:11:47Z</time>
      </trkpt>
      <trkpt lat="46.55853" lon="4.58263">
        <ele>272.11</ele>
        <time>2022-09-23T09:11:53Z</time>
      </trkpt>
      <trkpt lat="46.55859" lon="4.58269">
        <ele>272.81</ele>
        <time>2022-09-23T09:11:59Z</time>
      </trkpt>
      <trkpt lat="46.55866" lon="4.58271">
        <ele>272.51</ele>
        <time>2022-09-23T09:12:05Z</time>
      </trkpt>
      <trkpt lat="46.55872" lon="4.58275">
        <ele>273.11</ele>
        <time>2022-09-23T09:12:11Z</time>
      </trkpt>
      <trkpt lat="46.55879" lon="4.5828">
        <ele>274.51</ele>
        <time>2022-09-23T09:12:17Z</time>
      </trkpt>
      <trkpt lat="46.55886" lon="4.58285">
        <ele>276.21</ele>
        <time>2022-09-23T09:12:23Z</time>
      </trkpt>
      <trkpt lat="46.55892" lon="4.58289">
        <ele>275.11</ele>
        <time>2022-09-23T09:12:29Z</time>
      </trkpt>
      <trkpt lat="46.55899" lon="4.58292">
        <ele>273.61</ele>
        <time>2022-09-23T09:12:35Z</time>
      </trkpt>
      <trkpt lat="46.55906" lon="4.58293">
        <ele>273.01</ele>
        <time>2022-09-23T09:12:41Z</time>
      </trkpt>
      <trkpt lat="46.55912" lon="4.58295">
        <ele>271.51</ele>
        <time>2022-09-23T09:12:47Z</time>
      </trkpt>
      <trkpt lat="46.55919" lon="4.58298">
        <ele>273.31</ele>
        <time>2022-09-23T09:12:53Z</time>
      </trkpt>
      <trkpt lat="46.55925" lon="4.58301">
        <ele>273.81</ele>
        <time>2022-09-23T09:12:58Z</time>
      </trkpt>
      <trkpt lat="46.55932" lon="4.58305">
        <ele>274.91</ele>
        <time>2022-09-23T09:13:04Z</time>
      </trkpt>
      <trkpt lat="46.55939" lon="4.58309">
        <ele>275.71</ele>
        <time>2022-09-23T09:13:10Z</time>
      </trkpt>
      <trkpt lat="46.55945" lon="4.58313">
        <ele>275.51</ele>
        <time>2022-09-23T09:13:16Z</time>
      </trkpt>
      <trkpt lat="46.55951" lon="4.58319">
        <ele>276.01</ele>
        <time>2022-09-23T09:13:22Z</time>
      </trkpt>
      <trkpt lat="46.55958" lon="4.58324">
        <ele>275.61</ele>
        <time>2022-09-23T09:13:29Z</time>
      </trkpt>
      <trkpt lat="46.55965" lon="4.58328">
        <ele>276.51</ele>
        <time>2022-09-23T09:13:36Z</time>
      </trkpt>
      <trkpt lat="46.5597" lon="4.58335">
        <ele>277.01</ele>
        <time>2022-09-23T09:13:42Z</time>
      </trkpt>
      <trkpt lat="46.55976" lon="4.58339">
        <ele>278.51</ele>
        <time>2022-09-23T09:13:48Z</time>
      </trkpt>
      <trkpt lat="46.55983" lon="4.58344">
        <ele>281.01</ele>
        <time>2022-09-23T09:13:54Z</time>
      </trkpt>
      <trkpt lat="46.55989" lon="4.58349">
        <ele>282.31</ele>
        <time>2022-09-23T09:14:00Z</time>
      </trkpt>
      <trkpt lat="46.55995" lon="4.58352">
        <ele>283.31</ele>
        <time>2022-09-23T09:14:06Z</time>
      </trkpt>
      <trkpt lat="46.56001" lon="4.58356">
        <ele>283.61</ele>
        <time>2022-09-23T09:14:13Z</time>
      </trkpt>
      <trkpt lat="46.56008" lon="4.58359">
        <ele>284.11</ele>
        <time>2022-09-23T09:14:19Z</time>
      </trkpt>
      <trkpt lat="46.56014" lon="4.58361">
        <ele>283.81</ele>
        <time>2022-09-23T09:14:25Z</time>
      </trkpt>
      <trkpt lat="46.56022" lon="4.58363">
        <ele>282.91</ele>
        <time>2022-09-23T09:14:32Z</time>
      </trkpt>
      <trkpt lat="46.56029" lon="4.58365">
        <ele>282.81</ele>
        <time>2022-09-23T09:14:39Z</time>
      </trkpt>
      <trkpt lat="46.56036" lon="4.58365">
        <ele>281.61</ele>
        <time>2022-09-23T09:14:46Z</time>
      </trkpt>
      <trkpt lat="46.56043" lon="4.58364">
        <ele>281.01</ele>
        <time>2022-09-23T09:14:52Z</time>
      </trkpt>
      <trkpt lat="46.5605" lon="4.58367">
        <ele>281.61</ele>
        <time>2022-09-23T09:14:59Z</time>
      </trkpt>
      <trkpt lat="46.56056" lon="4.5837">
        <ele>283.11</ele>
        <time>2022-09-23T09:15:06Z</time>
      </trkpt>
      <trkpt lat="46.56063" lon="4.58372">
        <ele>284.41</ele>
        <time>2022-09-23T09:15:12Z</time>
      </trkpt>
      <trkpt lat="46.56069" lon="4.58376">
        <ele>286.61</ele>
        <time>2022-09-23T09:15:17Z</time>
      </trkpt>
      <trkpt lat="46.56075" lon="4.58381">
        <ele>287.81</ele>
        <time>2022-09-23T09:15:23Z</time>
      </trkpt>
      <trkpt lat="46.56082" lon="4.58384">
        <ele>289.11</ele>
        <time>2022-09-23T09:15:29Z</time>
      </trkpt>
      <trkpt lat="46.56088" lon="4.5839">
        <ele>289.31</ele>
        <time>2022-09-23T09:15:36Z</time>
      </trkpt>
      <trkpt lat="46.56094" lon="4.58395">
        <ele>289.41</ele>
        <time>2022-09-23T09:15:41Z</time>
      </trkpt>
      <trkpt lat="46.56098" lon="4.58403">
        <ele>289.41</ele>
        <time>2022-09-23T09:15:52Z</time>
      </trkpt>
      <trkpt lat="46.56101" lon="4.58412">
        <ele>288.31</ele>
        <time>2022-09-23T09:15:59Z</time>
      </trkpt>
      <trkpt lat="46.56105" lon="4.5842">
        <ele>288.41</ele>
        <time>2022-09-23T09:16:05Z</time>
      </trkpt>
      <trkpt lat="46.5611" lon="4.58427">
        <ele>289.51</ele>
        <time>2022-09-23T09:16:11Z</time>
      </trkpt>
      <trkpt lat="46.56114" lon="4.58434">
        <ele>289.51</ele>
        <time>2022-09-23T09:16:18Z</time>
      </trkpt>
      <trkpt lat="46.56117" lon="4.58443">
        <ele>289.81</ele>
        <time>2022-09-23T09:16:24Z</time>
      </trkpt>
      <trkpt lat="46.56122" lon="4.58451">
        <ele>288.51</ele>
        <time>2022-09-23T09:16:32Z</time>
      </trkpt>
      <trkpt lat="46.56126" lon="4.58459">
        <ele>287.51</ele>
        <time>2022-09-23T09:16:38Z</time>
      </trkpt>
      <trkpt lat="46.5613" lon="4.58466">
        <ele>288.41</ele>
        <time>2022-09-23T09:16:44Z</time>
      </trkpt>
      <trkpt lat="46.56134" lon="4.58474">
        <ele>289.31</ele>
        <time>2022-09-23T09:16:50Z</time>
      </trkpt>
      <trkpt lat="46.56137" lon="4.58483">
        <ele>289.81</ele>
        <time>2022-09-23T09:16:55Z</time>
      </trkpt>
      <trkpt lat="46.5614" lon="4.58492">
        <ele>290.21</ele>
        <time>2022-09-23T09:17:01Z</time>
      </trkpt>
      <trkpt lat="46.56145" lon="4.58497">
        <ele>290.411</ele>
        <time>2022-09-23T09:17:09Z</time>
      </trkpt>
      <trkpt lat="46.56147" lon="4.58506">
        <ele>291.211</ele>
        <time>2022-09-23T09:17:15Z</time>
      </trkpt>
      <trkpt lat="46.56148" lon="4.58516">
        <ele>292.211</ele>
        <time>2022-09-23T09:17:21Z</time>
      </trkpt>
      <trkpt lat="46.56152" lon="4.58525">
        <ele>292.911</ele>
        <time>2022-09-23T09:17:28Z</time>
      </trkpt>
      <trkpt lat="46.56156" lon="4.58534">
        <ele>294.011</ele>
        <time>2022-09-23T09:17:34Z</time>
      </trkpt>
      <trkpt lat="46.56161" lon="4.58541">
        <ele>295.211</ele>
        <time>2022-09-23T09:17:42Z</time>
      </trkpt>
      <trkpt lat="46.56165" lon="4.5855">
        <ele>296.611</ele>
        <time>2022-09-23T09:17:49Z</time>
      </trkpt>
      <trkpt lat="46.56168" lon="4.5856">
        <ele>296.611</ele>
        <time>2022-09-23T09:17:55Z</time>
      </trkpt>
      <trkpt lat="46.5617" lon="4.58569">
        <ele>297.011</ele>
        <time>2022-09-23T09:18:02Z</time>
      </trkpt>
      <trkpt lat="46.56173" lon="4.58578">
        <ele>297.411</ele>
        <time>2022-09-23T09:18:14Z</time>
      </trkpt>
      <trkpt lat="46.56179" lon="4.58575">
        <ele>298.911</ele>
        <time>2022-09-23T09:18:33Z</time>
      </trkpt>
      <trkpt lat="46.56179" lon="4.58584">
        <ele>302.511</ele>
        <time>2022-09-23T09:21:51Z</time>
      </trkpt>
      <trkpt lat="46.5618" lon="4.58594">
        <ele>302.411</ele>
        <time>2022-09-23T09:22:02Z</time>
      </trkpt>
      <trkpt lat="46.56182" lon="4.58603">
        <ele>301.611</ele>
        <time>2022-09-23T09:22:11Z</time>
      </trkpt>
      <trkpt lat="46.56186" lon="4.58613">
        <ele>299.911</ele>
        <time>2022-09-23T09:22:20Z</time>
      </trkpt>
      <trkpt lat="46.5619" lon="4.58619">
        <ele>298.411</ele>
        <time>2022-09-23T09:22:26Z</time>
      </trkpt>
      <trkpt lat="46.56196" lon="4.58626">
        <ele>296.811</ele>
        <time>2022-09-23T09:22:34Z</time>
      </trkpt>
      <trkpt lat="46.56201" lon="4.58632">
        <ele>296.711</ele>
        <time>2022-09-23T09:22:43Z</time>
      </trkpt>
      <trkpt lat="46.56205" lon="4.58641">
        <ele>297.011</ele>
        <time>2022-09-23T09:22:52Z</time>
      </trkpt>
      <trkpt lat="46.56211" lon="4.58647">
        <ele>297.711</ele>
        <time>2022-09-23T09:22:59Z</time>
      </trkpt>
      <trkpt lat="46.56215" lon="4.58654">
        <ele>298.911</ele>
        <time>2022-09-23T09:23:06Z</time>
      </trkpt>
      <trkpt lat="46.56219" lon="4.58661">
        <ele>299.311</ele>
        <time>2022-09-23T09:23:12Z</time>
      </trkpt>
      <trkpt lat="46.56224" lon="4.58669">
        <ele>299.611</ele>
        <time>2022-09-23T09:23:18Z</time>
      </trkpt>
      <trkpt lat="46.56228" lon="4.58677">
        <ele>300.811</ele>
        <time>2022-09-23T09:23:25Z</time>
      </trkpt>
      <trkpt lat="46.56233" lon="4.58684">
        <ele>302.811</ele>
        <time>2022-09-23T09:23:33Z</time>
      </trkpt>
      <trkpt lat="46.56238" lon="4.58692">
        <ele>304.111</ele>
        <time>2022-09-23T09:23:40Z</time>
      </trkpt>
      <trkpt lat="46.56243" lon="4.58698">
        <ele>304.711</ele>
        <time>2022-09-23T09:23:48Z</time>
      </trkpt>
      <trkpt lat="46.56248" lon="4.58703">
        <ele>305.311</ele>
        <time>2022-09-23T09:23:56Z</time>
      </trkpt>
      <trkpt lat="46.56255" lon="4.58708">
        <ele>305.511</ele>
        <time>2022-09-23T09:24:04Z</time>
      </trkpt>
      <trkpt lat="46.56262" lon="4.58713">
        <ele>304.811</ele>
        <time>2022-09-23T09:24:11Z</time>
      </trkpt>
      <trkpt lat="46.56267" lon="4.58719">
        <ele>305.111</ele>
        <time>2022-09-23T09:24:19Z</time>
      </trkpt>
      <trkpt lat="46.56272" lon="4.58725">
        <ele>306.011</ele>
        <time>2022-09-23T09:24:27Z</time>
      </trkpt>
      <trkpt lat="46.56279" lon="4.58729">
        <ele>307.211</ele>
        <time>2022-09-23T09:24:35Z</time>
      </trkpt>
      <trkpt lat="46.56285" lon="4.58733">
        <ele>307.711</ele>
        <time>2022-09-23T09:24:41Z</time>
      </trkpt>
      <trkpt lat="46.56292" lon="4.58737">
        <ele>307.911</ele>
        <time>2022-09-23T09:24:48Z</time>
      </trkpt>
      <trkpt lat="46.56298" lon="4.58739">
        <ele>307.111</ele>
        <time>2022-09-23T09:24:53Z</time>
      </trkpt>
      <trkpt lat="46.56305" lon="4.58743">
        <ele>307.411</ele>
        <time>2022-09-23T09:24:59Z</time>
      </trkpt>
      <trkpt lat="46.56311" lon="4.58748">
        <ele>308.711</ele>
        <time>2022-09-23T09:25:05Z</time>
      </trkpt>
      <trkpt lat="46.56318" lon="4.58752">
        <ele>310.311</ele>
        <time>2022-09-23T09:25:12Z</time>
      </trkpt>
      <trkpt lat="46.56324" lon="4.58757">
        <ele>310.411</ele>
        <time>2022-09-23T09:25:20Z</time>
      </trkpt>
      <trkpt lat="46.56329" lon="4.58765">
        <ele>312.711</ele>
        <time>2022-09-23T09:25:28Z</time>
      </trkpt>
      <trkpt lat="46.56336" lon="4.58769">
        <ele>314.011</ele>
        <time>2022-09-23T09:25:35Z</time>
      </trkpt>
      <trkpt lat="46.56342" lon="4.58776">
        <ele>314.011</ele>
        <time>2022-09-23T09:25:42Z</time>
      </trkpt>
      <trkpt lat="46.56347" lon="4.58783">
        <ele>314.111</ele>
        <time>2022-09-23T09:25:47Z</time>
      </trkpt>
      <trkpt lat="46.56352" lon="4.58789">
        <ele>313.711</ele>
        <time>2022-09-23T09:25:54Z</time>
      </trkpt>
      <trkpt lat="46.56357" lon="4.58796">
        <ele>312.611</ele>
        <time>2022-09-23T09:26:01Z</time>
      </trkpt>
      <trkpt lat="46.56362" lon="4.58803">
        <ele>311.611</ele>
        <time>2022-09-23T09:26:08Z</time>
      </trkpt>
      <trkpt lat="46.56367" lon="4.58811">
        <ele>312.211</ele>
        <time>2022-09-23T09:26:14Z</time>
      </trkpt>
      <trkpt lat="46.56373" lon="4.58815">
        <ele>312.411</ele>
        <time>2022-09-23T09:26:20Z</time>
      </trkpt>
      <trkpt lat="46.56377" lon="4.58823">
        <ele>313.011</ele>
        <time>2022-09-23T09:26:28Z</time>
      </trkpt>
      <trkpt lat="46.56381" lon="4.58831">
        <ele>314.211</ele>
        <time>2022-09-23T09:26:34Z</time>
      </trkpt>
      <trkpt lat="46.56385" lon="4.58839">
        <ele>314.511</ele>
        <time>2022-09-23T09:26:40Z</time>
      </trkpt>
      <trkpt lat="46.5639" lon="4.58847">
        <ele>317.111</ele>
        <time>2022-09-23T09:26:47Z</time>
      </trkpt>
      <trkpt lat="46.56395" lon="4.58853">
        <ele>315.911</ele>
        <time>2022-09-23T09:26:54Z</time>
      </trkpt>
      <trkpt lat="46.56401" lon="4.58858">
        <ele>315.111</ele>
        <time>2022-09-23T09:27:01Z</time>
      </trkpt>
      <trkpt lat="46.56406" lon="4.58865">
        <ele>315.611</ele>
        <time>2022-09-23T09:27:08Z</time>
      </trkpt>
      <trkpt lat="46.56412" lon="4.58872">
        <ele>316.112</ele>
        <time>2022-09-23T09:27:14Z</time>
      </trkpt>
      <trkpt lat="46.56416" lon="4.5888">
        <ele>317.512</ele>
        <time>2022-09-23T09:27:21Z</time>
      </trkpt>
      <trkpt lat="46.56422" lon="4.58885">
        <ele>318.512</ele>
        <time>2022-09-23T09:27:28Z</time>
      </trkpt>
      <trkpt lat="46.56428" lon="4.58891">
        <ele>318.512</ele>
        <time>2022-09-23T09:27:36Z</time>
      </trkpt>
      <trkpt lat="46.56434" lon="4.58895">
        <ele>318.112</ele>
        <time>2022-09-23T09:27:43Z</time>
      </trkpt>
      <trkpt lat="46.56439" lon="4.58901">
        <ele>319.012</ele>
        <time>2022-09-23T09:27:50Z</time>
      </trkpt>
      <trkpt lat="46.56444" lon="4.58909">
        <ele>322.312</ele>
        <time>2022-09-23T09:27:59Z</time>
      </trkpt>
      <trkpt lat="46.56449" lon="4.58917">
        <ele>323.012</ele>
        <time>2022-09-23T09:28:05Z</time>
      </trkpt>
      <trkpt lat="46.56454" lon="4.58924">
        <ele>323.912</ele>
        <time>2022-09-23T09:28:12Z</time>
      </trkpt>
      <trkpt lat="46.56459" lon="4.58932">
        <ele>325.212</ele>
        <time>2022-09-23T09:28:18Z</time>
      </trkpt>
      <trkpt lat="46.56464" lon="4.5894">
        <ele>323.612</ele>
        <time>2022-09-23T09:28:26Z</time>
      </trkpt>
      <trkpt lat="46.56468" lon="4.58947">
        <ele>323.512</ele>
        <time>2022-09-23T09:28:32Z</time>
      </trkpt>
      <trkpt lat="46.56473" lon="4.58954">
        <ele>323.712</ele>
        <time>2022-09-23T09:28:39Z</time>
      </trkpt>
      <trkpt lat="46.56477" lon="4.58962">
        <ele>323.712</ele>
        <time>2022-09-23T09:28:46Z</time>
      </trkpt>
      <trkpt lat="46.56482" lon="4.58971">
        <ele>322.812</ele>
        <time>2022-09-23T09:28:53Z</time>
      </trkpt>
      <trkpt lat="46.56486" lon="4.58979">
        <ele>323.112</ele>
        <time>2022-09-23T09:29:01Z</time>
      </trkpt>
      <trkpt lat="46.56489" lon="4.58988">
        <ele>324.312</ele>
        <time>2022-09-23T09:29:07Z</time>
      </trkpt>
      <trkpt lat="46.56493" lon="4.58996">
        <ele>325.912</ele>
        <time>2022-09-23T09:29:13Z</time>
      </trkpt>
      <trkpt lat="46.56496" lon="4.59005">
        <ele>327.512</ele>
        <time>2022-09-23T09:29:19Z</time>
      </trkpt>
      <trkpt lat="46.565" lon="4.59014">
        <ele>329.412</ele>
        <time>2022-09-23T09:29:26Z</time>
      </trkpt>
      <trkpt lat="46.56503" lon="4.59023">
        <ele>330.612</ele>
        <time>2022-09-23T09:29:33Z</time>
      </trkpt>
      <trkpt lat="46.56507" lon="4.59031">
        <ele>329.712</ele>
        <time>2022-09-23T09:29:41Z</time>
      </trkpt>
      <trkpt lat="46.5651" lon="4.59039">
        <ele>329.612</ele>
        <time>2022-09-23T09:29:48Z</time>
      </trkpt>
      <trkpt lat="46.56514" lon="4.59048">
        <ele>328.712</ele>
        <time>2022-09-23T09:29:55Z</time>
      </trkpt>
      <trkpt lat="46.56518" lon="4.59055">
        <ele>328.012</ele>
        <time>2022-09-23T09:30:01Z</time>
      </trkpt>
      <trkpt lat="46.56523" lon="4.59061">
        <ele>328.412</ele>
        <time>2022-09-23T09:30:07Z</time>
      </trkpt>
      <trkpt lat="46.56529" lon="4.59068">
        <ele>330.212</ele>
        <time>2022-09-23T09:30:13Z</time>
      </trkpt>
      <trkpt lat="46.56534" lon="4.59075">
        <ele>331.512</ele>
        <time>2022-09-23T09:30:19Z</time>
      </trkpt>
      <trkpt lat="46.56541" lon="4.59081">
        <ele>333.812</ele>
        <time>2022-09-23T09:30:25Z</time>
      </trkpt>
      <trkpt lat="46.56546" lon="4.59089">
        <ele>334.412</ele>
        <time>2022-09-23T09:30:31Z</time>
      </trkpt>
      <trkpt lat="46.56551" lon="4.59095">
        <ele>333.212</ele>
        <time>2022-09-23T09:30:39Z</time>
      </trkpt>
      <trkpt lat="46.56555" lon="4.59104">
        <ele>331.112</ele>
        <time>2022-09-23T09:30:47Z</time>
      </trkpt>
      <trkpt lat="46.56559" lon="4.59113">
        <ele>331.012</ele>
        <time>2022-09-23T09:30:54Z</time>
      </trkpt>
      <trkpt lat="46.56563" lon="4.59121">
        <ele>332.012</ele>
        <time>2022-09-23T09:31:00Z</time>
      </trkpt>
      <trkpt lat="46.56566" lon="4.5913">
        <ele>333.112</ele>
        <time>2022-09-23T09:31:05Z</time>
      </trkpt>
      <trkpt lat="46.56569" lon="4.59139">
        <ele>332.112</ele>
        <time>2022-09-23T09:31:12Z</time>
      </trkpt>
      <trkpt lat="46.56573" lon="4.59147">
        <ele>332.612</ele>
        <time>2022-09-23T09:31:19Z</time>
      </trkpt>
      <trkpt lat="46.56577" lon="4.59155">
        <ele>334.112</ele>
        <time>2022-09-23T09:31:25Z</time>
      </trkpt>
      <trkpt lat="46.56581" lon="4.59162">
        <ele>333.012</ele>
        <time>2022-09-23T09:31:31Z</time>
      </trkpt>
      <trkpt lat="46.56584" lon="4.59172">
        <ele>333.812</ele>
        <time>2022-09-23T09:31:37Z</time>
      </trkpt>
      <trkpt lat="46.56588" lon="4.59179">
        <ele>334.212</ele>
        <time>2022-09-23T09:31:43Z</time>
      </trkpt>
      <trkpt lat="46.56592" lon="4.59188">
        <ele>334.112</ele>
        <time>2022-09-23T09:31:49Z</time>
      </trkpt>
      <trkpt lat="46.56595" lon="4.59198">
        <ele>334.112</ele>
        <time>2022-09-23T09:31:57Z</time>
      </trkpt>
      <trkpt lat="46.56601" lon="4.59206">
        <ele>333.612</ele>
        <time>2022-09-23T09:32:03Z</time>
      </trkpt>
      <trkpt lat="46.56603" lon="4.59215">
        <ele>333.412</ele>
        <time>2022-09-23T09:32:09Z</time>
      </trkpt>
      <trkpt lat="46.56608" lon="4.59222">
        <ele>333.212</ele>
        <time>2022-09-23T09:32:16Z</time>
      </trkpt>
      <trkpt lat="46.56613" lon="4.5923">
        <ele>333.212</ele>
        <time>2022-09-23T09:32:23Z</time>
      </trkpt>
      <trkpt lat="46.56618" lon="4.59238">
        <ele>334.212</ele>
        <time>2022-09-23T09:32:30Z</time>
      </trkpt>
      <trkpt lat="46.56621" lon="4.59248">
        <ele>333.912</ele>
        <time>2022-09-23T09:32:36Z</time>
      </trkpt>
      <trkpt lat="46.56623" lon="4.59257">
        <ele>334.412</ele>
        <time>2022-09-23T09:32:41Z</time>
      </trkpt>
      <trkpt lat="46.56627" lon="4.59266">
        <ele>333.712</ele>
        <time>2022-09-23T09:32:48Z</time>
      </trkpt>
      <trkpt lat="46.56629" lon="4.59276">
        <ele>335.312</ele>
        <time>2022-09-23T09:32:55Z</time>
      </trkpt>
      <trkpt lat="46.56633" lon="4.59285">
        <ele>336.012</ele>
        <time>2022-09-23T09:33:01Z</time>
      </trkpt>
      <trkpt lat="46.56635" lon="4.59295">
        <ele>334.512</ele>
        <time>2022-09-23T09:33:08Z</time>
      </trkpt>
      <trkpt lat="46.56638" lon="4.59305">
        <ele>336.512</ele>
        <time>2022-09-23T09:33:16Z</time>
      </trkpt>
      <trkpt lat="46.5664" lon="4.59315">
        <ele>338.412</ele>
        <time>2022-09-23T09:33:22Z</time>
      </trkpt>
      <trkpt lat="46.56644" lon="4.59324">
        <ele>340.112</ele>
        <time>2022-09-23T09:33:31Z</time>
      </trkpt>
      <trkpt lat="46.56647" lon="4.59333">
        <ele>340.312</ele>
        <time>2022-09-23T09:33:39Z</time>
      </trkpt>
      <trkpt lat="46.5665" lon="4.59343">
        <ele>339.312</ele>
        <time>2022-09-23T09:33:46Z</time>
      </trkpt>
      <trkpt lat="46.56653" lon="4.59353">
        <ele>338.612</ele>
        <time>2022-09-23T09:33:52Z</time>
      </trkpt>
      <trkpt lat="46.56657" lon="4.59361">
        <ele>339.513</ele>
        <time>2022-09-23T09:33:59Z</time>
      </trkpt>
      <trkpt lat="46.56661" lon="4.59369">
        <ele>342.313</ele>
        <time>2022-09-23T09:34:05Z</time>
      </trkpt>
      <trkpt lat="46.56663" lon="4.59379">
        <ele>341.913</ele>
        <time>2022-09-23T09:34:13Z</time>
      </trkpt>
      <trkpt lat="46.56665" lon="4.5939">
        <ele>342.013</ele>
        <time>2022-09-23T09:34:19Z</time>
      </trkpt>
      <trkpt lat="46.56668" lon="4.59399">
        <ele>343.113</ele>
        <time>2022-09-23T09:34:25Z</time>
      </trkpt>
      <trkpt lat="46.56672" lon="4.59409">
        <ele>344.613</ele>
        <time>2022-09-23T09:34:32Z</time>
      </trkpt>
      <trkpt lat="46.56674" lon="4.59419">
        <ele>346.313</ele>
        <time>2022-09-23T09:34:38Z</time>
      </trkpt>
      <trkpt lat="46.56677" lon="4.59428">
        <ele>346.913</ele>
        <time>2022-09-23T09:34:45Z</time>
      </trkpt>
      <trkpt lat="46.56681" lon="4.59436">
        <ele>347.213</ele>
        <time>2022-09-23T09:34:51Z</time>
      </trkpt>
      <trkpt lat="46.56684" lon="4.59446">
        <ele>346.313</ele>
        <time>2022-09-23T09:34:58Z</time>
      </trkpt>
      <trkpt lat="46.56686" lon="4.59456">
        <ele>345.713</ele>
        <time>2022-09-23T09:35:05Z</time>
      </trkpt>
      <trkpt lat="46.56689" lon="4.59467">
        <ele>345.913</ele>
        <time>2022-09-23T09:35:12Z</time>
      </trkpt>
      <trkpt lat="46.56692" lon="4.59477">
        <ele>346.413</ele>
        <time>2022-09-23T09:35:18Z</time>
      </trkpt>
      <trkpt lat="46.56696" lon="4.59485">
        <ele>346.913</ele>
        <time>2022-09-23T09:35:24Z</time>
      </trkpt>
      <trkpt lat="46.56701" lon="4.59493">
        <ele>347.813</ele>
        <time>2022-09-23T09:35:30Z</time>
      </trkpt>
      <trkpt lat="46.56705" lon="4.59501">
        <ele>349.013</ele>
        <time>2022-09-23T09:35:36Z</time>
      </trkpt>
      <trkpt lat="46.5671" lon="4.59509">
        <ele>350.613</ele>
        <time>2022-09-23T09:35:42Z</time>
      </trkpt>
      <trkpt lat="46.56715" lon="4.59516">
        <ele>350.013</ele>
        <time>2022-09-23T09:35:48Z</time>
      </trkpt>
      <trkpt lat="46.56719" lon="4.59523">
        <ele>349.813</ele>
        <time>2022-09-23T09:35:54Z</time>
      </trkpt>
      <trkpt lat="46.56725" lon="4.5953">
        <ele>350.013</ele>
        <time>2022-09-23T09:36:00Z</time>
      </trkpt>
      <trkpt lat="46.56729" lon="4.59538">
        <ele>350.413</ele>
        <time>2022-09-23T09:36:05Z</time>
      </trkpt>
      <trkpt lat="46.56735" lon="4.59545">
        <ele>350.013</ele>
        <time>2022-09-23T09:36:11Z</time>
      </trkpt>
      <trkpt lat="46.5674" lon="4.59552">
        <ele>349.213</ele>
        <time>2022-09-23T09:36:17Z</time>
      </trkpt>
      <trkpt lat="46.56743" lon="4.59561">
        <ele>350.713</ele>
        <time>2022-09-23T09:36:23Z</time>
      </trkpt>
      <trkpt lat="46.56749" lon="4.59571">
        <ele>352.613</ele>
        <time>2022-09-23T09:36:29Z</time>
      </trkpt>
      <trkpt lat="46.56754" lon="4.59579">
        <ele>350.713</ele>
        <time>2022-09-23T09:36:36Z</time>
      </trkpt>
      <trkpt lat="46.56758" lon="4.59587">
        <ele>347.613</ele>
        <time>2022-09-23T09:36:43Z</time>
      </trkpt>
      <trkpt lat="46.56764" lon="4.59594">
        <ele>348.413</ele>
        <time>2022-09-23T09:36:49Z</time>
      </trkpt>
      <trkpt lat="46.56768" lon="4.59603">
        <ele>348.513</ele>
        <time>2022-09-23T09:36:55Z</time>
      </trkpt>
      <trkpt lat="46.56773" lon="4.59612">
        <ele>347.813</ele>
        <time>2022-09-23T09:37:01Z</time>
      </trkpt>
      <trkpt lat="46.56777" lon="4.5962">
        <ele>347.413</ele>
        <time>2022-09-23T09:37:07Z</time>
      </trkpt>
      <trkpt lat="46.56782" lon="4.59629">
        <ele>349.113</ele>
        <time>2022-09-23T09:37:14Z</time>
      </trkpt>
      <trkpt lat="46.56787" lon="4.59636">
        <ele>350.113</ele>
        <time>2022-09-23T09:37:19Z</time>
      </trkpt>
      <trkpt lat="46.56791" lon="4.59645">
        <ele>351.413</ele>
        <time>2022-09-23T09:37:25Z</time>
      </trkpt>
      <trkpt lat="46.56794" lon="4.59655">
        <ele>351.413</ele>
        <time>2022-09-23T09:37:31Z</time>
      </trkpt>
      <trkpt lat="46.56799" lon="4.59662">
        <ele>350.713</ele>
        <time>2022-09-23T09:37:37Z</time>
      </trkpt>
      <trkpt lat="46.56804" lon="4.5967">
        <ele>349.813</ele>
        <time>2022-09-23T09:37:43Z</time>
      </trkpt>
      <trkpt lat="46.56808" lon="4.59678">
        <ele>349.713</ele>
        <time>2022-09-23T09:37:49Z</time>
      </trkpt>
      <trkpt lat="46.5681" lon="4.59688">
        <ele>348.813</ele>
        <time>2022-09-23T09:37:55Z</time>
      </trkpt>
      <trkpt lat="46.56813" lon="4.59697">
        <ele>348.113</ele>
        <time>2022-09-23T09:38:01Z</time>
      </trkpt>
      <trkpt lat="46.56817" lon="4.59705">
        <ele>348.313</ele>
        <time>2022-09-23T09:38:06Z</time>
      </trkpt>
      <trkpt lat="46.56822" lon="4.59713">
        <ele>348.613</ele>
        <time>2022-09-23T09:38:12Z</time>
      </trkpt>
      <trkpt lat="46.56825" lon="4.59721">
        <ele>349.813</ele>
        <time>2022-09-23T09:38:17Z</time>
      </trkpt>
      <trkpt lat="46.56829" lon="4.5973">
        <ele>351.113</ele>
        <time>2022-09-23T09:38:24Z</time>
      </trkpt>
      <trkpt lat="46.56833" lon="4.5974">
        <ele>351.013</ele>
        <time>2022-09-23T09:38:30Z</time>
      </trkpt>
      <trkpt lat="46.56835" lon="4.5975">
        <ele>352.613</ele>
        <time>2022-09-23T09:38:35Z</time>
      </trkpt>
      <trkpt lat="46.56837" lon="4.59762">
        <ele>352.713</ele>
        <time>2022-09-23T09:38:41Z</time>
      </trkpt>
      <trkpt lat="46.56839" lon="4.59771">
        <ele>354.013</ele>
        <time>2022-09-23T09:38:46Z</time>
      </trkpt>
      <trkpt lat="46.56841" lon="4.59781">
        <ele>352.513</ele>
        <time>2022-09-23T09:38:52Z</time>
      </trkpt>
      <trkpt lat="46.56842" lon="4.59791">
        <ele>351.013</ele>
        <time>2022-09-23T09:38:58Z</time>
      </trkpt>
      <trkpt lat="46.56844" lon="4.59801">
        <ele>350.013</ele>
        <time>2022-09-23T09:39:04Z</time>
      </trkpt>
      <trkpt lat="46.56847" lon="4.5981">
        <ele>349.613</ele>
        <time>2022-09-23T09:39:10Z</time>
      </trkpt>
      <trkpt lat="46.56849" lon="4.5982">
        <ele>349.213</ele>
        <time>2022-09-23T09:39:16Z</time>
      </trkpt>
      <trkpt lat="46.5685" lon="4.5983">
        <ele>349.513</ele>
        <time>2022-09-23T09:39:21Z</time>
      </trkpt>
      <trkpt lat="46.56852" lon="4.5984">
        <ele>349.613</ele>
        <time>2022-09-23T09:39:27Z</time>
      </trkpt>
      <trkpt lat="46.56853" lon="4.59851">
        <ele>350.813</ele>
        <time>2022-09-23T09:39:33Z</time>
      </trkpt>
      <trkpt lat="46.56855" lon="4.59861">
        <ele>350.213</ele>
        <time>2022-09-23T09:39:41Z</time>
      </trkpt>
      <trkpt lat="46.56856" lon="4.59871">
        <ele>350.113</ele>
        <time>2022-09-23T09:39:47Z</time>
      </trkpt>
      <trkpt lat="46.56858" lon="4.59881">
        <ele>350.413</ele>
        <time>2022-09-23T09:39:54Z</time>
      </trkpt>
      <trkpt lat="46.5686" lon="4.59891">
        <ele>350.413</ele>
        <time>2022-09-23T09:40:00Z</time>
      </trkpt>
      <trkpt lat="46.56862" lon="4.599">
        <ele>350.813</ele>
        <time>2022-09-23T09:40:05Z</time>
      </trkpt>
      <trkpt lat="46.56863" lon="4.59911">
        <ele>350.813</ele>
        <time>2022-09-23T09:40:11Z</time>
      </trkpt>
      <trkpt lat="46.56864" lon="4.59921">
        <ele>349.813</ele>
        <time>2022-09-23T09:40:17Z</time>
      </trkpt>
      <trkpt lat="46.56867" lon="4.59931">
        <ele>348.713</ele>
        <time>2022-09-23T09:40:23Z</time>
      </trkpt>
      <trkpt lat="46.56869" lon="4.59942">
        <ele>350.714</ele>
        <time>2022-09-23T09:40:29Z</time>
      </trkpt>
      <trkpt lat="46.5687" lon="4.59952">
        <ele>349.814</ele>
        <time>2022-09-23T09:40:35Z</time>
      </trkpt>
      <trkpt lat="46.56871" lon="4.59963">
        <ele>349.514</ele>
        <time>2022-09-23T09:40:42Z</time>
      </trkpt>
      <trkpt lat="46.56872" lon="4.59973">
        <ele>349.514</ele>
        <time>2022-09-23T09:40:47Z</time>
      </trkpt>
      <trkpt lat="46.56872" lon="4.59984">
        <ele>348.914</ele>
        <time>2022-09-23T09:40:54Z</time>
      </trkpt>
      <trkpt lat="46.56875" lon="4.59994">
        <ele>349.014</ele>
        <time>2022-09-23T09:41:01Z</time>
      </trkpt>
      <trkpt lat="46.56876" lon="4.60004">
        <ele>351.914</ele>
        <time>2022-09-23T09:41:07Z</time>
      </trkpt>
      <trkpt lat="46.56878" lon="4.60013">
        <ele>353.914</ele>
        <time>2022-09-23T09:41:14Z</time>
      </trkpt>
      <trkpt lat="46.56881" lon="4.60022">
        <ele>354.314</ele>
        <time>2022-09-23T09:41:25Z</time>
      </trkpt>
      <trkpt lat="46.56886" lon="4.60029">
        <ele>355.014</ele>
        <time>2022-09-23T09:41:34Z</time>
      </trkpt>
      <trkpt lat="46.56889" lon="4.60037">
        <ele>353.714</ele>
        <time>2022-09-23T09:41:46Z</time>
      </trkpt>
      <trkpt lat="46.56886" lon="4.60028">
        <ele>360.414</ele>
        <time>2022-09-23T09:42:25Z</time>
      </trkpt>
      <trkpt lat="46.56886" lon="4.60019">
        <ele>360.314</ele>
        <time>2022-09-23T09:42:35Z</time>
      </trkpt>
      <trkpt lat="46.56887" lon="4.60009">
        <ele>359.114</ele>
        <time>2022-09-23T09:42:41Z</time>
      </trkpt>
      <trkpt lat="46.56893" lon="4.60005">
        <ele>355.914</ele>
        <time>2022-09-23T09:42:51Z</time>
      </trkpt>
      <trkpt lat="46.56887" lon="4.60011">
        <ele>354.814</ele>
        <time>2022-09-23T09:43:35Z</time>
      </trkpt>
      <trkpt lat="46.56883" lon="4.60019">
        <ele>352.814</ele>
        <time>2022-09-23T09:43:46Z</time>
      </trkpt>
      <trkpt lat="46.56877" lon="4.60021">
        <ele>353.014</ele>
        <time>2022-09-23T09:43:52Z</time>
      </trkpt>
      <trkpt lat="46.5687" lon="4.60024">
        <ele>355.314</ele>
        <time>2022-09-23T09:43:59Z</time>
      </trkpt>
      <trkpt lat="46.56863" lon="4.60026">
        <ele>356.314</ele>
        <time>2022-09-23T09:44:06Z</time>
      </trkpt>
      <trkpt lat="46.56859" lon="4.60033">
        <ele>358.414</ele>
        <time>2022-09-23T09:44:18Z</time>
      </trkpt>
      <trkpt lat="46.56852" lon="4.60034">
        <ele>359.814</ele>
        <time>2022-09-23T09:44:36Z</time>
      </trkpt>
      <trkpt lat="46.56846" lon="4.60039">
        <ele>358.014</ele>
        <time>2022-09-23T09:44:42Z</time>
      </trkpt>
      <trkpt lat="46.56839" lon="4.60043">
        <ele>359.013</ele>
        <time>2022-09-23T09:44:48Z</time>
      </trkpt>
      <trkpt lat="46.56832" lon="4.60045">
        <ele>357.613</ele>
        <time>2022-09-23T09:44:55Z</time>
      </trkpt>
      <trkpt lat="46.56823" lon="4.60043">
        <ele>355.813</ele>
        <time>2022-09-23T09:45:01Z</time>
      </trkpt>
      <trkpt lat="46.56816" lon="4.60045">
        <ele>353.813</ele>
        <time>2022-09-23T09:45:09Z</time>
      </trkpt>
      <trkpt lat="46.56809" lon="4.6005">
        <ele>351.213</ele>
        <time>2022-09-23T09:45:17Z</time>
      </trkpt>
      <trkpt lat="46.56802" lon="4.60052">
        <ele>351.613</ele>
        <time>2022-09-23T09:45:24Z</time>
      </trkpt>
      <trkpt lat="46.56795" lon="4.60053">
        <ele>353.313</ele>
        <time>2022-09-23T09:45:29Z</time>
      </trkpt>
      <trkpt lat="46.56788" lon="4.60053">
        <ele>354.913</ele>
        <time>2022-09-23T09:45:37Z</time>
      </trkpt>
      <trkpt lat="46.56781" lon="4.60055">
        <ele>352.813</ele>
        <time>2022-09-23T09:45:43Z</time>
      </trkpt>
      <trkpt lat="46.56775" lon="4.60058">
        <ele>352.613</ele>
        <time>2022-09-23T09:45:49Z</time>
      </trkpt>
      <trkpt lat="46.56768" lon="4.60059">
        <ele>354.713</ele>
        <time>2022-09-23T09:45:54Z</time>
      </trkpt>
      <trkpt lat="46.56761" lon="4.6006">
        <ele>355.713</ele>
        <time>2022-09-23T09:46:00Z</time>
      </trkpt>
      <trkpt lat="46.56754" lon="4.60062">
        <ele>356.913</ele>
        <time>2022-09-23T09:46:06Z</time>
      </trkpt>
      <trkpt lat="46.56747" lon="4.60063">
        <ele>356.513</ele>
        <time>2022-09-23T09:46:13Z</time>
      </trkpt>
      <trkpt lat="46.5674" lon="4.60065">
        <ele>357.113</ele>
        <time>2022-09-23T09:46:19Z</time>
      </trkpt>
      <trkpt lat="46.56733" lon="4.60065">
        <ele>358.313</ele>
        <time>2022-09-23T09:46:25Z</time>
      </trkpt>
      <trkpt lat="46.56727" lon="4.60067">
        <ele>361.413</ele>
        <time>2022-09-23T09:46:32Z</time>
      </trkpt>
      <trkpt lat="46.56721" lon="4.60073">
        <ele>364.713</ele>
        <time>2022-09-23T09:46:38Z</time>
      </trkpt>
      <trkpt lat="46.56716" lon="4.60079">
        <ele>364.513</ele>
        <time>2022-09-23T09:46:44Z</time>
      </trkpt>
      <trkpt lat="46.5671" lon="4.60084">
        <ele>364.813</ele>
        <time>2022-09-23T09:46:50Z</time>
      </trkpt>
      <trkpt lat="46.56705" lon="4.6009">
        <ele>365.213</ele>
        <time>2022-09-23T09:46:57Z</time>
      </trkpt>
      <trkpt lat="46.567" lon="4.60096">
        <ele>365.213</ele>
        <time>2022-09-23T09:47:04Z</time>
      </trkpt>
      <trkpt lat="46.56694" lon="4.60102">
        <ele>363.813</ele>
        <time>2022-09-23T09:47:11Z</time>
      </trkpt>
      <trkpt lat="46.56688" lon="4.60108">
        <ele>363.113</ele>
        <time>2022-09-23T09:47:18Z</time>
      </trkpt>
      <trkpt lat="46.56682" lon="4.60114">
        <ele>363.213</ele>
        <time>2022-09-23T09:47:25Z</time>
      </trkpt>
      <trkpt lat="46.56677" lon="4.60122">
        <ele>364.613</ele>
        <time>2022-09-23T09:47:31Z</time>
      </trkpt>
      <trkpt lat="46.56671" lon="4.60131">
        <ele>367.313</ele>
        <time>2022-09-23T09:47:37Z</time>
      </trkpt>
      <trkpt lat="46.56667" lon="4.60138">
        <ele>367.213</ele>
        <time>2022-09-23T09:47:44Z</time>
      </trkpt>
      <trkpt lat="46.56662" lon="4.60146">
        <ele>370.113</ele>
        <time>2022-09-23T09:47:52Z</time>
      </trkpt>
      <trkpt lat="46.56656" lon="4.60153">
        <ele>370.613</ele>
        <time>2022-09-23T09:47:59Z</time>
      </trkpt>
      <trkpt lat="46.5665" lon="4.60158">
        <ele>371.213</ele>
        <time>2022-09-23T09:48:05Z</time>
      </trkpt>
      <trkpt lat="46.56645" lon="4.60165">
        <ele>372.213</ele>
        <time>2022-09-23T09:48:11Z</time>
      </trkpt>
      <trkpt lat="46.56639" lon="4.60172">
        <ele>372.213</ele>
        <time>2022-09-23T09:48:18Z</time>
      </trkpt>
      <trkpt lat="46.56633" lon="4.60177">
        <ele>371.213</ele>
        <time>2022-09-23T09:48:24Z</time>
      </trkpt>
      <trkpt lat="46.56627" lon="4.60184">
        <ele>372.213</ele>
        <time>2022-09-23T09:48:31Z</time>
      </trkpt>
      <trkpt lat="46.56622" lon="4.6019">
        <ele>372.913</ele>
        <time>2022-09-23T09:48:38Z</time>
      </trkpt>
      <trkpt lat="46.56616" lon="4.60197">
        <ele>373.513</ele>
        <time>2022-09-23T09:48:46Z</time>
      </trkpt>
      <trkpt lat="46.56611" lon="4.60205">
        <ele>374.813</ele>
        <time>2022-09-23T09:48:52Z</time>
      </trkpt>
      <trkpt lat="46.56605" lon="4.60211">
        <ele>374.713</ele>
        <time>2022-09-23T09:48:59Z</time>
      </trkpt>
      <trkpt lat="46.56599" lon="4.60218">
        <ele>375.413</ele>
        <time>2022-09-23T09:49:06Z</time>
      </trkpt>
      <trkpt lat="46.56594" lon="4.60224">
        <ele>376.313</ele>
        <time>2022-09-23T09:49:11Z</time>
      </trkpt>
      <trkpt lat="46.56588" lon="4.6023">
        <ele>376.013</ele>
        <time>2022-09-23T09:49:18Z</time>
      </trkpt>
      <trkpt lat="46.56582" lon="4.60234">
        <ele>375.413</ele>
        <time>2022-09-23T09:49:26Z</time>
      </trkpt>
      <trkpt lat="46.56577" lon="4.60242">
        <ele>377.013</ele>
        <time>2022-09-23T09:49:32Z</time>
      </trkpt>
      <trkpt lat="46.56571" lon="4.60247">
        <ele>380.613</ele>
        <time>2022-09-23T09:49:38Z</time>
      </trkpt>
      <trkpt lat="46.56564" lon="4.60251">
        <ele>382.413</ele>
        <time>2022-09-23T09:49:45Z</time>
      </trkpt>
      <trkpt lat="46.56558" lon="4.60255">
        <ele>383.913</ele>
        <time>2022-09-23T09:49:51Z</time>
      </trkpt>
      <trkpt lat="46.56551" lon="4.6026">
        <ele>382.513</ele>
        <time>2022-09-23T09:49:57Z</time>
      </trkpt>
      <trkpt lat="46.56545" lon="4.60264">
        <ele>384.813</ele>
        <time>2022-09-23T09:50:06Z</time>
      </trkpt>
      <trkpt lat="46.56538" lon="4.60267">
        <ele>386.613</ele>
        <time>2022-09-23T09:50:13Z</time>
      </trkpt>
      <trkpt lat="46.56531" lon="4.60269">
        <ele>384.813</ele>
        <time>2022-09-23T09:50:20Z</time>
      </trkpt>
      <trkpt lat="46.56524" lon="4.60273">
        <ele>384.713</ele>
        <time>2022-09-23T09:50:26Z</time>
      </trkpt>
      <trkpt lat="46.56517" lon="4.60276">
        <ele>384.113</ele>
        <time>2022-09-23T09:50:35Z</time>
      </trkpt>
      <trkpt lat="46.56511" lon="4.6028">
        <ele>382.713</ele>
        <time>2022-09-23T09:50:41Z</time>
      </trkpt>
      <trkpt lat="46.56504" lon="4.60283">
        <ele>383.613</ele>
        <time>2022-09-23T09:50:48Z</time>
      </trkpt>
      <trkpt lat="46.56498" lon="4.60285">
        <ele>384.713</ele>
        <time>2022-09-23T09:50:55Z</time>
      </trkpt>
      <trkpt lat="46.56491" lon="4.60285">
        <ele>384.813</ele>
        <time>2022-09-23T09:51:02Z</time>
      </trkpt>
      <trkpt lat="46.56484" lon="4.60285">
        <ele>386.113</ele>
        <time>2022-09-23T09:51:08Z</time>
      </trkpt>
      <trkpt lat="46.56477" lon="4.60285">
        <ele>389.013</ele>
        <time>2022-09-23T09:51:15Z</time>
      </trkpt>
      <trkpt lat="46.5647" lon="4.60284">
        <ele>391.513</ele>
        <time>2022-09-23T09:51:23Z</time>
      </trkpt>
      <trkpt lat="46.56463" lon="4.60283">
        <ele>393.413</ele>
        <time>2022-09-23T09:51:31Z</time>
      </trkpt>
      <trkpt lat="46.56456" lon="4.60281">
        <ele>392.813</ele>
        <time>2022-09-23T09:51:37Z</time>
      </trkpt>
      <trkpt lat="46.56448" lon="4.60278">
        <ele>396.913</ele>
        <time>2022-09-23T09:51:45Z</time>
      </trkpt>
      <trkpt lat="46.56442" lon="4.60272">
        <ele>398.113</ele>
        <time>2022-09-23T09:51:51Z</time>
      </trkpt>
      <trkpt lat="46.56437" lon="4.60265">
        <ele>397.513</ele>
        <time>2022-09-23T09:51:59Z</time>
      </trkpt>
      <trkpt lat="46.56432" lon="4.60259">
        <ele>396.513</ele>
        <time>2022-09-23T09:52:05Z</time>
      </trkpt>
      <trkpt lat="46.56427" lon="4.60252">
        <ele>397.513</ele>
        <time>2022-09-23T09:52:12Z</time>
      </trkpt>
      <trkpt lat="46.56423" lon="4.60244">
        <ele>397.213</ele>
        <time>2022-09-23T09:52:17Z</time>
      </trkpt>
      <trkpt lat="46.56418" lon="4.60237">
        <ele>397.412</ele>
        <time>2022-09-23T09:52:23Z</time>
      </trkpt>
      <trkpt lat="46.56412" lon="4.6023">
        <ele>402.912</ele>
        <time>2022-09-23T09:52:31Z</time>
      </trkpt>
      <trkpt lat="46.56407" lon="4.60224">
        <ele>405.912</ele>
        <time>2022-09-23T09:52:39Z</time>
      </trkpt>
      <trkpt lat="46.56403" lon="4.60216">
        <ele>406.612</ele>
        <time>2022-09-23T09:52:45Z</time>
      </trkpt>
      <trkpt lat="46.564" lon="4.60207">
        <ele>408.612</ele>
        <time>2022-09-23T09:52:52Z</time>
      </trkpt>
      <trkpt lat="46.56396" lon="4.60199">
        <ele>407.512</ele>
        <time>2022-09-23T09:52:58Z</time>
      </trkpt>
      <trkpt lat="46.56392" lon="4.60192">
        <ele>407.412</ele>
        <time>2022-09-23T09:53:04Z</time>
      </trkpt>
      <trkpt lat="46.56384" lon="4.60186">
        <ele>400.812</ele>
        <time>2022-09-23T09:55:25Z</time>
      </trkpt>
      <trkpt lat="46.56379" lon="4.60193">
        <ele>400.112</ele>
        <time>2022-09-23T09:55:35Z</time>
      </trkpt>
      <trkpt lat="46.56373" lon="4.60197">
        <ele>403.712</ele>
        <time>2022-09-23T09:55:50Z</time>
      </trkpt>
      <trkpt lat="46.56362" lon="4.60199">
        <ele>394.412</ele>
        <time>2022-09-23T09:58:22Z</time>
      </trkpt>
      <trkpt lat="46.56367" lon="4.60187">
        <ele>397.912</ele>
        <time>2022-09-23T09:59:50Z</time>
      </trkpt>
      <trkpt lat="46.56376" lon="4.60177">
        <ele>398.112</ele>
        <time>2022-09-23T09:59:55Z</time>
      </trkpt>
      <trkpt lat="46.5637" lon="4.60201">
        <ele>397.912</ele>
        <time>2022-09-23T10:00:01Z</time>
      </trkpt>
      <trkpt lat="46.56368" lon="4.60212">
        <ele>397.412</ele>
        <time>2022-09-23T10:00:06Z</time>
      </trkpt>
      <trkpt lat="46.56363" lon="4.60207">
        <ele>397.112</ele>
        <time>2022-09-23T10:00:12Z</time>
      </trkpt>
      <trkpt lat="46.56366" lon="4.60199">
        <ele>400.012</ele>
        <time>2022-09-23T10:00:53Z</time>
      </trkpt>
      <trkpt lat="46.56361" lon="4.60206">
        <ele>401.512</ele>
        <time>2022-09-23T10:02:13Z</time>
      </trkpt>
      <trkpt lat="46.56365" lon="4.60196">
        <ele>404.012</ele>
        <time>2022-09-23T10:04:23Z</time>
      </trkpt>
      <trkpt lat="46.56367" lon="4.60187">
        <ele>408.312</ele>
        <time>2022-09-23T10:28:09Z</time>
      </trkpt>
      <trkpt lat="46.56367" lon="4.60177">
        <ele>409.612</ele>
        <time>2022-09-23T10:28:27Z</time>
      </trkpt>
      <trkpt lat="46.56368" lon="4.60188">
        <ele>408.512</ele>
        <time>2022-09-23T10:28:44Z</time>
      </trkpt>
      <trkpt lat="46.56367" lon="4.60198">
        <ele>410.212</ele>
        <time>2022-09-23T10:32:26Z</time>
      </trkpt>
      <trkpt lat="46.56369" lon="4.60186">
        <ele>404.412</ele>
        <time>2022-09-23T10:36:53Z</time>
      </trkpt>
      <trkpt lat="46.56368" lon="4.60176">
        <ele>409.512</ele>
        <time>2022-09-23T10:37:04Z</time>
      </trkpt>
      <trkpt lat="46.56367" lon="4.60166">
        <ele>410.912</ele>
        <time>2022-09-23T10:37:12Z</time>
      </trkpt>
      <trkpt lat="46.56363" lon="4.60158">
        <ele>409.412</ele>
        <time>2022-09-23T10:37:29Z</time>
      </trkpt>
      <trkpt lat="46.5636" lon="4.60149">
        <ele>409.512</ele>
        <time>2022-09-23T10:37:35Z</time>
      </trkpt>
      <trkpt lat="46.56358" lon="4.60139">
        <ele>410.312</ele>
        <time>2022-09-23T10:37:42Z</time>
      </trkpt>
      <trkpt lat="46.56356" lon="4.60129">
        <ele>411.812</ele>
        <time>2022-09-23T10:37:47Z</time>
      </trkpt>
      <trkpt lat="46.56356" lon="4.6012">
        <ele>411.112</ele>
        <time>2022-09-23T10:37:52Z</time>
      </trkpt>
      <trkpt lat="46.56354" lon="4.6011">
        <ele>408.512</ele>
        <time>2022-09-23T10:37:59Z</time>
      </trkpt>
      <trkpt lat="46.5635" lon="4.60101">
        <ele>407.112</ele>
        <time>2022-09-23T10:38:06Z</time>
      </trkpt>
      <trkpt lat="46.56348" lon="4.60091">
        <ele>406.312</ele>
        <time>2022-09-23T10:38:12Z</time>
      </trkpt>
      <trkpt lat="46.56344" lon="4.60082">
        <ele>407.512</ele>
        <time>2022-09-23T10:38:19Z</time>
      </trkpt>
      <trkpt lat="46.56343" lon="4.60072">
        <ele>408.112</ele>
        <time>2022-09-23T10:38:28Z</time>
      </trkpt>
      <trkpt lat="46.5634" lon="4.60062">
        <ele>408.912</ele>
        <time>2022-09-23T10:38:35Z</time>
      </trkpt>
      <trkpt lat="46.56336" lon="4.60053">
        <ele>409.012</ele>
        <time>2022-09-23T10:38:42Z</time>
      </trkpt>
      <trkpt lat="46.56334" lon="4.60044">
        <ele>410.712</ele>
        <time>2022-09-23T10:38:47Z</time>
      </trkpt>
      <trkpt lat="46.5633" lon="4.60034">
        <ele>411.712</ele>
        <time>2022-09-23T10:38:54Z</time>
      </trkpt>
      <trkpt lat="46.56326" lon="4.60026">
        <ele>411.212</ele>
        <time>2022-09-23T10:39:01Z</time>
      </trkpt>
      <trkpt lat="46.56321" lon="4.60017">
        <ele>407.912</ele>
        <time>2022-09-23T10:39:08Z</time>
      </trkpt>
      <trkpt lat="46.56316" lon="4.60009">
        <ele>405.912</ele>
        <time>2022-09-23T10:39:15Z</time>
      </trkpt>
      <trkpt lat="46.56311" lon="4.60002">
        <ele>406.912</ele>
        <time>2022-09-23T10:39:21Z</time>
      </trkpt>
      <trkpt lat="46.56307" lon="4.59993">
        <ele>408.612</ele>
        <time>2022-09-23T10:39:27Z</time>
      </trkpt>
      <trkpt lat="46.56301" lon="4.59982">
        <ele>408.612</ele>
        <time>2022-09-23T10:39:33Z</time>
      </trkpt>
      <trkpt lat="46.56296" lon="4.59974">
        <ele>407.012</ele>
        <time>2022-09-23T10:39:39Z</time>
      </trkpt>
      <trkpt lat="46.5629" lon="4.59968">
        <ele>406.512</ele>
        <time>2022-09-23T10:39:45Z</time>
      </trkpt>
      <trkpt lat="46.56285" lon="4.59961">
        <ele>407.212</ele>
        <time>2022-09-23T10:39:52Z</time>
      </trkpt>
      <trkpt lat="46.5628" lon="4.59953">
        <ele>407.512</ele>
        <time>2022-09-23T10:39:59Z</time>
      </trkpt>
      <trkpt lat="46.56275" lon="4.59946">
        <ele>406.512</ele>
        <time>2022-09-23T10:40:05Z</time>
      </trkpt>
      <trkpt lat="46.56268" lon="4.59944">
        <ele>405.712</ele>
        <time>2022-09-23T10:41:04Z</time>
      </trkpt>
      <trkpt lat="46.56261" lon="4.59941">
        <ele>404.012</ele>
        <time>2022-09-23T10:41:16Z</time>
      </trkpt>
      <trkpt lat="46.56254" lon="4.59939">
        <ele>402.512</ele>
        <time>2022-09-23T10:41:23Z</time>
      </trkpt>
      <trkpt lat="46.56248" lon="4.5994">
        <ele>402.512</ele>
        <time>2022-09-23T10:41:29Z</time>
      </trkpt>
      <trkpt lat="46.56241" lon="4.59938">
        <ele>402.412</ele>
        <time>2022-09-23T10:41:34Z</time>
      </trkpt>
      <trkpt lat="46.56234" lon="4.59936">
        <ele>401.112</ele>
        <time>2022-09-23T10:41:41Z</time>
      </trkpt>
      <trkpt lat="46.56226" lon="4.59934">
        <ele>399.112</ele>
        <time>2022-09-23T10:41:47Z</time>
      </trkpt>
      <trkpt lat="46.5622" lon="4.59933">
        <ele>397.512</ele>
        <time>2022-09-23T10:41:53Z</time>
      </trkpt>
      <trkpt lat="46.56213" lon="4.59932">
        <ele>394.812</ele>
        <time>2022-09-23T10:42:02Z</time>
      </trkpt>
      <trkpt lat="46.56206" lon="4.59929">
        <ele>391.912</ele>
        <time>2022-09-23T10:42:09Z</time>
      </trkpt>
      <trkpt lat="46.56199" lon="4.59928">
        <ele>390.712</ele>
        <time>2022-09-23T10:42:15Z</time>
      </trkpt>
      <trkpt lat="46.56192" lon="4.59924">
        <ele>389.712</ele>
        <time>2022-09-23T10:42:21Z</time>
      </trkpt>
      <trkpt lat="46.56185" lon="4.59921">
        <ele>389.912</ele>
        <time>2022-09-23T10:42:27Z</time>
      </trkpt>
      <trkpt lat="46.56178" lon="4.59916">
        <ele>389.512</ele>
        <time>2022-09-23T10:42:33Z</time>
      </trkpt>
      <trkpt lat="46.56171" lon="4.59913">
        <ele>389.512</ele>
        <time>2022-09-23T10:42:38Z</time>
      </trkpt>
      <trkpt lat="46.56165" lon="4.59907">
        <ele>388.612</ele>
        <time>2022-09-23T10:42:44Z</time>
      </trkpt>
      <trkpt lat="46.56159" lon="4.59902">
        <ele>387.812</ele>
        <time>2022-09-23T10:42:51Z</time>
      </trkpt>
      <trkpt lat="46.56153" lon="4.59895">
        <ele>389.012</ele>
        <time>2022-09-23T10:42:57Z</time>
      </trkpt>
      <trkpt lat="46.56146" lon="4.59891">
        <ele>386.912</ele>
        <time>2022-09-23T10:43:05Z</time>
      </trkpt>
      <trkpt lat="46.56139" lon="4.59889">
        <ele>386.911</ele>
        <time>2022-09-23T10:43:10Z</time>
      </trkpt>
      <trkpt lat="46.56131" lon="4.5989">
        <ele>386.411</ele>
        <time>2022-09-23T10:43:17Z</time>
      </trkpt>
      <trkpt lat="46.56125" lon="4.59893">
        <ele>385.511</ele>
        <time>2022-09-23T10:43:23Z</time>
      </trkpt>
      <trkpt lat="46.56118" lon="4.59898">
        <ele>384.711</ele>
        <time>2022-09-23T10:43:29Z</time>
      </trkpt>
      <trkpt lat="46.56112" lon="4.59903">
        <ele>383.611</ele>
        <time>2022-09-23T10:43:35Z</time>
      </trkpt>
      <trkpt lat="46.56105" lon="4.59906">
        <ele>381.311</ele>
        <time>2022-09-23T10:43:41Z</time>
      </trkpt>
      <trkpt lat="46.56098" lon="4.59912">
        <ele>381.511</ele>
        <time>2022-09-23T10:43:48Z</time>
      </trkpt>
      <trkpt lat="46.56092" lon="4.59916">
        <ele>381.011</ele>
        <time>2022-09-23T10:43:54Z</time>
      </trkpt>
      <trkpt lat="46.56085" lon="4.59921">
        <ele>380.411</ele>
        <time>2022-09-23T10:43:59Z</time>
      </trkpt>
      <trkpt lat="46.56079" lon="4.59925">
        <ele>379.211</ele>
        <time>2022-09-23T10:44:05Z</time>
      </trkpt>
      <trkpt lat="46.56072" lon="4.59928">
        <ele>378.811</ele>
        <time>2022-09-23T10:44:12Z</time>
      </trkpt>
      <trkpt lat="46.56066" lon="4.5993">
        <ele>378.611</ele>
        <time>2022-09-23T10:44:19Z</time>
      </trkpt>
      <trkpt lat="46.56059" lon="4.59931">
        <ele>377.611</ele>
        <time>2022-09-23T10:44:25Z</time>
      </trkpt>
      <trkpt lat="46.56052" lon="4.59931">
        <ele>375.411</ele>
        <time>2022-09-23T10:44:31Z</time>
      </trkpt>
      <trkpt lat="46.56045" lon="4.59931">
        <ele>373.411</ele>
        <time>2022-09-23T10:44:37Z</time>
      </trkpt>
      <trkpt lat="46.56038" lon="4.59933">
        <ele>373.711</ele>
        <time>2022-09-23T10:44:43Z</time>
      </trkpt>
      <trkpt lat="46.56031" lon="4.59933">
        <ele>372.611</ele>
        <time>2022-09-23T10:44:49Z</time>
      </trkpt>
      <trkpt lat="46.56024" lon="4.5993">
        <ele>372.111</ele>
        <time>2022-09-23T10:44:55Z</time>
      </trkpt>
      <trkpt lat="46.56017" lon="4.59929">
        <ele>370.211</ele>
        <time>2022-09-23T10:45:01Z</time>
      </trkpt>
      <trkpt lat="46.5601" lon="4.59929">
        <ele>370.511</ele>
        <time>2022-09-23T10:45:06Z</time>
      </trkpt>
      <trkpt lat="46.56003" lon="4.59932">
        <ele>370.211</ele>
        <time>2022-09-23T10:45:12Z</time>
      </trkpt>
      <trkpt lat="46.55997" lon="4.59937">
        <ele>368.111</ele>
        <time>2022-09-23T10:45:18Z</time>
      </trkpt>
      <trkpt lat="46.55991" lon="4.59941">
        <ele>366.611</ele>
        <time>2022-09-23T10:45:25Z</time>
      </trkpt>
      <trkpt lat="46.55984" lon="4.59944">
        <ele>366.311</ele>
        <time>2022-09-23T10:45:30Z</time>
      </trkpt>
      <trkpt lat="46.55978" lon="4.59947">
        <ele>365.611</ele>
        <time>2022-09-23T10:45:36Z</time>
      </trkpt>
      <trkpt lat="46.55971" lon="4.5995">
        <ele>365.011</ele>
        <time>2022-09-23T10:45:43Z</time>
      </trkpt>
      <trkpt lat="46.55963" lon="4.59953">
        <ele>367.311</ele>
        <time>2022-09-23T10:45:49Z</time>
      </trkpt>
      <trkpt lat="46.55955" lon="4.59956">
        <ele>368.411</ele>
        <time>2022-09-23T10:45:55Z</time>
      </trkpt>
      <trkpt lat="46.55948" lon="4.59957">
        <ele>366.911</ele>
        <time>2022-09-23T10:46:02Z</time>
      </trkpt>
      <trkpt lat="46.55941" lon="4.59959">
        <ele>367.211</ele>
        <time>2022-09-23T10:46:08Z</time>
      </trkpt>
      <trkpt lat="46.55934" lon="4.5996">
        <ele>366.011</ele>
        <time>2022-09-23T10:46:13Z</time>
      </trkpt>
      <trkpt lat="46.55927" lon="4.59963">
        <ele>363.211</ele>
        <time>2022-09-23T10:46:20Z</time>
      </trkpt>
      <trkpt lat="46.55919" lon="4.59964">
        <ele>362.211</ele>
        <time>2022-09-23T10:46:25Z</time>
      </trkpt>
      <trkpt lat="46.55913" lon="4.59963">
        <ele>361.311</ele>
        <time>2022-09-23T10:46:30Z</time>
      </trkpt>
      <trkpt lat="46.55905" lon="4.59964">
        <ele>360.811</ele>
        <time>2022-09-23T10:46:36Z</time>
      </trkpt>
      <trkpt lat="46.55898" lon="4.59967">
        <ele>361.511</ele>
        <time>2022-09-23T10:46:42Z</time>
      </trkpt>
      <trkpt lat="46.55891" lon="4.59967">
        <ele>361.911</ele>
        <time>2022-09-23T10:46:48Z</time>
      </trkpt>
      <trkpt lat="46.55885" lon="4.5997">
        <ele>361.111</ele>
        <time>2022-09-23T10:46:53Z</time>
      </trkpt>
      <trkpt lat="46.55878" lon="4.59975">
        <ele>360.311</ele>
        <time>2022-09-23T10:47:00Z</time>
      </trkpt>
      <trkpt lat="46.55872" lon="4.59977">
        <ele>362.311</ele>
        <time>2022-09-23T10:47:06Z</time>
      </trkpt>
      <trkpt lat="46.55866" lon="4.59984">
        <ele>361.111</ele>
        <time>2022-09-23T10:47:12Z</time>
      </trkpt>
      <trkpt lat="46.55859" lon="4.5999">
        <ele>360.811</ele>
        <time>2022-09-23T10:47:18Z</time>
      </trkpt>
      <trkpt lat="46.55855" lon="4.59998">
        <ele>359.611</ele>
        <time>2022-09-23T10:47:24Z</time>
      </trkpt>
      <trkpt lat="46.5585" lon="4.60003">
        <ele>358.211</ele>
        <time>2022-09-23T10:47:33Z</time>
      </trkpt>
      <trkpt lat="46.5585" lon="4.60014">
        <ele>359.011</ele>
        <time>2022-09-23T10:48:24Z</time>
      </trkpt>
      <trkpt lat="46.55848" lon="4.60023">
        <ele>361.311</ele>
        <time>2022-09-23T10:48:36Z</time>
      </trkpt>
      <trkpt lat="46.55848" lon="4.60034">
        <ele>363.611</ele>
        <time>2022-09-23T10:48:42Z</time>
      </trkpt>
      <trkpt lat="46.55845" lon="4.60044">
        <ele>364.211</ele>
        <time>2022-09-23T10:48:50Z</time>
      </trkpt>
      <trkpt lat="46.55842" lon="4.60054">
        <ele>365.211</ele>
        <time>2022-09-23T10:48:57Z</time>
      </trkpt>
      <trkpt lat="46.55839" lon="4.60064">
        <ele>364.311</ele>
        <time>2022-09-23T10:49:04Z</time>
      </trkpt>
      <trkpt lat="46.55835" lon="4.60072">
        <ele>364.111</ele>
        <time>2022-09-23T10:49:10Z</time>
      </trkpt>
      <trkpt lat="46.55832" lon="4.60081">
        <ele>362.711</ele>
        <time>2022-09-23T10:49:16Z</time>
      </trkpt>
      <trkpt lat="46.55828" lon="4.6009">
        <ele>360.511</ele>
        <time>2022-09-23T10:49:23Z</time>
      </trkpt>
      <trkpt lat="46.55824" lon="4.60097">
        <ele>357.611</ele>
        <time>2022-09-23T10:49:29Z</time>
      </trkpt>
      <trkpt lat="46.55818" lon="4.60106">
        <ele>357.711</ele>
        <time>2022-09-23T10:49:36Z</time>
      </trkpt>
      <trkpt lat="46.55814" lon="4.60114">
        <ele>357.311</ele>
        <time>2022-09-23T10:49:43Z</time>
      </trkpt>
      <trkpt lat="46.55809" lon="4.60122">
        <ele>356.611</ele>
        <time>2022-09-23T10:49:50Z</time>
      </trkpt>
      <trkpt lat="46.55805" lon="4.60129">
        <ele>356.511</ele>
        <time>2022-09-23T10:49:55Z</time>
      </trkpt>
      <trkpt lat="46.55799" lon="4.60138">
        <ele>357.311</ele>
        <time>2022-09-23T10:50:01Z</time>
      </trkpt>
      <trkpt lat="46.55793" lon="4.60142">
        <ele>356.411</ele>
        <time>2022-09-23T10:50:07Z</time>
      </trkpt>
      <trkpt lat="46.55788" lon="4.60149">
        <ele>355.111</ele>
        <time>2022-09-23T10:50:13Z</time>
      </trkpt>
      <trkpt lat="46.55781" lon="4.60152">
        <ele>355.111</ele>
        <time>2022-09-23T10:50:18Z</time>
      </trkpt>
      <trkpt lat="46.55775" lon="4.60158">
        <ele>356.311</ele>
        <time>2022-09-23T10:50:24Z</time>
      </trkpt>
      <trkpt lat="46.5577" lon="4.60165">
        <ele>358.111</ele>
        <time>2022-09-23T10:50:30Z</time>
      </trkpt>
      <trkpt lat="46.55766" lon="4.60175">
        <ele>357.811</ele>
        <time>2022-09-23T10:50:36Z</time>
      </trkpt>
      <trkpt lat="46.55765" lon="4.60185">
        <ele>355.711</ele>
        <time>2022-09-23T10:50:42Z</time>
      </trkpt>
      <trkpt lat="46.55763" lon="4.60196">
        <ele>355.511</ele>
        <time>2022-09-23T10:50:49Z</time>
      </trkpt>
      <trkpt lat="46.55759" lon="4.60206">
        <ele>357.111</ele>
        <time>2022-09-23T10:50:54Z</time>
      </trkpt>
      <trkpt lat="46.55757" lon="4.60215">
        <ele>358.311</ele>
        <time>2022-09-23T10:51:01Z</time>
      </trkpt>
      <trkpt lat="46.55754" lon="4.60225">
        <ele>356.311</ele>
        <time>2022-09-23T10:51:11Z</time>
      </trkpt>
      <trkpt lat="46.55754" lon="4.60235">
        <ele>355.111</ele>
        <time>2022-09-23T10:51:19Z</time>
      </trkpt>
      <trkpt lat="46.55754" lon="4.60244">
        <ele>353.611</ele>
        <time>2022-09-23T10:51:25Z</time>
      </trkpt>
      <trkpt lat="46.55754" lon="4.60254">
        <ele>351.611</ele>
        <time>2022-09-23T10:51:32Z</time>
      </trkpt>
      <trkpt lat="46.55753" lon="4.60264">
        <ele>350.511</ele>
        <time>2022-09-23T10:51:40Z</time>
      </trkpt>
      <trkpt lat="46.55754" lon="4.60275">
        <ele>348.811</ele>
        <time>2022-09-23T10:51:48Z</time>
      </trkpt>
      <trkpt lat="46.55753" lon="4.60288">
        <ele>349.011</ele>
        <time>2022-09-23T10:51:53Z</time>
      </trkpt>
      <trkpt lat="46.5575" lon="4.60301">
        <ele>346.911</ele>
        <time>2022-09-23T10:51:58Z</time>
      </trkpt>
      <trkpt lat="46.55749" lon="4.60311">
        <ele>341.411</ele>
        <time>2022-09-23T10:52:05Z</time>
      </trkpt>
      <trkpt lat="46.55748" lon="4.60323">
        <ele>340.011</ele>
        <time>2022-09-23T10:52:10Z</time>
      </trkpt>
      <trkpt lat="46.55749" lon="4.60333">
        <ele>339.511</ele>
        <time>2022-09-23T10:52:17Z</time>
      </trkpt>
      <trkpt lat="46.5575" lon="4.60343">
        <ele>339.811</ele>
        <time>2022-09-23T10:52:25Z</time>
      </trkpt>
      <trkpt lat="46.55751" lon="4.60354">
        <ele>339.611</ele>
        <time>2022-09-23T10:52:31Z</time>
      </trkpt>
      <trkpt lat="46.55751" lon="4.60365">
        <ele>340.911</ele>
        <time>2022-09-23T10:52:37Z</time>
      </trkpt>
      <trkpt lat="46.55752" lon="4.60377">
        <ele>340.811</ele>
        <time>2022-09-23T10:52:44Z</time>
      </trkpt>
      <trkpt lat="46.55751" lon="4.60387">
        <ele>340.011</ele>
        <time>2022-09-23T10:52:49Z</time>
      </trkpt>
      <trkpt lat="46.5575" lon="4.60397">
        <ele>339.811</ele>
        <time>2022-09-23T10:52:54Z</time>
      </trkpt>
      <trkpt lat="46.55749" lon="4.60408">
        <ele>339.211</ele>
        <time>2022-09-23T10:53:01Z</time>
      </trkpt>
      <trkpt lat="46.55748" lon="4.60418">
        <ele>339.211</ele>
        <time>2022-09-23T10:53:06Z</time>
      </trkpt>
      <trkpt lat="46.55746" lon="4.60428">
        <ele>340.211</ele>
        <time>2022-09-23T10:53:13Z</time>
      </trkpt>
      <trkpt lat="46.55741" lon="4.60436">
        <ele>341.111</ele>
        <time>2022-09-23T10:53:21Z</time>
      </trkpt>
      <trkpt lat="46.55735" lon="4.6044">
        <ele>338.211</ele>
        <time>2022-09-23T10:53:37Z</time>
      </trkpt>
      <trkpt lat="46.55732" lon="4.6045">
        <ele>342.511</ele>
        <time>2022-09-23T10:53:49Z</time>
      </trkpt>
      <trkpt lat="46.55725" lon="4.60452">
        <ele>344.111</ele>
        <time>2022-09-23T10:54:06Z</time>
      </trkpt>
      <trkpt lat="46.55718" lon="4.60454">
        <ele>344.211</ele>
        <time>2022-09-23T10:54:15Z</time>
      </trkpt>
      <trkpt lat="46.55712" lon="4.60456">
        <ele>344.611</ele>
        <time>2022-09-23T10:54:21Z</time>
      </trkpt>
      <trkpt lat="46.55705" lon="4.60455">
        <ele>344.911</ele>
        <time>2022-09-23T10:54:30Z</time>
      </trkpt>
      <trkpt lat="46.55698" lon="4.60456">
        <ele>345.611</ele>
        <time>2022-09-23T10:54:37Z</time>
      </trkpt>
      <trkpt lat="46.55692" lon="4.60454">
        <ele>346.411</ele>
        <time>2022-09-23T10:54:45Z</time>
      </trkpt>
      <trkpt lat="46.55685" lon="4.60456">
        <ele>344.711</ele>
        <time>2022-09-23T10:54:54Z</time>
      </trkpt>
      <trkpt lat="46.55678" lon="4.60454">
        <ele>344.511</ele>
        <time>2022-09-23T10:55:04Z</time>
      </trkpt>
      <trkpt lat="46.55671" lon="4.60455">
        <ele>345.711</ele>
        <time>2022-09-23T10:55:12Z</time>
      </trkpt>
      <trkpt lat="46.55664" lon="4.60457">
        <ele>348.711</ele>
        <time>2022-09-23T10:55:20Z</time>
      </trkpt>
      <trkpt lat="46.55658" lon="4.60456">
        <ele>349.411</ele>
        <time>2022-09-23T10:55:28Z</time>
      </trkpt>
      <trkpt lat="46.55651" lon="4.60457">
        <ele>351.311</ele>
        <time>2022-09-23T10:55:34Z</time>
      </trkpt>
      <trkpt lat="46.55644" lon="4.60456">
        <ele>352.711</ele>
        <time>2022-09-23T10:55:41Z</time>
      </trkpt>
      <trkpt lat="46.55638" lon="4.60456">
        <ele>353.111</ele>
        <time>2022-09-23T10:55:49Z</time>
      </trkpt>
      <trkpt lat="46.55631" lon="4.60459">
        <ele>354.811</ele>
        <time>2022-09-23T10:55:56Z</time>
      </trkpt>
      <trkpt lat="46.55624" lon="4.6046">
        <ele>357.411</ele>
        <time>2022-09-23T10:56:03Z</time>
      </trkpt>
      <trkpt lat="46.55618" lon="4.60462">
        <ele>359.41</ele>
        <time>2022-09-23T10:56:10Z</time>
      </trkpt>
      <trkpt lat="46.55611" lon="4.60463">
        <ele>361.11</ele>
        <time>2022-09-23T10:56:16Z</time>
      </trkpt>
      <trkpt lat="46.55605" lon="4.60467">
        <ele>361.71</ele>
        <time>2022-09-23T10:56:25Z</time>
      </trkpt>
      <trkpt lat="46.55598" lon="4.60472">
        <ele>363.21</ele>
        <time>2022-09-23T10:56:33Z</time>
      </trkpt>
      <trkpt lat="46.55591" lon="4.60477">
        <ele>363.51</ele>
        <time>2022-09-23T10:56:40Z</time>
      </trkpt>
      <trkpt lat="46.55585" lon="4.6048">
        <ele>364.11</ele>
        <time>2022-09-23T10:56:47Z</time>
      </trkpt>
      <trkpt lat="46.55578" lon="4.6048">
        <ele>364.81</ele>
        <time>2022-09-23T10:56:53Z</time>
      </trkpt>
      <trkpt lat="46.55572" lon="4.60484">
        <ele>363.31</ele>
        <time>2022-09-23T10:57:01Z</time>
      </trkpt>
      <trkpt lat="46.55565" lon="4.60487">
        <ele>364.11</ele>
        <time>2022-09-23T10:57:07Z</time>
      </trkpt>
      <trkpt lat="46.55559" lon="4.6049">
        <ele>365.31</ele>
        <time>2022-09-23T10:57:12Z</time>
      </trkpt>
      <trkpt lat="46.55553" lon="4.60495">
        <ele>366.11</ele>
        <time>2022-09-23T10:57:18Z</time>
      </trkpt>
      <trkpt lat="46.55547" lon="4.60499">
        <ele>366.91</ele>
        <time>2022-09-23T10:57:25Z</time>
      </trkpt>
      <trkpt lat="46.55541" lon="4.60505">
        <ele>366.41</ele>
        <time>2022-09-23T10:57:32Z</time>
      </trkpt>
      <trkpt lat="46.55534" lon="4.60508">
        <ele>366.91</ele>
        <time>2022-09-23T10:57:39Z</time>
      </trkpt>
      <trkpt lat="46.55528" lon="4.60513">
        <ele>364.51</ele>
        <time>2022-09-23T10:57:46Z</time>
      </trkpt>
      <trkpt lat="46.55522" lon="4.60517">
        <ele>363.61</ele>
        <time>2022-09-23T10:57:53Z</time>
      </trkpt>
      <trkpt lat="46.55515" lon="4.60521">
        <ele>364.81</ele>
        <time>2022-09-23T10:58:01Z</time>
      </trkpt>
      <trkpt lat="46.55509" lon="4.60522">
        <ele>364.61</ele>
        <time>2022-09-23T10:58:09Z</time>
      </trkpt>
      <trkpt lat="46.55501" lon="4.60523">
        <ele>370.21</ele>
        <time>2022-09-23T10:58:18Z</time>
      </trkpt>
      <trkpt lat="46.55495" lon="4.60526">
        <ele>372.61</ele>
        <time>2022-09-23T10:58:24Z</time>
      </trkpt>
      <trkpt lat="46.55488" lon="4.60526">
        <ele>372.71</ele>
        <time>2022-09-23T10:58:31Z</time>
      </trkpt>
      <trkpt lat="46.55481" lon="4.60525">
        <ele>374.21</ele>
        <time>2022-09-23T10:58:37Z</time>
      </trkpt>
      <trkpt lat="46.55474" lon="4.60522">
        <ele>375.71</ele>
        <time>2022-09-23T10:58:44Z</time>
      </trkpt>
      <trkpt lat="46.55467" lon="4.60522">
        <ele>377.71</ele>
        <time>2022-09-23T10:58:50Z</time>
      </trkpt>
      <trkpt lat="46.5546" lon="4.60519">
        <ele>379.41</ele>
        <time>2022-09-23T10:59:00Z</time>
      </trkpt>
      <trkpt lat="46.55454" lon="4.60514">
        <ele>378.71</ele>
        <time>2022-09-23T10:59:10Z</time>
      </trkpt>
      <trkpt lat="46.55448" lon="4.60508">
        <ele>379.21</ele>
        <time>2022-09-23T10:59:18Z</time>
      </trkpt>
      <trkpt lat="46.55442" lon="4.60503">
        <ele>378.41</ele>
        <time>2022-09-23T10:59:26Z</time>
      </trkpt>
      <trkpt lat="46.55436" lon="4.60497">
        <ele>377.01</ele>
        <time>2022-09-23T10:59:34Z</time>
      </trkpt>
      <trkpt lat="46.55429" lon="4.60494">
        <ele>377.31</ele>
        <time>2022-09-23T10:59:41Z</time>
      </trkpt>
      <trkpt lat="46.55423" lon="4.60492">
        <ele>377.11</ele>
        <time>2022-09-23T10:59:47Z</time>
      </trkpt>
      <trkpt lat="46.55417" lon="4.60488">
        <ele>376.81</ele>
        <time>2022-09-23T10:59:52Z</time>
      </trkpt>
      <trkpt lat="46.5541" lon="4.60481">
        <ele>378.31</ele>
        <time>2022-09-23T10:59:59Z</time>
      </trkpt>
      <trkpt lat="46.55404" lon="4.60476">
        <ele>377.41</ele>
        <time>2022-09-23T11:00:05Z</time>
      </trkpt>
      <trkpt lat="46.55398" lon="4.60471">
        <ele>374.51</ele>
        <time>2022-09-23T11:00:13Z</time>
      </trkpt>
      <trkpt lat="46.5539" lon="4.6047">
        <ele>379.41</ele>
        <time>2022-09-23T11:01:29Z</time>
      </trkpt>
      <trkpt lat="46.55385" lon="4.60465">
        <ele>379.31</ele>
        <time>2022-09-23T11:01:36Z</time>
      </trkpt>
      <trkpt lat="46.55378" lon="4.60464">
        <ele>380.31</ele>
        <time>2022-09-23T11:01:42Z</time>
      </trkpt>
      <trkpt lat="46.5537" lon="4.60464">
        <ele>380.81</ele>
        <time>2022-09-23T11:01:49Z</time>
      </trkpt>
      <trkpt lat="46.55364" lon="4.6046">
        <ele>381.61</ele>
        <time>2022-09-23T11:01:55Z</time>
      </trkpt>
      <trkpt lat="46.55357" lon="4.60459">
        <ele>380.91</ele>
        <time>2022-09-23T11:02:01Z</time>
      </trkpt>
      <trkpt lat="46.5535" lon="4.60455">
        <ele>380.31</ele>
        <time>2022-09-23T11:02:07Z</time>
      </trkpt>
      <trkpt lat="46.55343" lon="4.60454">
        <ele>379.11</ele>
        <time>2022-09-23T11:02:12Z</time>
      </trkpt>
      <trkpt lat="46.55336" lon="4.60455">
        <ele>379.41</ele>
        <time>2022-09-23T11:02:19Z</time>
      </trkpt>
      <trkpt lat="46.55329" lon="4.60453">
        <ele>379.51</ele>
        <time>2022-09-23T11:02:26Z</time>
      </trkpt>
      <trkpt lat="46.55322" lon="4.60452">
        <ele>378.91</ele>
        <time>2022-09-23T11:02:31Z</time>
      </trkpt>
      <trkpt lat="46.55315" lon="4.60453">
        <ele>378.11</ele>
        <time>2022-09-23T11:02:37Z</time>
      </trkpt>
      <trkpt lat="46.55308" lon="4.60452">
        <ele>379.01</ele>
        <time>2022-09-23T11:02:43Z</time>
      </trkpt>
      <trkpt lat="46.55301" lon="4.6045">
        <ele>379.81</ele>
        <time>2022-09-23T11:02:48Z</time>
      </trkpt>
      <trkpt lat="46.55294" lon="4.60449">
        <ele>380.31</ele>
        <time>2022-09-23T11:02:53Z</time>
      </trkpt>
      <trkpt lat="46.55286" lon="4.6045">
        <ele>380.91</ele>
        <time>2022-09-23T11:02:59Z</time>
      </trkpt>
      <trkpt lat="46.55279" lon="4.6045">
        <ele>380.61</ele>
        <time>2022-09-23T11:03:05Z</time>
      </trkpt>
      <trkpt lat="46.55272" lon="4.60449">
        <ele>380.11</ele>
        <time>2022-09-23T11:03:12Z</time>
      </trkpt>
      <trkpt lat="46.55265" lon="4.60447">
        <ele>380.11</ele>
        <time>2022-09-23T11:03:23Z</time>
      </trkpt>
      <trkpt lat="46.55258" lon="4.60444">
        <ele>378.11</ele>
        <time>2022-09-23T11:03:28Z</time>
      </trkpt>
      <trkpt lat="46.5525" lon="4.60439">
        <ele>377.209</ele>
        <time>2022-09-23T11:03:33Z</time>
      </trkpt>
      <trkpt lat="46.55242" lon="4.60435">
        <ele>378.309</ele>
        <time>2022-09-23T11:03:39Z</time>
      </trkpt>
      <trkpt lat="46.55236" lon="4.60432">
        <ele>378.509</ele>
        <time>2022-09-23T11:03:45Z</time>
      </trkpt>
      <trkpt lat="46.55228" lon="4.60428">
        <ele>380.209</ele>
        <time>2022-09-23T11:03:51Z</time>
      </trkpt>
      <trkpt lat="46.5522" lon="4.60425">
        <ele>381.409</ele>
        <time>2022-09-23T11:03:59Z</time>
      </trkpt>
      <trkpt lat="46.55213" lon="4.60422">
        <ele>380.809</ele>
        <time>2022-09-23T11:04:07Z</time>
      </trkpt>
      <trkpt lat="46.55207" lon="4.60416">
        <ele>380.109</ele>
        <time>2022-09-23T11:04:13Z</time>
      </trkpt>
      <trkpt lat="46.552" lon="4.60409">
        <ele>380.109</ele>
        <time>2022-09-23T11:04:18Z</time>
      </trkpt>
      <trkpt lat="46.55194" lon="4.60405">
        <ele>380.309</ele>
        <time>2022-09-23T11:04:25Z</time>
      </trkpt>
      <trkpt lat="46.55188" lon="4.60399">
        <ele>379.009</ele>
        <time>2022-09-23T11:04:32Z</time>
      </trkpt>
      <trkpt lat="46.55181" lon="4.60392">
        <ele>378.209</ele>
        <time>2022-09-23T11:04:38Z</time>
      </trkpt>
      <trkpt lat="46.55175" lon="4.60387">
        <ele>377.209</ele>
        <time>2022-09-23T11:04:43Z</time>
      </trkpt>
      <trkpt lat="46.5517" lon="4.60381">
        <ele>375.809</ele>
        <time>2022-09-23T11:04:48Z</time>
      </trkpt>
      <trkpt lat="46.55167" lon="4.60373">
        <ele>374.509</ele>
        <time>2022-09-23T11:04:55Z</time>
      </trkpt>
      <trkpt lat="46.5516" lon="4.60365">
        <ele>373.309</ele>
        <time>2022-09-23T11:05:00Z</time>
      </trkpt>
      <trkpt lat="46.55155" lon="4.60358">
        <ele>371.809</ele>
        <time>2022-09-23T11:05:07Z</time>
      </trkpt>
      <trkpt lat="46.55151" lon="4.6035">
        <ele>370.909</ele>
        <time>2022-09-23T11:05:13Z</time>
      </trkpt>
      <trkpt lat="46.55146" lon="4.60342">
        <ele>369.609</ele>
        <time>2022-09-23T11:05:19Z</time>
      </trkpt>
      <trkpt lat="46.5514" lon="4.60336">
        <ele>368.309</ele>
        <time>2022-09-23T11:05:25Z</time>
      </trkpt>
      <trkpt lat="46.55136" lon="4.60328">
        <ele>366.709</ele>
        <time>2022-09-23T11:05:31Z</time>
      </trkpt>
      <trkpt lat="46.55132" lon="4.6032">
        <ele>364.709</ele>
        <time>2022-09-23T11:05:37Z</time>
      </trkpt>
      <trkpt lat="46.55127" lon="4.60313">
        <ele>360.609</ele>
        <time>2022-09-23T11:05:46Z</time>
      </trkpt>
      <trkpt lat="46.55124" lon="4.60304">
        <ele>359.209</ele>
        <time>2022-09-23T11:05:51Z</time>
      </trkpt>
      <trkpt lat="46.55119" lon="4.60296">
        <ele>358.309</ele>
        <time>2022-09-23T11:05:58Z</time>
      </trkpt>
      <trkpt lat="46.55115" lon="4.60287">
        <ele>358.109</ele>
        <time>2022-09-23T11:06:03Z</time>
      </trkpt>
      <trkpt lat="46.55113" lon="4.60278">
        <ele>359.409</ele>
        <time>2022-09-23T11:06:08Z</time>
      </trkpt>
      <trkpt lat="46.55109" lon="4.60268">
        <ele>359.409</ele>
        <time>2022-09-23T11:06:14Z</time>
      </trkpt>
      <trkpt lat="46.55105" lon="4.60256">
        <ele>360.209</ele>
        <time>2022-09-23T11:06:19Z</time>
      </trkpt>
      <trkpt lat="46.55103" lon="4.60247">
        <ele>360.409</ele>
        <time>2022-09-23T11:06:24Z</time>
      </trkpt>
      <trkpt lat="46.55099" lon="4.60239">
        <ele>360.709</ele>
        <time>2022-09-23T11:06:29Z</time>
      </trkpt>
      <trkpt lat="46.55096" lon="4.60227">
        <ele>360.809</ele>
        <time>2022-09-23T11:06:35Z</time>
      </trkpt>
      <trkpt lat="46.55094" lon="4.60217">
        <ele>361.509</ele>
        <time>2022-09-23T11:06:40Z</time>
      </trkpt>
      <trkpt lat="46.55091" lon="4.60207">
        <ele>361.709</ele>
        <time>2022-09-23T11:06:45Z</time>
      </trkpt>
      <trkpt lat="46.55086" lon="4.60197">
        <ele>362.009</ele>
        <time>2022-09-23T11:06:51Z</time>
      </trkpt>
      <trkpt lat="46.55083" lon="4.60187">
        <ele>362.609</ele>
        <time>2022-09-23T11:06:56Z</time>
      </trkpt>
      <trkpt lat="46.55079" lon="4.60178">
        <ele>361.809</ele>
        <time>2022-09-23T11:07:03Z</time>
      </trkpt>
      <trkpt lat="46.55077" lon="4.60168">
        <ele>362.409</ele>
        <time>2022-09-23T11:07:09Z</time>
      </trkpt>
      <trkpt lat="46.55075" lon="4.60156">
        <ele>359.509</ele>
        <time>2022-09-23T11:07:15Z</time>
      </trkpt>
      <trkpt lat="46.55073" lon="4.60146">
        <ele>358.609</ele>
        <time>2022-09-23T11:07:22Z</time>
      </trkpt>
      <trkpt lat="46.5507" lon="4.60137">
        <ele>356.709</ele>
        <time>2022-09-23T11:07:28Z</time>
      </trkpt>
      <trkpt lat="46.55066" lon="4.60128">
        <ele>357.209</ele>
        <time>2022-09-23T11:07:34Z</time>
      </trkpt>
      <trkpt lat="46.55063" lon="4.6012">
        <ele>357.209</ele>
        <time>2022-09-23T11:07:40Z</time>
      </trkpt>
      <trkpt lat="46.55061" lon="4.6011">
        <ele>357.309</ele>
        <time>2022-09-23T11:07:46Z</time>
      </trkpt>
      <trkpt lat="46.55058" lon="4.601">
        <ele>357.509</ele>
        <time>2022-09-23T11:07:51Z</time>
      </trkpt>
      <trkpt lat="46.55053" lon="4.60091">
        <ele>358.209</ele>
        <time>2022-09-23T11:07:57Z</time>
      </trkpt>
      <trkpt lat="46.5505" lon="4.6008">
        <ele>359.509</ele>
        <time>2022-09-23T11:08:03Z</time>
      </trkpt>
      <trkpt lat="46.55046" lon="4.6007">
        <ele>360.309</ele>
        <time>2022-09-23T11:08:08Z</time>
      </trkpt>
      <trkpt lat="46.55045" lon="4.6006">
        <ele>360.609</ele>
        <time>2022-09-23T11:08:14Z</time>
      </trkpt>
      <trkpt lat="46.55042" lon="4.60051">
        <ele>359.409</ele>
        <time>2022-09-23T11:08:20Z</time>
      </trkpt>
      <trkpt lat="46.5504" lon="4.60042">
        <ele>359.409</ele>
        <time>2022-09-23T11:08:25Z</time>
      </trkpt>
      <trkpt lat="46.55038" lon="4.60031">
        <ele>361.309</ele>
        <time>2022-09-23T11:08:31Z</time>
      </trkpt>
      <trkpt lat="46.55037" lon="4.60021">
        <ele>361.509</ele>
        <time>2022-09-23T11:08:37Z</time>
      </trkpt>
      <trkpt lat="46.55034" lon="4.60011">
        <ele>361.709</ele>
        <time>2022-09-23T11:08:43Z</time>
      </trkpt>
      <trkpt lat="46.55032" lon="4.60001">
        <ele>361.609</ele>
        <time>2022-09-23T11:08:49Z</time>
      </trkpt>
      <trkpt lat="46.55029" lon="4.59992">
        <ele>360.109</ele>
        <time>2022-09-23T11:08:57Z</time>
      </trkpt>
      <trkpt lat="46.55021" lon="4.59985">
        <ele>357.509</ele>
        <time>2022-09-23T11:09:03Z</time>
      </trkpt>
      <trkpt lat="46.55016" lon="4.59978">
        <ele>356.209</ele>
        <time>2022-09-23T11:09:10Z</time>
      </trkpt>
      <trkpt lat="46.55008" lon="4.59975">
        <ele>355.309</ele>
        <time>2022-09-23T11:09:15Z</time>
      </trkpt>
      <trkpt lat="46.54999" lon="4.59971">
        <ele>357.708</ele>
        <time>2022-09-23T11:09:20Z</time>
      </trkpt>
      <trkpt lat="46.54992" lon="4.5997">
        <ele>358.808</ele>
        <time>2022-09-23T11:09:58Z</time>
      </trkpt>
      <trkpt lat="46.54986" lon="4.59968">
        <ele>355.708</ele>
        <time>2022-09-23T11:10:04Z</time>
      </trkpt>
      <trkpt lat="46.54979" lon="4.59968">
        <ele>354.108</ele>
        <time>2022-09-23T11:10:10Z</time>
      </trkpt>
      <trkpt lat="46.54972" lon="4.59969">
        <ele>352.408</ele>
        <time>2022-09-23T11:10:18Z</time>
      </trkpt>
      <trkpt lat="46.54963" lon="4.5997">
        <ele>352.208</ele>
        <time>2022-09-23T11:10:23Z</time>
      </trkpt>
      <trkpt lat="46.54956" lon="4.59966">
        <ele>355.908</ele>
        <time>2022-09-23T11:10:33Z</time>
      </trkpt>
      <trkpt lat="46.54951" lon="4.59959">
        <ele>357.208</ele>
        <time>2022-09-23T11:10:40Z</time>
      </trkpt>
      <trkpt lat="46.54945" lon="4.59955">
        <ele>357.308</ele>
        <time>2022-09-23T11:10:47Z</time>
      </trkpt>
      <trkpt lat="46.54939" lon="4.59951">
        <ele>357.408</ele>
        <time>2022-09-23T11:10:56Z</time>
      </trkpt>
      <trkpt lat="46.54933" lon="4.59948">
        <ele>357.008</ele>
        <time>2022-09-23T11:11:03Z</time>
      </trkpt>
      <trkpt lat="46.54927" lon="4.59944">
        <ele>357.208</ele>
        <time>2022-09-23T11:11:10Z</time>
      </trkpt>
      <trkpt lat="46.54918" lon="4.59938">
        <ele>356.808</ele>
        <time>2022-09-23T11:11:34Z</time>
      </trkpt>
      <trkpt lat="46.54911" lon="4.59938">
        <ele>355.808</ele>
        <time>2022-09-23T11:12:22Z</time>
      </trkpt>
      <trkpt lat="46.54918" lon="4.5994">
        <ele>355.408</ele>
        <time>2022-09-23T11:12:51Z</time>
      </trkpt>
      <trkpt lat="46.54912" lon="4.59934">
        <ele>357.808</ele>
        <time>2022-09-23T11:13:19Z</time>
      </trkpt>
      <trkpt lat="46.54906" lon="4.59929">
        <ele>358.408</ele>
        <time>2022-09-23T11:13:25Z</time>
      </trkpt>
      <trkpt lat="46.549" lon="4.59926">
        <ele>359.408</ele>
        <time>2022-09-23T11:13:34Z</time>
      </trkpt>
      <trkpt lat="46.54892" lon="4.59922">
        <ele>359.208</ele>
        <time>2022-09-23T11:13:41Z</time>
      </trkpt>
      <trkpt lat="46.54886" lon="4.59918">
        <ele>359.008</ele>
        <time>2022-09-23T11:13:49Z</time>
      </trkpt>
      <trkpt lat="46.5488" lon="4.59914">
        <ele>358.408</ele>
        <time>2022-09-23T11:13:56Z</time>
      </trkpt>
      <trkpt lat="46.54873" lon="4.59911">
        <ele>358.608</ele>
        <time>2022-09-23T11:14:02Z</time>
      </trkpt>
      <trkpt lat="46.54867" lon="4.59907">
        <ele>357.308</ele>
        <time>2022-09-23T11:14:08Z</time>
      </trkpt>
      <trkpt lat="46.54862" lon="4.59901">
        <ele>357.208</ele>
        <time>2022-09-23T11:14:14Z</time>
      </trkpt>
      <trkpt lat="46.54855" lon="4.59898">
        <ele>356.508</ele>
        <time>2022-09-23T11:14:21Z</time>
      </trkpt>
      <trkpt lat="46.54849" lon="4.59893">
        <ele>355.308</ele>
        <time>2022-09-23T11:14:29Z</time>
      </trkpt>
      <trkpt lat="46.54842" lon="4.59889">
        <ele>354.308</ele>
        <time>2022-09-23T11:14:35Z</time>
      </trkpt>
      <trkpt lat="46.54834" lon="4.59887">
        <ele>353.908</ele>
        <time>2022-09-23T11:14:42Z</time>
      </trkpt>
      <trkpt lat="46.54828" lon="4.59883">
        <ele>354.508</ele>
        <time>2022-09-23T11:14:49Z</time>
      </trkpt>
      <trkpt lat="46.54821" lon="4.59882">
        <ele>354.708</ele>
        <time>2022-09-23T11:14:56Z</time>
      </trkpt>
      <trkpt lat="46.54814" lon="4.5988">
        <ele>354.008</ele>
        <time>2022-09-23T11:15:02Z</time>
      </trkpt>
      <trkpt lat="46.54807" lon="4.59877">
        <ele>355.308</ele>
        <time>2022-09-23T11:15:08Z</time>
      </trkpt>
      <trkpt lat="46.548" lon="4.59877">
        <ele>355.608</ele>
        <time>2022-09-23T11:15:13Z</time>
      </trkpt>
      <trkpt lat="46.54793" lon="4.59876">
        <ele>355.608</ele>
        <time>2022-09-23T11:15:20Z</time>
      </trkpt>
      <trkpt lat="46.54786" lon="4.59873">
        <ele>357.908</ele>
        <time>2022-09-23T11:15:26Z</time>
      </trkpt>
      <trkpt lat="46.5478" lon="4.59867">
        <ele>355.808</ele>
        <time>2022-09-23T11:15:33Z</time>
      </trkpt>
      <trkpt lat="46.54773" lon="4.59866">
        <ele>354.608</ele>
        <time>2022-09-23T11:15:39Z</time>
      </trkpt>
      <trkpt lat="46.54766" lon="4.59866">
        <ele>355.708</ele>
        <time>2022-09-23T11:15:44Z</time>
      </trkpt>
      <trkpt lat="46.5476" lon="4.59864">
        <ele>356.808</ele>
        <time>2022-09-23T11:15:49Z</time>
      </trkpt>
      <trkpt lat="46.54753" lon="4.59862">
        <ele>356.908</ele>
        <time>2022-09-23T11:15:55Z</time>
      </trkpt>
      <trkpt lat="46.54746" lon="4.59859">
        <ele>356.708</ele>
        <time>2022-09-23T11:16:00Z</time>
      </trkpt>
      <trkpt lat="46.54739" lon="4.59857">
        <ele>356.208</ele>
        <time>2022-09-23T11:16:06Z</time>
      </trkpt>
      <trkpt lat="46.54732" lon="4.59857">
        <ele>356.808</ele>
        <time>2022-09-23T11:16:12Z</time>
      </trkpt>
      <trkpt lat="46.54725" lon="4.59854">
        <ele>357.308</ele>
        <time>2022-09-23T11:16:18Z</time>
      </trkpt>
      <trkpt lat="46.54718" lon="4.59853">
        <ele>356.608</ele>
        <time>2022-09-23T11:16:23Z</time>
      </trkpt>
      <trkpt lat="46.54712" lon="4.59852">
        <ele>356.608</ele>
        <time>2022-09-23T11:16:28Z</time>
      </trkpt>
      <trkpt lat="46.54705" lon="4.5985">
        <ele>354.808</ele>
        <time>2022-09-23T11:16:33Z</time>
      </trkpt>
      <trkpt lat="46.54698" lon="4.59847">
        <ele>354.408</ele>
        <time>2022-09-23T11:16:39Z</time>
      </trkpt>
      <trkpt lat="46.54692" lon="4.59843">
        <ele>353.708</ele>
        <time>2022-09-23T11:16:44Z</time>
      </trkpt>
      <trkpt lat="46.54686" lon="4.59838">
        <ele>353.908</ele>
        <time>2022-09-23T11:16:49Z</time>
      </trkpt>
      <trkpt lat="46.5468" lon="4.59832">
        <ele>354.808</ele>
        <time>2022-09-23T11:16:55Z</time>
      </trkpt>
      <trkpt lat="46.54673" lon="4.59829">
        <ele>355.107</ele>
        <time>2022-09-23T11:17:01Z</time>
      </trkpt>
      <trkpt lat="46.54666" lon="4.59828">
        <ele>356.507</ele>
        <time>2022-09-23T11:17:07Z</time>
      </trkpt>
      <trkpt lat="46.54659" lon="4.59828">
        <ele>358.407</ele>
        <time>2022-09-23T11:17:12Z</time>
      </trkpt>
      <trkpt lat="46.54653" lon="4.59828">
        <ele>358.607</ele>
        <time>2022-09-23T11:17:18Z</time>
      </trkpt>
      <trkpt lat="46.54645" lon="4.59827">
        <ele>358.807</ele>
        <time>2022-09-23T11:17:24Z</time>
      </trkpt>
      <trkpt lat="46.54639" lon="4.59828">
        <ele>358.707</ele>
        <time>2022-09-23T11:17:29Z</time>
      </trkpt>
      <trkpt lat="46.54631" lon="4.59828">
        <ele>357.607</ele>
        <time>2022-09-23T11:17:35Z</time>
      </trkpt>
      <trkpt lat="46.54624" lon="4.59828">
        <ele>356.407</ele>
        <time>2022-09-23T11:17:41Z</time>
      </trkpt>
      <trkpt lat="46.54616" lon="4.59827">
        <ele>356.707</ele>
        <time>2022-09-23T11:17:47Z</time>
      </trkpt>
      <trkpt lat="46.5461" lon="4.59826">
        <ele>356.907</ele>
        <time>2022-09-23T11:17:57Z</time>
      </trkpt>
      <trkpt lat="46.54603" lon="4.59824">
        <ele>357.207</ele>
        <time>2022-09-23T11:18:06Z</time>
      </trkpt>
      <trkpt lat="46.54596" lon="4.59823">
        <ele>358.407</ele>
        <time>2022-09-23T11:18:13Z</time>
      </trkpt>
      <trkpt lat="46.54589" lon="4.5982">
        <ele>359.007</ele>
        <time>2022-09-23T11:18:20Z</time>
      </trkpt>
      <trkpt lat="46.54583" lon="4.5982">
        <ele>358.207</ele>
        <time>2022-09-23T11:18:25Z</time>
      </trkpt>
      <trkpt lat="46.54576" lon="4.59819">
        <ele>358.407</ele>
        <time>2022-09-23T11:18:31Z</time>
      </trkpt>
      <trkpt lat="46.5457" lon="4.59816">
        <ele>356.307</ele>
        <time>2022-09-23T11:18:36Z</time>
      </trkpt>
      <trkpt lat="46.54563" lon="4.59812">
        <ele>355.307</ele>
        <time>2022-09-23T11:18:41Z</time>
      </trkpt>
      <trkpt lat="46.54555" lon="4.59812">
        <ele>355.507</ele>
        <time>2022-09-23T11:18:47Z</time>
      </trkpt>
      <trkpt lat="46.54549" lon="4.5981">
        <ele>354.207</ele>
        <time>2022-09-23T11:18:52Z</time>
      </trkpt>
      <trkpt lat="46.54541" lon="4.59809">
        <ele>353.607</ele>
        <time>2022-09-23T11:18:58Z</time>
      </trkpt>
      <trkpt lat="46.54535" lon="4.59808">
        <ele>352.807</ele>
        <time>2022-09-23T11:19:03Z</time>
      </trkpt>
      <trkpt lat="46.54528" lon="4.59805">
        <ele>351.607</ele>
        <time>2022-09-23T11:19:09Z</time>
      </trkpt>
      <trkpt lat="46.54519" lon="4.59806">
        <ele>352.407</ele>
        <time>2022-09-23T11:19:15Z</time>
      </trkpt>
      <trkpt lat="46.54512" lon="4.59803">
        <ele>352.607</ele>
        <time>2022-09-23T11:19:21Z</time>
      </trkpt>
      <trkpt lat="46.54504" lon="4.59803">
        <ele>351.007</ele>
        <time>2022-09-23T11:19:27Z</time>
      </trkpt>
      <trkpt lat="46.54497" lon="4.59801">
        <ele>351.007</ele>
        <time>2022-09-23T11:19:33Z</time>
      </trkpt>
      <trkpt lat="46.5449" lon="4.59799">
        <ele>350.907</ele>
        <time>2022-09-23T11:19:39Z</time>
      </trkpt>
      <trkpt lat="46.54483" lon="4.59798">
        <ele>349.707</ele>
        <time>2022-09-23T11:19:45Z</time>
      </trkpt>
      <trkpt lat="46.54475" lon="4.59797">
        <ele>349.707</ele>
        <time>2022-09-23T11:19:51Z</time>
      </trkpt>
      <trkpt lat="46.54469" lon="4.59794">
        <ele>350.107</ele>
        <time>2022-09-23T11:19:57Z</time>
      </trkpt>
      <trkpt lat="46.54465" lon="4.59787">
        <ele>350.207</ele>
        <time>2022-09-23T11:20:04Z</time>
      </trkpt>
      <trkpt lat="46.54462" lon="4.59777">
        <ele>350.707</ele>
        <time>2022-09-23T11:20:11Z</time>
      </trkpt>
      <trkpt lat="46.54459" lon="4.59767">
        <ele>351.007</ele>
        <time>2022-09-23T11:20:18Z</time>
      </trkpt>
      <trkpt lat="46.54459" lon="4.59756">
        <ele>351.307</ele>
        <time>2022-09-23T11:20:24Z</time>
      </trkpt>
      <trkpt lat="46.54458" lon="4.59746">
        <ele>351.807</ele>
        <time>2022-09-23T11:20:29Z</time>
      </trkpt>
      <trkpt lat="46.54453" lon="4.59739">
        <ele>349.407</ele>
        <time>2022-09-23T11:20:35Z</time>
      </trkpt>
      <trkpt lat="46.54453" lon="4.59728">
        <ele>347.307</ele>
        <time>2022-09-23T11:20:42Z</time>
      </trkpt>
      <trkpt lat="46.54451" lon="4.59719">
        <ele>347.007</ele>
        <time>2022-09-23T11:20:48Z</time>
      </trkpt>
      <trkpt lat="46.54455" lon="4.59711">
        <ele>347.607</ele>
        <time>2022-09-23T11:21:10Z</time>
      </trkpt>
      <trkpt lat="46.54458" lon="4.59702">
        <ele>345.807</ele>
        <time>2022-09-23T11:21:17Z</time>
      </trkpt>
      <trkpt lat="46.54463" lon="4.59695">
        <ele>344.307</ele>
        <time>2022-09-23T11:21:24Z</time>
      </trkpt>
      <trkpt lat="46.54467" lon="4.59687">
        <ele>343.307</ele>
        <time>2022-09-23T11:21:30Z</time>
      </trkpt>
      <trkpt lat="46.5447" lon="4.59679">
        <ele>341.907</ele>
        <time>2022-09-23T11:21:36Z</time>
      </trkpt>
      <trkpt lat="46.54475" lon="4.59671">
        <ele>340.407</ele>
        <time>2022-09-23T11:21:42Z</time>
      </trkpt>
      <trkpt lat="46.5448" lon="4.59664">
        <ele>340.707</ele>
        <time>2022-09-23T11:21:50Z</time>
      </trkpt>
      <trkpt lat="46.54486" lon="4.59658">
        <ele>347.107</ele>
        <time>2022-09-23T11:21:58Z</time>
      </trkpt>
      <trkpt lat="46.54487" lon="4.59649">
        <ele>347.007</ele>
        <time>2022-09-23T11:22:06Z</time>
      </trkpt>
      <trkpt lat="46.54488" lon="4.59638">
        <ele>344.707</ele>
        <time>2022-09-23T11:22:14Z</time>
      </trkpt>
      <trkpt lat="46.54489" lon="4.59629">
        <ele>341.507</ele>
        <time>2022-09-23T11:22:22Z</time>
      </trkpt>
      <trkpt lat="46.5449" lon="4.59619">
        <ele>338.407</ele>
        <time>2022-09-23T11:22:30Z</time>
      </trkpt>
      <trkpt lat="46.54488" lon="4.5961">
        <ele>337.307</ele>
        <time>2022-09-23T11:22:39Z</time>
      </trkpt>
      <trkpt lat="46.54487" lon="4.596">
        <ele>337.407</ele>
        <time>2022-09-23T11:22:49Z</time>
      </trkpt>
      <trkpt lat="46.54484" lon="4.59591">
        <ele>337.507</ele>
        <time>2022-09-23T11:23:00Z</time>
      </trkpt>
      <trkpt lat="46.5448" lon="4.59579">
        <ele>342.907</ele>
        <time>2022-09-23T11:23:35Z</time>
      </trkpt>
      <trkpt lat="46.54476" lon="4.5957">
        <ele>340.707</ele>
        <time>2022-09-23T11:23:46Z</time>
      </trkpt>
      <trkpt lat="46.54474" lon="4.5956">
        <ele>338.507</ele>
        <time>2022-09-23T11:23:57Z</time>
      </trkpt>
      <trkpt lat="46.54469" lon="4.59552">
        <ele>335.707</ele>
        <time>2022-09-23T11:24:10Z</time>
      </trkpt>
      <trkpt lat="46.54466" lon="4.59543">
        <ele>336.007</ele>
        <time>2022-09-23T11:24:40Z</time>
      </trkpt>
      <trkpt lat="46.54462" lon="4.59534">
        <ele>336.807</ele>
        <time>2022-09-23T11:24:54Z</time>
      </trkpt>
      <trkpt lat="46.5446" lon="4.59525">
        <ele>335.507</ele>
        <time>2022-09-23T11:25:17Z</time>
      </trkpt>
      <trkpt lat="46.54456" lon="4.59517">
        <ele>336.407</ele>
        <time>2022-09-23T11:25:25Z</time>
      </trkpt>
      <trkpt lat="46.54454" lon="4.59507">
        <ele>336.407</ele>
        <time>2022-09-23T11:25:32Z</time>
      </trkpt>
      <trkpt lat="46.54451" lon="4.59498">
        <ele>334.207</ele>
        <time>2022-09-23T11:25:41Z</time>
      </trkpt>
      <trkpt lat="46.54448" lon="4.5949">
        <ele>335.807</ele>
        <time>2022-09-23T11:25:56Z</time>
      </trkpt>
      <trkpt lat="46.54443" lon="4.59482">
        <ele>336.307</ele>
        <time>2022-09-23T11:26:04Z</time>
      </trkpt>
      <trkpt lat="46.54436" lon="4.59481">
        <ele>332.307</ele>
        <time>2022-09-23T11:26:48Z</time>
      </trkpt>
      <trkpt lat="46.54429" lon="4.5948">
        <ele>330.107</ele>
        <time>2022-09-23T11:26:54Z</time>
      </trkpt>
      <trkpt lat="46.54424" lon="4.59473">
        <ele>328.007</ele>
        <time>2022-09-23T11:27:05Z</time>
      </trkpt>
      <trkpt lat="46.54417" lon="4.59471">
        <ele>327.707</ele>
        <time>2022-09-23T11:27:13Z</time>
      </trkpt>
      <trkpt lat="46.54411" lon="4.59468">
        <ele>327.507</ele>
        <time>2022-09-23T11:27:21Z</time>
      </trkpt>
      <trkpt lat="46.54405" lon="4.59465">
        <ele>329.407</ele>
        <time>2022-09-23T11:27:29Z</time>
      </trkpt>
      <trkpt lat="46.54398" lon="4.59462">
        <ele>332.406</ele>
        <time>2022-09-23T11:27:42Z</time>
      </trkpt>
      <trkpt lat="46.54392" lon="4.59459">
        <ele>331.406</ele>
        <time>2022-09-23T11:27:51Z</time>
      </trkpt>
      <trkpt lat="46.54386" lon="4.59456">
        <ele>332.006</ele>
        <time>2022-09-23T11:28:01Z</time>
      </trkpt>
      <trkpt lat="46.5438" lon="4.59452">
        <ele>333.006</ele>
        <time>2022-09-23T11:28:11Z</time>
      </trkpt>
      <trkpt lat="46.54373" lon="4.59449">
        <ele>331.806</ele>
        <time>2022-09-23T11:28:23Z</time>
      </trkpt>
      <trkpt lat="46.54367" lon="4.59446">
        <ele>332.206</ele>
        <time>2022-09-23T11:28:33Z</time>
      </trkpt>
      <trkpt lat="46.5436" lon="4.59443">
        <ele>332.706</ele>
        <time>2022-09-23T11:28:44Z</time>
      </trkpt>
      <trkpt lat="46.54354" lon="4.59441">
        <ele>335.306</ele>
        <time>2022-09-23T11:28:58Z</time>
      </trkpt>
      <trkpt lat="46.54347" lon="4.59439">
        <ele>335.206</ele>
        <time>2022-09-23T11:29:10Z</time>
      </trkpt>
      <trkpt lat="46.54341" lon="4.59435">
        <ele>336.906</ele>
        <time>2022-09-23T11:29:26Z</time>
      </trkpt>
      <trkpt lat="46.54334" lon="4.59433">
        <ele>336.406</ele>
        <time>2022-09-23T11:29:35Z</time>
      </trkpt>
      <trkpt lat="46.54328" lon="4.5943">
        <ele>334.806</ele>
        <time>2022-09-23T11:29:43Z</time>
      </trkpt>
      <trkpt lat="46.54322" lon="4.59425">
        <ele>333.906</ele>
        <time>2022-09-23T11:29:50Z</time>
      </trkpt>
      <trkpt lat="46.54315" lon="4.59421">
        <ele>334.506</ele>
        <time>2022-09-23T11:29:58Z</time>
      </trkpt>
      <trkpt lat="46.54308" lon="4.5942">
        <ele>333.706</ele>
        <time>2022-09-23T11:30:05Z</time>
      </trkpt>
      <trkpt lat="46.54302" lon="4.59418">
        <ele>333.306</ele>
        <time>2022-09-23T11:30:12Z</time>
      </trkpt>
      <trkpt lat="46.54295" lon="4.59417">
        <ele>332.706</ele>
        <time>2022-09-23T11:30:19Z</time>
      </trkpt>
      <trkpt lat="46.54289" lon="4.59412">
        <ele>332.706</ele>
        <time>2022-09-23T11:30:29Z</time>
      </trkpt>
      <trkpt lat="46.54283" lon="4.59407">
        <ele>332.206</ele>
        <time>2022-09-23T11:30:38Z</time>
      </trkpt>
      <trkpt lat="46.54276" lon="4.59406">
        <ele>332.406</ele>
        <time>2022-09-23T11:30:47Z</time>
      </trkpt>
      <trkpt lat="46.5427" lon="4.59402">
        <ele>333.506</ele>
        <time>2022-09-23T11:30:55Z</time>
      </trkpt>
      <trkpt lat="46.54263" lon="4.59398">
        <ele>334.006</ele>
        <time>2022-09-23T11:31:01Z</time>
      </trkpt>
      <trkpt lat="46.54256" lon="4.59395">
        <ele>333.306</ele>
        <time>2022-09-23T11:31:09Z</time>
      </trkpt>
      <trkpt lat="46.54249" lon="4.59393">
        <ele>331.606</ele>
        <time>2022-09-23T11:31:17Z</time>
      </trkpt>
      <trkpt lat="46.54242" lon="4.59389">
        <ele>331.006</ele>
        <time>2022-09-23T11:31:24Z</time>
      </trkpt>
      <trkpt lat="46.54236" lon="4.59386">
        <ele>331.406</ele>
        <time>2022-09-23T11:31:30Z</time>
      </trkpt>
      <trkpt lat="46.54229" lon="4.59384">
        <ele>331.406</ele>
        <time>2022-09-23T11:31:37Z</time>
      </trkpt>
      <trkpt lat="46.54222" lon="4.59382">
        <ele>330.406</ele>
        <time>2022-09-23T11:31:44Z</time>
      </trkpt>
      <trkpt lat="46.54216" lon="4.5938">
        <ele>329.306</ele>
        <time>2022-09-23T11:31:50Z</time>
      </trkpt>
      <trkpt lat="46.54209" lon="4.59376">
        <ele>328.606</ele>
        <time>2022-09-23T11:31:57Z</time>
      </trkpt>
      <trkpt lat="46.54202" lon="4.59373">
        <ele>328.006</ele>
        <time>2022-09-23T11:32:04Z</time>
      </trkpt>
      <trkpt lat="46.54196" lon="4.59368">
        <ele>327.106</ele>
        <time>2022-09-23T11:32:11Z</time>
      </trkpt>
      <trkpt lat="46.54189" lon="4.59364">
        <ele>327.506</ele>
        <time>2022-09-23T11:32:21Z</time>
      </trkpt>
      <trkpt lat="46.54183" lon="4.59361">
        <ele>328.806</ele>
        <time>2022-09-23T11:32:29Z</time>
      </trkpt>
      <trkpt lat="46.54177" lon="4.59359">
        <ele>330.106</ele>
        <time>2022-09-23T11:32:36Z</time>
      </trkpt>
      <trkpt lat="46.5417" lon="4.59354">
        <ele>330.206</ele>
        <time>2022-09-23T11:32:43Z</time>
      </trkpt>
      <trkpt lat="46.54163" lon="4.59351">
        <ele>329.106</ele>
        <time>2022-09-23T11:32:49Z</time>
      </trkpt>
      <trkpt lat="46.54156" lon="4.59348">
        <ele>328.506</ele>
        <time>2022-09-23T11:32:55Z</time>
      </trkpt>
      <trkpt lat="46.5415" lon="4.59344">
        <ele>328.706</ele>
        <time>2022-09-23T11:33:07Z</time>
      </trkpt>
      <trkpt lat="46.54143" lon="4.59341">
        <ele>329.306</ele>
        <time>2022-09-23T11:33:14Z</time>
      </trkpt>
      <trkpt lat="46.54136" lon="4.59339">
        <ele>328.806</ele>
        <time>2022-09-23T11:33:20Z</time>
      </trkpt>
      <trkpt lat="46.5413" lon="4.59335">
        <ele>326.906</ele>
        <time>2022-09-23T11:33:27Z</time>
      </trkpt>
      <trkpt lat="46.54124" lon="4.59329">
        <ele>325.206</ele>
        <time>2022-09-23T11:33:35Z</time>
      </trkpt>
      <trkpt lat="46.54117" lon="4.59328">
        <ele>323.506</ele>
        <time>2022-09-23T11:33:41Z</time>
      </trkpt>
      <trkpt lat="46.54109" lon="4.59327">
        <ele>320.506</ele>
        <time>2022-09-23T11:33:47Z</time>
      </trkpt>
      <trkpt lat="46.54102" lon="4.59326">
        <ele>319.606</ele>
        <time>2022-09-23T11:33:55Z</time>
      </trkpt>
      <trkpt lat="46.54099" lon="4.59335">
        <ele>322.006</ele>
        <time>2022-09-23T11:34:08Z</time>
      </trkpt>
      <trkpt lat="46.54095" lon="4.59344">
        <ele>328.506</ele>
        <time>2022-09-23T11:34:19Z</time>
      </trkpt>
      <trkpt lat="46.54093" lon="4.59354">
        <ele>331.306</ele>
        <time>2022-09-23T11:34:26Z</time>
      </trkpt>
      <trkpt lat="46.54091" lon="4.59364">
        <ele>334.006</ele>
        <time>2022-09-23T11:34:32Z</time>
      </trkpt>
      <trkpt lat="46.54087" lon="4.59373">
        <ele>335.406</ele>
        <time>2022-09-23T11:34:38Z</time>
      </trkpt>
      <trkpt lat="46.54085" lon="4.59363">
        <ele>329.706</ele>
        <time>2022-09-23T11:34:57Z</time>
      </trkpt>
      <trkpt lat="46.54083" lon="4.59353">
        <ele>325.606</ele>
        <time>2022-09-23T11:35:07Z</time>
      </trkpt>
      <trkpt lat="46.54081" lon="4.59344">
        <ele>324.106</ele>
        <time>2022-09-23T11:35:16Z</time>
      </trkpt>
      <trkpt lat="46.54076" lon="4.59336">
        <ele>324.106</ele>
        <time>2022-09-23T11:35:23Z</time>
      </trkpt>
      <trkpt lat="46.54072" lon="4.59329">
        <ele>321.906</ele>
        <time>2022-09-23T11:35:29Z</time>
      </trkpt>
      <trkpt lat="46.54068" lon="4.59321">
        <ele>319.005</ele>
        <time>2022-09-23T11:35:35Z</time>
      </trkpt>
      <trkpt lat="46.54064" lon="4.59313">
        <ele>317.405</ele>
        <time>2022-09-23T11:35:41Z</time>
      </trkpt>
      <trkpt lat="46.54059" lon="4.59307">
        <ele>316.505</ele>
        <time>2022-09-23T11:35:47Z</time>
      </trkpt>
      <trkpt lat="46.54053" lon="4.59299">
        <ele>316.505</ele>
        <time>2022-09-23T11:35:53Z</time>
      </trkpt>
      <trkpt lat="46.54049" lon="4.59291">
        <ele>316.605</ele>
        <time>2022-09-23T11:36:00Z</time>
      </trkpt>
      <trkpt lat="46.54044" lon="4.59283">
        <ele>315.605</ele>
        <time>2022-09-23T11:36:06Z</time>
      </trkpt>
      <trkpt lat="46.5404" lon="4.59275">
        <ele>314.105</ele>
        <time>2022-09-23T11:36:12Z</time>
      </trkpt>
      <trkpt lat="46.54037" lon="4.59265">
        <ele>313.205</ele>
        <time>2022-09-23T11:36:19Z</time>
      </trkpt>
      <trkpt lat="46.54033" lon="4.59256">
        <ele>313.205</ele>
        <time>2022-09-23T11:36:25Z</time>
      </trkpt>
      <trkpt lat="46.54028" lon="4.59248">
        <ele>312.005</ele>
        <time>2022-09-23T11:36:32Z</time>
      </trkpt>
      <trkpt lat="46.54023" lon="4.59239">
        <ele>309.405</ele>
        <time>2022-09-23T11:36:39Z</time>
      </trkpt>
      <trkpt lat="46.54019" lon="4.59232">
        <ele>307.705</ele>
        <time>2022-09-23T11:36:45Z</time>
      </trkpt>
      <trkpt lat="46.54014" lon="4.59225">
        <ele>305.505</ele>
        <time>2022-09-23T11:36:52Z</time>
      </trkpt>
      <trkpt lat="46.5401" lon="4.59217">
        <ele>304.605</ele>
        <time>2022-09-23T11:36:58Z</time>
      </trkpt>
      <trkpt lat="46.54006" lon="4.59208">
        <ele>303.605</ele>
        <time>2022-09-23T11:37:03Z</time>
      </trkpt>
      <trkpt lat="46.54003" lon="4.59199">
        <ele>303.905</ele>
        <time>2022-09-23T11:37:10Z</time>
      </trkpt>
      <trkpt lat="46.54003" lon="4.59189">
        <ele>308.705</ele>
        <time>2022-09-23T11:37:38Z</time>
      </trkpt>
      <trkpt lat="46.53998" lon="4.59181">
        <ele>308.105</ele>
        <time>2022-09-23T11:37:46Z</time>
      </trkpt>
      <trkpt lat="46.53994" lon="4.59172">
        <ele>307.705</ele>
        <time>2022-09-23T11:37:52Z</time>
      </trkpt>
      <trkpt lat="46.53991" lon="4.59163">
        <ele>306.805</ele>
        <time>2022-09-23T11:37:58Z</time>
      </trkpt>
      <trkpt lat="46.53988" lon="4.59155">
        <ele>305.005</ele>
        <time>2022-09-23T11:38:04Z</time>
      </trkpt>
      <trkpt lat="46.53984" lon="4.59146">
        <ele>304.305</ele>
        <time>2022-09-23T11:38:10Z</time>
      </trkpt>
      <trkpt lat="46.5398" lon="4.59138">
        <ele>304.205</ele>
        <time>2022-09-23T11:38:16Z</time>
      </trkpt>
      <trkpt lat="46.53977" lon="4.59128">
        <ele>303.805</ele>
        <time>2022-09-23T11:38:23Z</time>
      </trkpt>
      <trkpt lat="46.53973" lon="4.59119">
        <ele>304.005</ele>
        <time>2022-09-23T11:38:29Z</time>
      </trkpt>
      <trkpt lat="46.5397" lon="4.5911">
        <ele>304.805</ele>
        <time>2022-09-23T11:38:35Z</time>
      </trkpt>
      <trkpt lat="46.53967" lon="4.591">
        <ele>303.905</ele>
        <time>2022-09-23T11:38:41Z</time>
      </trkpt>
      <trkpt lat="46.53965" lon="4.5909">
        <ele>303.105</ele>
        <time>2022-09-23T11:38:47Z</time>
      </trkpt>
      <trkpt lat="46.53962" lon="4.59081">
        <ele>301.705</ele>
        <time>2022-09-23T11:38:53Z</time>
      </trkpt>
      <trkpt lat="46.53957" lon="4.59072">
        <ele>302.005</ele>
        <time>2022-09-23T11:38:59Z</time>
      </trkpt>
      <trkpt lat="46.53953" lon="4.59063">
        <ele>299.605</ele>
        <time>2022-09-23T11:39:05Z</time>
      </trkpt>
      <trkpt lat="46.53951" lon="4.59054">
        <ele>299.105</ele>
        <time>2022-09-23T11:39:11Z</time>
      </trkpt>
      <trkpt lat="46.53954" lon="4.59046">
        <ele>298.005</ele>
        <time>2022-09-23T11:39:21Z</time>
      </trkpt>
      <trkpt lat="46.53948" lon="4.59038">
        <ele>301.305</ele>
        <time>2022-09-23T11:39:52Z</time>
      </trkpt>
      <trkpt lat="46.5395" lon="4.59027">
        <ele>301.805</ele>
        <time>2022-09-23T11:39:59Z</time>
      </trkpt>
      <trkpt lat="46.5395" lon="4.59018">
        <ele>302.405</ele>
        <time>2022-09-23T11:40:06Z</time>
      </trkpt>
      <trkpt lat="46.53949" lon="4.59008">
        <ele>301.305</ele>
        <time>2022-09-23T11:40:14Z</time>
      </trkpt>
      <trkpt lat="46.53944" lon="4.59">
        <ele>298.405</ele>
        <time>2022-09-23T11:40:21Z</time>
      </trkpt>
      <trkpt lat="46.53941" lon="4.5899">
        <ele>296.905</ele>
        <time>2022-09-23T11:40:27Z</time>
      </trkpt>
      <trkpt lat="46.53939" lon="4.5898">
        <ele>294.005</ele>
        <time>2022-09-23T11:40:34Z</time>
      </trkpt>
      <trkpt lat="46.53938" lon="4.5897">
        <ele>292.305</ele>
        <time>2022-09-23T11:40:44Z</time>
      </trkpt>
      <trkpt lat="46.53937" lon="4.58961">
        <ele>290.705</ele>
        <time>2022-09-23T11:40:53Z</time>
      </trkpt>
      <trkpt lat="46.53938" lon="4.58951">
        <ele>290.605</ele>
        <time>2022-09-23T11:40:59Z</time>
      </trkpt>
      <trkpt lat="46.53938" lon="4.58941">
        <ele>290.405</ele>
        <time>2022-09-23T11:41:06Z</time>
      </trkpt>
      <trkpt lat="46.53937" lon="4.5893">
        <ele>291.805</ele>
        <time>2022-09-23T11:41:13Z</time>
      </trkpt>
      <trkpt lat="46.53934" lon="4.58921">
        <ele>293.205</ele>
        <time>2022-09-23T11:41:21Z</time>
      </trkpt>
      <trkpt lat="46.53934" lon="4.58911">
        <ele>294.405</ele>
        <time>2022-09-23T11:41:30Z</time>
      </trkpt>
      <trkpt lat="46.53934" lon="4.58901">
        <ele>293.705</ele>
        <time>2022-09-23T11:41:38Z</time>
      </trkpt>
      <trkpt lat="46.5393" lon="4.58892">
        <ele>293.405</ele>
        <time>2022-09-23T11:41:46Z</time>
      </trkpt>
      <trkpt lat="46.53932" lon="4.58881">
        <ele>292.805</ele>
        <time>2022-09-23T11:41:53Z</time>
      </trkpt>
      <trkpt lat="46.53932" lon="4.5887">
        <ele>291.905</ele>
        <time>2022-09-23T11:41:59Z</time>
      </trkpt>
      <trkpt lat="46.53935" lon="4.58861">
        <ele>290.005</ele>
        <time>2022-09-23T11:42:05Z</time>
      </trkpt>
      <trkpt lat="46.53937" lon="4.5885">
        <ele>288.705</ele>
        <time>2022-09-23T11:42:11Z</time>
      </trkpt>
      <trkpt lat="46.53936" lon="4.5884">
        <ele>287.605</ele>
        <time>2022-09-23T11:42:17Z</time>
      </trkpt>
      <trkpt lat="46.53935" lon="4.5883">
        <ele>286.505</ele>
        <time>2022-09-23T11:42:24Z</time>
      </trkpt>
      <trkpt lat="46.53934" lon="4.5882">
        <ele>285.305</ele>
        <time>2022-09-23T11:42:29Z</time>
      </trkpt>
      <trkpt lat="46.53932" lon="4.58809">
        <ele>283.505</ele>
        <time>2022-09-23T11:42:35Z</time>
      </trkpt>
      <trkpt lat="46.5393" lon="4.588">
        <ele>282.305</ele>
        <time>2022-09-23T11:42:40Z</time>
      </trkpt>
      <trkpt lat="46.53927" lon="4.58791">
        <ele>278.905</ele>
        <time>2022-09-23T11:42:47Z</time>
      </trkpt>
      <trkpt lat="46.53926" lon="4.5878">
        <ele>278.205</ele>
        <time>2022-09-23T11:42:54Z</time>
      </trkpt>
      <trkpt lat="46.53925" lon="4.5877">
        <ele>278.005</ele>
        <time>2022-09-23T11:42:59Z</time>
      </trkpt>
      <trkpt lat="46.53925" lon="4.58761">
        <ele>277.605</ele>
        <time>2022-09-23T11:43:05Z</time>
      </trkpt>
      <trkpt lat="46.53923" lon="4.58751">
        <ele>277.805</ele>
        <time>2022-09-23T11:43:11Z</time>
      </trkpt>
      <trkpt lat="46.53924" lon="4.58741">
        <ele>279.205</ele>
        <time>2022-09-23T11:43:18Z</time>
      </trkpt>
      <trkpt lat="46.53925" lon="4.58731">
        <ele>283.005</ele>
        <time>2022-09-23T11:43:26Z</time>
      </trkpt>
      <trkpt lat="46.53922" lon="4.5872">
        <ele>283.305</ele>
        <time>2022-09-23T11:43:33Z</time>
      </trkpt>
      <trkpt lat="46.53919" lon="4.58711">
        <ele>280.105</ele>
        <time>2022-09-23T11:43:40Z</time>
      </trkpt>
      <trkpt lat="46.53913" lon="4.58705">
        <ele>278.605</ele>
        <time>2022-09-23T11:43:49Z</time>
      </trkpt>
      <trkpt lat="46.5391" lon="4.58695">
        <ele>276.605</ele>
        <time>2022-09-23T11:43:55Z</time>
      </trkpt>
      <trkpt lat="46.53905" lon="4.58687">
        <ele>273.705</ele>
        <time>2022-09-23T11:44:02Z</time>
      </trkpt>
      <trkpt lat="46.53903" lon="4.58678">
        <ele>273.605</ele>
        <time>2022-09-23T11:44:10Z</time>
      </trkpt>
      <trkpt lat="46.53902" lon="4.58668">
        <ele>275.805</ele>
        <time>2022-09-23T11:44:20Z</time>
      </trkpt>
      <trkpt lat="46.53898" lon="4.5866">
        <ele>275.805</ele>
        <time>2022-09-23T11:44:31Z</time>
      </trkpt>
      <trkpt lat="46.53894" lon="4.58651">
        <ele>274.705</ele>
        <time>2022-09-23T11:44:38Z</time>
      </trkpt>
      <trkpt lat="46.53892" lon="4.58642">
        <ele>274.605</ele>
        <time>2022-09-23T11:44:44Z</time>
      </trkpt>
      <trkpt lat="46.53889" lon="4.58634">
        <ele>273.304</ele>
        <time>2022-09-23T11:44:50Z</time>
      </trkpt>
      <trkpt lat="46.53887" lon="4.58623">
        <ele>273.004</ele>
        <time>2022-09-23T11:44:56Z</time>
      </trkpt>
      <trkpt lat="46.53886" lon="4.58613">
        <ele>273.404</ele>
        <time>2022-09-23T11:45:02Z</time>
      </trkpt>
      <trkpt lat="46.53883" lon="4.58604">
        <ele>272.304</ele>
        <time>2022-09-23T11:45:09Z</time>
      </trkpt>
      <trkpt lat="46.53881" lon="4.58593">
        <ele>271.404</ele>
        <time>2022-09-23T11:45:15Z</time>
      </trkpt>
      <trkpt lat="46.53879" lon="4.58583">
        <ele>271.104</ele>
        <time>2022-09-23T11:45:21Z</time>
      </trkpt>
      <trkpt lat="46.53877" lon="4.58571">
        <ele>270.104</ele>
        <time>2022-09-23T11:45:27Z</time>
      </trkpt>
      <trkpt lat="46.53877" lon="4.58561">
        <ele>271.404</ele>
        <time>2022-09-23T11:45:33Z</time>
      </trkpt>
      <trkpt lat="46.53876" lon="4.58551">
        <ele>271.304</ele>
        <time>2022-09-23T11:45:39Z</time>
      </trkpt>
      <trkpt lat="46.53873" lon="4.58542">
        <ele>270.204</ele>
        <time>2022-09-23T11:45:47Z</time>
      </trkpt>
      <trkpt lat="46.53869" lon="4.58531">
        <ele>267.104</ele>
        <time>2022-09-23T11:45:52Z</time>
      </trkpt>
      <trkpt lat="46.53868" lon="4.58521">
        <ele>266.304</ele>
        <time>2022-09-23T11:45:58Z</time>
      </trkpt>
      <trkpt lat="46.53867" lon="4.58511">
        <ele>267.604</ele>
        <time>2022-09-23T11:46:04Z</time>
      </trkpt>
      <trkpt lat="46.53864" lon="4.58501">
        <ele>266.104</ele>
        <time>2022-09-23T11:46:10Z</time>
      </trkpt>
      <trkpt lat="46.53861" lon="4.58492">
        <ele>264.704</ele>
        <time>2022-09-23T11:46:16Z</time>
      </trkpt>
      <trkpt lat="46.53857" lon="4.58483">
        <ele>264.004</ele>
        <time>2022-09-23T11:46:21Z</time>
      </trkpt>
      <trkpt lat="46.53855" lon="4.58472">
        <ele>262.804</ele>
        <time>2022-09-23T11:46:28Z</time>
      </trkpt>
      <trkpt lat="46.53853" lon="4.58463">
        <ele>262.504</ele>
        <time>2022-09-23T11:46:37Z</time>
      </trkpt>
      <trkpt lat="46.5385" lon="4.58455">
        <ele>261.404</ele>
        <time>2022-09-23T11:46:59Z</time>
      </trkpt>
      <trkpt lat="46.53848" lon="4.58445">
        <ele>261.704</ele>
        <time>2022-09-23T11:49:32Z</time>
      </trkpt>
      <trkpt lat="46.53849" lon="4.58435">
        <ele>261.604</ele>
        <time>2022-09-23T11:49:47Z</time>
      </trkpt>
      <trkpt lat="46.53848" lon="4.58425">
        <ele>259.404</ele>
        <time>2022-09-23T11:49:54Z</time>
      </trkpt>
      <trkpt lat="46.53847" lon="4.58415">
        <ele>259.304</ele>
        <time>2022-09-23T11:50:01Z</time>
      </trkpt>
      <trkpt lat="46.53847" lon="4.58405">
        <ele>259.504</ele>
        <time>2022-09-23T11:50:07Z</time>
      </trkpt>
      <trkpt lat="46.53846" lon="4.58395">
        <ele>258.604</ele>
        <time>2022-09-23T11:50:13Z</time>
      </trkpt>
      <trkpt lat="46.53845" lon="4.58384">
        <ele>258.204</ele>
        <time>2022-09-23T11:50:20Z</time>
      </trkpt>
      <trkpt lat="46.53844" lon="4.58372">
        <ele>257.404</ele>
        <time>2022-09-23T11:50:27Z</time>
      </trkpt>
      <trkpt lat="46.53844" lon="4.58363">
        <ele>257.104</ele>
        <time>2022-09-23T11:50:33Z</time>
      </trkpt>
      <trkpt lat="46.53843" lon="4.58354">
        <ele>257.804</ele>
        <time>2022-09-23T11:50:39Z</time>
      </trkpt>
      <trkpt lat="46.53841" lon="4.58344">
        <ele>257.604</ele>
        <time>2022-09-23T11:50:45Z</time>
      </trkpt>
      <trkpt lat="46.53839" lon="4.58335">
        <ele>255.904</ele>
        <time>2022-09-23T11:50:51Z</time>
      </trkpt>
      <trkpt lat="46.53834" lon="4.58327">
        <ele>253.404</ele>
        <time>2022-09-23T11:50:58Z</time>
      </trkpt>
      <trkpt lat="46.53828" lon="4.58321">
        <ele>252.104</ele>
        <time>2022-09-23T11:51:04Z</time>
      </trkpt>
      <trkpt lat="46.53823" lon="4.58313">
        <ele>253.404</ele>
        <time>2022-09-23T11:51:16Z</time>
      </trkpt>
      <trkpt lat="46.53817" lon="4.58308">
        <ele>252.204</ele>
        <time>2022-09-23T11:51:21Z</time>
      </trkpt>
      <trkpt lat="46.53811" lon="4.58303">
        <ele>250.904</ele>
        <time>2022-09-23T11:51:27Z</time>
      </trkpt>
      <trkpt lat="46.53805" lon="4.58297">
        <ele>250.804</ele>
        <time>2022-09-23T11:51:33Z</time>
      </trkpt>
      <trkpt lat="46.53798" lon="4.58292">
        <ele>249.104</ele>
        <time>2022-09-23T11:51:39Z</time>
      </trkpt>
      <trkpt lat="46.53791" lon="4.58287">
        <ele>248.404</ele>
        <time>2022-09-23T11:51:45Z</time>
      </trkpt>
      <trkpt lat="46.53786" lon="4.58281">
        <ele>250.304</ele>
        <time>2022-09-23T11:51:52Z</time>
      </trkpt>
      <trkpt lat="46.5378" lon="4.58278">
        <ele>250.804</ele>
        <time>2022-09-23T11:51:57Z</time>
      </trkpt>
      <trkpt lat="46.53774" lon="4.58271">
        <ele>249.904</ele>
        <time>2022-09-23T11:52:03Z</time>
      </trkpt>
      <trkpt lat="46.53769" lon="4.58264">
        <ele>249.504</ele>
        <time>2022-09-23T11:52:09Z</time>
      </trkpt>
      <trkpt lat="46.53762" lon="4.58258">
        <ele>249.404</ele>
        <time>2022-09-23T11:52:15Z</time>
      </trkpt>
      <trkpt lat="46.53756" lon="4.58252">
        <ele>248.304</ele>
        <time>2022-09-23T11:52:21Z</time>
      </trkpt>
      <trkpt lat="46.53749" lon="4.58245">
        <ele>245.804</ele>
        <time>2022-09-23T11:52:27Z</time>
      </trkpt>
      <trkpt lat="46.53743" lon="4.58241">
        <ele>246.004</ele>
        <time>2022-09-23T11:52:32Z</time>
      </trkpt>
      <trkpt lat="46.53736" lon="4.58236">
        <ele>247.304</ele>
        <time>2022-09-23T11:52:39Z</time>
      </trkpt>
      <trkpt lat="46.5373" lon="4.5823">
        <ele>247.804</ele>
        <time>2022-09-23T11:52:45Z</time>
      </trkpt>
      <trkpt lat="46.53722" lon="4.58225">
        <ele>248.904</ele>
        <time>2022-09-23T11:52:51Z</time>
      </trkpt>
      <trkpt lat="46.53716" lon="4.58219">
        <ele>248.504</ele>
        <time>2022-09-23T11:52:57Z</time>
      </trkpt>
      <trkpt lat="46.53709" lon="4.58214">
        <ele>249.104</ele>
        <time>2022-09-23T11:53:03Z</time>
      </trkpt>
      <trkpt lat="46.53703" lon="4.5821">
        <ele>248.504</ele>
        <time>2022-09-23T11:53:08Z</time>
      </trkpt>
      <trkpt lat="46.53697" lon="4.58204">
        <ele>247.304</ele>
        <time>2022-09-23T11:53:14Z</time>
      </trkpt>
      <trkpt lat="46.53691" lon="4.582">
        <ele>246.904</ele>
        <time>2022-09-23T11:53:20Z</time>
      </trkpt>
      <trkpt lat="46.53686" lon="4.58195">
        <ele>245.304</ele>
        <time>2022-09-23T11:53:25Z</time>
      </trkpt>
      <trkpt lat="46.53679" lon="4.58189">
        <ele>245.404</ele>
        <time>2022-09-23T11:53:31Z</time>
      </trkpt>
      <trkpt lat="46.53674" lon="4.58185">
        <ele>245.304</ele>
        <time>2022-09-23T11:53:36Z</time>
      </trkpt>
      <trkpt lat="46.53668" lon="4.58178">
        <ele>244.804</ele>
        <time>2022-09-23T11:53:41Z</time>
      </trkpt>
      <trkpt lat="46.53663" lon="4.58171">
        <ele>244.804</ele>
        <time>2022-09-23T11:53:47Z</time>
      </trkpt>
      <trkpt lat="46.53657" lon="4.58167">
        <ele>245.604</ele>
        <time>2022-09-23T11:53:52Z</time>
      </trkpt>
      <trkpt lat="46.53649" lon="4.58164">
        <ele>244.304</ele>
        <time>2022-09-23T11:53:58Z</time>
      </trkpt>
      <trkpt lat="46.53642" lon="4.5816">
        <ele>244.403</ele>
        <time>2022-09-23T11:54:04Z</time>
      </trkpt>
      <trkpt lat="46.53636" lon="4.58157">
        <ele>244.403</ele>
        <time>2022-09-23T11:54:10Z</time>
      </trkpt>
      <trkpt lat="46.5363" lon="4.58153">
        <ele>243.603</ele>
        <time>2022-09-23T11:54:16Z</time>
      </trkpt>
      <trkpt lat="46.53622" lon="4.58152">
        <ele>243.103</ele>
        <time>2022-09-23T11:54:21Z</time>
      </trkpt>
      <trkpt lat="46.53615" lon="4.58149">
        <ele>242.803</ele>
        <time>2022-09-23T11:54:27Z</time>
      </trkpt>
      <trkpt lat="46.53609" lon="4.58147">
        <ele>241.503</ele>
        <time>2022-09-23T11:54:32Z</time>
      </trkpt>
      <trkpt lat="46.53601" lon="4.58144">
        <ele>240.803</ele>
        <time>2022-09-23T11:54:38Z</time>
      </trkpt>
      <trkpt lat="46.53594" lon="4.58143">
        <ele>241.003</ele>
        <time>2022-09-23T11:54:43Z</time>
      </trkpt>
      <trkpt lat="46.53588" lon="4.58141">
        <ele>242.203</ele>
        <time>2022-09-23T11:54:49Z</time>
      </trkpt>
      <trkpt lat="46.5358" lon="4.5814">
        <ele>241.403</ele>
        <time>2022-09-23T11:54:55Z</time>
      </trkpt>
      <trkpt lat="46.53573" lon="4.58137">
        <ele>240.703</ele>
        <time>2022-09-23T11:55:01Z</time>
      </trkpt>
      <trkpt lat="46.53565" lon="4.58136">
        <ele>238.103</ele>
        <time>2022-09-23T11:55:07Z</time>
      </trkpt>
      <trkpt lat="46.53557" lon="4.58136">
        <ele>238.603</ele>
        <time>2022-09-23T11:55:13Z</time>
      </trkpt>
      <trkpt lat="46.53551" lon="4.58134">
        <ele>239.303</ele>
        <time>2022-09-23T11:55:19Z</time>
      </trkpt>
      <trkpt lat="46.53544" lon="4.58133">
        <ele>239.003</ele>
        <time>2022-09-23T11:55:24Z</time>
      </trkpt>
      <trkpt lat="46.53537" lon="4.58133">
        <ele>238.903</ele>
        <time>2022-09-23T11:55:30Z</time>
      </trkpt>
      <trkpt lat="46.53529" lon="4.58133">
        <ele>238.803</ele>
        <time>2022-09-23T11:55:36Z</time>
      </trkpt>
      <trkpt lat="46.53522" lon="4.58131">
        <ele>237.803</ele>
        <time>2022-09-23T11:55:42Z</time>
      </trkpt>
      <trkpt lat="46.53515" lon="4.58128">
        <ele>237.103</ele>
        <time>2022-09-23T11:55:48Z</time>
      </trkpt>
      <trkpt lat="46.53512" lon="4.58119">
        <ele>234.903</ele>
        <time>2022-09-23T11:55:58Z</time>
      </trkpt>
      <trkpt lat="46.53513" lon="4.58108">
        <ele>232.903</ele>
        <time>2022-09-23T11:56:08Z</time>
      </trkpt>
      <trkpt lat="46.53512" lon="4.58098">
        <ele>231.703</ele>
        <time>2022-09-23T11:56:13Z</time>
      </trkpt>
      <trkpt lat="46.53511" lon="4.58088">
        <ele>231.303</ele>
        <time>2022-09-23T11:56:19Z</time>
      </trkpt>
      <trkpt lat="46.53512" lon="4.58077">
        <ele>230.703</ele>
        <time>2022-09-23T11:56:25Z</time>
      </trkpt>
      <trkpt lat="46.53511" lon="4.58067">
        <ele>229.303</ele>
        <time>2022-09-23T11:56:31Z</time>
      </trkpt>
      <trkpt lat="46.53511" lon="4.58056">
        <ele>228.803</ele>
        <time>2022-09-23T11:56:37Z</time>
      </trkpt>
      <trkpt lat="46.5351" lon="4.58046">
        <ele>228.603</ele>
        <time>2022-09-23T11:56:42Z</time>
      </trkpt>
      <trkpt lat="46.53511" lon="4.58037">
        <ele>228.403</ele>
        <time>2022-09-23T11:56:47Z</time>
      </trkpt>
      <trkpt lat="46.53511" lon="4.58027">
        <ele>227.703</ele>
        <time>2022-09-23T11:56:52Z</time>
      </trkpt>
      <trkpt lat="46.53511" lon="4.58017">
        <ele>226.503</ele>
        <time>2022-09-23T11:56:58Z</time>
      </trkpt>
      <trkpt lat="46.5351" lon="4.58006">
        <ele>225.603</ele>
        <time>2022-09-23T11:57:04Z</time>
      </trkpt>
      <trkpt lat="46.5351" lon="4.57996">
        <ele>225.403</ele>
        <time>2022-09-23T11:57:10Z</time>
      </trkpt>
      <trkpt lat="46.5351" lon="4.57985">
        <ele>224.303</ele>
        <time>2022-09-23T11:57:16Z</time>
      </trkpt>
      <trkpt lat="46.53508" lon="4.57975">
        <ele>223.503</ele>
        <time>2022-09-23T11:57:22Z</time>
      </trkpt>
      <trkpt lat="46.53508" lon="4.57965">
        <ele>222.903</ele>
        <time>2022-09-23T11:57:27Z</time>
      </trkpt>
      <trkpt lat="46.53507" lon="4.57954">
        <ele>222.203</ele>
        <time>2022-09-23T11:57:33Z</time>
      </trkpt>
      <trkpt lat="46.53505" lon="4.57945">
        <ele>223.803</ele>
        <time>2022-09-23T11:57:49Z</time>
      </trkpt>
      <trkpt lat="46.53504" lon="4.57934">
        <ele>221.103</ele>
        <time>2022-09-23T11:57:59Z</time>
      </trkpt>
      <trkpt lat="46.53503" lon="4.57923">
        <ele>220.303</ele>
        <time>2022-09-23T11:58:06Z</time>
      </trkpt>
      <trkpt lat="46.53501" lon="4.57914">
        <ele>219.903</ele>
        <time>2022-09-23T11:58:11Z</time>
      </trkpt>
      <trkpt lat="46.535" lon="4.57904">
        <ele>218.103</ele>
        <time>2022-09-23T11:58:17Z</time>
      </trkpt>
      <trkpt lat="46.53498" lon="4.57893">
        <ele>217.403</ele>
        <time>2022-09-23T11:58:23Z</time>
      </trkpt>
      <trkpt lat="46.53496" lon="4.57883">
        <ele>217.603</ele>
        <time>2022-09-23T11:58:31Z</time>
      </trkpt>
      <trkpt lat="46.53495" lon="4.57873">
        <ele>216.803</ele>
        <time>2022-09-23T11:58:36Z</time>
      </trkpt>
      <trkpt lat="46.53494" lon="4.57862">
        <ele>216.603</ele>
        <time>2022-09-23T11:58:42Z</time>
      </trkpt>
      <trkpt lat="46.53493" lon="4.57851">
        <ele>216.803</ele>
        <time>2022-09-23T11:58:47Z</time>
      </trkpt>
      <trkpt lat="46.5349" lon="4.57842">
        <ele>215.803</ele>
        <time>2022-09-23T11:58:53Z</time>
      </trkpt>
      <trkpt lat="46.53489" lon="4.5783">
        <ele>213.903</ele>
        <time>2022-09-23T11:58:59Z</time>
      </trkpt>
      <trkpt lat="46.53488" lon="4.57819">
        <ele>213.803</ele>
        <time>2022-09-23T11:59:05Z</time>
      </trkpt>
      <trkpt lat="46.53486" lon="4.57809">
        <ele>213.803</ele>
        <time>2022-09-23T11:59:11Z</time>
      </trkpt>
      <trkpt lat="46.53485" lon="4.57798">
        <ele>214.203</ele>
        <time>2022-09-23T11:59:18Z</time>
      </trkpt>
      <trkpt lat="46.53483" lon="4.57789">
        <ele>214.003</ele>
        <time>2022-09-23T11:59:23Z</time>
      </trkpt>
      <trkpt lat="46.53482" lon="4.57778">
        <ele>212.703</ele>
        <time>2022-09-23T11:59:29Z</time>
      </trkpt>
      <trkpt lat="46.53481" lon="4.57768">
        <ele>213.303</ele>
        <time>2022-09-23T11:59:36Z</time>
      </trkpt>
      <trkpt lat="46.53479" lon="4.57759">
        <ele>213.003</ele>
        <time>2022-09-23T11:59:43Z</time>
      </trkpt>
      <trkpt lat="46.53478" lon="4.57748">
        <ele>213.403</ele>
        <time>2022-09-23T11:59:49Z</time>
      </trkpt>
      <trkpt lat="46.53478" lon="4.57738">
        <ele>213.303</ele>
        <time>2022-09-23T11:59:55Z</time>
      </trkpt>
      <trkpt lat="46.53476" lon="4.57729">
        <ele>213.903</ele>
        <time>2022-09-23T12:00:01Z</time>
      </trkpt>
      <trkpt lat="46.53474" lon="4.57718">
        <ele>213.403</ele>
        <time>2022-09-23T12:00:07Z</time>
      </trkpt>
      <trkpt lat="46.53472" lon="4.57708">
        <ele>213.403</ele>
        <time>2022-09-23T12:00:14Z</time>
      </trkpt>
      <trkpt lat="46.5347" lon="4.57698">
        <ele>212.903</ele>
        <time>2022-09-23T12:00:20Z</time>
      </trkpt>
      <trkpt lat="46.53469" lon="4.57689">
        <ele>213.203</ele>
        <time>2022-09-23T12:00:25Z</time>
      </trkpt>
      <trkpt lat="46.53467" lon="4.57677">
        <ele>213.003</ele>
        <time>2022-09-23T12:00:31Z</time>
      </trkpt>
      <trkpt lat="46.53466" lon="4.57667">
        <ele>213.803</ele>
        <time>2022-09-23T12:00:36Z</time>
      </trkpt>
      <trkpt lat="46.53463" lon="4.57658">
        <ele>214.903</ele>
        <time>2022-09-23T12:00:42Z</time>
      </trkpt>
      <trkpt lat="46.53461" lon="4.57648">
        <ele>213.503</ele>
        <time>2022-09-23T12:00:48Z</time>
      </trkpt>
      <trkpt lat="46.53461" lon="4.57638">
        <ele>213.603</ele>
        <time>2022-09-23T12:00:53Z</time>
      </trkpt>
      <trkpt lat="46.53459" lon="4.57628">
        <ele>212.603</ele>
        <time>2022-09-23T12:00:59Z</time>
      </trkpt>
      <trkpt lat="46.53457" lon="4.57618">
        <ele>213.003</ele>
        <time>2022-09-23T12:01:04Z</time>
      </trkpt>
      <trkpt lat="46.53454" lon="4.57609">
        <ele>212.303</ele>
        <time>2022-09-23T12:01:09Z</time>
      </trkpt>
      <trkpt lat="46.53453" lon="4.576">
        <ele>213.003</ele>
        <time>2022-09-23T12:01:15Z</time>
      </trkpt>
      <trkpt lat="46.53451" lon="4.5759">
        <ele>212.303</ele>
        <time>2022-09-23T12:01:21Z</time>
      </trkpt>
      <trkpt lat="46.5345" lon="4.5758">
        <ele>213.403</ele>
        <time>2022-09-23T12:01:27Z</time>
      </trkpt>
      <trkpt lat="46.53448" lon="4.5757">
        <ele>212.403</ele>
        <time>2022-09-23T12:01:34Z</time>
      </trkpt>
      <trkpt lat="46.53445" lon="4.5756">
        <ele>212.003</ele>
        <time>2022-09-23T12:01:40Z</time>
      </trkpt>
      <trkpt lat="46.53443" lon="4.57551">
        <ele>211.902</ele>
        <time>2022-09-23T12:01:45Z</time>
      </trkpt>
      <trkpt lat="46.53443" lon="4.57541">
        <ele>213.302</ele>
        <time>2022-09-23T12:01:54Z</time>
      </trkpt>
      <trkpt lat="46.53443" lon="4.5753">
        <ele>213.002</ele>
        <time>2022-09-23T12:02:00Z</time>
      </trkpt>
      <trkpt lat="46.53442" lon="4.5752">
        <ele>212.802</ele>
        <time>2022-09-23T12:02:06Z</time>
      </trkpt>
      <trkpt lat="46.53441" lon="4.57511">
        <ele>213.602</ele>
        <time>2022-09-23T12:02:12Z</time>
      </trkpt>
      <trkpt lat="46.5344" lon="4.575">
        <ele>214.402</ele>
        <time>2022-09-23T12:02:18Z</time>
      </trkpt>
      <trkpt lat="46.53439" lon="4.57489">
        <ele>214.502</ele>
        <time>2022-09-23T12:02:25Z</time>
      </trkpt>
      <trkpt lat="46.53439" lon="4.57479">
        <ele>213.602</ele>
        <time>2022-09-23T12:02:32Z</time>
      </trkpt>
      <trkpt lat="46.53438" lon="4.57468">
        <ele>215.002</ele>
        <time>2022-09-23T12:03:03Z</time>
      </trkpt>
      <trkpt lat="46.53437" lon="4.57457">
        <ele>213.802</ele>
        <time>2022-09-23T12:03:09Z</time>
      </trkpt>
      <trkpt lat="46.53436" lon="4.57445">
        <ele>213.202</ele>
        <time>2022-09-23T12:03:15Z</time>
      </trkpt>
      <trkpt lat="46.53434" lon="4.57434">
        <ele>213.302</ele>
        <time>2022-09-23T12:03:22Z</time>
      </trkpt>
      <trkpt lat="46.53434" lon="4.57425">
        <ele>212.302</ele>
        <time>2022-09-23T12:03:28Z</time>
      </trkpt>
      <trkpt lat="46.53433" lon="4.57415">
        <ele>213.202</ele>
        <time>2022-09-23T12:03:34Z</time>
      </trkpt>
      <trkpt lat="46.53432" lon="4.57406">
        <ele>213.102</ele>
        <time>2022-09-23T12:03:40Z</time>
      </trkpt>
      <trkpt lat="46.53431" lon="4.57396">
        <ele>213.202</ele>
        <time>2022-09-23T12:03:46Z</time>
      </trkpt>
      <trkpt lat="46.5343" lon="4.57387">
        <ele>213.002</ele>
        <time>2022-09-23T12:03:52Z</time>
      </trkpt>
      <trkpt lat="46.5343" lon="4.57377">
        <ele>212.602</ele>
        <time>2022-09-23T12:03:58Z</time>
      </trkpt>
      <trkpt lat="46.53429" lon="4.57366">
        <ele>212.602</ele>
        <time>2022-09-23T12:04:04Z</time>
      </trkpt>
      <trkpt lat="46.53428" lon="4.57356">
        <ele>212.902</ele>
        <time>2022-09-23T12:04:10Z</time>
      </trkpt>
      <trkpt lat="46.53426" lon="4.57347">
        <ele>212.502</ele>
        <time>2022-09-23T12:04:18Z</time>
      </trkpt>
      <trkpt lat="46.53426" lon="4.57336">
        <ele>212.402</ele>
        <time>2022-09-23T12:04:24Z</time>
      </trkpt>
      <trkpt lat="46.53425" lon="4.57325">
        <ele>213.002</ele>
        <time>2022-09-23T12:04:30Z</time>
      </trkpt>
      <trkpt lat="46.53424" lon="4.57315">
        <ele>212.602</ele>
        <time>2022-09-23T12:04:36Z</time>
      </trkpt>
      <trkpt lat="46.53423" lon="4.57304">
        <ele>213.002</ele>
        <time>2022-09-23T12:04:42Z</time>
      </trkpt>
      <trkpt lat="46.53423" lon="4.57293">
        <ele>212.802</ele>
        <time>2022-09-23T12:04:48Z</time>
      </trkpt>
      <trkpt lat="46.53422" lon="4.57284">
        <ele>213.102</ele>
        <time>2022-09-23T12:04:53Z</time>
      </trkpt>
      <trkpt lat="46.53421" lon="4.57273">
        <ele>211.802</ele>
        <time>2022-09-23T12:05:00Z</time>
      </trkpt>
      <trkpt lat="46.5342" lon="4.57263">
        <ele>211.302</ele>
        <time>2022-09-23T12:05:05Z</time>
      </trkpt>
      <trkpt lat="46.53419" lon="4.57251">
        <ele>211.602</ele>
        <time>2022-09-23T12:05:11Z</time>
      </trkpt>
      <trkpt lat="46.53418" lon="4.57242">
        <ele>213.002</ele>
        <time>2022-09-23T12:05:17Z</time>
      </trkpt>
      <trkpt lat="46.53418" lon="4.5723">
        <ele>213.502</ele>
        <time>2022-09-23T12:05:23Z</time>
      </trkpt>
      <trkpt lat="46.53416" lon="4.57219">
        <ele>213.402</ele>
        <time>2022-09-23T12:05:29Z</time>
      </trkpt>
      <trkpt lat="46.53415" lon="4.57209">
        <ele>213.102</ele>
        <time>2022-09-23T12:05:35Z</time>
      </trkpt>
      <trkpt lat="46.53414" lon="4.57199">
        <ele>214.402</ele>
        <time>2022-09-23T12:05:41Z</time>
      </trkpt>
      <trkpt lat="46.53414" lon="4.57189">
        <ele>214.402</ele>
        <time>2022-09-23T12:05:46Z</time>
      </trkpt>
      <trkpt lat="46.53413" lon="4.57179">
        <ele>214.002</ele>
        <time>2022-09-23T12:05:51Z</time>
      </trkpt>
      <trkpt lat="46.53412" lon="4.57168">
        <ele>213.802</ele>
        <time>2022-09-23T12:05:57Z</time>
      </trkpt>
      <trkpt lat="46.53411" lon="4.57157">
        <ele>213.002</ele>
        <time>2022-09-23T12:06:04Z</time>
      </trkpt>
      <trkpt lat="46.5341" lon="4.57148">
        <ele>212.602</ele>
        <time>2022-09-23T12:06:09Z</time>
      </trkpt>
      <trkpt lat="46.5341" lon="4.57136">
        <ele>212.702</ele>
        <time>2022-09-23T12:06:15Z</time>
      </trkpt>
      <trkpt lat="46.53409" lon="4.57126">
        <ele>213.302</ele>
        <time>2022-09-23T12:06:21Z</time>
      </trkpt>
      <trkpt lat="46.53407" lon="4.57117">
        <ele>213.802</ele>
        <time>2022-09-23T12:06:26Z</time>
      </trkpt>
      <trkpt lat="46.53407" lon="4.57106">
        <ele>215.202</ele>
        <time>2022-09-23T12:06:32Z</time>
      </trkpt>
      <trkpt lat="46.53406" lon="4.57095">
        <ele>215.502</ele>
        <time>2022-09-23T12:06:39Z</time>
      </trkpt>
      <trkpt lat="46.53405" lon="4.57084">
        <ele>216.002</ele>
        <time>2022-09-23T12:06:45Z</time>
      </trkpt>
      <trkpt lat="46.53405" lon="4.57074">
        <ele>217.002</ele>
        <time>2022-09-23T12:06:51Z</time>
      </trkpt>
      <trkpt lat="46.53405" lon="4.57065">
        <ele>218.102</ele>
        <time>2022-09-23T12:06:56Z</time>
      </trkpt>
      <trkpt lat="46.53404" lon="4.57054">
        <ele>216.802</ele>
        <time>2022-09-23T12:07:03Z</time>
      </trkpt>
      <trkpt lat="46.53402" lon="4.57043">
        <ele>217.202</ele>
        <time>2022-09-23T12:07:09Z</time>
      </trkpt>
      <trkpt lat="46.534" lon="4.57032">
        <ele>218.302</ele>
        <time>2022-09-23T12:07:15Z</time>
      </trkpt>
      <trkpt lat="46.534" lon="4.57022">
        <ele>219.002</ele>
        <time>2022-09-23T12:07:21Z</time>
      </trkpt>
      <trkpt lat="46.53399" lon="4.57012">
        <ele>219.902</ele>
        <time>2022-09-23T12:07:28Z</time>
      </trkpt>
      <trkpt lat="46.53398" lon="4.57001">
        <ele>219.702</ele>
        <time>2022-09-23T12:07:34Z</time>
      </trkpt>
      <trkpt lat="46.53397" lon="4.56991">
        <ele>220.202</ele>
        <time>2022-09-23T12:07:40Z</time>
      </trkpt>
      <trkpt lat="46.53397" lon="4.56981">
        <ele>220.602</ele>
        <time>2022-09-23T12:07:46Z</time>
      </trkpt>
      <trkpt lat="46.53396" lon="4.56971">
        <ele>220.802</ele>
        <time>2022-09-23T12:07:52Z</time>
      </trkpt>
      <trkpt lat="46.53396" lon="4.56962">
        <ele>221.402</ele>
        <time>2022-09-23T12:08:02Z</time>
      </trkpt>
      <trkpt lat="46.53395" lon="4.56951">
        <ele>221.102</ele>
        <time>2022-09-23T12:08:08Z</time>
      </trkpt>
      <trkpt lat="46.53395" lon="4.56941">
        <ele>223.802</ele>
        <time>2022-09-23T12:08:19Z</time>
      </trkpt>
      <trkpt lat="46.53397" lon="4.56931">
        <ele>223.002</ele>
        <time>2022-09-23T12:08:27Z</time>
      </trkpt>
      <trkpt lat="46.53398" lon="4.56922">
        <ele>223.502</ele>
        <time>2022-09-23T12:08:34Z</time>
      </trkpt>
      <trkpt lat="46.53401" lon="4.56912">
        <ele>223.702</ele>
        <time>2022-09-23T12:08:40Z</time>
      </trkpt>
      <trkpt lat="46.53404" lon="4.56903">
        <ele>222.902</ele>
        <time>2022-09-23T12:08:47Z</time>
      </trkpt>
      <trkpt lat="46.53407" lon="4.56894">
        <ele>222.902</ele>
        <time>2022-09-23T12:08:53Z</time>
      </trkpt>
      <trkpt lat="46.5341" lon="4.56884">
        <ele>225.102</ele>
        <time>2022-09-23T12:08:59Z</time>
      </trkpt>
      <trkpt lat="46.53413" lon="4.56875">
        <ele>226.002</ele>
        <time>2022-09-23T12:09:05Z</time>
      </trkpt>
      <trkpt lat="46.53415" lon="4.56865">
        <ele>225.802</ele>
        <time>2022-09-23T12:09:13Z</time>
      </trkpt>
      <trkpt lat="46.53417" lon="4.56856">
        <ele>226.002</ele>
        <time>2022-09-23T12:09:19Z</time>
      </trkpt>
      <trkpt lat="46.5342" lon="4.56847">
        <ele>225.802</ele>
        <time>2022-09-23T12:09:26Z</time>
      </trkpt>
      <trkpt lat="46.53422" lon="4.56838">
        <ele>226.702</ele>
        <time>2022-09-23T12:09:32Z</time>
      </trkpt>
      <trkpt lat="46.53424" lon="4.56827">
        <ele>227.502</ele>
        <time>2022-09-23T12:09:39Z</time>
      </trkpt>
      <trkpt lat="46.53425" lon="4.56817">
        <ele>227.302</ele>
        <time>2022-09-23T12:09:48Z</time>
      </trkpt>
      <trkpt lat="46.53429" lon="4.56809">
        <ele>226.802</ele>
        <time>2022-09-23T12:09:54Z</time>
      </trkpt>
      <trkpt lat="46.5343" lon="4.56799">
        <ele>227.902</ele>
        <time>2022-09-23T12:10:00Z</time>
      </trkpt>
      <trkpt lat="46.53433" lon="4.56791">
        <ele>227.702</ele>
        <time>2022-09-23T12:10:06Z</time>
      </trkpt>
      <trkpt lat="46.53436" lon="4.56782">
        <ele>228.802</ele>
        <time>2022-09-23T12:10:12Z</time>
      </trkpt>
      <trkpt lat="46.53437" lon="4.56771">
        <ele>229.602</ele>
        <time>2022-09-23T12:10:19Z</time>
      </trkpt>
      <trkpt lat="46.53438" lon="4.56761">
        <ele>230.602</ele>
        <time>2022-09-23T12:10:25Z</time>
      </trkpt>
      <trkpt lat="46.53439" lon="4.56751">
        <ele>230.902</ele>
        <time>2022-09-23T12:10:33Z</time>
      </trkpt>
      <trkpt lat="46.53441" lon="4.5674">
        <ele>231.802</ele>
        <time>2022-09-23T12:10:39Z</time>
      </trkpt>
      <trkpt lat="46.53442" lon="4.5673">
        <ele>231.602</ele>
        <time>2022-09-23T12:10:45Z</time>
      </trkpt>
      <trkpt lat="46.53443" lon="4.56721">
        <ele>233.202</ele>
        <time>2022-09-23T12:10:51Z</time>
      </trkpt>
      <trkpt lat="46.53443" lon="4.56711">
        <ele>234.802</ele>
        <time>2022-09-23T12:10:57Z</time>
      </trkpt>
      <trkpt lat="46.53441" lon="4.56702">
        <ele>236.502</ele>
        <time>2022-09-23T12:11:04Z</time>
      </trkpt>
      <trkpt lat="46.53439" lon="4.56692">
        <ele>238.802</ele>
        <time>2022-09-23T12:11:10Z</time>
      </trkpt>
      <trkpt lat="46.53438" lon="4.56681">
        <ele>238.602</ele>
        <time>2022-09-23T12:11:16Z</time>
      </trkpt>
      <trkpt lat="46.53439" lon="4.56671">
        <ele>237.202</ele>
        <time>2022-09-23T12:11:22Z</time>
      </trkpt>
      <trkpt lat="46.53437" lon="4.56662">
        <ele>236.602</ele>
        <time>2022-09-23T12:11:30Z</time>
      </trkpt>
      <trkpt lat="46.53436" lon="4.56653">
        <ele>237.202</ele>
        <time>2022-09-23T12:11:38Z</time>
      </trkpt>
      <trkpt lat="46.53433" lon="4.56645">
        <ele>236.802</ele>
        <time>2022-09-23T12:11:44Z</time>
      </trkpt>
      <trkpt lat="46.53434" lon="4.56635">
        <ele>238.002</ele>
        <time>2022-09-23T12:11:54Z</time>
      </trkpt>
      <trkpt lat="46.53433" lon="4.56625">
        <ele>238.402</ele>
        <time>2022-09-23T12:12:00Z</time>
      </trkpt>
      <trkpt lat="46.53433" lon="4.56614">
        <ele>238.102</ele>
        <time>2022-09-23T12:12:07Z</time>
      </trkpt>
      <trkpt lat="46.53431" lon="4.56604">
        <ele>237.002</ele>
        <time>2022-09-23T12:12:12Z</time>
      </trkpt>
      <trkpt lat="46.53428" lon="4.56595">
        <ele>236.102</ele>
        <time>2022-09-23T12:12:19Z</time>
      </trkpt>
      <trkpt lat="46.53425" lon="4.56585">
        <ele>236.602</ele>
        <time>2022-09-23T12:12:25Z</time>
      </trkpt>
      <trkpt lat="46.53423" lon="4.56572">
        <ele>239.402</ele>
        <time>2022-09-23T12:12:31Z</time>
      </trkpt>
      <trkpt lat="46.5342" lon="4.56562">
        <ele>239.402</ele>
        <time>2022-09-23T12:12:36Z</time>
      </trkpt>
      <trkpt lat="46.5342" lon="4.56551">
        <ele>241.002</ele>
        <time>2022-09-23T12:12:42Z</time>
      </trkpt>
      <trkpt lat="46.53423" lon="4.56542">
        <ele>241.802</ele>
        <time>2022-09-23T12:12:47Z</time>
      </trkpt>
      <trkpt lat="46.53422" lon="4.56532">
        <ele>240.302</ele>
        <time>2022-09-23T12:12:53Z</time>
      </trkpt>
      <trkpt lat="46.53421" lon="4.56522">
        <ele>240.602</ele>
        <time>2022-09-23T12:13:00Z</time>
      </trkpt>
      <trkpt lat="46.5342" lon="4.56511">
        <ele>241.202</ele>
        <time>2022-09-23T12:13:06Z</time>
      </trkpt>
      <trkpt lat="46.53421" lon="4.565">
        <ele>242.702</ele>
        <time>2022-09-23T12:13:11Z</time>
      </trkpt>
      <trkpt lat="46.5342" lon="4.5649">
        <ele>243.702</ele>
        <time>2022-09-23T12:13:17Z</time>
      </trkpt>
      <trkpt lat="46.53419" lon="4.56479">
        <ele>245.702</ele>
        <time>2022-09-23T12:13:23Z</time>
      </trkpt>
      <trkpt lat="46.53418" lon="4.56468">
        <ele>246.502</ele>
        <time>2022-09-23T12:13:29Z</time>
      </trkpt>
      <trkpt lat="46.53418" lon="4.56457">
        <ele>247.102</ele>
        <time>2022-09-23T12:13:35Z</time>
      </trkpt>
      <trkpt lat="46.53417" lon="4.56448">
        <ele>245.302</ele>
        <time>2022-09-23T12:13:41Z</time>
      </trkpt>
      <trkpt lat="46.53416" lon="4.56438">
        <ele>244.202</ele>
        <time>2022-09-23T12:13:47Z</time>
      </trkpt>
      <trkpt lat="46.53416" lon="4.56427">
        <ele>243.602</ele>
        <time>2022-09-23T12:13:53Z</time>
      </trkpt>
      <trkpt lat="46.53414" lon="4.56417">
        <ele>244.202</ele>
        <time>2022-09-23T12:13:59Z</time>
      </trkpt>
      <trkpt lat="46.53412" lon="4.56406">
        <ele>243.402</ele>
        <time>2022-09-23T12:14:05Z</time>
      </trkpt>
      <trkpt lat="46.53412" lon="4.56396">
        <ele>242.902</ele>
        <time>2022-09-23T12:14:11Z</time>
      </trkpt>
      <trkpt lat="46.5341" lon="4.56387">
        <ele>241.502</ele>
        <time>2022-09-23T12:14:18Z</time>
      </trkpt>
      <trkpt lat="46.53407" lon="4.56376">
        <ele>242.502</ele>
        <time>2022-09-23T12:14:24Z</time>
      </trkpt>
      <trkpt lat="46.53405" lon="4.56367">
        <ele>243.802</ele>
        <time>2022-09-23T12:14:30Z</time>
      </trkpt>
      <trkpt lat="46.53402" lon="4.56358">
        <ele>244.002</ele>
        <time>2022-09-23T12:14:35Z</time>
      </trkpt>
      <trkpt lat="46.534" lon="4.56347">
        <ele>244.601</ele>
        <time>2022-09-23T12:14:41Z</time>
      </trkpt>
      <trkpt lat="46.53396" lon="4.56337">
        <ele>246.501</ele>
        <time>2022-09-23T12:14:47Z</time>
      </trkpt>
      <trkpt lat="46.53394" lon="4.56327">
        <ele>248.301</ele>
        <time>2022-09-23T12:14:53Z</time>
      </trkpt>
      <trkpt lat="46.53391" lon="4.56317">
        <ele>248.601</ele>
        <time>2022-09-23T12:14:59Z</time>
      </trkpt>
      <trkpt lat="46.53388" lon="4.56307">
        <ele>248.801</ele>
        <time>2022-09-23T12:15:05Z</time>
      </trkpt>
      <trkpt lat="46.53385" lon="4.56298">
        <ele>249.201</ele>
        <time>2022-09-23T12:15:12Z</time>
      </trkpt>
      <trkpt lat="46.5338" lon="4.56291">
        <ele>250.901</ele>
        <time>2022-09-23T12:15:18Z</time>
      </trkpt>
      <trkpt lat="46.53378" lon="4.56281">
        <ele>253.801</ele>
        <time>2022-09-23T12:15:23Z</time>
      </trkpt>
      <trkpt lat="46.53377" lon="4.5627">
        <ele>253.201</ele>
        <time>2022-09-23T12:15:29Z</time>
      </trkpt>
      <trkpt lat="46.53375" lon="4.5626">
        <ele>252.701</ele>
        <time>2022-09-23T12:15:35Z</time>
      </trkpt>
      <trkpt lat="46.53373" lon="4.5625">
        <ele>253.601</ele>
        <time>2022-09-23T12:15:41Z</time>
      </trkpt>
      <trkpt lat="46.53373" lon="4.56239">
        <ele>255.601</ele>
        <time>2022-09-23T12:15:50Z</time>
      </trkpt>
      <trkpt lat="46.53375" lon="4.5623">
        <ele>255.001</ele>
        <time>2022-09-23T12:15:56Z</time>
      </trkpt>
      <trkpt lat="46.53378" lon="4.56221">
        <ele>257.601</ele>
        <time>2022-09-23T12:16:22Z</time>
      </trkpt>
      <trkpt lat="46.5338" lon="4.56231">
        <ele>260.001</ele>
        <time>2022-09-23T12:18:13Z</time>
      </trkpt>
      <trkpt lat="46.53377" lon="4.5624">
        <ele>258.401</ele>
        <time>2022-09-23T12:18:19Z</time>
      </trkpt>
      <trkpt lat="46.53376" lon="4.5625">
        <ele>259.201</ele>
        <time>2022-09-23T12:18:25Z</time>
      </trkpt>
      <trkpt lat="46.53382" lon="4.56245">
        <ele>255.701</ele>
        <time>2022-09-23T12:18:48Z</time>
      </trkpt>
      <trkpt lat="46.53388" lon="4.5624">
        <ele>253.401</ele>
        <time>2022-09-23T12:18:55Z</time>
      </trkpt>
      <trkpt lat="46.53386" lon="4.56249">
        <ele>253.201</ele>
        <time>2022-09-23T12:19:34Z</time>
      </trkpt>
      <trkpt lat="46.5338" lon="4.56255">
        <ele>255.601</ele>
        <time>2022-09-23T12:19:42Z</time>
      </trkpt>
      <trkpt lat="46.53375" lon="4.56248">
        <ele>254.501</ele>
        <time>2022-09-23T12:19:55Z</time>
      </trkpt>
      <trkpt lat="46.53373" lon="4.56238">
        <ele>255.801</ele>
        <time>2022-09-23T12:20:02Z</time>
      </trkpt>
      <trkpt lat="46.53374" lon="4.56229">
        <ele>256.101</ele>
        <time>2022-09-23T12:20:10Z</time>
      </trkpt>
      <trkpt lat="46.53377" lon="4.5622">
        <ele>256.301</ele>
        <time>2022-09-23T12:20:18Z</time>
      </trkpt>
      <trkpt lat="46.53378" lon="4.5621">
        <ele>260.101</ele>
        <time>2022-09-23T12:21:40Z</time>
      </trkpt>
      <trkpt lat="46.53386" lon="4.56201">
        <ele>260.001</ele>
        <time>2022-09-23T12:22:31Z</time>
      </trkpt>
      <trkpt lat="46.5338" lon="4.56207">
        <ele>262.001</ele>
        <time>2022-09-23T12:23:02Z</time>
      </trkpt>
      <trkpt lat="46.53382" lon="4.56197">
        <ele>258.701</ele>
        <time>2022-09-23T12:23:34Z</time>
      </trkpt>
      <trkpt lat="46.53382" lon="4.56187">
        <ele>258.501</ele>
        <time>2022-09-23T12:23:41Z</time>
      </trkpt>
      <trkpt lat="46.53382" lon="4.56177">
        <ele>259.001</ele>
        <time>2022-09-23T12:23:48Z</time>
      </trkpt>
      <trkpt lat="46.53381" lon="4.56166">
        <ele>259.101</ele>
        <time>2022-09-23T12:23:55Z</time>
      </trkpt>
      <trkpt lat="46.53382" lon="4.56157">
        <ele>258.701</ele>
        <time>2022-09-23T12:24:01Z</time>
      </trkpt>
      <trkpt lat="46.53383" lon="4.56147">
        <ele>258.901</ele>
        <time>2022-09-23T12:24:07Z</time>
      </trkpt>
      <trkpt lat="46.53384" lon="4.56138">
        <ele>258.101</ele>
        <time>2022-09-23T12:24:13Z</time>
      </trkpt>
      <trkpt lat="46.53385" lon="4.56127">
        <ele>259.001</ele>
        <time>2022-09-23T12:24:19Z</time>
      </trkpt>
      <trkpt lat="46.53384" lon="4.56118">
        <ele>260.001</ele>
        <time>2022-09-23T12:24:24Z</time>
      </trkpt>
      <trkpt lat="46.53382" lon="4.56108">
        <ele>261.501</ele>
        <time>2022-09-23T12:24:30Z</time>
      </trkpt>
      <trkpt lat="46.5338" lon="4.56099">
        <ele>264.201</ele>
        <time>2022-09-23T12:24:36Z</time>
      </trkpt>
      <trkpt lat="46.53378" lon="4.56089">
        <ele>265.101</ele>
        <time>2022-09-23T12:24:42Z</time>
      </trkpt>
      <trkpt lat="46.53375" lon="4.5608">
        <ele>264.201</ele>
        <time>2022-09-23T12:24:49Z</time>
      </trkpt>
      <trkpt lat="46.53373" lon="4.5607">
        <ele>261.501</ele>
        <time>2022-09-23T12:24:57Z</time>
      </trkpt>
      <trkpt lat="46.53372" lon="4.5606">
        <ele>262.601</ele>
        <time>2022-09-23T12:25:04Z</time>
      </trkpt>
      <trkpt lat="46.53371" lon="4.56049">
        <ele>264.001</ele>
        <time>2022-09-23T12:25:10Z</time>
      </trkpt>
      <trkpt lat="46.53369" lon="4.56039">
        <ele>265.001</ele>
        <time>2022-09-23T12:25:16Z</time>
      </trkpt>
      <trkpt lat="46.53366" lon="4.56029">
        <ele>265.201</ele>
        <time>2022-09-23T12:25:22Z</time>
      </trkpt>
      <trkpt lat="46.53364" lon="4.56019">
        <ele>264.501</ele>
        <time>2022-09-23T12:25:29Z</time>
      </trkpt>
      <trkpt lat="46.53362" lon="4.56009">
        <ele>265.801</ele>
        <time>2022-09-23T12:25:35Z</time>
      </trkpt>
      <trkpt lat="46.5336" lon="4.55999">
        <ele>267.001</ele>
        <time>2022-09-23T12:25:41Z</time>
      </trkpt>
      <trkpt lat="46.53359" lon="4.55989">
        <ele>268.001</ele>
        <time>2022-09-23T12:25:47Z</time>
      </trkpt>
      <trkpt lat="46.53357" lon="4.55979">
        <ele>268.201</ele>
        <time>2022-09-23T12:25:54Z</time>
      </trkpt>
      <trkpt lat="46.53355" lon="4.55968">
        <ele>268.901</ele>
        <time>2022-09-23T12:26:01Z</time>
      </trkpt>
      <trkpt lat="46.53352" lon="4.55959">
        <ele>269.701</ele>
        <time>2022-09-23T12:26:07Z</time>
      </trkpt>
      <trkpt lat="46.5335" lon="4.55949">
        <ele>270.401</ele>
        <time>2022-09-23T12:26:12Z</time>
      </trkpt>
      <trkpt lat="46.53348" lon="4.55939">
        <ele>271.601</ele>
        <time>2022-09-23T12:26:18Z</time>
      </trkpt>
      <trkpt lat="46.53347" lon="4.5593">
        <ele>272.601</ele>
        <time>2022-09-23T12:26:24Z</time>
      </trkpt>
      <trkpt lat="46.53344" lon="4.5592">
        <ele>272.801</ele>
        <time>2022-09-23T12:26:30Z</time>
      </trkpt>
      <trkpt lat="46.53341" lon="4.5591">
        <ele>273.401</ele>
        <time>2022-09-23T12:26:37Z</time>
      </trkpt>
      <trkpt lat="46.5334" lon="4.559">
        <ele>273.401</ele>
        <time>2022-09-23T12:26:43Z</time>
      </trkpt>
      <trkpt lat="46.5334" lon="4.55889">
        <ele>274.401</ele>
        <time>2022-09-23T12:26:51Z</time>
      </trkpt>
      <trkpt lat="46.53338" lon="4.55879">
        <ele>274.601</ele>
        <time>2022-09-23T12:26:58Z</time>
      </trkpt>
      <trkpt lat="46.53336" lon="4.55869">
        <ele>275.101</ele>
        <time>2022-09-23T12:27:12Z</time>
      </trkpt>
      <trkpt lat="46.53334" lon="4.55858">
        <ele>275.101</ele>
        <time>2022-09-23T12:27:19Z</time>
      </trkpt>
      <trkpt lat="46.53332" lon="4.55849">
        <ele>276.101</ele>
        <time>2022-09-23T12:27:25Z</time>
      </trkpt>
      <trkpt lat="46.53329" lon="4.5584">
        <ele>276.501</ele>
        <time>2022-09-23T12:27:31Z</time>
      </trkpt>
      <trkpt lat="46.53327" lon="4.55831">
        <ele>277.101</ele>
        <time>2022-09-23T12:27:37Z</time>
      </trkpt>
      <trkpt lat="46.53325" lon="4.5582">
        <ele>278.201</ele>
        <time>2022-09-23T12:27:43Z</time>
      </trkpt>
      <trkpt lat="46.53325" lon="4.55809">
        <ele>278.301</ele>
        <time>2022-09-23T12:27:49Z</time>
      </trkpt>
      <trkpt lat="46.53324" lon="4.55798">
        <ele>278.801</ele>
        <time>2022-09-23T12:27:55Z</time>
      </trkpt>
      <trkpt lat="46.53326" lon="4.55788">
        <ele>280.001</ele>
        <time>2022-09-23T12:28:01Z</time>
      </trkpt>
      <trkpt lat="46.53327" lon="4.55777">
        <ele>280.801</ele>
        <time>2022-09-23T12:28:07Z</time>
      </trkpt>
      <trkpt lat="46.53329" lon="4.55767">
        <ele>282.001</ele>
        <time>2022-09-23T12:28:13Z</time>
      </trkpt>
      <trkpt lat="46.53331" lon="4.55757">
        <ele>282.101</ele>
        <time>2022-09-23T12:28:19Z</time>
      </trkpt>
      <trkpt lat="46.53334" lon="4.55747">
        <ele>282.901</ele>
        <time>2022-09-23T12:28:25Z</time>
      </trkpt>
      <trkpt lat="46.53338" lon="4.55738">
        <ele>283.801</ele>
        <time>2022-09-23T12:28:31Z</time>
      </trkpt>
      <trkpt lat="46.53341" lon="4.5573">
        <ele>284.101</ele>
        <time>2022-09-23T12:28:37Z</time>
      </trkpt>
      <trkpt lat="46.53344" lon="4.55719">
        <ele>284.601</ele>
        <time>2022-09-23T12:28:44Z</time>
      </trkpt>
      <trkpt lat="46.53347" lon="4.55709">
        <ele>285.801</ele>
        <time>2022-09-23T12:28:50Z</time>
      </trkpt>
      <trkpt lat="46.53351" lon="4.557">
        <ele>286.001</ele>
        <time>2022-09-23T12:28:57Z</time>
      </trkpt>
      <trkpt lat="46.53354" lon="4.5569">
        <ele>284.901</ele>
        <time>2022-09-23T12:29:03Z</time>
      </trkpt>
      <trkpt lat="46.53357" lon="4.55681">
        <ele>285.901</ele>
        <time>2022-09-23T12:29:09Z</time>
      </trkpt>
      <trkpt lat="46.5336" lon="4.55672">
        <ele>287.201</ele>
        <time>2022-09-23T12:29:15Z</time>
      </trkpt>
      <trkpt lat="46.53362" lon="4.55663">
        <ele>288.101</ele>
        <time>2022-09-23T12:29:21Z</time>
      </trkpt>
      <trkpt lat="46.53366" lon="4.55654">
        <ele>288.401</ele>
        <time>2022-09-23T12:29:27Z</time>
      </trkpt>
      <trkpt lat="46.53368" lon="4.55646">
        <ele>288.001</ele>
        <time>2022-09-23T12:29:33Z</time>
      </trkpt>
      <trkpt lat="46.53371" lon="4.55636">
        <ele>289.101</ele>
        <time>2022-09-23T12:29:39Z</time>
      </trkpt>
      <trkpt lat="46.53374" lon="4.55627">
        <ele>290.501</ele>
        <time>2022-09-23T12:29:45Z</time>
      </trkpt>
      <trkpt lat="46.53377" lon="4.55617">
        <ele>293.001</ele>
        <time>2022-09-23T12:29:53Z</time>
      </trkpt>
      <trkpt lat="46.53379" lon="4.55608">
        <ele>293.501</ele>
        <time>2022-09-23T12:29:59Z</time>
      </trkpt>
      <trkpt lat="46.5338" lon="4.55598">
        <ele>294.201</ele>
        <time>2022-09-23T12:30:05Z</time>
      </trkpt>
      <trkpt lat="46.53381" lon="4.55588">
        <ele>293.501</ele>
        <time>2022-09-23T12:30:11Z</time>
      </trkpt>
      <trkpt lat="46.53381" lon="4.55578">
        <ele>292.301</ele>
        <time>2022-09-23T12:30:20Z</time>
      </trkpt>
      <trkpt lat="46.53378" lon="4.5557">
        <ele>293.501</ele>
        <time>2022-09-23T12:30:26Z</time>
      </trkpt>
      <trkpt lat="46.53374" lon="4.55561">
        <ele>294.901</ele>
        <time>2022-09-23T12:30:32Z</time>
      </trkpt>
      <trkpt lat="46.5337" lon="4.55553">
        <ele>295.801</ele>
        <time>2022-09-23T12:30:38Z</time>
      </trkpt>
      <trkpt lat="46.53364" lon="4.55548">
        <ele>296.901</ele>
        <time>2022-09-23T12:30:43Z</time>
      </trkpt>
      <trkpt lat="46.53359" lon="4.55542">
        <ele>297.501</ele>
        <time>2022-09-23T12:30:49Z</time>
      </trkpt>
      <trkpt lat="46.53353" lon="4.55536">
        <ele>297.101</ele>
        <time>2022-09-23T12:30:55Z</time>
      </trkpt>
      <trkpt lat="46.53349" lon="4.55528">
        <ele>295.201</ele>
        <time>2022-09-23T12:31:02Z</time>
      </trkpt>
      <trkpt lat="46.53343" lon="4.55522">
        <ele>294.501</ele>
        <time>2022-09-23T12:31:08Z</time>
      </trkpt>
      <trkpt lat="46.53339" lon="4.55514">
        <ele>296.301</ele>
        <time>2022-09-23T12:31:14Z</time>
      </trkpt>
      <trkpt lat="46.53335" lon="4.55506">
        <ele>297.301</ele>
        <time>2022-09-23T12:31:20Z</time>
      </trkpt>
      <trkpt lat="46.5333" lon="4.55498">
        <ele>298.901</ele>
        <time>2022-09-23T12:31:26Z</time>
      </trkpt>
      <trkpt lat="46.53326" lon="4.5549">
        <ele>297.901</ele>
        <time>2022-09-23T12:31:32Z</time>
      </trkpt>
      <trkpt lat="46.53321" lon="4.55483">
        <ele>298.301</ele>
        <time>2022-09-23T12:31:38Z</time>
      </trkpt>
      <trkpt lat="46.53317" lon="4.55475">
        <ele>300.901</ele>
        <time>2022-09-23T12:31:44Z</time>
      </trkpt>
      <trkpt lat="46.53312" lon="4.55467">
        <ele>302.401</ele>
        <time>2022-09-23T12:31:50Z</time>
      </trkpt>
      <trkpt lat="46.53307" lon="4.55459">
        <ele>302.801</ele>
        <time>2022-09-23T12:31:56Z</time>
      </trkpt>
      <trkpt lat="46.53302" lon="4.5545">
        <ele>304.401</ele>
        <time>2022-09-23T12:32:03Z</time>
      </trkpt>
      <trkpt lat="46.53297" lon="4.55441">
        <ele>303.601</ele>
        <time>2022-09-23T12:32:10Z</time>
      </trkpt>
      <trkpt lat="46.53293" lon="4.55432">
        <ele>304.201</ele>
        <time>2022-09-23T12:32:17Z</time>
      </trkpt>
      <trkpt lat="46.53289" lon="4.55424">
        <ele>306.001</ele>
        <time>2022-09-23T12:32:23Z</time>
      </trkpt>
      <trkpt lat="46.53285" lon="4.55416">
        <ele>306.601</ele>
        <time>2022-09-23T12:32:29Z</time>
      </trkpt>
      <trkpt lat="46.53282" lon="4.55407">
        <ele>307.7</ele>
        <time>2022-09-23T12:32:35Z</time>
      </trkpt>
      <trkpt lat="46.5328" lon="4.55398">
        <ele>308.2</ele>
        <time>2022-09-23T12:32:40Z</time>
      </trkpt>
      <trkpt lat="46.53277" lon="4.5539">
        <ele>307.9</ele>
        <time>2022-09-23T12:32:46Z</time>
      </trkpt>
      <trkpt lat="46.53273" lon="4.5538">
        <ele>308.1</ele>
        <time>2022-09-23T12:34:20Z</time>
      </trkpt>
      <trkpt lat="46.53269" lon="4.55373">
        <ele>310.8</ele>
        <time>2022-09-23T12:34:36Z</time>
      </trkpt>
      <trkpt lat="46.53266" lon="4.55363">
        <ele>309.7</ele>
        <time>2022-09-23T12:34:44Z</time>
      </trkpt>
      <trkpt lat="46.53263" lon="4.55354">
        <ele>309</ele>
        <time>2022-09-23T12:34:52Z</time>
      </trkpt>
      <trkpt lat="46.5326" lon="4.55345">
        <ele>309.9</ele>
        <time>2022-09-23T12:34:59Z</time>
      </trkpt>
      <trkpt lat="46.53256" lon="4.55336">
        <ele>308.2</ele>
        <time>2022-09-23T12:35:06Z</time>
      </trkpt>
      <trkpt lat="46.53253" lon="4.55326">
        <ele>308.3</ele>
        <time>2022-09-23T12:35:12Z</time>
      </trkpt>
      <trkpt lat="46.53249" lon="4.55318">
        <ele>308.9</ele>
        <time>2022-09-23T12:35:18Z</time>
      </trkpt>
      <trkpt lat="46.53245" lon="4.55311">
        <ele>310.9</ele>
        <time>2022-09-23T12:35:24Z</time>
      </trkpt>
      <trkpt lat="46.53242" lon="4.55301">
        <ele>312.2</ele>
        <time>2022-09-23T12:35:30Z</time>
      </trkpt>
      <trkpt lat="46.53238" lon="4.55293">
        <ele>311.8</ele>
        <time>2022-09-23T12:35:37Z</time>
      </trkpt>
      <trkpt lat="46.53236" lon="4.55283">
        <ele>313.2</ele>
        <time>2022-09-23T12:35:43Z</time>
      </trkpt>
      <trkpt lat="46.53232" lon="4.55275">
        <ele>311.5</ele>
        <time>2022-09-23T12:35:51Z</time>
      </trkpt>
      <trkpt lat="46.53229" lon="4.55266">
        <ele>311.1</ele>
        <time>2022-09-23T12:35:59Z</time>
      </trkpt>
      <trkpt lat="46.53223" lon="4.5526">
        <ele>312.8</ele>
        <time>2022-09-23T12:36:05Z</time>
      </trkpt>
      <trkpt lat="46.53217" lon="4.55255">
        <ele>315.1</ele>
        <time>2022-09-23T12:36:11Z</time>
      </trkpt>
      <trkpt lat="46.5321" lon="4.55252">
        <ele>317.2</ele>
        <time>2022-09-23T12:36:18Z</time>
      </trkpt>
      <trkpt lat="46.53204" lon="4.55246">
        <ele>320.1</ele>
        <time>2022-09-23T12:36:25Z</time>
      </trkpt>
      <trkpt lat="46.53198" lon="4.5524">
        <ele>320</ele>
        <time>2022-09-23T12:36:31Z</time>
      </trkpt>
      <trkpt lat="46.53192" lon="4.55235">
        <ele>320.8</ele>
        <time>2022-09-23T12:36:38Z</time>
      </trkpt>
      <trkpt lat="46.53185" lon="4.55236">
        <ele>321.4</ele>
        <time>2022-09-23T12:36:45Z</time>
      </trkpt>
      <trkpt lat="46.53177" lon="4.55235">
        <ele>321.5</ele>
        <time>2022-09-23T12:36:51Z</time>
      </trkpt>
      <trkpt lat="46.53171" lon="4.55235">
        <ele>323.5</ele>
        <time>2022-09-23T12:36:57Z</time>
      </trkpt>
      <trkpt lat="46.53164" lon="4.55235">
        <ele>324.6</ele>
        <time>2022-09-23T12:37:04Z</time>
      </trkpt>
      <trkpt lat="46.53158" lon="4.5523">
        <ele>325.7</ele>
        <time>2022-09-23T12:37:12Z</time>
      </trkpt>
      <trkpt lat="46.53151" lon="4.55227">
        <ele>324.4</ele>
        <time>2022-09-23T12:37:29Z</time>
      </trkpt>
      <trkpt lat="46.53145" lon="4.55222">
        <ele>322.4</ele>
        <time>2022-09-23T12:37:36Z</time>
      </trkpt>
      <trkpt lat="46.53139" lon="4.55217">
        <ele>320.2</ele>
        <time>2022-09-23T12:37:43Z</time>
      </trkpt>
      <trkpt lat="46.53133" lon="4.55211">
        <ele>319.9</ele>
        <time>2022-09-23T12:37:51Z</time>
      </trkpt>
      <trkpt lat="46.53127" lon="4.55205">
        <ele>319.2</ele>
        <time>2022-09-23T12:38:00Z</time>
      </trkpt>
      <trkpt lat="46.5312" lon="4.55202">
        <ele>320.1</ele>
        <time>2022-09-23T12:38:06Z</time>
      </trkpt>
      <trkpt lat="46.53114" lon="4.55199">
        <ele>324</ele>
        <time>2022-09-23T12:38:19Z</time>
      </trkpt>
      <trkpt lat="46.53104" lon="4.55198">
        <ele>326.4</ele>
        <time>2022-09-23T12:38:24Z</time>
      </trkpt>
      <trkpt lat="46.53097" lon="4.55199">
        <ele>328.3</ele>
        <time>2022-09-23T12:38:30Z</time>
      </trkpt>
      <trkpt lat="46.5309" lon="4.552">
        <ele>328.8</ele>
        <time>2022-09-23T12:38:38Z</time>
      </trkpt>
      <trkpt lat="46.53082" lon="4.55198">
        <ele>328</ele>
        <time>2022-09-23T12:38:47Z</time>
      </trkpt>
      <trkpt lat="46.53075" lon="4.55199">
        <ele>330.8</ele>
        <time>2022-09-23T12:38:56Z</time>
      </trkpt>
      <trkpt lat="46.53068" lon="4.55199">
        <ele>331.5</ele>
        <time>2022-09-23T12:39:05Z</time>
      </trkpt>
      <trkpt lat="46.53061" lon="4.55201">
        <ele>332.4</ele>
        <time>2022-09-23T12:39:12Z</time>
      </trkpt>
      <trkpt lat="46.53054" lon="4.55202">
        <ele>332.7</ele>
        <time>2022-09-23T12:39:18Z</time>
      </trkpt>
      <trkpt lat="46.53048" lon="4.55205">
        <ele>334</ele>
        <time>2022-09-23T12:39:25Z</time>
      </trkpt>
      <trkpt lat="46.5304" lon="4.55207">
        <ele>338.7</ele>
        <time>2022-09-23T12:39:31Z</time>
      </trkpt>
      <trkpt lat="46.53035" lon="4.55212">
        <ele>341.9</ele>
        <time>2022-09-23T12:39:39Z</time>
      </trkpt>
      <trkpt lat="46.53037" lon="4.55221">
        <ele>342</ele>
        <time>2022-09-23T12:39:46Z</time>
      </trkpt>
      <trkpt lat="46.53031" lon="4.55215">
        <ele>342.9</ele>
        <time>2022-09-23T12:40:20Z</time>
      </trkpt>
      <trkpt lat="46.53022" lon="4.55221">
        <ele>345.5</ele>
        <time>2022-09-23T12:44:46Z</time>
      </trkpt>
      <trkpt lat="46.53016" lon="4.55216">
        <ele>345.5</ele>
        <time>2022-09-23T12:44:53Z</time>
      </trkpt>
      <trkpt lat="46.5301" lon="4.55212">
        <ele>346.7</ele>
        <time>2022-09-23T12:45:03Z</time>
      </trkpt>
      <trkpt lat="46.53006" lon="4.55203">
        <ele>349.1</ele>
        <time>2022-09-23T12:45:13Z</time>
      </trkpt>
      <trkpt lat="46.53" lon="4.55197">
        <ele>348.9</ele>
        <time>2022-09-23T12:45:21Z</time>
      </trkpt>
      <trkpt lat="46.52996" lon="4.55189">
        <ele>348.5</ele>
        <time>2022-09-23T12:45:29Z</time>
      </trkpt>
      <trkpt lat="46.5299" lon="4.55184">
        <ele>348.6</ele>
        <time>2022-09-23T12:45:37Z</time>
      </trkpt>
      <trkpt lat="46.52984" lon="4.55179">
        <ele>347.9</ele>
        <time>2022-09-23T12:45:45Z</time>
      </trkpt>
      <trkpt lat="46.52977" lon="4.55175">
        <ele>348.099</ele>
        <time>2022-09-23T12:45:52Z</time>
      </trkpt>
      <trkpt lat="46.52971" lon="4.55169">
        <ele>347.199</ele>
        <time>2022-09-23T12:45:59Z</time>
      </trkpt>
      <trkpt lat="46.52964" lon="4.55165">
        <ele>347.099</ele>
        <time>2022-09-23T12:46:06Z</time>
      </trkpt>
      <trkpt lat="46.52958" lon="4.55159">
        <ele>345.499</ele>
        <time>2022-09-23T12:46:12Z</time>
      </trkpt>
      <trkpt lat="46.52952" lon="4.55153">
        <ele>345.599</ele>
        <time>2022-09-23T12:46:19Z</time>
      </trkpt>
      <trkpt lat="46.52945" lon="4.55149">
        <ele>346.599</ele>
        <time>2022-09-23T12:46:25Z</time>
      </trkpt>
      <trkpt lat="46.5294" lon="4.55142">
        <ele>348.299</ele>
        <time>2022-09-23T12:46:33Z</time>
      </trkpt>
      <trkpt lat="46.52933" lon="4.55137">
        <ele>349.199</ele>
        <time>2022-09-23T12:46:39Z</time>
      </trkpt>
      <trkpt lat="46.52927" lon="4.55132">
        <ele>349.599</ele>
        <time>2022-09-23T12:46:44Z</time>
      </trkpt>
      <trkpt lat="46.5292" lon="4.5513">
        <ele>349.999</ele>
        <time>2022-09-23T12:46:55Z</time>
      </trkpt>
      <trkpt lat="46.52914" lon="4.55128">
        <ele>349.399</ele>
        <time>2022-09-23T12:47:02Z</time>
      </trkpt>
      <trkpt lat="46.52906" lon="4.55125">
        <ele>346.999</ele>
        <time>2022-09-23T12:47:09Z</time>
      </trkpt>
      <trkpt lat="46.52899" lon="4.55123">
        <ele>346.599</ele>
        <time>2022-09-23T12:47:15Z</time>
      </trkpt>
      <trkpt lat="46.52892" lon="4.55121">
        <ele>345.699</ele>
        <time>2022-09-23T12:47:21Z</time>
      </trkpt>
      <trkpt lat="46.52885" lon="4.5512">
        <ele>344.699</ele>
        <time>2022-09-23T12:47:27Z</time>
      </trkpt>
      <trkpt lat="46.52878" lon="4.55116">
        <ele>345.899</ele>
        <time>2022-09-23T12:47:35Z</time>
      </trkpt>
      <trkpt lat="46.52878" lon="4.55106">
        <ele>350.699</ele>
        <time>2022-09-23T12:47:54Z</time>
      </trkpt>
      <trkpt lat="46.52879" lon="4.55096">
        <ele>351.299</ele>
        <time>2022-09-23T12:47:59Z</time>
      </trkpt>
      <trkpt lat="46.5288" lon="4.55087">
        <ele>350.399</ele>
        <time>2022-09-23T12:48:09Z</time>
      </trkpt>
      <trkpt lat="46.52878" lon="4.55076">
        <ele>350.399</ele>
        <time>2022-09-23T12:48:18Z</time>
      </trkpt>
      <trkpt lat="46.52878" lon="4.55066">
        <ele>351.299</ele>
        <time>2022-09-23T12:48:24Z</time>
      </trkpt>
      <trkpt lat="46.52881" lon="4.55056">
        <ele>351.199</ele>
        <time>2022-09-23T12:48:31Z</time>
      </trkpt>
      <trkpt lat="46.52881" lon="4.55045">
        <ele>352.599</ele>
        <time>2022-09-23T12:48:38Z</time>
      </trkpt>
      <trkpt lat="46.5288" lon="4.55036">
        <ele>351.899</ele>
        <time>2022-09-23T12:48:45Z</time>
      </trkpt>
      <trkpt lat="46.52879" lon="4.55025">
        <ele>353.199</ele>
        <time>2022-09-23T12:48:51Z</time>
      </trkpt>
      <trkpt lat="46.52876" lon="4.55016">
        <ele>353.299</ele>
        <time>2022-09-23T12:48:57Z</time>
      </trkpt>
      <trkpt lat="46.52876" lon="4.55006">
        <ele>353.999</ele>
        <time>2022-09-23T12:49:04Z</time>
      </trkpt>
      <trkpt lat="46.52877" lon="4.54997">
        <ele>354.499</ele>
        <time>2022-09-23T12:49:10Z</time>
      </trkpt>
      <trkpt lat="46.52879" lon="4.54986">
        <ele>356.499</ele>
        <time>2022-09-23T12:49:16Z</time>
      </trkpt>
      <trkpt lat="46.52878" lon="4.54975">
        <ele>358.399</ele>
        <time>2022-09-23T12:49:23Z</time>
      </trkpt>
      <trkpt lat="46.52877" lon="4.54965">
        <ele>358.199</ele>
        <time>2022-09-23T12:49:29Z</time>
      </trkpt>
      <trkpt lat="46.52876" lon="4.54955">
        <ele>355.999</ele>
        <time>2022-09-23T12:49:36Z</time>
      </trkpt>
      <trkpt lat="46.52875" lon="4.54946">
        <ele>353.899</ele>
        <time>2022-09-23T12:49:43Z</time>
      </trkpt>
      <trkpt lat="46.52877" lon="4.54935">
        <ele>352.499</ele>
        <time>2022-09-23T12:49:51Z</time>
      </trkpt>
      <trkpt lat="46.52881" lon="4.54926">
        <ele>352.099</ele>
        <time>2022-09-23T12:49:57Z</time>
      </trkpt>
      <trkpt lat="46.52882" lon="4.54916">
        <ele>351.999</ele>
        <time>2022-09-23T12:50:03Z</time>
      </trkpt>
      <trkpt lat="46.52883" lon="4.54906">
        <ele>351.299</ele>
        <time>2022-09-23T12:50:10Z</time>
      </trkpt>
      <trkpt lat="46.52883" lon="4.54897">
        <ele>351.199</ele>
        <time>2022-09-23T12:50:16Z</time>
      </trkpt>
      <trkpt lat="46.52885" lon="4.54887">
        <ele>351.999</ele>
        <time>2022-09-23T12:50:22Z</time>
      </trkpt>
      <trkpt lat="46.52883" lon="4.54877">
        <ele>352.299</ele>
        <time>2022-09-23T12:50:28Z</time>
      </trkpt>
      <trkpt lat="46.52885" lon="4.54867">
        <ele>353.699</ele>
        <time>2022-09-23T12:50:33Z</time>
      </trkpt>
      <trkpt lat="46.52888" lon="4.54859">
        <ele>355.399</ele>
        <time>2022-09-23T12:50:39Z</time>
      </trkpt>
      <trkpt lat="46.5289" lon="4.5485">
        <ele>356.999</ele>
        <time>2022-09-23T12:50:45Z</time>
      </trkpt>
      <trkpt lat="46.52892" lon="4.5484">
        <ele>360.499</ele>
        <time>2022-09-23T12:50:51Z</time>
      </trkpt>
      <trkpt lat="46.52894" lon="4.5483">
        <ele>362.799</ele>
        <time>2022-09-23T12:50:57Z</time>
      </trkpt>
      <trkpt lat="46.52895" lon="4.54819">
        <ele>362.799</ele>
        <time>2022-09-23T12:51:03Z</time>
      </trkpt>
      <trkpt lat="46.52897" lon="4.54809">
        <ele>362.199</ele>
        <time>2022-09-23T12:51:09Z</time>
      </trkpt>
      <trkpt lat="46.52899" lon="4.54799">
        <ele>360.699</ele>
        <time>2022-09-23T12:51:15Z</time>
      </trkpt>
      <trkpt lat="46.529" lon="4.54789">
        <ele>358.399</ele>
        <time>2022-09-23T12:51:21Z</time>
      </trkpt>
      <trkpt lat="46.52904" lon="4.54781">
        <ele>358.299</ele>
        <time>2022-09-23T12:51:27Z</time>
      </trkpt>
      <trkpt lat="46.52909" lon="4.54773">
        <ele>357.099</ele>
        <time>2022-09-23T12:51:44Z</time>
      </trkpt>
      <trkpt lat="46.52915" lon="4.54769">
        <ele>356.499</ele>
        <time>2022-09-23T12:51:54Z</time>
      </trkpt>
      <trkpt lat="46.52921" lon="4.54764">
        <ele>357.199</ele>
        <time>2022-09-23T12:52:01Z</time>
      </trkpt>
      <trkpt lat="46.52927" lon="4.5476">
        <ele>357.199</ele>
        <time>2022-09-23T12:52:07Z</time>
      </trkpt>
      <trkpt lat="46.52933" lon="4.54755">
        <ele>355.999</ele>
        <time>2022-09-23T12:52:12Z</time>
      </trkpt>
      <trkpt lat="46.52939" lon="4.54751">
        <ele>354.399</ele>
        <time>2022-09-23T12:52:17Z</time>
      </trkpt>
      <trkpt lat="46.52945" lon="4.54746">
        <ele>353.799</ele>
        <time>2022-09-23T12:52:24Z</time>
      </trkpt>
      <trkpt lat="46.52948" lon="4.54737">
        <ele>355.399</ele>
        <time>2022-09-23T12:52:39Z</time>
      </trkpt>
      <trkpt lat="46.52951" lon="4.54729">
        <ele>358.999</ele>
        <time>2022-09-23T12:52:50Z</time>
      </trkpt>
      <trkpt lat="46.52953" lon="4.5472">
        <ele>358.999</ele>
        <time>2022-09-23T12:53:01Z</time>
      </trkpt>
      <trkpt lat="46.52955" lon="4.5471">
        <ele>357.999</ele>
        <time>2022-09-23T12:53:08Z</time>
      </trkpt>
      <trkpt lat="46.52956" lon="4.54701">
        <ele>356.899</ele>
        <time>2022-09-23T12:53:15Z</time>
      </trkpt>
      <trkpt lat="46.52956" lon="4.54691">
        <ele>356.499</ele>
        <time>2022-09-23T12:53:21Z</time>
      </trkpt>
      <trkpt lat="46.5296" lon="4.54679">
        <ele>354.499</ele>
        <time>2022-09-23T12:53:27Z</time>
      </trkpt>
      <trkpt lat="46.52961" lon="4.5467">
        <ele>354.699</ele>
        <time>2022-09-23T12:53:33Z</time>
      </trkpt>
      <trkpt lat="46.52962" lon="4.5466">
        <ele>355.599</ele>
        <time>2022-09-23T12:53:40Z</time>
      </trkpt>
      <trkpt lat="46.52963" lon="4.54649">
        <ele>353.599</ele>
        <time>2022-09-23T12:53:47Z</time>
      </trkpt>
      <trkpt lat="46.52964" lon="4.54639">
        <ele>353.899</ele>
        <time>2022-09-23T12:53:52Z</time>
      </trkpt>
      <trkpt lat="46.52965" lon="4.54629">
        <ele>353.999</ele>
        <time>2022-09-23T12:53:57Z</time>
      </trkpt>
      <trkpt lat="46.52966" lon="4.54618">
        <ele>353.499</ele>
        <time>2022-09-23T12:54:03Z</time>
      </trkpt>
      <trkpt lat="46.52968" lon="4.54608">
        <ele>353.399</ele>
        <time>2022-09-23T12:54:10Z</time>
      </trkpt>
      <trkpt lat="46.52969" lon="4.54598">
        <ele>351.999</ele>
        <time>2022-09-23T12:54:16Z</time>
      </trkpt>
      <trkpt lat="46.52969" lon="4.54588">
        <ele>352.399</ele>
        <time>2022-09-23T12:54:22Z</time>
      </trkpt>
      <trkpt lat="46.52973" lon="4.54577">
        <ele>351.799</ele>
        <time>2022-09-23T12:54:29Z</time>
      </trkpt>
      <trkpt lat="46.52978" lon="4.54567">
        <ele>352.799</ele>
        <time>2022-09-23T12:54:35Z</time>
      </trkpt>
      <trkpt lat="46.52979" lon="4.54558">
        <ele>352.799</ele>
        <time>2022-09-23T12:54:42Z</time>
      </trkpt>
      <trkpt lat="46.5298" lon="4.54548">
        <ele>352.099</ele>
        <time>2022-09-23T12:54:47Z</time>
      </trkpt>
      <trkpt lat="46.52983" lon="4.54538">
        <ele>350.399</ele>
        <time>2022-09-23T12:54:53Z</time>
      </trkpt>
      <trkpt lat="46.52987" lon="4.54529">
        <ele>346.999</ele>
        <time>2022-09-23T12:55:00Z</time>
      </trkpt>
      <trkpt lat="46.52991" lon="4.54522">
        <ele>347.099</ele>
        <time>2022-09-23T12:55:06Z</time>
      </trkpt>
      <trkpt lat="46.52995" lon="4.54512">
        <ele>347.399</ele>
        <time>2022-09-23T12:55:11Z</time>
      </trkpt>
      <trkpt lat="46.52999" lon="4.54505">
        <ele>347.999</ele>
        <time>2022-09-23T12:55:16Z</time>
      </trkpt>
      <trkpt lat="46.53002" lon="4.54495">
        <ele>347.499</ele>
        <time>2022-09-23T12:55:23Z</time>
      </trkpt>
      <trkpt lat="46.53005" lon="4.54485">
        <ele>346.899</ele>
        <time>2022-09-23T12:55:30Z</time>
      </trkpt>
      <trkpt lat="46.5301" lon="4.54478">
        <ele>346.099</ele>
        <time>2022-09-23T12:55:37Z</time>
      </trkpt>
      <trkpt lat="46.53015" lon="4.5447">
        <ele>343.499</ele>
        <time>2022-09-23T12:55:43Z</time>
      </trkpt>
      <trkpt lat="46.53018" lon="4.5446">
        <ele>343.599</ele>
        <time>2022-09-23T12:55:49Z</time>
      </trkpt>
      <trkpt lat="46.53021" lon="4.54451">
        <ele>344.299</ele>
        <time>2022-09-23T12:55:55Z</time>
      </trkpt>
      <trkpt lat="46.53023" lon="4.54441">
        <ele>343.099</ele>
        <time>2022-09-23T12:56:01Z</time>
      </trkpt>
      <trkpt lat="46.53026" lon="4.54431">
        <ele>342.699</ele>
        <time>2022-09-23T12:56:08Z</time>
      </trkpt>
      <trkpt lat="46.53028" lon="4.54422">
        <ele>341.299</ele>
        <time>2022-09-23T12:56:14Z</time>
      </trkpt>
      <trkpt lat="46.53032" lon="4.54412">
        <ele>340.699</ele>
        <time>2022-09-23T12:56:20Z</time>
      </trkpt>
      <trkpt lat="46.53037" lon="4.54404">
        <ele>338.899</ele>
        <time>2022-09-23T12:56:26Z</time>
      </trkpt>
      <trkpt lat="46.53042" lon="4.54396">
        <ele>335.599</ele>
        <time>2022-09-23T12:56:33Z</time>
      </trkpt>
      <trkpt lat="46.53047" lon="4.54389">
        <ele>333.599</ele>
        <time>2022-09-23T12:56:39Z</time>
      </trkpt>
      <trkpt lat="46.53054" lon="4.54383">
        <ele>333.999</ele>
        <time>2022-09-23T12:56:45Z</time>
      </trkpt>
      <trkpt lat="46.5306" lon="4.54379">
        <ele>335.499</ele>
        <time>2022-09-23T12:56:59Z</time>
      </trkpt>
      <trkpt lat="46.53067" lon="4.54379">
        <ele>335.999</ele>
        <time>2022-09-23T12:57:08Z</time>
      </trkpt>
      <trkpt lat="46.53074" lon="4.54381">
        <ele>335.899</ele>
        <time>2022-09-23T12:57:13Z</time>
      </trkpt>
      <trkpt lat="46.5308" lon="4.54382">
        <ele>338.599</ele>
        <time>2022-09-23T12:57:19Z</time>
      </trkpt>
      <trkpt lat="46.53087" lon="4.54385">
        <ele>339.299</ele>
        <time>2022-09-23T12:57:24Z</time>
      </trkpt>
      <trkpt lat="46.53094" lon="4.54384">
        <ele>339.899</ele>
        <time>2022-09-23T12:57:30Z</time>
      </trkpt>
      <trkpt lat="46.53101" lon="4.54382">
        <ele>338.399</ele>
        <time>2022-09-23T12:57:38Z</time>
      </trkpt>
      <trkpt lat="46.53108" lon="4.54382">
        <ele>337.099</ele>
        <time>2022-09-23T12:57:45Z</time>
      </trkpt>
      <trkpt lat="46.53114" lon="4.54384">
        <ele>336.699</ele>
        <time>2022-09-23T12:57:52Z</time>
      </trkpt>
      <trkpt lat="46.53121" lon="4.54385">
        <ele>337.099</ele>
        <time>2022-09-23T12:57:57Z</time>
      </trkpt>
      <trkpt lat="46.5313" lon="4.54389">
        <ele>336.899</ele>
        <time>2022-09-23T12:58:03Z</time>
      </trkpt>
      <trkpt lat="46.53136" lon="4.54386">
        <ele>339.899</ele>
        <time>2022-09-23T12:58:11Z</time>
      </trkpt>
      <trkpt lat="46.53143" lon="4.54387">
        <ele>338.199</ele>
        <time>2022-09-23T12:58:21Z</time>
      </trkpt>
      <trkpt lat="46.53149" lon="4.54385">
        <ele>337.099</ele>
        <time>2022-09-23T12:58:27Z</time>
      </trkpt>
      <trkpt lat="46.53155" lon="4.54389">
        <ele>336.999</ele>
        <time>2022-09-23T12:58:32Z</time>
      </trkpt>
      <trkpt lat="46.53163" lon="4.54389">
        <ele>336.699</ele>
        <time>2022-09-23T12:58:37Z</time>
      </trkpt>
      <trkpt lat="46.53171" lon="4.54388">
        <ele>335.099</ele>
        <time>2022-09-23T12:58:43Z</time>
      </trkpt>
      <trkpt lat="46.53178" lon="4.54389">
        <ele>335.099</ele>
        <time>2022-09-23T12:58:48Z</time>
      </trkpt>
      <trkpt lat="46.53185" lon="4.54392">
        <ele>334.399</ele>
        <time>2022-09-23T12:58:55Z</time>
      </trkpt>
      <trkpt lat="46.53192" lon="4.54392">
        <ele>333.4</ele>
        <time>2022-09-23T12:59:00Z</time>
      </trkpt>
      <trkpt lat="46.532" lon="4.54393">
        <ele>332.3</ele>
        <time>2022-09-23T12:59:06Z</time>
      </trkpt>
      <trkpt lat="46.53207" lon="4.54394">
        <ele>331.1</ele>
        <time>2022-09-23T12:59:12Z</time>
      </trkpt>
      <trkpt lat="46.53214" lon="4.54395">
        <ele>330.6</ele>
        <time>2022-09-23T12:59:17Z</time>
      </trkpt>
      <trkpt lat="46.53221" lon="4.54395">
        <ele>331.3</ele>
        <time>2022-09-23T12:59:24Z</time>
      </trkpt>
      <trkpt lat="46.53228" lon="4.54395">
        <ele>329.4</ele>
        <time>2022-09-23T12:59:29Z</time>
      </trkpt>
      <trkpt lat="46.53238" lon="4.54397">
        <ele>330.3</ele>
        <time>2022-09-23T12:59:35Z</time>
      </trkpt>
      <trkpt lat="46.53245" lon="4.54397">
        <ele>328.4</ele>
        <time>2022-09-23T12:59:43Z</time>
      </trkpt>
      <trkpt lat="46.53253" lon="4.54397">
        <ele>328.4</ele>
        <time>2022-09-23T12:59:50Z</time>
      </trkpt>
      <trkpt lat="46.53261" lon="4.54397">
        <ele>331.2</ele>
        <time>2022-09-23T12:59:55Z</time>
      </trkpt>
      <trkpt lat="46.53268" lon="4.54396">
        <ele>332.8</ele>
        <time>2022-09-23T13:00:00Z</time>
      </trkpt>
      <trkpt lat="46.53275" lon="4.54396">
        <ele>333</ele>
        <time>2022-09-23T13:00:05Z</time>
      </trkpt>
      <trkpt lat="46.53282" lon="4.54395">
        <ele>333.9</ele>
        <time>2022-09-23T13:00:11Z</time>
      </trkpt>
      <trkpt lat="46.5329" lon="4.54396">
        <ele>335</ele>
        <time>2022-09-23T13:00:18Z</time>
      </trkpt>
      <trkpt lat="46.53297" lon="4.54397">
        <ele>334.7</ele>
        <time>2022-09-23T13:00:24Z</time>
      </trkpt>
      <trkpt lat="46.53306" lon="4.54397">
        <ele>333.8</ele>
        <time>2022-09-23T13:00:29Z</time>
      </trkpt>
      <trkpt lat="46.53314" lon="4.54398">
        <ele>335.4</ele>
        <time>2022-09-23T13:00:35Z</time>
      </trkpt>
      <trkpt lat="46.53322" lon="4.54399">
        <ele>335.9</ele>
        <time>2022-09-23T13:00:40Z</time>
      </trkpt>
      <trkpt lat="46.5333" lon="4.54399">
        <ele>335.7</ele>
        <time>2022-09-23T13:00:46Z</time>
      </trkpt>
      <trkpt lat="46.53337" lon="4.54401">
        <ele>336.7</ele>
        <time>2022-09-23T13:00:52Z</time>
      </trkpt>
      <trkpt lat="46.53344" lon="4.54401">
        <ele>338.2</ele>
        <time>2022-09-23T13:00:57Z</time>
      </trkpt>
      <trkpt lat="46.53351" lon="4.54399">
        <ele>339.4</ele>
        <time>2022-09-23T13:01:03Z</time>
      </trkpt>
      <trkpt lat="46.53358" lon="4.54397">
        <ele>338.4</ele>
        <time>2022-09-23T13:01:08Z</time>
      </trkpt>
      <trkpt lat="46.53365" lon="4.54396">
        <ele>337.2</ele>
        <time>2022-09-23T13:01:14Z</time>
      </trkpt>
      <trkpt lat="46.53372" lon="4.54399">
        <ele>335</ele>
        <time>2022-09-23T13:01:23Z</time>
      </trkpt>
      <trkpt lat="46.53379" lon="4.54402">
        <ele>332</ele>
        <time>2022-09-23T13:01:29Z</time>
      </trkpt>
      <trkpt lat="46.53388" lon="4.54403">
        <ele>330.1</ele>
        <time>2022-09-23T13:01:35Z</time>
      </trkpt>
      <trkpt lat="46.53395" lon="4.54402">
        <ele>327.4</ele>
        <time>2022-09-23T13:01:41Z</time>
      </trkpt>
      <trkpt lat="46.53403" lon="4.54401">
        <ele>326</ele>
        <time>2022-09-23T13:01:48Z</time>
      </trkpt>
      <trkpt lat="46.53409" lon="4.54398">
        <ele>324.6</ele>
        <time>2022-09-23T13:01:55Z</time>
      </trkpt>
      <trkpt lat="46.53415" lon="4.54398">
        <ele>324.5</ele>
        <time>2022-09-23T13:02:02Z</time>
      </trkpt>
      <trkpt lat="46.53422" lon="4.54399">
        <ele>323.4</ele>
        <time>2022-09-23T13:02:07Z</time>
      </trkpt>
      <trkpt lat="46.53429" lon="4.54399">
        <ele>323.5</ele>
        <time>2022-09-23T13:02:12Z</time>
      </trkpt>
      <trkpt lat="46.53436" lon="4.544">
        <ele>324.5</ele>
        <time>2022-09-23T13:02:18Z</time>
      </trkpt>
      <trkpt lat="46.53443" lon="4.54401">
        <ele>324.4</ele>
        <time>2022-09-23T13:02:24Z</time>
      </trkpt>
      <trkpt lat="46.5345" lon="4.54403">
        <ele>322.5</ele>
        <time>2022-09-23T13:02:30Z</time>
      </trkpt>
      <trkpt lat="46.53458" lon="4.54402">
        <ele>322.1</ele>
        <time>2022-09-23T13:02:35Z</time>
      </trkpt>
      <trkpt lat="46.53466" lon="4.54401">
        <ele>322.5</ele>
        <time>2022-09-23T13:02:42Z</time>
      </trkpt>
      <trkpt lat="46.53473" lon="4.54402">
        <ele>322.5</ele>
        <time>2022-09-23T13:02:48Z</time>
      </trkpt>
      <trkpt lat="46.53481" lon="4.54401">
        <ele>323.6</ele>
        <time>2022-09-23T13:02:54Z</time>
      </trkpt>
      <trkpt lat="46.53487" lon="4.54402">
        <ele>323.4</ele>
        <time>2022-09-23T13:02:59Z</time>
      </trkpt>
      <trkpt lat="46.53496" lon="4.54401">
        <ele>322.2</ele>
        <time>2022-09-23T13:03:04Z</time>
      </trkpt>
      <trkpt lat="46.53503" lon="4.544">
        <ele>322.7</ele>
        <time>2022-09-23T13:03:11Z</time>
      </trkpt>
      <trkpt lat="46.53509" lon="4.54402">
        <ele>322.7</ele>
        <time>2022-09-23T13:03:17Z</time>
      </trkpt>
      <trkpt lat="46.53518" lon="4.54403">
        <ele>322.8</ele>
        <time>2022-09-23T13:03:23Z</time>
      </trkpt>
      <trkpt lat="46.53525" lon="4.54402">
        <ele>323.4</ele>
        <time>2022-09-23T13:03:29Z</time>
      </trkpt>
      <trkpt lat="46.53532" lon="4.54402">
        <ele>325.6</ele>
        <time>2022-09-23T13:03:38Z</time>
      </trkpt>
      <trkpt lat="46.53539" lon="4.54402">
        <ele>325</ele>
        <time>2022-09-23T13:03:45Z</time>
      </trkpt>
      <trkpt lat="46.53547" lon="4.54402">
        <ele>324.4</ele>
        <time>2022-09-23T13:03:51Z</time>
      </trkpt>
      <trkpt lat="46.53554" lon="4.54403">
        <ele>325.1</ele>
        <time>2022-09-23T13:03:56Z</time>
      </trkpt>
      <trkpt lat="46.53561" lon="4.54402">
        <ele>325.101</ele>
        <time>2022-09-23T13:04:01Z</time>
      </trkpt>
      <trkpt lat="46.5357" lon="4.54402">
        <ele>325.001</ele>
        <time>2022-09-23T13:04:07Z</time>
      </trkpt>
      <trkpt lat="46.53578" lon="4.54404">
        <ele>325.201</ele>
        <time>2022-09-23T13:04:12Z</time>
      </trkpt>
      <trkpt lat="46.53585" lon="4.54404">
        <ele>325.501</ele>
        <time>2022-09-23T13:04:19Z</time>
      </trkpt>
      <trkpt lat="46.53592" lon="4.54403">
        <ele>326.001</ele>
        <time>2022-09-23T13:04:26Z</time>
      </trkpt>
      <trkpt lat="46.53599" lon="4.54403">
        <ele>327.001</ele>
        <time>2022-09-23T13:04:32Z</time>
      </trkpt>
      <trkpt lat="46.53606" lon="4.54403">
        <ele>327.701</ele>
        <time>2022-09-23T13:04:37Z</time>
      </trkpt>
      <trkpt lat="46.53614" lon="4.54405">
        <ele>326.701</ele>
        <time>2022-09-23T13:04:43Z</time>
      </trkpt>
      <trkpt lat="46.53622" lon="4.54406">
        <ele>326.301</ele>
        <time>2022-09-23T13:04:48Z</time>
      </trkpt>
      <trkpt lat="46.53629" lon="4.54405">
        <ele>325.801</ele>
        <time>2022-09-23T13:04:54Z</time>
      </trkpt>
      <trkpt lat="46.53635" lon="4.54408">
        <ele>324.701</ele>
        <time>2022-09-23T13:05:00Z</time>
      </trkpt>
      <trkpt lat="46.53642" lon="4.54408">
        <ele>323.301</ele>
        <time>2022-09-23T13:05:06Z</time>
      </trkpt>
      <trkpt lat="46.5365" lon="4.54408">
        <ele>323.001</ele>
        <time>2022-09-23T13:05:13Z</time>
      </trkpt>
      <trkpt lat="46.53659" lon="4.54406">
        <ele>320.901</ele>
        <time>2022-09-23T13:05:19Z</time>
      </trkpt>
      <trkpt lat="46.53666" lon="4.54402">
        <ele>320.001</ele>
        <time>2022-09-23T13:05:25Z</time>
      </trkpt>
      <trkpt lat="46.53672" lon="4.54394">
        <ele>320.601</ele>
        <time>2022-09-23T13:06:32Z</time>
      </trkpt>
      <trkpt lat="46.5367" lon="4.54405">
        <ele>325.701</ele>
        <time>2022-09-23T13:06:56Z</time>
      </trkpt>
      <trkpt lat="46.53672" lon="4.54414">
        <ele>326.201</ele>
        <time>2022-09-23T13:07:02Z</time>
      </trkpt>
      <trkpt lat="46.53674" lon="4.54406">
        <ele>323.301</ele>
        <time>2022-09-23T13:07:27Z</time>
      </trkpt>
      <trkpt lat="46.53676" lon="4.54396">
        <ele>320.601</ele>
        <time>2022-09-23T13:07:34Z</time>
      </trkpt>
      <trkpt lat="46.53681" lon="4.54387">
        <ele>317.401</ele>
        <time>2022-09-23T13:07:40Z</time>
      </trkpt>
      <trkpt lat="46.53684" lon="4.54379">
        <ele>312.201</ele>
        <time>2022-09-23T13:07:48Z</time>
      </trkpt>
      <trkpt lat="46.53685" lon="4.54369">
        <ele>306.301</ele>
        <time>2022-09-23T13:07:57Z</time>
      </trkpt>
      <trkpt lat="46.53686" lon="4.54358">
        <ele>308.101</ele>
        <time>2022-09-23T13:08:03Z</time>
      </trkpt>
      <trkpt lat="46.53686" lon="4.54348">
        <ele>305.301</ele>
        <time>2022-09-23T13:08:09Z</time>
      </trkpt>
      <trkpt lat="46.53687" lon="4.54338">
        <ele>300.401</ele>
        <time>2022-09-23T13:08:17Z</time>
      </trkpt>
      <trkpt lat="46.53687" lon="4.54325">
        <ele>301.801</ele>
        <time>2022-09-23T13:08:23Z</time>
      </trkpt>
      <trkpt lat="46.53693" lon="4.54318">
        <ele>302.901</ele>
        <time>2022-09-23T13:08:29Z</time>
      </trkpt>
      <trkpt lat="46.53699" lon="4.54309">
        <ele>305.201</ele>
        <time>2022-09-23T13:08:35Z</time>
      </trkpt>
      <trkpt lat="46.53705" lon="4.54305">
        <ele>306.001</ele>
        <time>2022-09-23T13:08:41Z</time>
      </trkpt>
      <trkpt lat="46.53711" lon="4.54299">
        <ele>305.001</ele>
        <time>2022-09-23T13:08:47Z</time>
      </trkpt>
      <trkpt lat="46.53715" lon="4.54291">
        <ele>303.501</ele>
        <time>2022-09-23T13:08:53Z</time>
      </trkpt>
      <trkpt lat="46.53716" lon="4.54281">
        <ele>301.501</ele>
        <time>2022-09-23T13:08:59Z</time>
      </trkpt>
      <trkpt lat="46.5372" lon="4.54272">
        <ele>300.501</ele>
        <time>2022-09-23T13:09:06Z</time>
      </trkpt>
      <trkpt lat="46.53725" lon="4.54265">
        <ele>299.501</ele>
        <time>2022-09-23T13:09:11Z</time>
      </trkpt>
      <trkpt lat="46.53729" lon="4.54257">
        <ele>299.101</ele>
        <time>2022-09-23T13:09:18Z</time>
      </trkpt>
      <trkpt lat="46.53731" lon="4.54247">
        <ele>297.301</ele>
        <time>2022-09-23T13:09:26Z</time>
      </trkpt>
      <trkpt lat="46.53737" lon="4.54241">
        <ele>295.701</ele>
        <time>2022-09-23T13:09:34Z</time>
      </trkpt>
      <trkpt lat="46.53742" lon="4.54235">
        <ele>295.101</ele>
        <time>2022-09-23T13:09:41Z</time>
      </trkpt>
      <trkpt lat="46.53746" lon="4.54225">
        <ele>293.801</ele>
        <time>2022-09-23T13:09:49Z</time>
      </trkpt>
      <trkpt lat="46.53747" lon="4.54215">
        <ele>292.101</ele>
        <time>2022-09-23T13:09:57Z</time>
      </trkpt>
      <trkpt lat="46.53745" lon="4.54205">
        <ele>289.601</ele>
        <time>2022-09-23T13:10:07Z</time>
      </trkpt>
      <trkpt lat="46.53746" lon="4.54194">
        <ele>291.201</ele>
        <time>2022-09-23T13:10:15Z</time>
      </trkpt>
      <trkpt lat="46.53746" lon="4.54183">
        <ele>294.001</ele>
        <time>2022-09-23T13:10:20Z</time>
      </trkpt>
      <trkpt lat="46.53748" lon="4.54174">
        <ele>295.901</ele>
        <time>2022-09-23T13:10:25Z</time>
      </trkpt>
      <trkpt lat="46.53745" lon="4.54163">
        <ele>296.701</ele>
        <time>2022-09-23T13:10:32Z</time>
      </trkpt>
      <trkpt lat="46.53743" lon="4.54153">
        <ele>296.301</ele>
        <time>2022-09-23T13:10:39Z</time>
      </trkpt>
      <trkpt lat="46.53742" lon="4.54143">
        <ele>295.101</ele>
        <time>2022-09-23T13:10:45Z</time>
      </trkpt>
      <trkpt lat="46.5374" lon="4.54134">
        <ele>292.801</ele>
        <time>2022-09-23T13:10:53Z</time>
      </trkpt>
      <trkpt lat="46.5374" lon="4.54124">
        <ele>293.201</ele>
        <time>2022-09-23T13:10:59Z</time>
      </trkpt>
      <trkpt lat="46.53743" lon="4.54114">
        <ele>291.701</ele>
        <time>2022-09-23T13:11:06Z</time>
      </trkpt>
      <trkpt lat="46.53745" lon="4.54104">
        <ele>289.401</ele>
        <time>2022-09-23T13:11:12Z</time>
      </trkpt>
      <trkpt lat="46.53746" lon="4.54095">
        <ele>287.301</ele>
        <time>2022-09-23T13:11:18Z</time>
      </trkpt>
      <trkpt lat="46.53746" lon="4.54084">
        <ele>284.101</ele>
        <time>2022-09-23T13:11:25Z</time>
      </trkpt>
      <trkpt lat="46.53747" lon="4.54073">
        <ele>280.801</ele>
        <time>2022-09-23T13:11:32Z</time>
      </trkpt>
      <trkpt lat="46.53746" lon="4.54063">
        <ele>277.701</ele>
        <time>2022-09-23T13:11:41Z</time>
      </trkpt>
      <trkpt lat="46.53745" lon="4.54051">
        <ele>276.901</ele>
        <time>2022-09-23T13:11:53Z</time>
      </trkpt>
      <trkpt lat="46.53743" lon="4.54042">
        <ele>275.701</ele>
        <time>2022-09-23T13:11:59Z</time>
      </trkpt>
      <trkpt lat="46.53742" lon="4.54032">
        <ele>273.701</ele>
        <time>2022-09-23T13:12:05Z</time>
      </trkpt>
      <trkpt lat="46.5374" lon="4.54022">
        <ele>272.401</ele>
        <time>2022-09-23T13:12:11Z</time>
      </trkpt>
      <trkpt lat="46.53737" lon="4.54013">
        <ele>270.701</ele>
        <time>2022-09-23T13:12:18Z</time>
      </trkpt>
      <trkpt lat="46.53734" lon="4.54003">
        <ele>268.601</ele>
        <time>2022-09-23T13:12:25Z</time>
      </trkpt>
      <trkpt lat="46.53731" lon="4.53993">
        <ele>268.301</ele>
        <time>2022-09-23T13:12:32Z</time>
      </trkpt>
      <trkpt lat="46.53729" lon="4.53983">
        <ele>265.601</ele>
        <time>2022-09-23T13:12:40Z</time>
      </trkpt>
      <trkpt lat="46.53728" lon="4.53969">
        <ele>263.701</ele>
        <time>2022-09-23T13:13:27Z</time>
      </trkpt>
      <trkpt lat="46.53731" lon="4.53959">
        <ele>265.201</ele>
        <time>2022-09-23T13:13:35Z</time>
      </trkpt>
      <trkpt lat="46.53734" lon="4.5395">
        <ele>266.201</ele>
        <time>2022-09-23T13:13:44Z</time>
      </trkpt>
      <trkpt lat="46.53734" lon="4.5394">
        <ele>268.301</ele>
        <time>2022-09-23T13:13:50Z</time>
      </trkpt>
      <trkpt lat="46.53734" lon="4.5393">
        <ele>268.201</ele>
        <time>2022-09-23T13:13:58Z</time>
      </trkpt>
      <trkpt lat="46.53732" lon="4.5392">
        <ele>268.101</ele>
        <time>2022-09-23T13:14:06Z</time>
      </trkpt>
      <trkpt lat="46.53731" lon="4.5391">
        <ele>266.701</ele>
        <time>2022-09-23T13:14:12Z</time>
      </trkpt>
      <trkpt lat="46.5373" lon="4.539">
        <ele>264.501</ele>
        <time>2022-09-23T13:14:21Z</time>
      </trkpt>
      <trkpt lat="46.53731" lon="4.53891">
        <ele>262.201</ele>
        <time>2022-09-23T13:14:29Z</time>
      </trkpt>
      <trkpt lat="46.5373" lon="4.5388">
        <ele>260.401</ele>
        <time>2022-09-23T13:14:38Z</time>
      </trkpt>
      <trkpt lat="46.5373" lon="4.5387">
        <ele>257.501</ele>
        <time>2022-09-23T13:14:44Z</time>
      </trkpt>
      <trkpt lat="46.5373" lon="4.5386">
        <ele>254.901</ele>
        <time>2022-09-23T13:14:51Z</time>
      </trkpt>
      <trkpt lat="46.53731" lon="4.5385">
        <ele>251.301</ele>
        <time>2022-09-23T13:14:59Z</time>
      </trkpt>
      <trkpt lat="46.53733" lon="4.53839">
        <ele>248.501</ele>
        <time>2022-09-23T13:15:05Z</time>
      </trkpt>
      <trkpt lat="46.53735" lon="4.5383">
        <ele>245.201</ele>
        <time>2022-09-23T13:15:11Z</time>
      </trkpt>
      <trkpt lat="46.53736" lon="4.5382">
        <ele>243.001</ele>
        <time>2022-09-23T13:15:20Z</time>
      </trkpt>
      <trkpt lat="46.53735" lon="4.53811">
        <ele>245.701</ele>
        <time>2022-09-23T13:15:34Z</time>
      </trkpt>
      <trkpt lat="46.53731" lon="4.53802">
        <ele>246.901</ele>
        <time>2022-09-23T13:15:41Z</time>
      </trkpt>
      <trkpt lat="46.53727" lon="4.53792">
        <ele>246.101</ele>
        <time>2022-09-23T13:15:47Z</time>
      </trkpt>
      <trkpt lat="46.53723" lon="4.53783">
        <ele>246.701</ele>
        <time>2022-09-23T13:15:54Z</time>
      </trkpt>
      <trkpt lat="46.53721" lon="4.53774">
        <ele>245.4</ele>
        <time>2022-09-23T13:15:59Z</time>
      </trkpt>
      <trkpt lat="46.53719" lon="4.53763">
        <ele>244.1</ele>
        <time>2022-09-23T13:16:05Z</time>
      </trkpt>
      <trkpt lat="46.53717" lon="4.53753">
        <ele>242.9</ele>
        <time>2022-09-23T13:16:13Z</time>
      </trkpt>
      <trkpt lat="46.53723" lon="4.53748">
        <ele>241.2</ele>
        <time>2022-09-23T13:16:20Z</time>
      </trkpt>
      <trkpt lat="46.53726" lon="4.53739">
        <ele>239.3</ele>
        <time>2022-09-23T13:16:25Z</time>
      </trkpt>
      <trkpt lat="46.53728" lon="4.53729">
        <ele>237</ele>
        <time>2022-09-23T13:16:32Z</time>
      </trkpt>
      <trkpt lat="46.53729" lon="4.53719">
        <ele>235.5</ele>
        <time>2022-09-23T13:16:37Z</time>
      </trkpt>
      <trkpt lat="46.53732" lon="4.53709">
        <ele>235.2</ele>
        <time>2022-09-23T13:16:44Z</time>
      </trkpt>
      <trkpt lat="46.53737" lon="4.53703">
        <ele>235.4</ele>
        <time>2022-09-23T13:16:49Z</time>
      </trkpt>
      <trkpt lat="46.53742" lon="4.53697">
        <ele>231.7</ele>
        <time>2022-09-23T13:16:59Z</time>
      </trkpt>
      <trkpt lat="46.53747" lon="4.5369">
        <ele>231.201</ele>
        <time>2022-09-23T13:17:05Z</time>
      </trkpt>
      <trkpt lat="46.53754" lon="4.53684">
        <ele>233.901</ele>
        <time>2022-09-23T13:17:11Z</time>
      </trkpt>
      <trkpt lat="46.53759" lon="4.53678">
        <ele>234.801</ele>
        <time>2022-09-23T13:17:18Z</time>
      </trkpt>
      <trkpt lat="46.53765" lon="4.53672">
        <ele>233.601</ele>
        <time>2022-09-23T13:17:25Z</time>
      </trkpt>
      <trkpt lat="46.53771" lon="4.53666">
        <ele>233.201</ele>
        <time>2022-09-23T13:17:31Z</time>
      </trkpt>
      <trkpt lat="46.53778" lon="4.5366">
        <ele>234.101</ele>
        <time>2022-09-23T13:17:36Z</time>
      </trkpt>
      <trkpt lat="46.53783" lon="4.53653">
        <ele>233.801</ele>
        <time>2022-09-23T13:17:43Z</time>
      </trkpt>
      <trkpt lat="46.53788" lon="4.53647">
        <ele>232.901</ele>
        <time>2022-09-23T13:17:48Z</time>
      </trkpt>
      <trkpt lat="46.53792" lon="4.53637">
        <ele>230.901</ele>
        <time>2022-09-23T13:17:55Z</time>
      </trkpt>
      <trkpt lat="46.53795" lon="4.53628">
        <ele>229.001</ele>
        <time>2022-09-23T13:18:01Z</time>
      </trkpt>
      <trkpt lat="46.53795" lon="4.53618">
        <ele>228.401</ele>
        <time>2022-09-23T13:18:07Z</time>
      </trkpt>
      <trkpt lat="46.53797" lon="4.53608">
        <ele>228.701</ele>
        <time>2022-09-23T13:18:12Z</time>
      </trkpt>
      <trkpt lat="46.53801" lon="4.53599">
        <ele>227.701</ele>
        <time>2022-09-23T13:18:17Z</time>
      </trkpt>
      <trkpt lat="46.53804" lon="4.5359">
        <ele>227.601</ele>
        <time>2022-09-23T13:18:23Z</time>
      </trkpt>
      <trkpt lat="46.53808" lon="4.53582">
        <ele>227.701</ele>
        <time>2022-09-23T13:18:29Z</time>
      </trkpt>
      <trkpt lat="46.53816" lon="4.53578">
        <ele>229.201</ele>
        <time>2022-09-23T13:18:36Z</time>
      </trkpt>
      <trkpt lat="46.53824" lon="4.53577">
        <ele>231.401</ele>
        <time>2022-09-23T13:18:41Z</time>
      </trkpt>
      <trkpt lat="46.53832" lon="4.53578">
        <ele>233.401</ele>
        <time>2022-09-23T13:18:47Z</time>
      </trkpt>
      <trkpt lat="46.53838" lon="4.53579">
        <ele>234.001</ele>
        <time>2022-09-23T13:18:53Z</time>
      </trkpt>
      <trkpt lat="46.53845" lon="4.53581">
        <ele>233.201</ele>
        <time>2022-09-23T13:18:59Z</time>
      </trkpt>
      <trkpt lat="46.53852" lon="4.53579">
        <ele>231.501</ele>
        <time>2022-09-23T13:19:07Z</time>
      </trkpt>
      <trkpt lat="46.53859" lon="4.53577">
        <ele>230.501</ele>
        <time>2022-09-23T13:19:13Z</time>
      </trkpt>
      <trkpt lat="46.53865" lon="4.53573">
        <ele>229.701</ele>
        <time>2022-09-23T13:19:18Z</time>
      </trkpt>
      <trkpt lat="46.5387" lon="4.53566">
        <ele>227.801</ele>
        <time>2022-09-23T13:19:24Z</time>
      </trkpt>
      <trkpt lat="46.53876" lon="4.53559">
        <ele>227.101</ele>
        <time>2022-09-23T13:19:30Z</time>
      </trkpt>
      <trkpt lat="46.53882" lon="4.53557">
        <ele>223.201</ele>
        <time>2022-09-23T13:19:36Z</time>
      </trkpt>
      <trkpt lat="46.5389" lon="4.53553">
        <ele>223.501</ele>
        <time>2022-09-23T13:19:41Z</time>
      </trkpt>
      <trkpt lat="46.53896" lon="4.53547">
        <ele>222.901</ele>
        <time>2022-09-23T13:19:47Z</time>
      </trkpt>
      <trkpt lat="46.53901" lon="4.53541">
        <ele>223.801</ele>
        <time>2022-09-23T13:19:52Z</time>
      </trkpt>
      <trkpt lat="46.53908" lon="4.53536">
        <ele>223.401</ele>
        <time>2022-09-23T13:19:59Z</time>
      </trkpt>
      <trkpt lat="46.53915" lon="4.53531">
        <ele>222.701</ele>
        <time>2022-09-23T13:20:06Z</time>
      </trkpt>
      <trkpt lat="46.53922" lon="4.53528">
        <ele>225.401</ele>
        <time>2022-09-23T13:20:12Z</time>
      </trkpt>
      <trkpt lat="46.53929" lon="4.53526">
        <ele>226.601</ele>
        <time>2022-09-23T13:20:17Z</time>
      </trkpt>
      <trkpt lat="46.53936" lon="4.53526">
        <ele>228.101</ele>
        <time>2022-09-23T13:20:23Z</time>
      </trkpt>
      <trkpt lat="46.53942" lon="4.53522">
        <ele>226.701</ele>
        <time>2022-09-23T13:20:29Z</time>
      </trkpt>
      <trkpt lat="46.53947" lon="4.53514">
        <ele>226.701</ele>
        <time>2022-09-23T13:20:46Z</time>
      </trkpt>
      <trkpt lat="46.53949" lon="4.53505">
        <ele>228.601</ele>
        <time>2022-09-23T13:20:53Z</time>
      </trkpt>
      <trkpt lat="46.53951" lon="4.53494">
        <ele>227.701</ele>
        <time>2022-09-23T13:21:02Z</time>
      </trkpt>
      <trkpt lat="46.53955" lon="4.53485">
        <ele>227.201</ele>
        <time>2022-09-23T13:21:09Z</time>
      </trkpt>
      <trkpt lat="46.53957" lon="4.53476">
        <ele>229.301</ele>
        <time>2022-09-23T13:21:21Z</time>
      </trkpt>
      <trkpt lat="46.53959" lon="4.53467">
        <ele>230.801</ele>
        <time>2022-09-23T13:21:28Z</time>
      </trkpt>
      <trkpt lat="46.53963" lon="4.53459">
        <ele>230.801</ele>
        <time>2022-09-23T13:21:34Z</time>
      </trkpt>
      <trkpt lat="46.53966" lon="4.53451">
        <ele>230.501</ele>
        <time>2022-09-23T13:21:41Z</time>
      </trkpt>
      <trkpt lat="46.53964" lon="4.53441">
        <ele>228.801</ele>
        <time>2022-09-23T13:21:55Z</time>
      </trkpt>
      <trkpt lat="46.53958" lon="4.53437">
        <ele>228.001</ele>
        <time>2022-09-23T13:22:05Z</time>
      </trkpt>
      <trkpt lat="46.53952" lon="4.53432">
        <ele>231.401</ele>
        <time>2022-09-23T13:22:14Z</time>
      </trkpt>
      <trkpt lat="46.53946" lon="4.53427">
        <ele>234.301</ele>
        <time>2022-09-23T13:22:21Z</time>
      </trkpt>
      <trkpt lat="46.53939" lon="4.53423">
        <ele>234.601</ele>
        <time>2022-09-23T13:22:28Z</time>
      </trkpt>
      <trkpt lat="46.53933" lon="4.5342">
        <ele>236.401</ele>
        <time>2022-09-23T13:22:35Z</time>
      </trkpt>
      <trkpt lat="46.53926" lon="4.53416">
        <ele>237.801</ele>
        <time>2022-09-23T13:22:41Z</time>
      </trkpt>
      <trkpt lat="46.53919" lon="4.53414">
        <ele>238.101</ele>
        <time>2022-09-23T13:22:49Z</time>
      </trkpt>
      <trkpt lat="46.53912" lon="4.53411">
        <ele>237.501</ele>
        <time>2022-09-23T13:22:55Z</time>
      </trkpt>
      <trkpt lat="46.53906" lon="4.5341">
        <ele>236.701</ele>
        <time>2022-09-23T13:23:01Z</time>
      </trkpt>
      <trkpt lat="46.53899" lon="4.53408">
        <ele>235.601</ele>
        <time>2022-09-23T13:23:07Z</time>
      </trkpt>
      <trkpt lat="46.53892" lon="4.53406">
        <ele>236.701</ele>
        <time>2022-09-23T13:23:13Z</time>
      </trkpt>
      <trkpt lat="46.53885" lon="4.53401">
        <ele>238.401</ele>
        <time>2022-09-23T13:23:18Z</time>
      </trkpt>
      <trkpt lat="46.53879" lon="4.53398">
        <ele>239.201</ele>
        <time>2022-09-23T13:23:23Z</time>
      </trkpt>
      <trkpt lat="46.53872" lon="4.53396">
        <ele>239.001</ele>
        <time>2022-09-23T13:23:29Z</time>
      </trkpt>
      <trkpt lat="46.53865" lon="4.53393">
        <ele>239.901</ele>
        <time>2022-09-23T13:23:36Z</time>
      </trkpt>
      <trkpt lat="46.53859" lon="4.53388">
        <ele>241.001</ele>
        <time>2022-09-23T13:23:42Z</time>
      </trkpt>
      <trkpt lat="46.53852" lon="4.53384">
        <ele>241.901</ele>
        <time>2022-09-23T13:23:49Z</time>
      </trkpt>
      <trkpt lat="46.53846" lon="4.53381">
        <ele>242.901</ele>
        <time>2022-09-23T13:23:55Z</time>
      </trkpt>
      <trkpt lat="46.53839" lon="4.53377">
        <ele>244.001</ele>
        <time>2022-09-23T13:24:01Z</time>
      </trkpt>
      <trkpt lat="46.53832" lon="4.53371">
        <ele>244.601</ele>
        <time>2022-09-23T13:24:07Z</time>
      </trkpt>
      <trkpt lat="46.53824" lon="4.53366">
        <ele>243.9</ele>
        <time>2022-09-23T13:24:13Z</time>
      </trkpt>
      <trkpt lat="46.53818" lon="4.53361">
        <ele>244.8</ele>
        <time>2022-09-23T13:24:19Z</time>
      </trkpt>
      <trkpt lat="46.53812" lon="4.53356">
        <ele>244.8</ele>
        <time>2022-09-23T13:24:25Z</time>
      </trkpt>
      <trkpt lat="46.53806" lon="4.5335">
        <ele>246.2</ele>
        <time>2022-09-23T13:24:31Z</time>
      </trkpt>
      <trkpt lat="46.53799" lon="4.53346">
        <ele>246.2</ele>
        <time>2022-09-23T13:24:39Z</time>
      </trkpt>
      <trkpt lat="46.53792" lon="4.5334">
        <ele>246.5</ele>
        <time>2022-09-23T13:24:46Z</time>
      </trkpt>
      <trkpt lat="46.53786" lon="4.53338">
        <ele>245.4</ele>
        <time>2022-09-23T13:24:52Z</time>
      </trkpt>
      <trkpt lat="46.5378" lon="4.53334">
        <ele>244.8</ele>
        <time>2022-09-23T13:24:57Z</time>
      </trkpt>
      <trkpt lat="46.53773" lon="4.53335">
        <ele>243.4</ele>
        <time>2022-09-23T13:25:03Z</time>
      </trkpt>
      <trkpt lat="46.53771" lon="4.53345">
        <ele>243.6</ele>
        <time>2022-09-23T13:25:11Z</time>
      </trkpt>
      <trkpt lat="46.53774" lon="4.53354">
        <ele>244.2</ele>
        <time>2022-09-23T13:25:19Z</time>
      </trkpt>
      <trkpt lat="46.53775" lon="4.53364">
        <ele>245.4</ele>
        <time>2022-09-23T13:25:25Z</time>
      </trkpt>
      <trkpt lat="46.5378" lon="4.53371">
        <ele>248.1</ele>
        <time>2022-09-23T13:25:32Z</time>
      </trkpt>
      <trkpt lat="46.53781" lon="4.5336">
        <ele>250.2</ele>
        <time>2022-09-23T13:25:47Z</time>
      </trkpt>
      <trkpt lat="46.53777" lon="4.53369">
        <ele>254.8</ele>
        <time>2022-09-23T13:25:59Z</time>
      </trkpt>
      <trkpt lat="46.53784" lon="4.53365">
        <ele>253.3</ele>
        <time>2022-09-23T13:26:06Z</time>
      </trkpt>
      <trkpt lat="46.53783" lon="4.53375">
        <ele>244</ele>
        <time>2022-09-23T13:27:06Z</time>
      </trkpt>
      <trkpt lat="46.53786" lon="4.53385">
        <ele>245.9</ele>
        <time>2022-09-23T13:27:17Z</time>
      </trkpt>
      <trkpt lat="46.53788" lon="4.53375">
        <ele>254.6</ele>
        <time>2022-09-23T13:27:37Z</time>
      </trkpt>
      <trkpt lat="46.53794" lon="4.53381">
        <ele>250.4</ele>
        <time>2022-09-23T13:27:51Z</time>
      </trkpt>
      <trkpt lat="46.53791" lon="4.53394">
        <ele>250.2</ele>
        <time>2022-09-23T13:27:57Z</time>
      </trkpt>
      <trkpt lat="46.53788" lon="4.53385">
        <ele>244.4</ele>
        <time>2022-09-23T13:28:34Z</time>
      </trkpt>
      <trkpt lat="46.53781" lon="4.53378">
        <ele>252.8</ele>
        <time>2022-09-23T13:29:13Z</time>
      </trkpt>
      <trkpt lat="46.53781" lon="4.53388">
        <ele>258.5</ele>
        <time>2022-09-23T13:30:31Z</time>
      </trkpt>
      <trkpt lat="46.53786" lon="4.53382">
        <ele>255.8</ele>
        <time>2022-09-23T13:31:33Z</time>
      </trkpt>
      <trkpt lat="46.53789" lon="4.53391">
        <ele>251.6</ele>
        <time>2022-09-23T13:32:08Z</time>
      </trkpt>
      <trkpt lat="46.53784" lon="4.53404">
        <ele>255.4</ele>
        <time>2022-09-23T13:32:13Z</time>
      </trkpt>
      <trkpt lat="46.53787" lon="4.53395">
        <ele>258.4</ele>
        <time>2022-09-23T13:32:30Z</time>
      </trkpt>
      <trkpt lat="46.53782" lon="4.53384">
        <ele>262.3</ele>
        <time>2022-09-23T13:33:01Z</time>
      </trkpt>
      <trkpt lat="46.53783" lon="4.53374">
        <ele>259.6</ele>
        <time>2022-09-23T13:33:50Z</time>
      </trkpt>
      <trkpt lat="46.53791" lon="4.53364">
        <ele>257</ele>
        <time>2022-09-23T13:34:12Z</time>
      </trkpt>
      <trkpt lat="46.53786" lon="4.53376">
        <ele>256.5</ele>
        <time>2022-09-23T13:34:34Z</time>
      </trkpt>
      <trkpt lat="46.53779" lon="4.53379">
        <ele>250</ele>
        <time>2022-09-23T13:35:15Z</time>
      </trkpt>
      <trkpt lat="46.53788" lon="4.53374">
        <ele>247.4</ele>
        <time>2022-09-23T13:35:36Z</time>
      </trkpt>
      <trkpt lat="46.5378" lon="4.53375">
        <ele>247.5</ele>
        <time>2022-09-23T13:36:41Z</time>
      </trkpt>
      <trkpt lat="46.53774" lon="4.53375">
        <ele>241.8</ele>
        <time>2022-09-23T13:36:48Z</time>
      </trkpt>
      <trkpt lat="46.53786" lon="4.53371">
        <ele>244.6</ele>
        <time>2022-09-23T13:37:52Z</time>
      </trkpt>
    </trkseg>
  </trk>
</gpx>